Wetterdaten: Montag, 10.07.2017
Datum Zeit Temp. A. Temp. A. max Feuchte A. Luftdruck Regen Wind Richtung Richtung Sonnenschein ET UV Solar Taupunkt Windchill Windböen
10.07.2017 00:00 15,2 °C 15,2 °C 94 % 1009,1 hPa 0,0 mm 2,4 km/h (1 Bft) W 259 ° 0 min 0,000 mm 0,0 UV-I 0 W/m² 14,2 °C 15,2 °C 3,2 km/h (1 Bft)
10.07.2017 00:01 15,2 °C 15,2 °C 94 % 1009,1 hPa 0,0 mm 2,4 km/h (1 Bft) W 259 ° 0 min 0,000 mm 0,0 UV-I 0 W/m² 14,2 °C 15,2 °C 3,2 km/h (1 Bft)
10.07.2017 00:03 15,3 °C 15,3 °C 93 % 1009,0 hPa 0,0 mm 4,4 km/h (1 Bft) S-SW 200 ° 0 min 0,000 mm 0,0 UV-I 0 W/m² 14,2 °C 15,3 °C 8,0 km/h (2 Bft)
10.07.2017 00:04 15,3 °C 15,3 °C 93 % 1009,0 hPa 0,0 mm 4,1 km/h (1 Bft) S 173 ° 0 min 0,000 mm 0,0 UV-I 0 W/m² 14,2 °C 15,3 °C 8,0 km/h (2 Bft)
10.07.2017 00:05 15,3 °C 15,3 °C 93 % 1009,0 hPa 0,0 mm 0,8 km/h (0 Bft) S 173 ° 0 min 0,000 mm 0,0 UV-I 0 W/m² 14,2 °C 15,3 °C 3,2 km/h (1 Bft)
10.07.2017 00:06 15,3 °C 15,3 °C 93 % 1009,0 hPa 0,0 mm 2,5 km/h (1 Bft) S 178 ° 0 min 0,000 mm 0,0 UV-I 0 W/m² 14,2 °C 15,3 °C 4,8 km/h (1 Bft)
10.07.2017 00:07 15,3 °C 15,4 °C 93 % 1009,0 hPa 0,0 mm 1,9 km/h (1 Bft) S-SW 196 ° 0 min 0,000 mm 0,0 UV-I 0 W/m² 14,2 °C 15,3 °C 3,2 km/h (1 Bft)
10.07.2017 00:08 15,4 °C 15,4 °C 93 % 1009,0 hPa 0,0 mm 1,7 km/h (1 Bft) S-SW 196 ° 0 min 0,000 mm 0,0 UV-I 0 W/m² 14,3 °C 15,4 °C 3,2 km/h (1 Bft)
10.07.2017 00:09 15,4 °C 15,4 °C 93 % 1008,9 hPa 0,0 mm 2,9 km/h (1 Bft) S-SW 208 ° 0 min 0,000 mm 0,0 UV-I 0 W/m² 14,3 °C 15,4 °C 4,8 km/h (1 Bft)
10.07.2017 00:10 15,5 °C 15,5 °C 93 % 1008,9 hPa 0,0 mm 2,7 km/h (1 Bft) S-SW 192 ° 0 min 0,000 mm 0,0 UV-I 0 W/m² 14,4 °C 15,5 °C 6,4 km/h (2 Bft)
10.07.2017 00:11 15,6 °C 15,6 °C 92 % 1009,0 hPa 0,0 mm 7,1 km/h (2 Bft) S-SW 192 ° 0 min 0,000 mm 0,0 UV-I 0 W/m² 14,3 °C 15,6 °C 8,0 km/h (2 Bft)
10.07.2017 00:12 15,6 °C 15,6 °C 92 % 1009,0 hPa 0,0 mm 6,8 km/h (2 Bft) S 180 ° 0 min 0,000 mm 0,0 UV-I 0 W/m² 14,3 °C 15,6 °C 9,7 km/h (2 Bft)
10.07.2017 00:13 15,7 °C 15,7 °C 92 % 1009,0 hPa 0,0 mm 6,0 km/h (2 Bft) S 188 ° 0 min 0,000 mm 0,0 UV-I 0 W/m² 14,4 °C 15,7 °C 9,7 km/h (2 Bft)
10.07.2017 00:14 15,7 °C 15,7 °C 92 % 1009,0 hPa 0,0 mm 4,2 km/h (1 Bft) S-SW 193 ° 0 min 0,000 mm 0,0 UV-I 0 W/m² 14,4 °C 15,7 °C 8,0 km/h (2 Bft)
10.07.2017 00:15 15,7 °C 15,7 °C 92 % 1009,0 hPa 0,0 mm 3,4 km/h (1 Bft) S-SW 195 ° 0 min 0,000 mm 0,0 UV-I 0 W/m² 14,4 °C 15,7 °C 6,4 km/h (2 Bft)
10.07.2017 00:16 15,7 °C 15,8 °C 92 % 1009,0 hPa 0,0 mm 1,7 km/h (1 Bft) S-SW 192 ° 0 min 0,000 mm 0,0 UV-I 0 W/m² 14,4 °C 15,7 °C 3,2 km/h (1 Bft)
10.07.2017 00:17 15,7 °C 15,7 °C 91 % 1009,0 hPa 0,0 mm 0,5 km/h (0 Bft) S-SW 192 ° 0 min 0,000 mm 0,0 UV-I 0 W/m² 14,2 °C 15,7 °C 1,6 km/h (1 Bft)
10.07.2017 00:18 15,7 °C 15,7 °C 91 % 1008,9 hPa 0,0 mm 0,0 km/h (0 Bft) S-SW 192 ° 0 min 0,000 mm 0,0 UV-I 0 W/m² 14,2 °C 15,7 °C 0,0 km/h (0 Bft)
10.07.2017 00:19 15,7 °C 15,7 °C 91 % 1008,9 hPa 0,0 mm 1,2 km/h (1 Bft) S-SW 192 ° 0 min 0,000 mm 0,0 UV-I 0 W/m² 14,2 °C 15,7 °C 3,2 km/h (1 Bft)
10.07.2017 00:20 15,7 °C 15,7 °C 91 % 1009,0 hPa 0,0 mm 0,0 km/h (0 Bft) S-SW 193 ° 0 min 0,000 mm 0,0 UV-I 0 W/m² 14,2 °C 15,7 °C 0,0 km/h (0 Bft)
10.07.2017 00:21 15,7 °C 15,7 °C 91 % 1009,0 hPa 0,0 mm 0,1 km/h (0 Bft) S 171 ° 0 min 0,000 mm 0,0 UV-I 0 W/m² 14,2 °C 15,7 °C 1,6 km/h (1 Bft)
10.07.2017 00:22 15,7 °C 15,7 °C 91 % 1008,9 hPa 0,0 mm 0,5 km/h (0 Bft) S 171 ° 0 min 0,000 mm 0,0 UV-I 0 W/m² 14,2 °C 15,7 °C 1,6 km/h (1 Bft)
10.07.2017 00:23 15,7 °C 15,7 °C 91 % 1008,9 hPa 0,0 mm 4,0 km/h (1 Bft) S 184 ° 0 min 0,000 mm 0,0 UV-I 0 W/m² 14,2 °C 15,7 °C 9,7 km/h (2 Bft)
10.07.2017 00:24 15,8 °C 15,8 °C 91 % 1008,9 hPa 0,0 mm 5,0 km/h (1 Bft) S-SW 194 ° 0 min 0,000 mm 0,0 UV-I 0 W/m² 14,3 °C 15,8 °C 12,9 km/h (3 Bft)
10.07.2017 00:25 15,8 °C 15,8 °C 91 % 1008,9 hPa 0,0 mm 3,2 km/h (1 Bft) S 190 ° 0 min 0,000 mm 0,0 UV-I 0 W/m² 14,3 °C 15,8 °C 6,4 km/h (2 Bft)
10.07.2017 00:26 15,9 °C 15,9 °C 91 % 1008,8 hPa 0,0 mm 1,9 km/h (1 Bft) S 191 ° 0 min 0,000 mm 0,0 UV-I 0 W/m² 14,4 °C 15,9 °C 8,0 km/h (2 Bft)
10.07.2017 00:27 15,9 °C 15,9 °C 90 % 1008,8 hPa 0,0 mm 3,5 km/h (1 Bft) S 184 ° 0 min 0,000 mm 0,0 UV-I 0 W/m² 14,3 °C 15,9 °C 8,0 km/h (2 Bft)
10.07.2017 00:28 16,0 °C 16,0 °C 90 % 1008,7 hPa 0,0 mm 3,0 km/h (1 Bft) S-SW 208 ° 0 min 0,000 mm 0,0 UV-I 0 W/m² 14,4 °C 16,0 °C 4,8 km/h (1 Bft)
10.07.2017 00:29 15,9 °C 16,0 °C 91 % 1008,7 hPa 0,0 mm 1,0 km/h (0 Bft) S-SW 208 ° 0 min 0,000 mm 0,0 UV-I 0 W/m² 14,4 °C 15,9 °C 3,2 km/h (1 Bft)
10.07.2017 00:30 15,9 °C 15,9 °C 91 % 1008,7 hPa 0,0 mm 0,1 km/h (0 Bft) S-SW 208 ° 0 min 0,000 mm 0,0 UV-I 0 W/m² 14,4 °C 15,9 °C 1,6 km/h (1 Bft)
10.07.2017 00:31 15,9 °C 15,9 °C 91 % 1008,7 hPa 0,0 mm 1,2 km/h (1 Bft) S-SW 208 ° 0 min 0,000 mm 0,0 UV-I 0 W/m² 14,4 °C 15,9 °C 3,2 km/h (1 Bft)
10.07.2017 00:32 15,9 °C 15,9 °C 91 % 1008,7 hPa 0,0 mm 0,2 km/h (0 Bft) S-SW 208 ° 0 min 0,000 mm 0,0 UV-I 0 W/m² 14,4 °C 15,9 °C 1,6 km/h (1 Bft)
10.07.2017 00:33 15,9 °C 15,9 °C 90 % 1008,7 hPa 0,0 mm 0,0 km/h (0 Bft) S-SW 208 ° 0 min 0,000 mm 0,0 UV-I 0 W/m² 14,3 °C 15,9 °C 0,0 km/h (0 Bft)
10.07.2017 00:34 15,9 °C 15,9 °C 90 % 1008,7 hPa 0,0 mm 0,0 km/h (0 Bft) S-SW 208 ° 0 min 0,000 mm 0,0 UV-I 0 W/m² 14,3 °C 15,9 °C 0,0 km/h (0 Bft)
10.07.2017 00:35 15,8 °C 15,9 °C 91 % 1008,7 hPa 0,0 mm 0,0 km/h (0 Bft) S-SW 208 ° 0 min 0,000 mm 0,0 UV-I 0 W/m² 14,3 °C 15,8 °C 0,0 km/h (0 Bft)
10.07.2017 00:36 15,7 °C 15,8 °C 91 % 1008,7 hPa 0,0 mm 0,1 km/h (0 Bft) S-SW 208 ° 0 min 0,000 mm 0,0 UV-I 0 W/m² 14,2 °C 15,7 °C 1,6 km/h (1 Bft)
10.07.2017 00:37 15,7 °C 15,7 °C 91 % 1008,7 hPa 0,0 mm 0,3 km/h (0 Bft) S-SW 208 ° 0 min 0,000 mm 0,0 UV-I 0 W/m² 14,2 °C 15,7 °C 1,6 km/h (1 Bft)
10.07.2017 00:38 15,6 °C 15,7 °C 92 % 1008,7 hPa 0,0 mm 0,0 km/h (0 Bft) S-SW 208 ° 0 min 0,000 mm 0,0 UV-I 0 W/m² 14,3 °C 15,6 °C 0,0 km/h (0 Bft)
10.07.2017 00:39 15,6 °C 15,6 °C 92 % 1008,7 hPa 0,0 mm 0,6 km/h (0 Bft) S 188 ° 0 min 0,000 mm 0,0 UV-I 0 W/m² 14,3 °C 15,6 °C 3,2 km/h (1 Bft)
10.07.2017 00:40 15,6 °C 15,6 °C 92 % 1008,7 hPa 0,0 mm 0,0 km/h (0 Bft) S 188 ° 0 min 0,000 mm 0,0 UV-I 0 W/m² 14,3 °C 15,6 °C 0,0 km/h (0 Bft)
10.07.2017 00:41 15,6 °C 15,6 °C 92 % 1008,7 hPa 0,0 mm 0,0 km/h (0 Bft) S 188 ° 0 min 0,000 mm 0,0 UV-I 0 W/m² 14,3 °C 15,6 °C 0,0 km/h (0 Bft)
10.07.2017 00:42 15,6 °C 15,6 °C 92 % 1008,7 hPa 0,0 mm 1,7 km/h (1 Bft) S-SW 205 ° 0 min 0,000 mm 0,0 UV-I 0 W/m² 14,3 °C 15,6 °C 4,8 km/h (1 Bft)
10.07.2017 00:43 15,6 °C 15,6 °C 92 % 1008,7 hPa 0,0 mm 1,6 km/h (1 Bft) S-SW 205 ° 0 min 0,000 mm 0,0 UV-I 0 W/m² 14,3 °C 15,6 °C 3,2 km/h (1 Bft)
10.07.2017 00:44 15,6 °C 15,6 °C 92 % 1008,7 hPa 0,0 mm 1,7 km/h (1 Bft) S-SW 204 ° 0 min 0,000 mm 0,0 UV-I 0 W/m² 14,3 °C 15,6 °C 3,2 km/h (1 Bft)
10.07.2017 00:45 15,6 °C 15,6 °C 92 % 1008,7 hPa 0,0 mm 4,4 km/h (1 Bft) S-SW 198 ° 0 min 0,000 mm 0,0 UV-I 0 W/m² 14,3 °C 15,6 °C 8,0 km/h (2 Bft)
10.07.2017 00:46 15,7 °C 15,7 °C 91 % 1008,7 hPa 0,0 mm 1,3 km/h (1 Bft) S 184 ° 0 min 0,000 mm 0,0 UV-I 0 W/m² 14,2 °C 15,7 °C 4,8 km/h (1 Bft)
10.07.2017 00:47 15,7 °C 15,7 °C 91 % 1008,8 hPa 0,0 mm 3,8 km/h (1 Bft) S 170 ° 0 min 0,000 mm 0,0 UV-I 0 W/m² 14,2 °C 15,7 °C 8,0 km/h (2 Bft)
10.07.2017 00:48 15,7 °C 15,7 °C 91 % 1008,8 hPa 0,0 mm 1,3 km/h (1 Bft) SW 217 ° 0 min 0,000 mm 0,0 UV-I 0 W/m² 14,2 °C 15,7 °C 3,2 km/h (1 Bft)
10.07.2017 00:49 15,7 °C 15,7 °C 91 % 1008,8 hPa 0,0 mm 0,0 km/h (0 Bft) SW 217 ° 0 min 0,000 mm 0,0 UV-I 0 W/m² 14,2 °C 15,7 °C 0,0 km/h (0 Bft)
10.07.2017 00:50 15,8 °C 15,8 °C 91 % 1008,7 hPa 0,0 mm 1,5 km/h (1 Bft) W-SW 250 ° 0 min 0,000 mm 0,0 UV-I 0 W/m² 14,3 °C 15,8 °C 3,2 km/h (1 Bft)
10.07.2017 00:51 15,7 °C 15,8 °C 91 % 1008,7 hPa 0,0 mm 1,0 km/h (0 Bft) SW 233 ° 0 min 0,000 mm 0,0 UV-I 0 W/m² 14,2 °C 15,7 °C 3,2 km/h (1 Bft)
10.07.2017 00:52 15,8 °C 15,8 °C 91 % 1008,7 hPa 0,0 mm 2,4 km/h (1 Bft) S-SW 211 ° 0 min 0,000 mm 0,0 UV-I 0 W/m² 14,3 °C 15,8 °C 4,8 km/h (1 Bft)
10.07.2017 00:53 15,8 °C 15,8 °C 91 % 1008,6 hPa 0,0 mm 1,3 km/h (1 Bft) S-SW 211 ° 0 min 0,000 mm 0,0 UV-I 0 W/m² 14,3 °C 15,8 °C 3,2 km/h (1 Bft)
10.07.2017 00:54 15,8 °C 15,8 °C 91 % 1008,6 hPa 0,0 mm 1,5 km/h (1 Bft) S 189 ° 0 min 0,000 mm 0,0 UV-I 0 W/m² 14,3 °C 15,8 °C 4,8 km/h (1 Bft)
10.07.2017 00:55 15,8 °C 15,8 °C 91 % 1008,6 hPa 0,0 mm 2,4 km/h (1 Bft) SW 215 ° 0 min 0,000 mm 0,0 UV-I 0 W/m² 14,3 °C 15,8 °C 4,8 km/h (1 Bft)
10.07.2017 00:56 15,8 °C 15,8 °C 91 % 1008,6 hPa 0,0 mm 1,3 km/h (1 Bft) S 190 ° 0 min 0,000 mm 0,0 UV-I 0 W/m² 14,3 °C 15,8 °C 3,2 km/h (1 Bft)
10.07.2017 00:57 15,9 °C 15,9 °C 91 % 1008,6 hPa 0,0 mm 0,4 km/h (0 Bft) S 190 ° 0 min 0,000 mm 0,0 UV-I 0 W/m² 14,4 °C 15,9 °C 1,6 km/h (1 Bft)
10.07.2017 00:58 16,0 °C 16,0 °C 90 % 1008,6 hPa 0,0 mm 1,0 km/h (0 Bft) S-SW 204 ° 0 min 0,000 mm 0,0 UV-I 0 W/m² 14,4 °C 16,0 °C 3,2 km/h (1 Bft)
10.07.2017 00:59 16,1 °C 16,1 °C 90 % 1008,6 hPa 0,0 mm 0,5 km/h (0 Bft) S-SW 204 ° 0 min 0,000 mm 0,0 UV-I 0 W/m² 14,5 °C 16,1 °C 3,2 km/h (1 Bft)
10.07.2017 01:00 16,1 °C 16,1 °C 89 % 1008,5 hPa 0,0 mm 1,2 km/h (1 Bft) S-SW 204 ° 0 min 0,000 mm 0,0 UV-I 0 W/m² 14,3 °C 16,1 °C 3,2 km/h (1 Bft)
10.07.2017 01:01 16,2 °C 16,2 °C 89 % 1008,6 hPa 0,0 mm 1,3 km/h (1 Bft) S-SW 204 ° 0 min 0,000 mm 0,0 UV-I 0 W/m² 14,4 °C 16,2 °C 3,2 km/h (1 Bft)
10.07.2017 01:02 16,2 °C 16,2 °C 89 % 1008,5 hPa 0,0 mm 3,6 km/h (1 Bft) S-SW 194 ° 0 min 0,000 mm 0,0 UV-I 0 W/m² 14,4 °C 16,2 °C 9,7 km/h (2 Bft)
10.07.2017 01:03 16,2 °C 16,3 °C 89 % 1008,5 hPa 0,0 mm 5,2 km/h (1 Bft) S-SW 192 ° 0 min 0,000 mm 0,0 UV-I 0 W/m² 14,4 °C 16,2 °C 8,0 km/h (2 Bft)
10.07.2017 01:04 16,2 °C 16,2 °C 88 % 1008,5 hPa 0,0 mm 4,7 km/h (1 Bft) S 180 ° 0 min 0,000 mm 0,0 UV-I 0 W/m² 14,2 °C 16,2 °C 8,0 km/h (2 Bft)
10.07.2017 01:05 16,2 °C 16,2 °C 88 % 1008,4 hPa 0,0 mm 3,5 km/h (1 Bft) SW 214 ° 0 min 0,000 mm 0,0 UV-I 0 W/m² 14,2 °C 16,2 °C 8,0 km/h (2 Bft)
10.07.2017 01:06 16,2 °C 16,2 °C 88 % 1008,4 hPa 0,0 mm 3,9 km/h (1 Bft) S-SW 192 ° 0 min 0,000 mm 0,0 UV-I 0 W/m² 14,2 °C 16,2 °C 8,0 km/h (2 Bft)
10.07.2017 01:07 16,2 °C 16,2 °C 88 % 1008,4 hPa 0,0 mm 7,0 km/h (2 Bft) S 190 ° 0 min 0,000 mm 0,0 UV-I 0 W/m² 14,2 °C 16,2 °C 11,3 km/h (2 Bft)
10.07.2017 01:08 16,2 °C 16,2 °C 88 % 1008,4 hPa 0,0 mm 3,6 km/h (1 Bft) S-SW 210 ° 0 min 0,000 mm 0,0 UV-I 0 W/m² 14,2 °C 16,2 °C 9,7 km/h (2 Bft)
10.07.2017 01:09 16,2 °C 16,2 °C 88 % 1008,5 hPa 0,0 mm 6,0 km/h (2 Bft) SW 214 ° 0 min 0,000 mm 0,0 UV-I 0 W/m² 14,2 °C 16,2 °C 11,3 km/h (2 Bft)
10.07.2017 01:10 16,2 °C 16,2 °C 88 % 1008,4 hPa 0,0 mm 1,6 km/h (1 Bft) S-SW 205 ° 0 min 0,000 mm 0,0 UV-I 0 W/m² 14,2 °C 16,2 °C 3,2 km/h (1 Bft)
10.07.2017 01:11 16,2 °C 16,2 °C 89 % 1008,4 hPa 0,0 mm 1,2 km/h (1 Bft) W-SW 243 ° 0 min 0,000 mm 0,0 UV-I 0 W/m² 14,4 °C 16,2 °C 4,8 km/h (1 Bft)
10.07.2017 01:12 16,2 °C 16,2 °C 89 % 1008,5 hPa 0,0 mm 3,2 km/h (1 Bft) W-SW 251 ° 0 min 0,000 mm 0,0 UV-I 0 W/m² 14,4 °C 16,2 °C 6,4 km/h (2 Bft)
10.07.2017 01:13 16,2 °C 16,2 °C 89 % 1008,5 hPa 0,0 mm 2,8 km/h (1 Bft) SW 219 ° 0 min 0,000 mm 0,0 UV-I 0 W/m² 14,4 °C 16,2 °C 4,8 km/h (1 Bft)
10.07.2017 01:14 16,1 °C 16,2 °C 89 % 1008,5 hPa 0,0 mm 1,9 km/h (1 Bft) S-SW 203 ° 0 min 0,000 mm 0,0 UV-I 0 W/m² 14,3 °C 16,1 °C 4,8 km/h (1 Bft)
10.07.2017 01:15 16,1 °C 16,1 °C 89 % 1008,5 hPa 0,0 mm 1,8 km/h (1 Bft) SW 217 ° 0 min 0,000 mm 0,0 UV-I 0 W/m² 14,3 °C 16,1 °C 3,2 km/h (1 Bft)
10.07.2017 01:16 16,1 °C 16,1 °C 89 % 1008,5 hPa 0,0 mm 3,3 km/h (1 Bft) SW 215 ° 0 min 0,000 mm 0,0 UV-I 0 W/m² 14,3 °C 16,1 °C 6,4 km/h (2 Bft)
10.07.2017 01:17 16,1 °C 16,1 °C 89 % 1008,4 hPa 0,0 mm 3,6 km/h (1 Bft) S-SW 197 ° 0 min 0,000 mm 0,0 UV-I 0 W/m² 14,3 °C 16,1 °C 9,7 km/h (2 Bft)
10.07.2017 01:18 16,1 °C 16,1 °C 89 % 1008,4 hPa 0,0 mm 2,9 km/h (1 Bft) S-SW 195 ° 0 min 0,000 mm 0,0 UV-I 0 W/m² 14,3 °C 16,1 °C 6,4 km/h (2 Bft)
10.07.2017 01:19 16,1 °C 16,1 °C 89 % 1008,4 hPa 0,0 mm 3,9 km/h (1 Bft) SW 234 ° 0 min 0,000 mm 0,0 UV-I 0 W/m² 14,3 °C 16,1 °C 8,0 km/h (2 Bft)
10.07.2017 01:20 16,0 °C 16,1 °C 89 % 1008,3 hPa 0,0 mm 4,5 km/h (1 Bft) S 185 ° 0 min 0,000 mm 0,0 UV-I 0 W/m² 14,2 °C 16,0 °C 8,0 km/h (2 Bft)
10.07.2017 01:21 16,1 °C 16,1 °C 89 % 1008,3 hPa 0,0 mm 3,8 km/h (1 Bft) W-SW 256 ° 0 min 0,000 mm 0,0 UV-I 0 W/m² 14,3 °C 16,1 °C 9,7 km/h (2 Bft)
10.07.2017 01:22 16,0 °C 16,1 °C 89 % 1008,3 hPa 0,0 mm 2,3 km/h (1 Bft) W-SW 251 ° 0 min 0,000 mm 0,0 UV-I 0 W/m² 14,2 °C 16,0 °C 3,2 km/h (1 Bft)
10.07.2017 01:23 16,1 °C 16,1 °C 89 % 1008,2 hPa 0,0 mm 3,2 km/h (1 Bft) W-SW 240 ° 0 min 0,000 mm 0,0 UV-I 0 W/m² 14,3 °C 16,1 °C 6,4 km/h (2 Bft)
10.07.2017 01:24 16,0 °C 16,1 °C 89 % 1008,2 hPa 0,0 mm 6,2 km/h (2 Bft) S-SO 166 ° 0 min 0,000 mm 0,0 UV-I 0 W/m² 14,2 °C 16,0 °C 9,7 km/h (2 Bft)
10.07.2017 01:25 16,1 °C 16,1 °C 89 % 1008,2 hPa 0,0 mm 6,3 km/h (2 Bft) S-SW 192 ° 0 min 0,000 mm 0,0 UV-I 0 W/m² 14,3 °C 16,1 °C 9,7 km/h (2 Bft)
10.07.2017 01:26 16,1 °C 16,1 °C 89 % 1008,1 hPa 0,0 mm 3,8 km/h (1 Bft) S 180 ° 0 min 0,000 mm 0,0 UV-I 0 W/m² 14,3 °C 16,1 °C 6,4 km/h (2 Bft)
10.07.2017 01:27 16,0 °C 16,1 °C 89 % 1008,1 hPa 0,0 mm 7,4 km/h (2 Bft) S-SW 210 ° 0 min 0,000 mm 0,0 UV-I 0 W/m² 14,2 °C 16,0 °C 11,3 km/h (2 Bft)
10.07.2017 01:28 16,0 °C 16,0 °C 89 % 1008,1 hPa 0,0 mm 5,6 km/h (1 Bft) S-SW 212 ° 0 min 0,000 mm 0,0 UV-I 0 W/m² 14,2 °C 16,0 °C 12,9 km/h (3 Bft)
10.07.2017 01:29 15,9 °C 16,0 °C 90 % 1008,1 hPa 0,0 mm 0,9 km/h (0 Bft) S-SW 211 ° 0 min 0,000 mm 0,0 UV-I 0 W/m² 14,3 °C 15,9 °C 3,2 km/h (1 Bft)
10.07.2017 01:30 15,9 °C 15,9 °C 90 % 1008,1 hPa 0,0 mm 1,3 km/h (1 Bft) S 183 ° 0 min 0,000 mm 0,0 UV-I 0 W/m² 14,3 °C 15,9 °C 4,8 km/h (1 Bft)
10.07.2017 01:31 15,8 °C 15,9 °C 90 % 1008,1 hPa 0,0 mm 6,3 km/h (2 Bft) S-SW 213 ° 0 min 0,000 mm 0,0 UV-I 0 W/m² 14,2 °C 15,8 °C 9,7 km/h (2 Bft)
10.07.2017 01:32 15,8 °C 15,8 °C 90 % 1008,1 hPa 0,0 mm 4,0 km/h (1 Bft) S-SW 206 ° 0 min 0,000 mm 0,0 UV-I 0 W/m² 14,2 °C 15,8 °C 6,4 km/h (2 Bft)
10.07.2017 01:33 15,8 °C 15,8 °C 90 % 1008,1 hPa 0,0 mm 3,0 km/h (1 Bft) S-SW 196 ° 0 min 0,000 mm 0,0 UV-I 0 W/m² 14,2 °C 15,8 °C 8,0 km/h (2 Bft)
10.07.2017 01:34 15,8 °C 15,8 °C 90 % 1008,1 hPa 0,0 mm 0,9 km/h (0 Bft) S-SW 196 ° 0 min 0,000 mm 0,0 UV-I 0 W/m² 14,2 °C 15,8 °C 3,2 km/h (1 Bft)
10.07.2017 01:35 15,8 °C 15,8 °C 90 % 1008,1 hPa 0,0 mm 0,2 km/h (0 Bft) S-SW 196 ° 0 min 0,000 mm 0,0 UV-I 0 W/m² 14,2 °C 15,8 °C 3,2 km/h (1 Bft)
10.07.2017 01:36 15,8 °C 15,8 °C 90 % 1008,2 hPa 0,0 mm 1,3 km/h (1 Bft) S-SW 196 ° 0 min 0,000 mm 0,0 UV-I 0 W/m² 14,2 °C 15,8 °C 3,2 km/h (1 Bft)
10.07.2017 01:37 15,8 °C 15,8 °C 90 % 1008,2 hPa 0,0 mm 3,6 km/h (1 Bft) S-SW 205 ° 0 min 0,000 mm 0,0 UV-I 0 W/m² 14,2 °C 15,8 °C 4,8 km/h (1 Bft)
10.07.2017 01:38 15,7 °C 15,8 °C 90 % 1008,2 hPa 0,0 mm 2,9 km/h (1 Bft) S-SW 205 ° 0 min 0,000 mm 0,0 UV-I 0 W/m² 14,1 °C 15,7 °C 4,8 km/h (1 Bft)
10.07.2017 01:39 15,7 °C 15,7 °C 90 % 1008,1 hPa 0,0 mm 9,3 km/h (2 Bft) S-SW 204 ° 0 min 0,000 mm 0,0 UV-I 0 W/m² 14,1 °C 15,7 °C 14,5 km/h (3 Bft)
10.07.2017 01:40 15,7 °C 15,7 °C 90 % 1008,2 hPa 0,0 mm 9,0 km/h (2 Bft) S-SW 194 ° 0 min 0,000 mm 0,0 UV-I 0 W/m² 14,1 °C 15,7 °C 14,5 km/h (3 Bft)
10.07.2017 01:41 15,7 °C 15,7 °C 90 % 1008,1 hPa 0,0 mm 3,8 km/h (1 Bft) S-SW 200 ° 0 min 0,000 mm 0,0 UV-I 0 W/m² 14,1 °C 15,7 °C 6,4 km/h (2 Bft)
10.07.2017 01:42 15,7 °C 15,7 °C 90 % 1008,1 hPa 0,0 mm 3,7 km/h (1 Bft) S 171 ° 0 min 0,000 mm 0,0 UV-I 0 W/m² 14,1 °C 15,7 °C 8,0 km/h (2 Bft)
10.07.2017 01:43 15,7 °C 15,7 °C 90 % 1008,1 hPa 0,0 mm 1,3 km/h (1 Bft) S 171 ° 0 min 0,000 mm 0,0 UV-I 0 W/m² 14,1 °C 15,7 °C 3,2 km/h (1 Bft)
10.07.2017 01:44 15,7 °C 15,7 °C 90 % 1008,0 hPa 0,0 mm 2,8 km/h (1 Bft) S 182 ° 0 min 0,000 mm 0,0 UV-I 0 W/m² 14,1 °C 15,7 °C 4,8 km/h (1 Bft)
10.07.2017 01:45 15,6 °C 15,7 °C 91 % 1008,0 hPa 0,0 mm 0,5 km/h (0 Bft) SW 220 ° 0 min 0,000 mm 0,0 UV-I 0 W/m² 14,1 °C 15,6 °C 1,6 km/h (1 Bft)
10.07.2017 01:46 15,6 °C 15,6 °C 91 % 1008,0 hPa 0,0 mm 0,3 km/h (0 Bft) SW 219 ° 0 min 0,000 mm 0,0 UV-I 0 W/m² 14,1 °C 15,6 °C 1,6 km/h (1 Bft)
10.07.2017 01:47 15,6 °C 15,6 °C 91 % 1008,0 hPa 0,0 mm 0,0 km/h (0 Bft) SW 220 ° 0 min 0,000 mm 0,0 UV-I 0 W/m² 14,1 °C 15,6 °C 0,0 km/h (0 Bft)
10.07.2017 01:48 15,4 °C 15,6 °C 91 % 1008,1 hPa 0,0 mm 0,0 km/h (0 Bft) SW 219 ° 0 min 0,000 mm 0,0 UV-I 0 W/m² 13,9 °C 15,4 °C 0,0 km/h (0 Bft)
10.07.2017 01:49 15,4 °C 15,4 °C 91 % 1008,0 hPa 0,0 mm 2,6 km/h (1 Bft) S 172 ° 0 min 0,000 mm 0,0 UV-I 0 W/m² 13,9 °C 15,4 °C 8,0 km/h (2 Bft)
10.07.2017 01:50 15,4 °C 15,4 °C 91 % 1008,0 hPa 0,0 mm 3,2 km/h (1 Bft) S-SW 196 ° 0 min 0,000 mm 0,0 UV-I 0 W/m² 13,9 °C 15,4 °C 6,4 km/h (2 Bft)
10.07.2017 01:51 15,4 °C 15,4 °C 91 % 1008,0 hPa 0,0 mm 1,5 km/h (1 Bft) S-SW 196 ° 0 min 0,000 mm 0,0 UV-I 0 W/m² 13,9 °C 15,4 °C 3,2 km/h (1 Bft)
10.07.2017 01:52 15,4 °C 15,4 °C 91 % 1008,0 hPa 0,0 mm 0,5 km/h (0 Bft) S-SW 196 ° 0 min 0,000 mm 0,0 UV-I 0 W/m² 13,9 °C 15,4 °C 1,6 km/h (1 Bft)
10.07.2017 01:53 15,3 °C 15,4 °C 91 % 1008,0 hPa 0,0 mm 0,0 km/h (0 Bft) S-SW 196 ° 0 min 0,000 mm 0,0 UV-I 0 W/m² 13,8 °C 15,3 °C 0,0 km/h (0 Bft)
10.07.2017 01:54 15,3 °C 15,3 °C 92 % 1008,0 hPa 0,0 mm 1,1 km/h (1 Bft) S-SW 196 ° 0 min 0,000 mm 0,0 UV-I 0 W/m² 14,0 °C 15,3 °C 3,2 km/h (1 Bft)
10.07.2017 01:55 15,3 °C 15,3 °C 92 % 1007,9 hPa 0,0 mm 0,0 km/h (0 Bft) S-SW 196 ° 0 min 0,000 mm 0,0 UV-I 0 W/m² 14,0 °C 15,3 °C 0,0 km/h (0 Bft)
10.07.2017 01:56 15,3 °C 15,3 °C 92 % 1007,9 hPa 0,0 mm 0,0 km/h (0 Bft) S-SW 196 ° 0 min 0,000 mm 0,0 UV-I 0 W/m² 14,0 °C 15,3 °C 0,0 km/h (0 Bft)
10.07.2017 01:57 15,3 °C 15,3 °C 92 % 1007,9 hPa 0,0 mm 0,0 km/h (0 Bft) S-SW 196 ° 0 min 0,000 mm 0,0 UV-I 0 W/m² 14,0 °C 15,3 °C 0,0 km/h (0 Bft)
10.07.2017 01:58 15,2 °C 15,3 °C 92 % 1007,9 hPa 0,0 mm 0,0 km/h (0 Bft) S-SW 196 ° 0 min 0,000 mm 0,0 UV-I 0 W/m² 13,9 °C 15,2 °C 0,0 km/h (0 Bft)
10.07.2017 01:59 15,2 °C 15,2 °C 92 % 1007,9 hPa 0,0 mm 0,0 km/h (0 Bft) S-SW 196 ° 0 min 0,000 mm 0,0 UV-I 0 W/m² 13,9 °C 15,2 °C 0,0 km/h (0 Bft)
10.07.2017 02:00 15,2 °C 15,2 °C 92 % 1007,9 hPa 0,0 mm 0,0 km/h (0 Bft) S-SW 196 ° 0 min 0,000 mm 0,0 UV-I 0 W/m² 13,9 °C 15,2 °C 0,0 km/h (0 Bft)
10.07.2017 02:01 15,2 °C 15,2 °C 92 % 1007,9 hPa 0,0 mm 0,0 km/h (0 Bft) S-SW 196 ° 0 min 0,000 mm 0,0 UV-I 0 W/m² 13,9 °C 15,2 °C 0,0 km/h (0 Bft)
10.07.2017 02:02 15,2 °C 15,2 °C 92 % 1007,9 hPa 0,0 mm 0,0 km/h (0 Bft) S-SW 196 ° 0 min 0,000 mm 0,0 UV-I 0 W/m² 13,9 °C 15,2 °C 0,0 km/h (0 Bft)
10.07.2017 02:03 15,1 °C 15,2 °C 92 % 1007,9 hPa 0,0 mm 0,0 km/h (0 Bft) S-SW 196 ° 0 min 0,000 mm 0,0 UV-I 0 W/m² 13,8 °C 15,1 °C 0,0 km/h (0 Bft)
10.07.2017 02:04 15,1 °C 15,1 °C 93 % 1007,9 hPa 0,0 mm 0,0 km/h (0 Bft) S-SW 196 ° 0 min 0,000 mm 0,0 UV-I 0 W/m² 14,0 °C 15,1 °C 0,0 km/h (0 Bft)
10.07.2017 02:05 15,1 °C 15,1 °C 93 % 1007,9 hPa 0,0 mm 0,0 km/h (0 Bft) S-SW 196 ° 0 min 0,000 mm 0,0 UV-I 0 W/m² 14,0 °C 15,1 °C 0,0 km/h (0 Bft)
10.07.2017 02:06 15,1 °C 15,1 °C 93 % 1007,9 hPa 0,0 mm 0,0 km/h (0 Bft) S-SW 196 ° 0 min 0,000 mm 0,0 UV-I 0 W/m² 14,0 °C 15,1 °C 0,0 km/h (0 Bft)
10.07.2017 02:07 15,1 °C 15,1 °C 93 % 1007,8 hPa 0,0 mm 0,0 km/h (0 Bft) S-SW 196 ° 0 min 0,000 mm 0,0 UV-I 0 W/m² 14,0 °C 15,1 °C 0,0 km/h (0 Bft)
10.07.2017 02:08 15,1 °C 15,1 °C 93 % 1007,9 hPa 0,0 mm 0,0 km/h (0 Bft) S-SW 196 ° 0 min 0,000 mm 0,0 UV-I 0 W/m² 14,0 °C 15,1 °C 0,0 km/h (0 Bft)
10.07.2017 02:09 15,1 °C 15,2 °C 93 % 1007,9 hPa 0,0 mm 0,0 km/h (0 Bft) S-SW 196 ° 0 min 0,000 mm 0,0 UV-I 0 W/m² 14,0 °C 15,1 °C 0,0 km/h (0 Bft)
10.07.2017 02:10 15,2 °C 15,2 °C 93 % 1007,9 hPa 0,0 mm 0,0 km/h (0 Bft) S-SW 196 ° 0 min 0,000 mm 0,0 UV-I 0 W/m² 14,1 °C 15,2 °C 0,0 km/h (0 Bft)
10.07.2017 02:11 15,2 °C 15,2 °C 93 % 1007,9 hPa 0,0 mm 0,0 km/h (0 Bft) S-SW 196 ° 0 min 0,000 mm 0,0 UV-I 0 W/m² 14,1 °C 15,2 °C 0,0 km/h (0 Bft)
10.07.2017 02:12 15,2 °C 15,2 °C 93 % 1007,8 hPa 0,0 mm 0,0 km/h (0 Bft) S-SW 196 ° 0 min 0,000 mm 0,0 UV-I 0 W/m² 14,1 °C 15,2 °C 0,0 km/h (0 Bft)
10.07.2017 02:13 15,2 °C 15,2 °C 93 % 1007,8 hPa 0,0 mm 0,0 km/h (0 Bft) S-SW 196 ° 0 min 0,000 mm 0,0 UV-I 0 W/m² 14,1 °C 15,2 °C 0,0 km/h (0 Bft)
10.07.2017 02:14 15,2 °C 15,2 °C 93 % 1007,7 hPa 0,0 mm 1,6 km/h (1 Bft) SW 235 ° 0 min 0,000 mm 0,0 UV-I 0 W/m² 14,1 °C 15,2 °C 3,2 km/h (1 Bft)
10.07.2017 02:15 15,3 °C 15,3 °C 92 % 1007,7 hPa 0,0 mm 1,0 km/h (0 Bft) SW 235 ° 0 min 0,000 mm 0,0 UV-I 0 W/m² 14,0 °C 15,3 °C 3,2 km/h (1 Bft)
10.07.2017 02:16 15,3 °C 15,3 °C 92 % 1007,7 hPa 0,0 mm 0,5 km/h (0 Bft) SW 235 ° 0 min 0,000 mm 0,0 UV-I 0 W/m² 14,0 °C 15,3 °C 1,6 km/h (1 Bft)
10.07.2017 02:17 15,3 °C 15,3 °C 92 % 1007,7 hPa 0,0 mm 0,4 km/h (0 Bft) SW 235 ° 0 min 0,000 mm 0,0 UV-I 0 W/m² 14,0 °C 15,3 °C 1,6 km/h (1 Bft)
10.07.2017 02:18 15,4 °C 15,4 °C 92 % 1007,7 hPa 0,0 mm 1,1 km/h (1 Bft) SW 235 ° 0 min 0,000 mm 0,0 UV-I 0 W/m² 14,1 °C 15,4 °C 1,6 km/h (1 Bft)
10.07.2017 02:19 15,4 °C 15,4 °C 92 % 1007,7 hPa 0,0 mm 0,5 km/h (0 Bft) SW 235 ° 0 min 0,000 mm 0,0 UV-I 0 W/m² 14,1 °C 15,4 °C 1,6 km/h (1 Bft)
10.07.2017 02:20 15,4 °C 15,4 °C 92 % 1007,7 hPa 0,0 mm 0,6 km/h (0 Bft) SW 235 ° 0 min 0,000 mm 0,0 UV-I 0 W/m² 14,1 °C 15,4 °C 3,2 km/h (1 Bft)
10.07.2017 02:21 15,5 °C 15,5 °C 92 % 1007,6 hPa 0,0 mm 2,8 km/h (1 Bft) S-SW 205 ° 0 min 0,000 mm 0,0 UV-I 0 W/m² 14,2 °C 15,5 °C 4,8 km/h (1 Bft)
10.07.2017 02:22 15,5 °C 15,5 °C 92 % 1007,6 hPa 0,0 mm 3,0 km/h (1 Bft) S-SW 202 ° 0 min 0,000 mm 0,0 UV-I 0 W/m² 14,2 °C 15,5 °C 4,8 km/h (1 Bft)
10.07.2017 02:23 15,5 °C 15,6 °C 92 % 1007,6 hPa 0,0 mm 0,9 km/h (0 Bft) S-SW 202 ° 0 min 0,000 mm 0,0 UV-I 0 W/m² 14,2 °C 15,5 °C 1,6 km/h (1 Bft)
10.07.2017 02:24 15,5 °C 15,5 °C 92 % 1007,7 hPa 0,0 mm 0,0 km/h (0 Bft) S-SW 202 ° 0 min 0,000 mm 0,0 UV-I 0 W/m² 14,2 °C 15,5 °C 0,0 km/h (0 Bft)
10.07.2017 02:25 15,4 °C 15,5 °C 92 % 1007,7 hPa 0,0 mm 0,0 km/h (0 Bft) S-SW 202 ° 0 min 0,000 mm 0,0 UV-I 0 W/m² 14,1 °C 15,4 °C 0,0 km/h (0 Bft)
10.07.2017 02:26 15,4 °C 15,4 °C 92 % 1007,7 hPa 0,0 mm 0,0 km/h (0 Bft) S-SW 202 ° 0 min 0,000 mm 0,0 UV-I 0 W/m² 14,1 °C 15,4 °C 0,0 km/h (0 Bft)
10.07.2017 02:27 15,4 °C 15,4 °C 92 % 1007,7 hPa 0,0 mm 0,0 km/h (0 Bft) S-SW 202 ° 0 min 0,000 mm 0,0 UV-I 0 W/m² 14,1 °C 15,4 °C 0,0 km/h (0 Bft)
10.07.2017 02:28 15,4 °C 15,4 °C 92 % 1007,7 hPa 0,0 mm 0,1 km/h (0 Bft) S-SW 202 ° 0 min 0,000 mm 0,0 UV-I 0 W/m² 14,1 °C 15,4 °C 1,6 km/h (1 Bft)
10.07.2017 02:29 15,4 °C 15,4 °C 92 % 1007,7 hPa 0,0 mm 0,0 km/h (0 Bft) S-SW 202 ° 0 min 0,000 mm 0,0 UV-I 0 W/m² 14,1 °C 15,4 °C 0,0 km/h (0 Bft)
10.07.2017 02:30 15,3 °C 15,4 °C 92 % 1007,7 hPa 0,0 mm 0,0 km/h (0 Bft) S-SW 202 ° 0 min 0,000 mm 0,0 UV-I 0 W/m² 14,0 °C 15,3 °C 0,0 km/h (0 Bft)
10.07.2017 02:31 15,3 °C 15,3 °C 92 % 1007,7 hPa 0,0 mm 0,0 km/h (0 Bft) S-SW 202 ° 0 min 0,000 mm 0,0 UV-I 0 W/m² 14,0 °C 15,3 °C 0,0 km/h (0 Bft)
10.07.2017 02:32 15,3 °C 15,3 °C 92 % 1007,7 hPa 0,0 mm 0,0 km/h (0 Bft) S-SW 202 ° 0 min 0,000 mm 0,0 UV-I 0 W/m² 14,0 °C 15,3 °C 0,0 km/h (0 Bft)
10.07.2017 02:33 15,2 °C 15,3 °C 92 % 1007,7 hPa 0,0 mm 0,0 km/h (0 Bft) S-SW 202 ° 0 min 0,000 mm 0,0 UV-I 0 W/m² 13,9 °C 15,2 °C 0,0 km/h (0 Bft)
10.07.2017 02:34 15,2 °C 15,2 °C 92 % 1007,7 hPa 0,0 mm 0,0 km/h (0 Bft) S-SW 202 ° 0 min 0,000 mm 0,0 UV-I 0 W/m² 13,9 °C 15,2 °C 0,0 km/h (0 Bft)
10.07.2017 02:35 15,2 °C 15,2 °C 92 % 1007,7 hPa 0,0 mm 0,0 km/h (0 Bft) S-SW 202 ° 0 min 0,000 mm 0,0 UV-I 0 W/m² 13,9 °C 15,2 °C 0,0 km/h (0 Bft)
10.07.2017 02:36 15,2 °C 15,2 °C 92 % 1007,7 hPa 0,0 mm 0,0 km/h (0 Bft) S-SW 202 ° 0 min 0,000 mm 0,0 UV-I 0 W/m² 13,9 °C 15,2 °C 0,0 km/h (0 Bft)
10.07.2017 02:37 15,2 °C 15,2 °C 92 % 1007,7 hPa 0,0 mm 0,0 km/h (0 Bft) S-SW 202 ° 0 min 0,000 mm 0,0 UV-I 0 W/m² 13,9 °C 15,2 °C 0,0 km/h (0 Bft)
10.07.2017 02:38 15,1 °C 15,2 °C 92 % 1007,7 hPa 0,0 mm 0,0 km/h (0 Bft) S-SW 202 ° 0 min 0,000 mm 0,0 UV-I 0 W/m² 13,8 °C 15,1 °C 0,0 km/h (0 Bft)
10.07.2017 02:39 15,1 °C 15,1 °C 92 % 1007,7 hPa 0,0 mm 0,0 km/h (0 Bft) S-SW 202 ° 0 min 0,000 mm 0,0 UV-I 0 W/m² 13,8 °C 15,1 °C 0,0 km/h (0 Bft)
10.07.2017 02:40 15,1 °C 15,1 °C 93 % 1007,7 hPa 0,0 mm 0,1 km/h (0 Bft) S-SW 202 ° 0 min 0,000 mm 0,0 UV-I 0 W/m² 14,0 °C 15,1 °C 1,6 km/h (1 Bft)
10.07.2017 02:41 15,1 °C 15,1 °C 93 % 1007,7 hPa 0,0 mm 0,0 km/h (0 Bft) S-SW 202 ° 0 min 0,000 mm 0,0 UV-I 0 W/m² 14,0 °C 15,1 °C 0,0 km/h (0 Bft)
10.07.2017 02:42 15,1 °C 15,1 °C 92 % 1007,6 hPa 0,0 mm 0,7 km/h (0 Bft) S-SW 202 ° 0 min 0,000 mm 0,0 UV-I 0 W/m² 13,8 °C 15,1 °C 1,6 km/h (1 Bft)
10.07.2017 02:43 15,0 °C 15,1 °C 92 % 1007,7 hPa 0,0 mm 0,0 km/h (0 Bft) S-SW 202 ° 0 min 0,000 mm 0,0 UV-I 0 W/m² 13,7 °C 15,0 °C 0,0 km/h (0 Bft)
10.07.2017 02:44 14,9 °C 15,0 °C 92 % 1007,7 hPa 0,0 mm 0,0 km/h (0 Bft) S-SW 202 ° 0 min 0,000 mm 0,0 UV-I 0 W/m² 13,6 °C 14,9 °C 0,0 km/h (0 Bft)
10.07.2017 02:45 14,9 °C 14,9 °C 92 % 1007,6 hPa 0,0 mm 0,0 km/h (0 Bft) S-SW 202 ° 0 min 0,000 mm 0,0 UV-I 0 W/m² 13,6 °C 14,9 °C 0,0 km/h (0 Bft)
10.07.2017 02:46 14,9 °C 14,9 °C 92 % 1007,6 hPa 0,0 mm 0,0 km/h (0 Bft) S-SW 202 ° 0 min 0,000 mm 0,0 UV-I 0 W/m² 13,6 °C 14,9 °C 0,0 km/h (0 Bft)
10.07.2017 02:47 14,8 °C 14,9 °C 92 % 1007,6 hPa 0,0 mm 0,0 km/h (0 Bft) S-SW 202 ° 0 min 0,000 mm 0,0 UV-I 0 W/m² 13,5 °C 14,8 °C 0,0 km/h (0 Bft)
10.07.2017 02:48 14,8 °C 14,8 °C 92 % 1007,6 hPa 0,0 mm 0,0 km/h (0 Bft) S-SW 202 ° 0 min 0,000 mm 0,0 UV-I 0 W/m² 13,5 °C 14,8 °C 0,0 km/h (0 Bft)
10.07.2017 02:49 14,8 °C 14,8 °C 93 % 1007,6 hPa 0,0 mm 0,0 km/h (0 Bft) S-SW 202 ° 0 min 0,000 mm 0,0 UV-I 0 W/m² 13,7 °C 14,8 °C 0,0 km/h (0 Bft)
10.07.2017 02:50 14,8 °C 14,8 °C 93 % 1007,6 hPa 0,0 mm 0,0 km/h (0 Bft) S-SW 202 ° 0 min 0,000 mm 0,0 UV-I 0 W/m² 13,7 °C 14,8 °C 0,0 km/h (0 Bft)
10.07.2017 02:51 14,8 °C 14,8 °C 93 % 1007,6 hPa 0,0 mm 0,0 km/h (0 Bft) S-SW 202 ° 0 min 0,000 mm 0,0 UV-I 0 W/m² 13,7 °C 14,8 °C 0,0 km/h (0 Bft)
10.07.2017 02:52 14,7 °C 14,8 °C 93 % 1007,6 hPa 0,0 mm 0,0 km/h (0 Bft) S-SW 202 ° 0 min 0,000 mm 0,0 UV-I 0 W/m² 13,6 °C 14,7 °C 0,0 km/h (0 Bft)
10.07.2017 02:53 14,8 °C 14,8 °C 93 % 1007,6 hPa 0,0 mm 0,0 km/h (0 Bft) S-SW 202 ° 0 min 0,000 mm 0,0 UV-I 0 W/m² 13,7 °C 14,8 °C 0,0 km/h (0 Bft)
10.07.2017 02:54 14,7 °C 14,8 °C 93 % 1007,6 hPa 0,0 mm 0,0 km/h (0 Bft) S-SW 202 ° 0 min 0,000 mm 0,0 UV-I 0 W/m² 13,6 °C 14,7 °C 0,0 km/h (0 Bft)
10.07.2017 02:55 14,7 °C 14,7 °C 93 % 1007,6 hPa 0,0 mm 0,0 km/h (0 Bft) S-SW 202 ° 0 min 0,000 mm 0,0 UV-I 0 W/m² 13,6 °C 14,7 °C 0,0 km/h (0 Bft)
10.07.2017 02:56 14,7 °C 14,7 °C 93 % 1007,6 hPa 0,0 mm 0,0 km/h (0 Bft) S-SW 202 ° 0 min 0,000 mm 0,0 UV-I 0 W/m² 13,6 °C 14,7 °C 0,0 km/h (0 Bft)
10.07.2017 02:57 14,8 °C 14,8 °C 93 % 1007,7 hPa 0,0 mm 2,9 km/h (1 Bft) S-SW 202 ° 0 min 0,000 mm 0,0 UV-I 0 W/m² 13,7 °C 14,8 °C 4,8 km/h (1 Bft)
10.07.2017 02:58 14,8 °C 14,8 °C 93 % 1007,7 hPa 0,0 mm 3,4 km/h (1 Bft) S-SW 202 ° 0 min 0,000 mm 0,0 UV-I 0 W/m² 13,7 °C 14,8 °C 4,8 km/h (1 Bft)
10.07.2017 02:59 14,8 °C 14,8 °C 93 % 1007,7 hPa 0,0 mm 5,2 km/h (1 Bft) S 188 ° 0 min 0,000 mm 0,0 UV-I 0 W/m² 13,7 °C 14,8 °C 8,0 km/h (2 Bft)
10.07.2017 03:00 14,9 °C 14,9 °C 93 % 1007,7 hPa 0,0 mm 4,2 km/h (1 Bft) S-SW 196 ° 0 min 0,000 mm 0,0 UV-I 0 W/m² 13,8 °C 14,9 °C 6,4 km/h (2 Bft)
10.07.2017 03:01 14,9 °C 14,9 °C 93 % 1007,6 hPa 0,0 mm 2,8 km/h (1 Bft) S-SW 196 ° 0 min 0,000 mm 0,0 UV-I 0 W/m² 13,8 °C 14,9 °C 4,8 km/h (1 Bft)
10.07.2017 03:02 15,0 °C 15,0 °C 93 % 1007,6 hPa 0,0 mm 2,5 km/h (1 Bft) S-SW 196 ° 0 min 0,000 mm 0,0 UV-I 0 W/m² 13,9 °C 15,0 °C 4,8 km/h (1 Bft)
10.07.2017 03:03 15,1 °C 15,1 °C 93 % 1007,6 hPa 0,0 mm 4,2 km/h (1 Bft) S-SW 196 ° 0 min 0,000 mm 0,0 UV-I 0 W/m² 14,0 °C 15,1 °C 6,4 km/h (2 Bft)
10.07.2017 03:04 15,1 °C 15,2 °C 92 % 1007,6 hPa 0,0 mm 4,9 km/h (1 Bft) S-SW 195 ° 0 min 0,000 mm 0,0 UV-I 0 W/m² 13,8 °C 15,1 °C 8,0 km/h (2 Bft)
10.07.2017 03:05 15,2 °C 15,2 °C 92 % 1007,6 hPa 0,0 mm 1,5 km/h (1 Bft) S-SW 195 ° 0 min 0,000 mm 0,0 UV-I 0 W/m² 13,9 °C 15,2 °C 3,2 km/h (1 Bft)
10.07.2017 03:06 15,2 °C 15,2 °C 92 % 1007,6 hPa 0,0 mm 1,1 km/h (1 Bft) S-SW 195 ° 0 min 0,000 mm 0,0 UV-I 0 W/m² 13,9 °C 15,2 °C 3,2 km/h (1 Bft)
10.07.2017 03:07 15,2 °C 15,2 °C 92 % 1007,6 hPa 0,0 mm 2,0 km/h (1 Bft) S-SW 195 ° 0 min 0,000 mm 0,0 UV-I 0 W/m² 13,9 °C 15,2 °C 3,2 km/h (1 Bft)
10.07.2017 03:08 15,2 °C 15,2 °C 92 % 1007,5 hPa 0,0 mm 2,2 km/h (1 Bft) S-SW 196 ° 0 min 0,000 mm 0,0 UV-I 0 W/m² 13,9 °C 15,2 °C 3,2 km/h (1 Bft)
10.07.2017 03:09 15,3 °C 15,3 °C 92 % 1007,6 hPa 0,0 mm 3,6 km/h (1 Bft) S-SW 196 ° 0 min 0,000 mm 0,0 UV-I 0 W/m² 14,0 °C 15,3 °C 4,8 km/h (1 Bft)
10.07.2017 03:10 15,3 °C 15,3 °C 92 % 1007,6 hPa 0,0 mm 8,0 km/h (2 Bft) S-SW 207 ° 0 min 0,000 mm 0,0 UV-I 0 W/m² 14,0 °C 15,3 °C 11,3 km/h (2 Bft)
10.07.2017 03:11 15,3 °C 15,3 °C 91 % 1007,5 hPa 0,0 mm 9,0 km/h (2 Bft) S-SW 204 ° 0 min 0,000 mm 0,0 UV-I 0 W/m² 13,8 °C 15,3 °C 11,3 km/h (2 Bft)
10.07.2017 03:12 15,4 °C 15,4 °C 91 % 1007,5 hPa 0,0 mm 5,0 km/h (1 Bft) S-SW 192 ° 0 min 0,000 mm 0,0 UV-I 0 W/m² 13,9 °C 15,4 °C 8,0 km/h (2 Bft)
10.07.2017 03:13 15,4 °C 15,4 °C 91 % 1007,5 hPa 0,0 mm 0,8 km/h (0 Bft) S 189 ° 0 min 0,000 mm 0,0 UV-I 0 W/m² 13,9 °C 15,4 °C 3,2 km/h (1 Bft)
10.07.2017 03:14 15,5 °C 15,5 °C 91 % 1007,6 hPa 0,0 mm 3,4 km/h (1 Bft) S-SW 200 ° 0 min 0,000 mm 0,0 UV-I 0 W/m² 14,0 °C 15,5 °C 6,4 km/h (2 Bft)
10.07.2017 03:15 15,6 °C 15,6 °C 91 % 1007,5 hPa 0,0 mm 4,2 km/h (1 Bft) S 190 ° 0 min 0,000 mm 0,0 UV-I 0 W/m² 14,1 °C 15,6 °C 6,4 km/h (2 Bft)
10.07.2017 03:16 15,6 °C 15,6 °C 90 % 1007,5 hPa 0,0 mm 8,0 km/h (2 Bft) S 188 ° 0 min 0,000 mm 0,0 UV-I 0 W/m² 14,0 °C 15,6 °C 9,7 km/h (2 Bft)
10.07.2017 03:17 15,6 °C 15,6 °C 90 % 1007,6 hPa 0,0 mm 2,7 km/h (1 Bft) SW 225 ° 0 min 0,000 mm 0,0 UV-I 0 W/m² 14,0 °C 15,6 °C 4,8 km/h (1 Bft)
10.07.2017 03:18 15,7 °C 15,7 °C 90 % 1007,6 hPa 0,0 mm 4,8 km/h (1 Bft) W-SW 254 ° 0 min 0,000 mm 0,0 UV-I 0 W/m² 14,1 °C 15,7 °C 8,0 km/h (2 Bft)
10.07.2017 03:19 15,7 °C 15,7 °C 90 % 1007,6 hPa 0,0 mm 3,0 km/h (1 Bft) S-SW 197 ° 0 min 0,000 mm 0,0 UV-I 0 W/m² 14,1 °C 15,7 °C 6,4 km/h (2 Bft)
10.07.2017 03:20 15,7 °C 15,7 °C 90 % 1007,6 hPa 0,0 mm 6,2 km/h (2 Bft) S-SW 198 ° 0 min 0,000 mm 0,0 UV-I 0 W/m² 14,1 °C 15,7 °C 8,0 km/h (2 Bft)
10.07.2017 03:21 15,7 °C 15,7 °C 90 % 1007,6 hPa 0,0 mm 2,6 km/h (1 Bft) SW 221 ° 0 min 0,000 mm 0,0 UV-I 0 W/m² 14,1 °C 15,7 °C 4,8 km/h (1 Bft)
10.07.2017 03:22 15,7 °C 15,7 °C 90 % 1007,6 hPa 0,0 mm 3,1 km/h (1 Bft) SW 219 ° 0 min 0,000 mm 0,0 UV-I 0 W/m² 14,1 °C 15,7 °C 4,8 km/h (1 Bft)
10.07.2017 03:23 15,7 °C 15,7 °C 90 % 1007,5 hPa 0,0 mm 4,1 km/h (1 Bft) S-SW 192 ° 0 min 0,000 mm 0,0 UV-I 0 W/m² 14,1 °C 15,7 °C 6,4 km/h (2 Bft)
10.07.2017 03:24 15,7 °C 15,7 °C 90 % 1007,5 hPa 0,0 mm 1,6 km/h (1 Bft) S-SW 202 ° 0 min 0,000 mm 0,0 UV-I 0 W/m² 14,1 °C 15,7 °C 3,2 km/h (1 Bft)
10.07.2017 03:25 15,7 °C 15,7 °C 90 % 1007,6 hPa 0,0 mm 3,8 km/h (1 Bft) S-SW 192 ° 0 min 0,000 mm 0,0 UV-I 0 W/m² 14,1 °C 15,7 °C 4,8 km/h (1 Bft)
10.07.2017 03:26 15,7 °C 15,7 °C 90 % 1007,5 hPa 0,0 mm 5,6 km/h (1 Bft) S 187 ° 0 min 0,000 mm 0,0 UV-I 0 W/m² 14,1 °C 15,7 °C 11,3 km/h (2 Bft)
10.07.2017 03:27 15,7 °C 15,7 °C 90 % 1007,5 hPa 0,0 mm 5,1 km/h (1 Bft) S-SW 209 ° 0 min 0,000 mm 0,0 UV-I 0 W/m² 14,1 °C 15,7 °C 6,4 km/h (2 Bft)
10.07.2017 03:28 15,6 °C 15,7 °C 90 % 1007,5 hPa 0,0 mm 2,7 km/h (1 Bft) S 190 ° 0 min 0,000 mm 0,0 UV-I 0 W/m² 14,0 °C 15,6 °C 6,4 km/h (2 Bft)
10.07.2017 03:29 15,6 °C 15,7 °C 90 % 1007,6 hPa 0,0 mm 5,2 km/h (1 Bft) S 173 ° 0 min 0,000 mm 0,0 UV-I 0 W/m² 14,0 °C 15,6 °C 8,0 km/h (2 Bft)
10.07.2017 03:30 15,6 °C 15,6 °C 90 % 1007,5 hPa 0,0 mm 2,1 km/h (1 Bft) S-SW 196 ° 0 min 0,000 mm 0,0 UV-I 0 W/m² 14,0 °C 15,6 °C 4,8 km/h (1 Bft)
10.07.2017 03:31 15,6 °C 15,6 °C 91 % 1007,6 hPa 0,0 mm 1,4 km/h (1 Bft) S-SW 196 ° 0 min 0,000 mm 0,0 UV-I 0 W/m² 14,1 °C 15,6 °C 3,2 km/h (1 Bft)
10.07.2017 03:32 15,5 °C 15,6 °C 91 % 1007,6 hPa 0,0 mm 0,6 km/h (0 Bft) S-SW 211 ° 0 min 0,000 mm 0,0 UV-I 0 W/m² 14,0 °C 15,5 °C 3,2 km/h (1 Bft)
10.07.2017 03:33 15,6 °C 15,6 °C 90 % 1007,6 hPa 0,0 mm 4,5 km/h (1 Bft) S-SW 207 ° 0 min 0,000 mm 0,0 UV-I 0 W/m² 14,0 °C 15,6 °C 8,0 km/h (2 Bft)
10.07.2017 03:34 15,6 °C 15,6 °C 90 % 1007,6 hPa 0,0 mm 2,7 km/h (1 Bft) SW 215 ° 0 min 0,000 mm 0,0 UV-I 0 W/m² 14,0 °C 15,6 °C 4,8 km/h (1 Bft)
10.07.2017 03:35 15,6 °C 15,6 °C 90 % 1007,6 hPa 0,0 mm 0,5 km/h (0 Bft) SW 215 ° 0 min 0,000 mm 0,0 UV-I 0 W/m² 14,0 °C 15,6 °C 1,6 km/h (1 Bft)
10.07.2017 03:36 15,6 °C 15,6 °C 90 % 1007,6 hPa 0,0 mm 0,0 km/h (0 Bft) SW 215 ° 0 min 0,000 mm 0,0 UV-I 0 W/m² 14,0 °C 15,6 °C 0,0 km/h (0 Bft)
10.07.2017 03:37 15,6 °C 15,6 °C 91 % 1007,6 hPa 0,0 mm 0,0 km/h (0 Bft) SW 215 ° 0 min 0,000 mm 0,0 UV-I 0 W/m² 14,1 °C 15,6 °C 0,0 km/h (0 Bft)
10.07.2017 03:38 15,6 °C 15,6 °C 90 % 1007,7 hPa 0,0 mm 0,9 km/h (0 Bft) SW 217 ° 0 min 0,000 mm 0,0 UV-I 0 W/m² 14,0 °C 15,6 °C 3,2 km/h (1 Bft)
10.07.2017 03:39 15,6 °C 15,6 °C 90 % 1007,7 hPa 0,0 mm 4,5 km/h (1 Bft) S-SW 194 ° 0 min 0,000 mm 0,0 UV-I 0 W/m² 14,0 °C 15,6 °C 6,4 km/h (2 Bft)
10.07.2017 03:40 15,6 °C 15,6 °C 90 % 1007,7 hPa 0,0 mm 2,3 km/h (1 Bft) S-SW 194 ° 0 min 0,000 mm 0,0 UV-I 0 W/m² 14,0 °C 15,6 °C 3,2 km/h (1 Bft)
10.07.2017 03:41 15,6 °C 15,6 °C 90 % 1007,7 hPa 0,0 mm 4,7 km/h (1 Bft) S-SW 211 ° 0 min 0,000 mm 0,0 UV-I 0 W/m² 14,0 °C 15,6 °C 9,7 km/h (2 Bft)
10.07.2017 03:42 15,6 °C 15,6 °C 90 % 1007,7 hPa 0,0 mm 1,7 km/h (1 Bft) S-SW 211 ° 0 min 0,000 mm 0,0 UV-I 0 W/m² 14,0 °C 15,6 °C 4,8 km/h (1 Bft)
10.07.2017 03:43 15,6 °C 15,6 °C 90 % 1007,7 hPa 0,0 mm 1,2 km/h (1 Bft) S-SW 211 ° 0 min 0,000 mm 0,0 UV-I 0 W/m² 14,0 °C 15,6 °C 3,2 km/h (1 Bft)
10.07.2017 03:44 15,6 °C 15,6 °C 90 % 1007,7 hPa 0,0 mm 0,7 km/h (0 Bft) S-SW 211 ° 0 min 0,000 mm 0,0 UV-I 0 W/m² 14,0 °C 15,6 °C 3,2 km/h (1 Bft)
10.07.2017 03:45 15,6 °C 15,6 °C 90 % 1007,8 hPa 0,0 mm 0,1 km/h (0 Bft) S-SW 211 ° 0 min 0,000 mm 0,0 UV-I 0 W/m² 14,0 °C 15,6 °C 1,6 km/h (1 Bft)
10.07.2017 03:46 15,6 °C 15,6 °C 91 % 1007,8 hPa 0,0 mm 0,0 km/h (0 Bft) S-SW 211 ° 0 min 0,000 mm 0,0 UV-I 0 W/m² 14,1 °C 15,6 °C 0,0 km/h (0 Bft)
10.07.2017 03:47 15,4 °C 15,6 °C 91 % 1007,8 hPa 0,0 mm 0,0 km/h (0 Bft) S-SW 211 ° 0 min 0,000 mm 0,0 UV-I 0 W/m² 13,9 °C 15,4 °C 0,0 km/h (0 Bft)
10.07.2017 03:48 15,3 °C 15,4 °C 91 % 1007,8 hPa 0,0 mm 0,0 km/h (0 Bft) S-SW 211 ° 0 min 0,000 mm 0,0 UV-I 0 W/m² 13,8 °C 15,3 °C 0,0 km/h (0 Bft)
10.07.2017 03:49 15,3 °C 15,3 °C 91 % 1007,8 hPa 0,0 mm 0,0 km/h (0 Bft) S-SW 211 ° 0 min 0,000 mm 0,0 UV-I 0 W/m² 13,8 °C 15,3 °C 0,0 km/h (0 Bft)
10.07.2017 03:50 15,2 °C 15,3 °C 91 % 1007,8 hPa 0,0 mm 0,0 km/h (0 Bft) S-SW 211 ° 0 min 0,000 mm 0,0 UV-I 0 W/m² 13,7 °C 15,2 °C 0,0 km/h (0 Bft)
10.07.2017 03:51 15,2 °C 15,3 °C 91 % 1007,8 hPa 0,0 mm 1,0 km/h (0 Bft) S-SW 211 ° 0 min 0,000 mm 0,0 UV-I 0 W/m² 13,7 °C 15,2 °C 3,2 km/h (1 Bft)
10.07.2017 03:52 15,2 °C 15,2 °C 91 % 1007,8 hPa 0,0 mm 1,9 km/h (1 Bft) S-SW 211 ° 0 min 0,000 mm 0,0 UV-I 0 W/m² 13,7 °C 15,2 °C 3,2 km/h (1 Bft)
10.07.2017 03:53 15,2 °C 15,2 °C 91 % 1007,7 hPa 0,0 mm 3,0 km/h (1 Bft) S 176 ° 0 min 0,000 mm 0,0 UV-I 0 W/m² 13,7 °C 15,2 °C 4,8 km/h (1 Bft)
10.07.2017 03:54 15,1 °C 15,2 °C 92 % 1007,7 hPa 0,0 mm 3,0 km/h (1 Bft) S 175 ° 0 min 0,000 mm 0,0 UV-I 0 W/m² 13,8 °C 15,1 °C 4,8 km/h (1 Bft)
10.07.2017 03:55 15,1 °C 15,1 °C 92 % 1007,8 hPa 0,0 mm 2,8 km/h (1 Bft) S 175 ° 0 min 0,000 mm 0,0 UV-I 0 W/m² 13,8 °C 15,1 °C 3,2 km/h (1 Bft)
10.07.2017 03:56 15,2 °C 15,2 °C 92 % 1007,7 hPa 0,0 mm 3,9 km/h (1 Bft) S 183 ° 0 min 0,000 mm 0,0 UV-I 0 W/m² 13,9 °C 15,2 °C 6,4 km/h (2 Bft)
10.07.2017 03:57 15,2 °C 15,2 °C 91 % 1007,8 hPa 0,0 mm 4,4 km/h (1 Bft) S 188 ° 0 min 0,000 mm 0,0 UV-I 0 W/m² 13,7 °C 15,2 °C 8,0 km/h (2 Bft)
10.07.2017 03:58 15,2 °C 15,2 °C 91 % 1007,7 hPa 0,0 mm 3,6 km/h (1 Bft) S-SW 208 ° 0 min 0,000 mm 0,0 UV-I 0 W/m² 13,7 °C 15,2 °C 4,8 km/h (1 Bft)
10.07.2017 03:59 15,3 °C 15,3 °C 91 % 1007,8 hPa 0,0 mm 5,6 km/h (1 Bft) SW 215 ° 0 min 0,000 mm 0,0 UV-I 0 W/m² 13,8 °C 15,3 °C 8,0 km/h (2 Bft)
10.07.2017 04:00 15,3 °C 15,3 °C 91 % 1007,7 hPa 0,0 mm 1,5 km/h (1 Bft) S-SW 199 ° 0 min 0,000 mm 0,0 UV-I 0 W/m² 13,8 °C 15,3 °C 6,4 km/h (2 Bft)
10.07.2017 04:02 15,4 °C 15,4 °C 90 % 1007,7 hPa 0,0 mm 4,7 km/h (1 Bft) S-SW 206 ° 0 min 0,000 mm 0,0 UV-I 0 W/m² 13,8 °C 15,4 °C 8,0 km/h (2 Bft)
10.07.2017 04:03 15,4 °C 15,4 °C 90 % 1007,7 hPa 0,0 mm 7,3 km/h (2 Bft) S-SW 197 ° 0 min 0,000 mm 0,0 UV-I 0 W/m² 13,8 °C 15,4 °C 9,7 km/h (2 Bft)
10.07.2017 04:04 15,4 °C 15,5 °C 90 % 1007,7 hPa 0,0 mm 7,0 km/h (2 Bft) S-SW 202 ° 0 min 0,000 mm 0,0 UV-I 0 W/m² 13,8 °C 15,4 °C 9,7 km/h (2 Bft)
10.07.2017 04:05 15,5 °C 15,5 °C 90 % 1007,7 hPa 0,0 mm 5,8 km/h (2 Bft) S 181 ° 0 min 0,000 mm 0,0 UV-I 0 W/m² 13,9 °C 15,5 °C 8,0 km/h (2 Bft)
10.07.2017 04:06 15,6 °C 15,6 °C 90 % 1007,7 hPa 0,0 mm 8,1 km/h (2 Bft) SW 225 ° 0 min 0,000 mm 0,0 UV-I 0 W/m² 14,0 °C 15,6 °C 11,3 km/h (2 Bft)
10.07.2017 04:07 15,6 °C 15,6 °C 90 % 1007,7 hPa 0,0 mm 3,8 km/h (1 Bft) S-SW 198 ° 0 min 0,000 mm 0,0 UV-I 0 W/m² 14,0 °C 15,6 °C 8,0 km/h (2 Bft)
10.07.2017 04:08 15,7 °C 15,7 °C 89 % 1007,7 hPa 0,0 mm 3,0 km/h (1 Bft) S 171 ° 0 min 0,000 mm 0,0 UV-I 0 W/m² 13,9 °C 15,7 °C 4,8 km/h (1 Bft)
10.07.2017 04:09 15,7 °C 15,7 °C 89 % 1007,7 hPa 0,0 mm 2,3 km/h (1 Bft) SW 229 ° 0 min 0,000 mm 0,0 UV-I 0 W/m² 13,9 °C 15,7 °C 6,4 km/h (2 Bft)
10.07.2017 04:10 15,7 °C 15,7 °C 89 % 1007,7 hPa 0,0 mm 3,6 km/h (1 Bft) S-SW 204 ° 0 min 0,000 mm 0,0 UV-I 0 W/m² 13,9 °C 15,7 °C 6,4 km/h (2 Bft)
10.07.2017 04:11 15,8 °C 15,8 °C 89 % 1007,8 hPa 0,0 mm 2,5 km/h (1 Bft) S-SW 204 ° 0 min 0,000 mm 0,0 UV-I 0 W/m² 14,0 °C 15,8 °C 4,8 km/h (1 Bft)
10.07.2017 04:12 15,8 °C 15,8 °C 89 % 1007,8 hPa 0,0 mm 2,6 km/h (1 Bft) W-SW 241 ° 0 min 0,000 mm 0,0 UV-I 0 W/m² 14,0 °C 15,8 °C 4,8 km/h (1 Bft)
10.07.2017 04:13 15,8 °C 15,8 °C 89 % 1007,8 hPa 0,0 mm 2,9 km/h (1 Bft) W-SW 252 ° 0 min 0,000 mm 0,0 UV-I 0 W/m² 14,0 °C 15,8 °C 4,8 km/h (1 Bft)
10.07.2017 04:14 15,8 °C 15,8 °C 89 % 1007,8 hPa 0,0 mm 1,5 km/h (1 Bft) SW 221 ° 0 min 0,000 mm 0,0 UV-I 0 W/m² 14,0 °C 15,8 °C 4,8 km/h (1 Bft)
10.07.2017 04:15 15,8 °C 15,8 °C 88 % 1007,8 hPa 0,0 mm 2,9 km/h (1 Bft) S-SW 198 ° 0 min 0,000 mm 0,0 UV-I 0 W/m² 13,8 °C 15,8 °C 6,4 km/h (2 Bft)
10.07.2017 04:16 15,8 °C 15,8 °C 89 % 1007,9 hPa 0,0 mm 5,6 km/h (1 Bft) S-SW 202 ° 0 min 0,000 mm 0,0 UV-I 0 W/m² 14,0 °C 15,8 °C 11,3 km/h (2 Bft)
10.07.2017 04:17 15,8 °C 15,8 °C 89 % 1007,9 hPa 0,0 mm 0,8 km/h (0 Bft) S-SW 212 ° 0 min 0,000 mm 0,0 UV-I 0 W/m² 14,0 °C 15,8 °C 1,6 km/h (1 Bft)
10.07.2017 04:18 15,8 °C 15,8 °C 89 % 1007,9 hPa 0,0 mm 0,7 km/h (0 Bft) S-SW 212 ° 0 min 0,000 mm 0,0 UV-I 0 W/m² 14,0 °C 15,8 °C 1,6 km/h (1 Bft)
10.07.2017 04:19 15,8 °C 15,8 °C 89 % 1007,8 hPa 0,0 mm 4,4 km/h (1 Bft) SW 228 ° 0 min 0,000 mm 0,0 UV-I 0 W/m² 14,0 °C 15,8 °C 9,7 km/h (2 Bft)
10.07.2017 04:20 15,8 °C 15,8 °C 89 % 1007,8 hPa 0,0 mm 1,9 km/h (1 Bft) SW 227 ° 0 min 0,000 mm 0,0 UV-I 0 W/m² 14,0 °C 15,8 °C 4,8 km/h (1 Bft)
10.07.2017 04:21 15,8 °C 15,8 °C 89 % 1007,9 hPa 0,0 mm 1,7 km/h (1 Bft) SW 215 ° 0 min 0,000 mm 0,0 UV-I 0 W/m² 14,0 °C 15,8 °C 4,8 km/h (1 Bft)
10.07.2017 04:22 15,7 °C 15,8 °C 89 % 1007,9 hPa 0,0 mm 2,1 km/h (1 Bft) SW 220 ° 0 min 0,000 mm 0,0 UV-I 0 W/m² 13,9 °C 15,7 °C 3,2 km/h (1 Bft)
10.07.2017 04:23 15,7 °C 15,7 °C 89 % 1007,9 hPa 0,0 mm 3,5 km/h (1 Bft) S-SW 196 ° 0 min 0,000 mm 0,0 UV-I 0 W/m² 13,9 °C 15,7 °C 4,8 km/h (1 Bft)
10.07.2017 04:24 15,7 °C 15,7 °C 89 % 1007,9 hPa 0,0 mm 2,9 km/h (1 Bft) S-SW 200 ° 0 min 0,000 mm 0,0 UV-I 0 W/m² 13,9 °C 15,7 °C 6,4 km/h (2 Bft)
10.07.2017 04:25 15,7 °C 15,7 °C 89 % 1007,9 hPa 0,0 mm 3,2 km/h (1 Bft) SW 221 ° 0 min 0,000 mm 0,0 UV-I 0 W/m² 13,9 °C 15,7 °C 9,7 km/h (2 Bft)
10.07.2017 04:26 15,7 °C 15,7 °C 89 % 1007,9 hPa 0,0 mm 3,1 km/h (1 Bft) S 188 ° 0 min 0,000 mm 0,0 UV-I 0 W/m² 13,9 °C 15,7 °C 6,4 km/h (2 Bft)
10.07.2017 04:27 15,6 °C 15,7 °C 89 % 1007,8 hPa 0,0 mm 3,7 km/h (1 Bft) S-SW 198 ° 0 min 0,000 mm 0,0 UV-I 0 W/m² 13,8 °C 15,6 °C 8,0 km/h (2 Bft)
10.07.2017 04:28 15,6 °C 15,6 °C 90 % 1007,8 hPa 0,0 mm 1,0 km/h (0 Bft) S-SW 198 ° 0 min 0,000 mm 0,0 UV-I 0 W/m² 14,0 °C 15,6 °C 3,2 km/h (1 Bft)
10.07.2017 04:29 15,5 °C 15,6 °C 90 % 1007,9 hPa 0,0 mm 0,3 km/h (0 Bft) S-SW 198 ° 0 min 0,000 mm 0,0 UV-I 0 W/m² 13,9 °C 15,5 °C 1,6 km/h (1 Bft)
10.07.2017 04:30 15,4 °C 15,5 °C 90 % 1007,9 hPa 0,0 mm 0,0 km/h (0 Bft) S-SW 198 ° 0 min 0,000 mm 0,0 UV-I 0 W/m² 13,8 °C 15,4 °C 0,0 km/h (0 Bft)
10.07.2017 04:31 15,3 °C 15,4 °C 90 % 1007,9 hPa 0,0 mm 0,0 km/h (0 Bft) S-SW 198 ° 0 min 0,000 mm 0,0 UV-I 0 W/m² 13,7 °C 15,3 °C 0,0 km/h (0 Bft)
10.07.2017 04:32 15,2 °C 15,3 °C 91 % 1007,9 hPa 0,0 mm 1,3 km/h (1 Bft) SW 225 ° 0 min 0,000 mm 0,0 UV-I 0 W/m² 13,7 °C 15,2 °C 3,2 km/h (1 Bft)
10.07.2017 04:33 15,2 °C 15,2 °C 91 % 1007,9 hPa 0,0 mm 1,4 km/h (1 Bft) SW 225 ° 0 min 0,000 mm 0,0 UV-I 0 W/m² 13,7 °C 15,2 °C 3,2 km/h (1 Bft)
10.07.2017 04:34 15,1 °C 15,2 °C 91 % 1008,0 hPa 0,0 mm 2,7 km/h (1 Bft) SW 217 ° 0 min 0,000 mm 0,0 UV-I 0 W/m² 13,6 °C 15,1 °C 4,8 km/h (1 Bft)
10.07.2017 04:35 15,2 °C 15,2 °C 91 % 1008,0 hPa 0,0 mm 1,3 km/h (1 Bft) SW 219 ° 0 min 0,000 mm 0,0 UV-I 0 W/m² 13,7 °C 15,2 °C 3,2 km/h (1 Bft)
10.07.2017 04:36 15,2 °C 15,2 °C 92 % 1008,0 hPa 0,0 mm 2,4 km/h (1 Bft) W-SW 248 ° 0 min 0,000 mm 0,0 UV-I 0 W/m² 13,9 °C 15,2 °C 4,8 km/h (1 Bft)
10.07.2017 04:37 15,4 °C 15,4 °C 91 % 1008,0 hPa 0,0 mm 1,9 km/h (1 Bft) W 265 ° 0 min 0,000 mm 0,0 UV-I 0 W/m² 13,9 °C 15,4 °C 3,2 km/h (1 Bft)
10.07.2017 04:38 15,5 °C 15,5 °C 91 % 1008,0 hPa 0,0 mm 1,7 km/h (1 Bft) W 265 ° 0 min 0,000 mm 0,0 UV-I 0 W/m² 14,0 °C 15,5 °C 3,2 km/h (1 Bft)
10.07.2017 04:39 15,6 °C 15,6 °C 91 % 1008,0 hPa 0,0 mm 3,7 km/h (1 Bft) W-NW 293 ° 0 min 0,000 mm 0,0 UV-I 0 W/m² 14,1 °C 15,6 °C 6,4 km/h (2 Bft)
10.07.2017 04:40 15,6 °C 15,7 °C 90 % 1008,0 hPa 0,0 mm 6,3 km/h (2 Bft) S 175 ° 0 min 0,000 mm 0,0 UV-I 0 W/m² 14,0 °C 15,6 °C 11,3 km/h (2 Bft)
10.07.2017 04:41 15,6 °C 15,6 °C 90 % 1008,0 hPa 0,0 mm 1,3 km/h (1 Bft) S 175 ° 0 min 0,000 mm 0,0 UV-I 0 W/m² 14,0 °C 15,6 °C 3,2 km/h (1 Bft)
10.07.2017 04:42 15,6 °C 15,6 °C 90 % 1008,0 hPa 0,0 mm 5,1 km/h (1 Bft) O 101 ° 0 min 0,000 mm 0,0 UV-I 0 W/m² 14,0 °C 15,6 °C 9,7 km/h (2 Bft)
10.07.2017 04:43 15,6 °C 15,6 °C 91 % 1008,0 hPa 0,0 mm 2,9 km/h (1 Bft) S-SW 192 ° 0 min 0,000 mm 0,0 UV-I 0 W/m² 14,1 °C 15,6 °C 4,8 km/h (1 Bft)
10.07.2017 04:44 15,6 °C 15,6 °C 91 % 1008,0 hPa 0,0 mm 0,9 km/h (0 Bft) S 182 ° 0 min 0,000 mm 0,0 UV-I 0 W/m² 14,1 °C 15,6 °C 1,6 km/h (1 Bft)
10.07.2017 04:45 15,6 °C 15,6 °C 91 % 1008,0 hPa 0,0 mm 0,8 km/h (0 Bft) S-SW 192 ° 0 min 0,000 mm 0,0 UV-I 0 W/m² 14,1 °C 15,6 °C 3,2 km/h (1 Bft)
10.07.2017 04:46 15,6 °C 15,6 °C 91 % 1008,0 hPa 0,0 mm 1,9 km/h (1 Bft) S 190 ° 0 min 0,000 mm 0,0 UV-I 0 W/m² 14,1 °C 15,6 °C 4,8 km/h (1 Bft)
10.07.2017 04:47 15,6 °C 15,7 °C 90 % 1008,0 hPa 0,0 mm 3,0 km/h (1 Bft) SW 218 ° 0 min 0,000 mm 0,0 UV-I 0 W/m² 14,0 °C 15,6 °C 8,0 km/h (2 Bft)
10.07.2017 04:48 15,7 °C 15,7 °C 90 % 1008,0 hPa 0,0 mm 4,5 km/h (1 Bft) S-SW 206 ° 0 min 0,000 mm 0,0 UV-I 0 W/m² 14,1 °C 15,7 °C 8,0 km/h (2 Bft)
10.07.2017 04:49 15,7 °C 15,7 °C 90 % 1008,0 hPa 0,0 mm 1,8 km/h (1 Bft) W 265 ° 0 min 0,000 mm 0,0 UV-I 0 W/m² 14,1 °C 15,7 °C 4,8 km/h (1 Bft)
10.07.2017 04:50 15,8 °C 15,8 °C 90 % 1008,0 hPa 0,0 mm 2,7 km/h (1 Bft) S-SW 202 ° 0 min 0,000 mm 0,0 UV-I 0 W/m² 14,2 °C 15,8 °C 6,4 km/h (2 Bft)
10.07.2017 04:51 15,8 °C 15,8 °C 90 % 1008,1 hPa 0,0 mm 1,6 km/h (1 Bft) S-SW 203 ° 0 min 0,000 mm 0,0 UV-I 0 W/m² 14,2 °C 15,8 °C 4,8 km/h (1 Bft)
10.07.2017 04:52 15,8 °C 15,8 °C 90 % 1008,1 hPa 0,0 mm 0,2 km/h (0 Bft) S-SW 203 ° 0 min 0,000 mm 0,0 UV-I 0 W/m² 14,2 °C 15,8 °C 1,6 km/h (1 Bft)
10.07.2017 04:53 15,8 °C 15,9 °C 90 % 1008,1 hPa 0,0 mm 1,1 km/h (1 Bft) S-SW 205 ° 0 min 0,000 mm 0,0 UV-I 0 W/m² 14,2 °C 15,8 °C 4,8 km/h (1 Bft)
10.07.2017 04:54 15,8 °C 15,8 °C 90 % 1008,1 hPa 0,0 mm 1,9 km/h (1 Bft) S-SW 211 ° 0 min 0,000 mm 0,0 UV-I 0 W/m² 14,2 °C 15,8 °C 3,2 km/h (1 Bft)
10.07.2017 04:55 15,8 °C 15,8 °C 90 % 1008,1 hPa 0,0 mm 3,9 km/h (1 Bft) SW 215 ° 0 min 0,000 mm 0,0 UV-I 0 W/m² 14,2 °C 15,8 °C 6,4 km/h (2 Bft)
10.07.2017 04:56 15,8 °C 15,8 °C 90 % 1008,1 hPa 0,0 mm 1,1 km/h (1 Bft) SW 215 ° 0 min 0,000 mm 0,0 UV-I 0 W/m² 14,2 °C 15,8 °C 3,2 km/h (1 Bft)
10.07.2017 04:57 15,8 °C 15,9 °C 90 % 1008,1 hPa 0,0 mm 0,3 km/h (0 Bft) SW 215 ° 0 min 0,000 mm 0,0 UV-I 0 W/m² 14,2 °C 15,8 °C 1,6 km/h (1 Bft)
10.07.2017 04:58 15,8 °C 15,8 °C 90 % 1008,0 hPa 0,0 mm 0,0 km/h (0 Bft) SW 215 ° 0 min 0,000 mm 0,0 UV-I 0 W/m² 14,2 °C 15,8 °C 0,0 km/h (0 Bft)
10.07.2017 04:59 15,7 °C 15,8 °C 90 % 1008,1 hPa 0,0 mm 0,0 km/h (0 Bft) SW 215 ° 0 min 0,000 mm 0,0 UV-I 0 W/m² 14,1 °C 15,7 °C 0,0 km/h (0 Bft)
10.07.2017 05:00 15,6 °C 15,7 °C 91 % 1008,1 hPa 0,0 mm 0,0 km/h (0 Bft) SW 215 ° 0 min 0,000 mm 0,0 UV-I 0 W/m² 14,1 °C 15,6 °C 0,0 km/h (0 Bft)
10.07.2017 05:01 15,6 °C 15,6 °C 91 % 1008,1 hPa 0,0 mm 0,0 km/h (0 Bft) SW 215 ° 0 min 0,000 mm 0,0 UV-I 0 W/m² 14,1 °C 15,6 °C 0,0 km/h (0 Bft)
10.07.2017 05:02 15,5 °C 15,6 °C 91 % 1008,1 hPa 0,0 mm 0,1 km/h (0 Bft) SW 215 ° 0 min 0,000 mm 0,0 UV-I 0 W/m² 14,0 °C 15,5 °C 1,6 km/h (1 Bft)
10.07.2017 05:03 15,5 °C 15,5 °C 91 % 1008,1 hPa 0,0 mm 1,9 km/h (1 Bft) SW 215 ° 0 min 0,000 mm 0,0 UV-I 0 W/m² 14,0 °C 15,5 °C 3,2 km/h (1 Bft)
10.07.2017 05:04 15,5 °C 15,5 °C 91 % 1008,1 hPa 0,0 mm 1,7 km/h (1 Bft) SW 215 ° 0 min 0,000 mm 0,0 UV-I 0 W/m² 14,0 °C 15,5 °C 3,2 km/h (1 Bft)
10.07.2017 05:05 15,5 °C 15,5 °C 91 % 1008,1 hPa 0,0 mm 3,4 km/h (1 Bft) S 170 ° 0 min 0,000 mm 0,0 UV-I 0 W/m² 14,0 °C 15,5 °C 6,4 km/h (2 Bft)
10.07.2017 05:06 15,6 °C 15,6 °C 91 % 1008,1 hPa 0,0 mm 2,1 km/h (1 Bft) S 170 ° 0 min 0,000 mm 0,0 UV-I 0 W/m² 14,1 °C 15,6 °C 3,2 km/h (1 Bft)
10.07.2017 05:07 15,6 °C 15,6 °C 91 % 1008,1 hPa 0,0 mm 2,1 km/h (1 Bft) S 170 ° 0 min 0,000 mm 0,0 UV-I 0 W/m² 14,1 °C 15,6 °C 3,2 km/h (1 Bft)
10.07.2017 05:08 15,6 °C 15,6 °C 91 % 1008,1 hPa 0,0 mm 2,4 km/h (1 Bft) S 170 ° 0 min 0,000 mm 0,0 UV-I 0 W/m² 14,1 °C 15,6 °C 6,4 km/h (2 Bft)
10.07.2017 05:09 15,6 °C 15,6 °C 91 % 1008,1 hPa 0,0 mm 0,4 km/h (0 Bft) S 170 ° 0 min 0,000 mm 0,0 UV-I 0 W/m² 14,1 °C 15,6 °C 3,2 km/h (1 Bft)
10.07.2017 05:10 15,6 °C 15,6 °C 91 % 1008,1 hPa 0,0 mm 0,8 km/h (0 Bft) S 170 ° 0 min 0,000 mm 0,0 UV-I 0 W/m² 14,1 °C 15,6 °C 1,6 km/h (1 Bft)
10.07.2017 05:11 15,6 °C 15,6 °C 91 % 1008,1 hPa 0,0 mm 2,4 km/h (1 Bft) S 170 ° 0 min 0,000 mm 0,0 UV-I 0 W/m² 14,1 °C 15,6 °C 3,2 km/h (1 Bft)
10.07.2017 05:12 15,6 °C 15,6 °C 91 % 1008,1 hPa 0,0 mm 0,3 km/h (0 Bft) S 170 ° 0 min 0,000 mm 0,0 UV-I 0 W/m² 14,1 °C 15,6 °C 1,6 km/h (1 Bft)
10.07.2017 05:13 15,7 °C 15,7 °C 91 % 1008,1 hPa 0,0 mm 0,0 km/h (0 Bft) S 170 ° 0 min 0,000 mm 0,0 UV-I 0 W/m² 14,2 °C 15,7 °C 0,0 km/h (0 Bft)
10.07.2017 05:14 15,6 °C 15,7 °C 91 % 1008,0 hPa 0,0 mm 1,4 km/h (1 Bft) S 170 ° 0 min 0,000 mm 0,0 UV-I 0 W/m² 14,1 °C 15,6 °C 3,2 km/h (1 Bft)
10.07.2017 05:15 15,7 °C 15,7 °C 91 % 1008,1 hPa 0,0 mm 0,1 km/h (0 Bft) S 170 ° 0 min 0,000 mm 0,0 UV-I 0 W/m² 14,2 °C 15,7 °C 1,6 km/h (1 Bft)
10.07.2017 05:16 15,7 °C 15,7 °C 91 % 1008,1 hPa 0,0 mm 0,0 km/h (0 Bft) S 170 ° 0 min 0,000 mm 0,0 UV-I 0 W/m² 14,2 °C 15,7 °C 0,0 km/h (0 Bft)
10.07.2017 05:17 15,7 °C 15,7 °C 91 % 1008,1 hPa 0,0 mm 0,0 km/h (0 Bft) S 170 ° 0 min 0,000 mm 0,0 UV-I 0 W/m² 14,2 °C 15,7 °C 0,0 km/h (0 Bft)
10.07.2017 05:18 15,7 °C 15,7 °C 91 % 1008,1 hPa 0,0 mm 2,5 km/h (1 Bft) S 170 ° 0 min 0,000 mm 0,0 UV-I 0 W/m² 14,2 °C 15,7 °C 3,2 km/h (1 Bft)
10.07.2017 05:19 15,8 °C 15,8 °C 91 % 1008,2 hPa 0,0 mm 1,4 km/h (1 Bft) S 170 ° 0 min 0,000 mm 0,0 UV-I 0 W/m² 14,3 °C 15,8 °C 3,2 km/h (1 Bft)
10.07.2017 05:20 15,8 °C 15,8 °C 91 % 1008,2 hPa 0,0 mm 0,1 km/h (0 Bft) S 170 ° 0 min 0,000 mm 0,0 UV-I 0 W/m² 14,3 °C 15,8 °C 1,6 km/h (1 Bft)
10.07.2017 05:21 15,8 °C 15,8 °C 91 % 1008,2 hPa 0,0 mm 0,0 km/h (0 Bft) S 170 ° 0 min 0,000 mm 0,0 UV-I 0 W/m² 14,3 °C 15,8 °C 0,0 km/h (0 Bft)
10.07.2017 05:22 15,8 °C 15,8 °C 91 % 1008,2 hPa 0,0 mm 1,5 km/h (1 Bft) S 170 ° 0 min 0,000 mm 0,0 UV-I 0 W/m² 14,3 °C 15,8 °C 3,2 km/h (1 Bft)
10.07.2017 05:23 15,8 °C 15,8 °C 91 % 1008,2 hPa 0,0 mm 1,7 km/h (1 Bft) S 170 ° 0 min 0,000 mm 0,0 UV-I 0 W/m² 14,3 °C 15,8 °C 3,2 km/h (1 Bft)
10.07.2017 05:24 15,8 °C 15,8 °C 91 % 1008,2 hPa 0,0 mm 1,9 km/h (1 Bft) S 170 ° 0 min 0,000 mm 0,0 UV-I 0 W/m² 14,3 °C 15,8 °C 3,2 km/h (1 Bft)
10.07.2017 05:25 15,9 °C 15,9 °C 91 % 1008,2 hPa 0,0 mm 1,6 km/h (1 Bft) S 170 ° 0 min 0,000 mm 0,0 UV-I 0 W/m² 14,4 °C 15,9 °C 3,2 km/h (1 Bft)
10.07.2017 05:26 15,9 °C 15,9 °C 91 % 1008,2 hPa 0,0 mm 0,0 km/h (0 Bft) S 170 ° 0 min 0,000 mm 0,0 UV-I 0 W/m² 14,4 °C 15,9 °C 0,0 km/h (0 Bft)
10.07.2017 05:27 15,9 °C 15,9 °C 91 % 1008,3 hPa 0,0 mm 1,3 km/h (1 Bft) S 170 ° 0 min 0,000 mm 0,0 UV-I 0 W/m² 14,4 °C 15,9 °C 3,2 km/h (1 Bft)
10.07.2017 05:28 15,9 °C 15,9 °C 91 % 1008,3 hPa 0,0 mm 2,6 km/h (1 Bft) S 190 ° 0 min 0,000 mm 0,0 UV-I 0 W/m² 14,4 °C 15,9 °C 6,4 km/h (2 Bft)
10.07.2017 05:29 15,9 °C 15,9 °C 91 % 1008,3 hPa 0,0 mm 2,3 km/h (1 Bft) S 190 ° 0 min 0,000 mm 0,0 UV-I 0 W/m² 14,4 °C 15,9 °C 4,8 km/h (1 Bft)
10.07.2017 05:30 16,0 °C 16,0 °C 91 % 1008,3 hPa 0,0 mm 1,1 km/h (1 Bft) S 190 ° 0 min 0,000 mm 0,0 UV-I 0 W/m² 14,5 °C 16,0 °C 3,2 km/h (1 Bft)
10.07.2017 05:31 16,0 °C 16,0 °C 91 % 1008,3 hPa 0,0 mm 2,7 km/h (1 Bft) S 190 ° 0 min 0,000 mm 0,0 UV-I 0 W/m² 14,5 °C 16,0 °C 3,2 km/h (1 Bft)
10.07.2017 05:32 16,0 °C 16,0 °C 91 % 1008,2 hPa 0,0 mm 2,1 km/h (1 Bft) S 190 ° 0 min 0,000 mm 0,0 UV-I 0 W/m² 14,5 °C 16,0 °C 3,2 km/h (1 Bft)
10.07.2017 05:33 16,0 °C 16,0 °C 91 % 1008,3 hPa 0,0 mm 1,9 km/h (1 Bft) S 190 ° 0 min 0,000 mm 0,0 UV-I 0 W/m² 14,5 °C 16,0 °C 3,2 km/h (1 Bft)
10.07.2017 05:34 16,0 °C 16,0 °C 91 % 1008,2 hPa 0,0 mm 0,1 km/h (0 Bft) S 190 ° 0 min 0,000 mm 0,0 UV-I 0 W/m² 14,5 °C 16,0 °C 1,6 km/h (1 Bft)
10.07.2017 05:35 15,9 °C 16,0 °C 91 % 1008,2 hPa 0,0 mm 0,0 km/h (0 Bft) S 190 ° 0 min 0,000 mm 0,0 UV-I 0 W/m² 14,4 °C 15,9 °C 0,0 km/h (0 Bft)
10.07.2017 05:36 15,9 °C 15,9 °C 91 % 1008,2 hPa 0,0 mm 1,3 km/h (1 Bft) S-SW 196 ° 0 min 0,000 mm 0,0 UV-I 0 W/m² 14,4 °C 15,9 °C 3,2 km/h (1 Bft)
10.07.2017 05:37 15,9 °C 15,9 °C 91 % 1008,2 hPa 0,0 mm 1,7 km/h (1 Bft) S-SW 198 ° 0 min 0,000 mm 0,0 UV-I 0 W/m² 14,4 °C 15,9 °C 4,8 km/h (1 Bft)
10.07.2017 05:38 15,9 °C 15,9 °C 91 % 1008,2 hPa 0,0 mm 1,6 km/h (1 Bft) S 182 ° 0 min 0,000 mm 0,0 UV-I 0 W/m² 14,4 °C 15,9 °C 3,2 km/h (1 Bft)
10.07.2017 05:39 15,9 °C 15,9 °C 91 % 1008,3 hPa 0,0 mm 1,7 km/h (1 Bft) S 182 ° 0 min 0,000 mm 0,0 UV-I 0 W/m² 14,4 °C 15,9 °C 3,2 km/h (1 Bft)
10.07.2017 05:40 15,9 °C 15,9 °C 91 % 1008,2 hPa 0,0 mm 0,9 km/h (0 Bft) S 182 ° 0 min 0,000 mm 0,0 UV-I 0 W/m² 14,4 °C 15,9 °C 3,2 km/h (1 Bft)
10.07.2017 05:41 15,9 °C 15,9 °C 91 % 1008,2 hPa 0,0 mm 0,0 km/h (0 Bft) S 182 ° 0 min 0,000 mm 0,0 UV-I 0 W/m² 14,4 °C 15,9 °C 0,0 km/h (0 Bft)
10.07.2017 05:42 15,9 °C 15,9 °C 91 % 1008,2 hPa 0,0 mm 0,8 km/h (0 Bft) S 181 ° 0 min 0,000 mm 0,0 UV-I 0 W/m² 14,4 °C 15,9 °C 1,6 km/h (1 Bft)
10.07.2017 05:43 15,9 °C 15,9 °C 91 % 1008,2 hPa 0,0 mm 0,0 km/h (0 Bft) S 181 ° 0 min 0,000 mm 0,0 UV-I 0 W/m² 14,4 °C 15,9 °C 0,0 km/h (0 Bft)
10.07.2017 05:44 15,8 °C 15,9 °C 91 % 1008,2 hPa 0,0 mm 0,0 km/h (0 Bft) S 181 ° 0 min 0,000 mm 0,0 UV-I 0 W/m² 14,3 °C 15,8 °C 0,0 km/h (0 Bft)
10.07.2017 05:45 15,8 °C 15,8 °C 92 % 1008,2 hPa 0,0 mm 0,0 km/h (0 Bft) S 181 ° 0 min 0,000 mm 0,0 UV-I 0 W/m² 14,5 °C 15,8 °C 0,0 km/h (0 Bft)
10.07.2017 05:46 15,8 °C 15,8 °C 92 % 1008,2 hPa 0,0 mm 0,3 km/h (0 Bft) S-SW 199 ° 0 min 0,000 mm 0,0 UV-I 0 W/m² 14,5 °C 15,8 °C 3,2 km/h (1 Bft)
10.07.2017 05:47 15,7 °C 15,8 °C 92 % 1008,2 hPa 0,0 mm 3,3 km/h (1 Bft) W-SW 253 ° 0 min 0,000 mm 0,0 UV-I 0 W/m² 14,4 °C 15,7 °C 4,8 km/h (1 Bft)
10.07.2017 05:48 15,7 °C 15,7 °C 92 % 1008,2 hPa 0,0 mm 0,9 km/h (0 Bft) W-SW 253 ° 0 min 0,000 mm 0,0 UV-I 0 W/m² 14,4 °C 15,7 °C 3,2 km/h (1 Bft)
10.07.2017 05:49 15,7 °C 15,8 °C 92 % 1008,2 hPa 0,0 mm 0,0 km/h (0 Bft) W-SW 253 ° 0 min 0,000 mm 0,0 UV-I 0 W/m² 14,4 °C 15,7 °C 0,0 km/h (0 Bft)
10.07.2017 05:50 15,7 °C 15,7 °C 92 % 1008,2 hPa 0,0 mm 0,0 km/h (0 Bft) W-SW 253 ° 0 min 0,000 mm 0,0 UV-I 0 W/m² 14,4 °C 15,7 °C 0,0 km/h (0 Bft)
10.07.2017 05:51 15,7 °C 15,7 °C 92 % 1008,2 hPa 0,0 mm 0,0 km/h (0 Bft) W-SW 253 ° 0 min 0,000 mm 0,0 UV-I 5 W/m² 14,4 °C 15,7 °C 0,0 km/h (0 Bft)
10.07.2017 05:52 15,7 °C 15,7 °C 92 % 1008,2 hPa 0,0 mm 0,0 km/h (0 Bft) W-SW 253 ° 0 min 0,000 mm 0,0 UV-I 5 W/m² 14,4 °C 15,7 °C 0,0 km/h (0 Bft)
10.07.2017 05:53 15,7 °C 15,7 °C 92 % 1008,1 hPa 0,0 mm 0,0 km/h (0 Bft) W-SW 253 ° 0 min 0,000 mm 0,0 UV-I 5 W/m² 14,4 °C 15,7 °C 0,0 km/h (0 Bft)
10.07.2017 05:54 15,7 °C 15,7 °C 92 % 1008,1 hPa 0,0 mm 0,0 km/h (0 Bft) W-SW 253 ° 0 min 0,000 mm 0,0 UV-I 5 W/m² 14,4 °C 15,7 °C 0,0 km/h (0 Bft)
10.07.2017 05:55 15,7 °C 15,7 °C 92 % 1008,1 hPa 0,0 mm 0,0 km/h (0 Bft) W-SW 253 ° 0 min 0,000 mm 0,0 UV-I 5 W/m² 14,4 °C 15,7 °C 0,0 km/h (0 Bft)
10.07.2017 05:56 15,7 °C 15,8 °C 92 % 1008,2 hPa 0,0 mm 0,0 km/h (0 Bft) W-SW 253 ° 0 min 0,000 mm 0,0 UV-I 5 W/m² 14,4 °C 15,7 °C 0,0 km/h (0 Bft)
10.07.2017 05:57 15,8 °C 15,8 °C 93 % 1008,2 hPa 0,0 mm 0,4 km/h (0 Bft) W-SW 253 ° 0 min 0,000 mm 0,0 UV-I 5 W/m² 14,7 °C 15,8 °C 1,6 km/h (1 Bft)
10.07.2017 05:58 15,8 °C 15,8 °C 92 % 1008,2 hPa 0,0 mm 1,2 km/h (1 Bft) W-SW 253 ° 0 min 0,000 mm 0,0 UV-I 5 W/m² 14,5 °C 15,8 °C 3,2 km/h (1 Bft)
10.07.2017 05:59 15,8 °C 15,8 °C 92 % 1008,3 hPa 0,0 mm 1,9 km/h (1 Bft) W-SW 253 ° 0 min 0,000 mm 0,0 UV-I 5 W/m² 14,5 °C 15,8 °C 3,2 km/h (1 Bft)
10.07.2017 06:00 15,8 °C 15,8 °C 92 % 1008,3 hPa 0,0 mm 0,4 km/h (0 Bft) W-SW 253 ° 0 min 0,000 mm 0,0 UV-I 5 W/m² 14,5 °C 15,8 °C 1,6 km/h (1 Bft)
10.07.2017 06:01 15,8 °C 15,8 °C 92 % 1008,3 hPa 0,0 mm 0,0 km/h (0 Bft) W-SW 253 ° 0 min 0,000 mm 0,0 UV-I 5 W/m² 14,5 °C 15,8 °C 0,0 km/h (0 Bft)
10.07.2017 06:02 15,8 °C 15,9 °C 92 % 1008,3 hPa 0,0 mm 0,0 km/h (0 Bft) W-SW 253 ° 0 min 0,000 mm 0,0 UV-I 5 W/m² 14,5 °C 15,8 °C 0,0 km/h (0 Bft)
10.07.2017 06:03 15,8 °C 15,9 °C 92 % 1008,2 hPa 0,0 mm 0,0 km/h (0 Bft) W-SW 253 ° 0 min 0,000 mm 0,0 UV-I 5 W/m² 14,5 °C 15,8 °C 0,0 km/h (0 Bft)
10.07.2017 06:04 15,8 °C 15,8 °C 93 % 1008,2 hPa 0,0 mm 0,0 km/h (0 Bft) W-SW 253 ° 0 min 0,000 mm 0,0 UV-I 5 W/m² 14,7 °C 15,8 °C 0,0 km/h (0 Bft)
10.07.2017 06:05 15,8 °C 15,8 °C 93 % 1008,3 hPa 0,0 mm 0,0 km/h (0 Bft) W-SW 253 ° 0 min 0,000 mm 0,0 UV-I 7 W/m² 14,7 °C 15,8 °C 0,0 km/h (0 Bft)
10.07.2017 06:06 15,8 °C 15,8 °C 93 % 1008,3 hPa 0,0 mm 0,0 km/h (0 Bft) W-SW 253 ° 0 min 0,000 mm 0,0 UV-I 7 W/m² 14,7 °C 15,8 °C 0,0 km/h (0 Bft)
10.07.2017 06:07 15,7 °C 15,8 °C 93 % 1008,3 hPa 0,0 mm 0,0 km/h (0 Bft) W-SW 253 ° 0 min 0,000 mm 0,0 UV-I 9 W/m² 14,6 °C 15,7 °C 0,0 km/h (0 Bft)
10.07.2017 06:08 15,7 °C 15,7 °C 93 % 1008,3 hPa 0,0 mm 0,0 km/h (0 Bft) W-SW 253 ° 0 min 0,000 mm 0,0 UV-I 9 W/m² 14,6 °C 15,7 °C 0,0 km/h (0 Bft)
10.07.2017 06:09 15,7 °C 15,7 °C 93 % 1008,3 hPa 0,0 mm 0,0 km/h (0 Bft) W-SW 253 ° 0 min 0,000 mm 0,0 UV-I 9 W/m² 14,6 °C 15,7 °C 0,0 km/h (0 Bft)
10.07.2017 06:10 15,7 °C 15,7 °C 93 % 1008,3 hPa 0,0 mm 0,0 km/h (0 Bft) W-SW 253 ° 0 min 0,000 mm 0,0 UV-I 11 W/m² 14,6 °C 15,7 °C 0,0 km/h (0 Bft)
10.07.2017 06:11 15,7 °C 15,7 °C 93 % 1008,3 hPa 0,0 mm 0,1 km/h (0 Bft) W-SW 257 ° 0 min 0,000 mm 0,0 UV-I 11 W/m² 14,6 °C 15,7 °C 1,6 km/h (1 Bft)
10.07.2017 06:12 15,7 °C 15,7 °C 93 % 1008,3 hPa 0,0 mm 0,3 km/h (0 Bft) W-SW 257 ° 0 min 0,000 mm 0,0 UV-I 11 W/m² 14,6 °C 15,7 °C 1,6 km/h (1 Bft)
10.07.2017 06:13 15,7 °C 15,7 °C 93 % 1008,3 hPa 0,0 mm 1,3 km/h (1 Bft) S-SW 193 ° 0 min 0,000 mm 0,0 UV-I 12 W/m² 14,6 °C 15,7 °C 3,2 km/h (1 Bft)
10.07.2017 06:14 15,6 °C 15,7 °C 93 % 1008,4 hPa 0,0 mm 0,3 km/h (0 Bft) S-SW 193 ° 0 min 0,000 mm 0,0 UV-I 12 W/m² 14,5 °C 15,6 °C 1,6 km/h (1 Bft)
10.07.2017 06:15 15,6 °C 15,6 °C 93 % 1008,4 hPa 0,0 mm 0,7 km/h (0 Bft) S-SW 213 ° 0 min 0,000 mm 0,0 UV-I 12 W/m² 14,5 °C 15,6 °C 3,2 km/h (1 Bft)
10.07.2017 06:16 15,7 °C 15,7 °C 93 % 1008,4 hPa 0,0 mm 0,0 km/h (0 Bft) S-SW 213 ° 0 min 0,000 mm 0,0 UV-I 14 W/m² 14,6 °C 15,7 °C 0,0 km/h (0 Bft)
10.07.2017 06:17 15,6 °C 15,7 °C 93 % 1008,3 hPa 0,0 mm 0,0 km/h (0 Bft) S-SW 213 ° 0 min 0,000 mm 0,0 UV-I 16 W/m² 14,5 °C 15,6 °C 0,0 km/h (0 Bft)
10.07.2017 06:18 15,6 °C 15,7 °C 93 % 1008,3 hPa 0,0 mm 0,0 km/h (0 Bft) S-SW 213 ° 0 min 0,000 mm 0,0 UV-I 16 W/m² 14,5 °C 15,6 °C 0,0 km/h (0 Bft)
10.07.2017 06:19 15,6 °C 15,7 °C 93 % 1008,3 hPa 0,0 mm 0,3 km/h (0 Bft) SW 215 ° 0 min 0,000 mm 0,0 UV-I 18 W/m² 14,5 °C 15,6 °C 3,2 km/h (1 Bft)
10.07.2017 06:20 15,7 °C 15,7 °C 93 % 1008,3 hPa 0,0 mm 0,2 km/h (0 Bft) SW 215 ° 0 min 0,000 mm 0,0 UV-I 19 W/m² 14,6 °C 15,7 °C 1,6 km/h (1 Bft)
10.07.2017 06:21 15,7 °C 15,7 °C 92 % 1008,3 hPa 0,0 mm 1,4 km/h (1 Bft) SW 215 ° 0 min 0,000 mm 0,0 UV-I 19 W/m² 14,4 °C 15,7 °C 3,2 km/h (1 Bft)
10.07.2017 06:22 15,7 °C 15,7 °C 92 % 1008,3 hPa 0,0 mm 0,0 km/h (0 Bft) SW 215 ° 0 min 0,000 mm 0,0 UV-I 21 W/m² 14,4 °C 15,7 °C 0,0 km/h (0 Bft)
10.07.2017 06:23 15,8 °C 15,8 °C 92 % 1008,4 hPa 0,0 mm 0,7 km/h (0 Bft) SW 215 ° 0 min 0,000 mm 0,0 UV-I 23 W/m² 14,5 °C 15,8 °C 1,6 km/h (1 Bft)
10.07.2017 06:24 15,8 °C 15,8 °C 92 % 1008,3 hPa 0,0 mm 0,0 km/h (0 Bft) SW 215 ° 0 min 0,000 mm 0,0 UV-I 25 W/m² 14,5 °C 15,8 °C 0,0 km/h (0 Bft)
10.07.2017 06:25 15,8 °C 15,8 °C 92 % 1008,4 hPa 0,0 mm 0,0 km/h (0 Bft) SW 215 ° 0 min 0,000 mm 0,0 UV-I 25 W/m² 14,5 °C 15,8 °C 0,0 km/h (0 Bft)
10.07.2017 06:26 15,8 °C 15,8 °C 92 % 1008,4 hPa 0,0 mm 0,0 km/h (0 Bft) SW 215 ° 0 min 0,000 mm 0,0 UV-I 25 W/m² 14,5 °C 15,8 °C 0,0 km/h (0 Bft)
10.07.2017 06:27 15,7 °C 15,8 °C 92 % 1008,4 hPa 0,0 mm 0,0 km/h (0 Bft) SW 215 ° 0 min 0,000 mm 0,0 UV-I 26 W/m² 14,4 °C 15,7 °C 0,0 km/h (0 Bft)
10.07.2017 06:28 15,7 °C 15,7 °C 92 % 1008,4 hPa 0,0 mm 1,0 km/h (0 Bft) O-SO 113 ° 0 min 0,000 mm 0,0 UV-I 26 W/m² 14,4 °C 15,7 °C 3,2 km/h (1 Bft)
10.07.2017 06:29 15,7 °C 15,7 °C 92 % 1008,4 hPa 0,0 mm 1,6 km/h (1 Bft) O-SO 115 ° 0 min 0,000 mm 0,0 UV-I 26 W/m² 14,4 °C 15,7 °C 3,2 km/h (1 Bft)
10.07.2017 06:30 15,7 °C 15,7 °C 92 % 1008,4 hPa 0,0 mm 0,2 km/h (0 Bft) O-SO 115 ° 0 min 0,000 mm 0,0 UV-I 28 W/m² 14,4 °C 15,7 °C 1,6 km/h (1 Bft)
10.07.2017 06:31 15,7 °C 15,7 °C 92 % 1008,4 hPa 0,0 mm 0,7 km/h (0 Bft) O-SO 115 ° 0 min 0,000 mm 0,0 UV-I 30 W/m² 14,4 °C 15,7 °C 1,6 km/h (1 Bft)
10.07.2017 06:32 15,7 °C 15,7 °C 92 % 1008,5 hPa 0,0 mm 0,3 km/h (0 Bft) O-SO 115 ° 0 min 0,000 mm 0,0 UV-I 30 W/m² 14,4 °C 15,7 °C 1,6 km/h (1 Bft)
10.07.2017 06:33 15,8 °C 15,8 °C 92 % 1008,4 hPa 0,0 mm 0,1 km/h (0 Bft) O-SO 115 ° 0 min 0,000 mm 0,0 UV-I 32 W/m² 14,5 °C 15,8 °C 1,6 km/h (1 Bft)
10.07.2017 06:34 15,8 °C 15,8 °C 93 % 1008,5 hPa 0,0 mm 0,0 km/h (0 Bft) O-SO 115 ° 0 min 0,000 mm 0,0 UV-I 32 W/m² 14,7 °C 15,8 °C 0,0 km/h (0 Bft)
10.07.2017 06:35 15,7 °C 15,8 °C 93 % 1008,5 hPa 0,0 mm 0,0 km/h (0 Bft) O-SO 115 ° 0 min 0,000 mm 0,0 UV-I 33 W/m² 14,6 °C 15,7 °C 0,0 km/h (0 Bft)
10.07.2017 06:36 15,7 °C 15,8 °C 93 % 1008,5 hPa 0,0 mm 0,0 km/h (0 Bft) O-SO 115 ° 0 min 0,000 mm 0,0 UV-I 35 W/m² 14,6 °C 15,7 °C 0,0 km/h (0 Bft)
10.07.2017 06:37 15,7 °C 15,7 °C 93 % 1008,5 hPa 0,0 mm 0,0 km/h (0 Bft) O-SO 115 ° 0 min 0,000 mm 0,0 UV-I 37 W/m² 14,6 °C 15,7 °C 0,0 km/h (0 Bft)
10.07.2017 06:38 15,7 °C 15,7 °C 93 % 1008,5 hPa 0,0 mm 0,0 km/h (0 Bft) O-SO 115 ° 0 min 0,000 mm 0,0 UV-I 39 W/m² 14,6 °C 15,7 °C 0,0 km/h (0 Bft)
10.07.2017 06:39 15,7 °C 15,8 °C 92 % 1008,6 hPa 0,0 mm 0,4 km/h (0 Bft) O-SO 115 ° 0 min 0,000 mm 0,0 UV-I 40 W/m² 14,4 °C 15,7 °C 1,6 km/h (1 Bft)
10.07.2017 06:40 15,8 °C 15,8 °C 92 % 1008,5 hPa 0,0 mm 1,3 km/h (1 Bft) O-SO 115 ° 0 min 0,000 mm 0,0 UV-I 42 W/m² 14,5 °C 15,8 °C 1,6 km/h (1 Bft)
10.07.2017 06:41 15,8 °C 15,8 °C 91 % 1008,5 hPa 0,0 mm 1,0 km/h (0 Bft) O-SO 115 ° 0 min 0,000 mm 0,0 UV-I 47 W/m² 14,3 °C 15,8 °C 1,6 km/h (1 Bft)
10.07.2017 06:42 15,8 °C 15,8 °C 91 % 1008,5 hPa 0,0 mm 0,7 km/h (0 Bft) O-SO 115 ° 0 min 0,000 mm 0,0 UV-I 51 W/m² 14,3 °C 15,8 °C 1,6 km/h (1 Bft)
10.07.2017 06:43 15,8 °C 15,8 °C 91 % 1008,5 hPa 0,0 mm 1,9 km/h (1 Bft) O-SO 116 ° 0 min 0,000 mm 0,0 UV-I 53 W/m² 14,3 °C 15,8 °C 3,2 km/h (1 Bft)
10.07.2017 06:44 15,9 °C 15,9 °C 91 % 1008,5 hPa 0,0 mm 2,5 km/h (1 Bft) W-SW 238 ° 0 min 0,000 mm 0,0 UV-I 54 W/m² 14,4 °C 15,9 °C 4,8 km/h (1 Bft)
10.07.2017 06:45 15,9 °C 15,9 °C 91 % 1008,5 hPa 0,0 mm 0,0 km/h (0 Bft) W-SW 238 ° 0 min 0,000 mm 0,0 UV-I 54 W/m² 14,4 °C 15,9 °C 0,0 km/h (0 Bft)
10.07.2017 06:46 15,9 °C 15,9 °C 91 % 1008,6 hPa 0,0 mm 0,0 km/h (0 Bft) W-SW 238 ° 0 min 0,000 mm 0,0 UV-I 54 W/m² 14,4 °C 15,9 °C 0,0 km/h (0 Bft)
10.07.2017 06:47 15,9 °C 15,9 °C 91 % 1008,6 hPa 0,0 mm 0,0 km/h (0 Bft) W-SW 238 ° 0 min 0,000 mm 0,0 UV-I 58 W/m² 14,4 °C 15,9 °C 0,0 km/h (0 Bft)
10.07.2017 06:48 15,9 °C 15,9 °C 91 % 1008,6 hPa 0,0 mm 0,0 km/h (0 Bft) W-SW 238 ° 0 min 0,000 mm 0,0 UV-I 56 W/m² 14,4 °C 15,9 °C 0,0 km/h (0 Bft)
10.07.2017 06:49 16,0 °C 16,0 °C 91 % 1008,7 hPa 0,0 mm 0,0 km/h (0 Bft) W-SW 238 ° 0 min 0,000 mm 0,0 UV-I 58 W/m² 14,5 °C 16,0 °C 0,0 km/h (0 Bft)
10.07.2017 06:50 16,0 °C 16,0 °C 91 % 1008,6 hPa 0,0 mm 0,0 km/h (0 Bft) W-SW 238 ° 0 min 0,000 mm 0,0 UV-I 58 W/m² 14,5 °C 16,0 °C 0,0 km/h (0 Bft)
10.07.2017 06:51 16,0 °C 16,0 °C 91 % 1008,6 hPa 0,0 mm 0,3 km/h (0 Bft) W-SW 238 ° 0 min 0,000 mm 0,0 UV-I 62 W/m² 14,5 °C 16,0 °C 1,6 km/h (1 Bft)
10.07.2017 06:52 16,0 °C 16,0 °C 91 % 1008,7 hPa 0,0 mm 0,3 km/h (0 Bft) W-SW 238 ° 0 min 0,000 mm 0,0 UV-I 65 W/m² 14,5 °C 16,0 °C 1,6 km/h (1 Bft)
10.07.2017 06:53 16,1 °C 16,1 °C 91 % 1008,6 hPa 0,0 mm 0,0 km/h (0 Bft) W-SW 238 ° 0 min 0,000 mm 0,0 UV-I 65 W/m² 14,6 °C 16,1 °C 0,0 km/h (0 Bft)
10.07.2017 06:54 16,1 °C 16,1 °C 92 % 1008,6 hPa 0,0 mm 0,0 km/h (0 Bft) W-SW 238 ° 0 min 0,000 mm 0,0 UV-I 67 W/m² 14,8 °C 16,1 °C 0,0 km/h (0 Bft)
10.07.2017 06:55 16,1 °C 16,1 °C 92 % 1008,6 hPa 0,0 mm 0,0 km/h (0 Bft) W-SW 238 ° 0 min 0,000 mm 0,0 UV-I 69 W/m² 14,8 °C 16,1 °C 0,0 km/h (0 Bft)
10.07.2017 06:56 16,1 °C 16,1 °C 91 % 1008,6 hPa 0,0 mm 0,0 km/h (0 Bft) W-SW 238 ° 0 min 0,000 mm 0,0 UV-I 70 W/m² 14,6 °C 16,1 °C 0,0 km/h (0 Bft)
10.07.2017 06:57 16,1 °C 16,1 °C 91 % 1008,7 hPa 0,0 mm 0,0 km/h (0 Bft) W-SW 238 ° 0 min 0,000 mm 0,0 UV-I 79 W/m² 14,6 °C 16,1 °C 0,0 km/h (0 Bft)
10.07.2017 06:58 16,1 °C 16,1 °C 91 % 1008,6 hPa 0,0 mm 0,0 km/h (0 Bft) W-SW 238 ° 0 min 0,000 mm 0,0 UV-I 95 W/m² 14,6 °C 16,1 °C 0,0 km/h (0 Bft)
10.07.2017 06:59 16,2 °C 16,2 °C 91 % 1008,6 hPa 0,0 mm 0,0 km/h (0 Bft) W-SW 238 ° 0 min 0,000 mm 0,0 UV-I 77 W/m² 14,7 °C 16,2 °C 0,0 km/h (0 Bft)
10.07.2017 07:00 16,2 °C 16,2 °C 91 % 1008,6 hPa 0,0 mm 0,0 km/h (0 Bft) W-SW 238 ° 0 min 0,025 mm 0,0 UV-I 83 W/m² 14,7 °C 16,2 °C 0,0 km/h (0 Bft)
10.07.2017 07:01 16,2 °C 16,3 °C 91 % 1008,6 hPa 0,0 mm 0,0 km/h (0 Bft) W-SW 238 ° 0 min 0,000 mm 0,0 UV-I 79 W/m² 14,7 °C 16,2 °C 0,0 km/h (0 Bft)
10.07.2017 07:02 16,2 °C 16,2 °C 91 % 1008,7 hPa 0,0 mm 0,0 km/h (0 Bft) W-SW 238 ° 0 min 0,000 mm 0,5 UV-I 81 W/m² 14,7 °C 16,2 °C 0,0 km/h (0 Bft)
10.07.2017 07:03 16,2 °C 16,2 °C 91 % 1008,7 hPa 0,0 mm 0,0 km/h (0 Bft) W-SW 238 ° 0 min 0,000 mm 0,5 UV-I 84 W/m² 14,7 °C 16,2 °C 0,0 km/h (0 Bft)
10.07.2017 07:04 16,2 °C 16,2 °C 92 % 1008,6 hPa 0,0 mm 0,0 km/h (0 Bft) W-SW 238 ° 0 min 0,000 mm 0,5 UV-I 88 W/m² 14,9 °C 16,2 °C 0,0 km/h (0 Bft)
10.07.2017 07:05 16,2 °C 16,2 °C 92 % 1008,6 hPa 0,0 mm 0,0 km/h (0 Bft) W-SW 238 ° 0 min 0,000 mm 0,5 UV-I 88 W/m² 14,9 °C 16,2 °C 0,0 km/h (0 Bft)
10.07.2017 07:06 16,2 °C 16,2 °C 92 % 1008,7 hPa 0,0 mm 0,0 km/h (0 Bft) W-SW 238 ° 0 min 0,000 mm 0,5 UV-I 88 W/m² 14,9 °C 16,2 °C 0,0 km/h (0 Bft)
10.07.2017 07:07 16,2 °C 16,2 °C 91 % 1008,7 hPa 0,0 mm 0,0 km/h (0 Bft) W-SW 238 ° 0 min 0,000 mm 0,5 UV-I 88 W/m² 14,7 °C 16,2 °C 0,0 km/h (0 Bft)
10.07.2017 07:08 16,3 °C 16,3 °C 91 % 1008,7 hPa 0,0 mm 0,3 km/h (0 Bft) W-SW 238 ° 0 min 0,000 mm 0,5 UV-I 86 W/m² 14,8 °C 16,3 °C 1,6 km/h (1 Bft)
10.07.2017 07:09 16,3 °C 16,3 °C 91 % 1008,7 hPa 0,0 mm 0,3 km/h (0 Bft) W-SW 238 ° 0 min 0,000 mm 0,5 UV-I 86 W/m² 14,8 °C 16,3 °C 1,6 km/h (1 Bft)
10.07.2017 07:10 16,3 °C 16,3 °C 91 % 1008,8 hPa 0,0 mm 0,0 km/h (0 Bft) W-SW 238 ° 0 min 0,000 mm 0,5 UV-I 90 W/m² 14,8 °C 16,3 °C 0,0 km/h (0 Bft)
10.07.2017 07:11 16,4 °C 16,4 °C 91 % 1008,7 hPa 0,0 mm 0,0 km/h (0 Bft) W-SW 238 ° 0 min 0,000 mm 0,5 UV-I 93 W/m² 14,9 °C 16,4 °C 0,0 km/h (0 Bft)
10.07.2017 07:12 16,4 °C 16,4 °C 91 % 1008,7 hPa 0,0 mm 0,5 km/h (0 Bft) W-SW 238 ° 0 min 0,000 mm 0,5 UV-I 93 W/m² 14,9 °C 16,4 °C 1,6 km/h (1 Bft)
10.07.2017 07:13 16,4 °C 16,4 °C 91 % 1008,8 hPa 0,0 mm 0,0 km/h (0 Bft) W-SW 238 ° 0 min 0,000 mm 0,5 UV-I 91 W/m² 14,9 °C 16,4 °C 0,0 km/h (0 Bft)
10.07.2017 07:14 16,4 °C 16,4 °C 91 % 1008,8 hPa 0,0 mm 0,0 km/h (0 Bft) W-SW 238 ° 0 min 0,000 mm 0,5 UV-I 90 W/m² 14,9 °C 16,4 °C 0,0 km/h (0 Bft)
10.07.2017 07:15 16,4 °C 16,4 °C 91 % 1008,8 hPa 0,0 mm 0,0 km/h (0 Bft) W-SW 238 ° 0 min 0,000 mm 0,5 UV-I 86 W/m² 14,9 °C 16,4 °C 0,0 km/h (0 Bft)
10.07.2017 07:16 16,5 °C 16,5 °C 91 % 1008,8 hPa 0,0 mm 0,0 km/h (0 Bft) W-SW 238 ° 0 min 0,000 mm 0,5 UV-I 84 W/m² 15,0 °C 16,5 °C 0,0 km/h (0 Bft)
10.07.2017 07:17 16,6 °C 16,6 °C 91 % 1008,8 hPa 0,0 mm 0,0 km/h (0 Bft) W-SW 238 ° 0 min 0,000 mm 0,5 UV-I 84 W/m² 15,1 °C 16,6 °C 0,0 km/h (0 Bft)
10.07.2017 07:18 16,6 °C 16,6 °C 91 % 1008,8 hPa 0,0 mm 0,0 km/h (0 Bft) W-SW 238 ° 0 min 0,000 mm 0,5 UV-I 86 W/m² 15,1 °C 16,6 °C 0,0 km/h (0 Bft)
10.07.2017 07:19 16,6 °C 16,6 °C 92 % 1008,8 hPa 0,0 mm 0,0 km/h (0 Bft) W-SW 238 ° 0 min 0,000 mm 0,6 UV-I 90 W/m² 15,3 °C 16,6 °C 0,0 km/h (0 Bft)
10.07.2017 07:20 16,7 °C 16,7 °C 91 % 1008,8 hPa 0,0 mm 0,0 km/h (0 Bft) W-SW 238 ° 0 min 0,000 mm 0,6 UV-I 95 W/m² 15,2 °C 16,7 °C 0,0 km/h (0 Bft)
10.07.2017 07:21 16,7 °C 16,7 °C 92 % 1008,8 hPa 0,0 mm 0,0 km/h (0 Bft) W-SW 238 ° 0 min 0,000 mm 0,6 UV-I 98 W/m² 15,4 °C 16,7 °C 0,0 km/h (0 Bft)
10.07.2017 07:22 16,7 °C 16,7 °C 92 % 1008,8 hPa 0,0 mm 0,0 km/h (0 Bft) W-SW 238 ° 0 min 0,000 mm 0,6 UV-I 100 W/m² 15,4 °C 16,7 °C 0,0 km/h (0 Bft)
10.07.2017 07:23 16,8 °C 16,8 °C 92 % 1008,8 hPa 0,0 mm 0,0 km/h (0 Bft) W-SW 238 ° 0 min 0,000 mm 0,6 UV-I 100 W/m² 15,5 °C 16,8 °C 0,0 km/h (0 Bft)
10.07.2017 07:24 16,8 °C 16,8 °C 92 % 1008,8 hPa 0,0 mm 0,0 km/h (0 Bft) W-SW 238 ° 0 min 0,000 mm 0,6 UV-I 102 W/m² 15,5 °C 16,8 °C 0,0 km/h (0 Bft)
10.07.2017 07:25 16,8 °C 16,8 °C 90 % 1008,8 hPa 0,0 mm 0,0 km/h (0 Bft) W-SW 238 ° 0 min 0,000 mm 0,6 UV-I 104 W/m² 15,1 °C 16,8 °C 0,0 km/h (0 Bft)
10.07.2017 07:26 16,9 °C 16,9 °C 90 % 1008,8 hPa 0,0 mm 0,0 km/h (0 Bft) W-SW 238 ° 0 min 0,000 mm 0,6 UV-I 107 W/m² 15,2 °C 16,9 °C 0,0 km/h (0 Bft)
10.07.2017 07:27 16,9 °C 16,9 °C 91 % 1008,8 hPa 0,0 mm 0,0 km/h (0 Bft) W-SW 238 ° 0 min 0,000 mm 0,7 UV-I 109 W/m² 15,4 °C 16,9 °C 0,0 km/h (0 Bft)
10.07.2017 07:28 16,9 °C 16,9 °C 91 % 1008,8 hPa 0,0 mm 0,0 km/h (0 Bft) W-SW 238 ° 0 min 0,000 mm 0,7 UV-I 113 W/m² 15,4 °C 16,9 °C 0,0 km/h (0 Bft)
10.07.2017 07:29 16,9 °C 16,9 °C 90 % 1008,8 hPa 0,0 mm 0,1 km/h (0 Bft) W-SW 238 ° 0 min 0,000 mm 0,7 UV-I 116 W/m² 15,2 °C 16,9 °C 1,6 km/h (1 Bft)
10.07.2017 07:30 17,0 °C 17,0 °C 90 % 1008,9 hPa 0,0 mm 0,7 km/h (0 Bft) W-SW 238 ° 0 min 0,000 mm 0,7 UV-I 120 W/m² 15,3 °C 17,0 °C 1,6 km/h (1 Bft)
10.07.2017 07:31 17,1 °C 17,1 °C 90 % 1008,9 hPa 0,0 mm 0,1 km/h (0 Bft) W-SW 238 ° 0 min 0,000 mm 0,7 UV-I 114 W/m² 15,4 °C 17,1 °C 1,6 km/h (1 Bft)
10.07.2017 07:32 17,1 °C 17,1 °C 90 % 1008,9 hPa 0,0 mm 0,0 km/h (0 Bft) W-SW 238 ° 0 min 0,000 mm 0,7 UV-I 113 W/m² 15,4 °C 17,1 °C 0,0 km/h (0 Bft)
10.07.2017 07:33 17,1 °C 17,1 °C 89 % 1008,9 hPa 0,0 mm 0,0 km/h (0 Bft) W-SW 238 ° 0 min 0,000 mm 0,7 UV-I 116 W/m² 15,3 °C 17,1 °C 0,0 km/h (0 Bft)
10.07.2017 07:34 17,1 °C 17,2 °C 88 % 1008,9 hPa 0,0 mm 0,0 km/h (0 Bft) W-SW 238 ° 0 min 0,000 mm 0,7 UV-I 116 W/m² 15,1 °C 17,1 °C 0,0 km/h (0 Bft)
10.07.2017 07:35 17,2 °C 17,2 °C 89 % 1008,9 hPa 0,0 mm 0,0 km/h (0 Bft) W-SW 238 ° 0 min 0,000 mm 0,7 UV-I 114 W/m² 15,4 °C 17,2 °C 0,0 km/h (0 Bft)
10.07.2017 07:36 17,2 °C 17,2 °C 89 % 1008,9 hPa 0,0 mm 0,0 km/h (0 Bft) W-SW 238 ° 0 min 0,000 mm 0,7 UV-I 114 W/m² 15,4 °C 17,2 °C 0,0 km/h (0 Bft)
10.07.2017 07:37 17,3 °C 17,3 °C 89 % 1008,9 hPa 0,0 mm 0,0 km/h (0 Bft) W-SW 238 ° 0 min 0,000 mm 0,7 UV-I 114 W/m² 15,5 °C 17,3 °C 0,0 km/h (0 Bft)
10.07.2017 07:38 17,3 °C 17,3 °C 89 % 1008,9 hPa 0,0 mm 0,0 km/h (0 Bft) W-SW 238 ° 0 min 0,000 mm 0,7 UV-I 114 W/m² 15,5 °C 17,3 °C 0,0 km/h (0 Bft)
10.07.2017 07:39 17,3 °C 17,3 °C 89 % 1008,9 hPa 0,0 mm 0,0 km/h (0 Bft) W-SW 238 ° 0 min 0,000 mm 0,7 UV-I 114 W/m² 15,5 °C 17,3 °C 0,0 km/h (0 Bft)
10.07.2017 07:40 17,3 °C 17,3 °C 88 % 1008,9 hPa 0,0 mm 0,0 km/h (0 Bft) W-SW 238 ° 0 min 0,000 mm 0,8 UV-I 123 W/m² 15,3 °C 17,3 °C 0,0 km/h (0 Bft)
10.07.2017 07:41 17,3 °C 17,3 °C 88 % 1008,9 hPa 0,0 mm 0,0 km/h (0 Bft) W-SW 238 ° 0 min 0,000 mm 0,8 UV-I 127 W/m² 15,3 °C 17,3 °C 0,0 km/h (0 Bft)
10.07.2017 07:42 17,3 °C 17,3 °C 88 % 1008,9 hPa 0,0 mm 0,0 km/h (0 Bft) W-SW 238 ° 0 min 0,000 mm 0,8 UV-I 128 W/m² 15,3 °C 17,3 °C 0,0 km/h (0 Bft)
10.07.2017 07:43 17,3 °C 17,3 °C 89 % 1008,9 hPa 0,0 mm 0,0 km/h (0 Bft) W-SW 238 ° 0 min 0,000 mm 0,8 UV-I 130 W/m² 15,5 °C 17,3 °C 0,0 km/h (0 Bft)
10.07.2017 07:44 17,3 °C 17,3 °C 89 % 1008,9 hPa 0,0 mm 0,0 km/h (0 Bft) W-SW 238 ° 0 min 0,000 mm 0,8 UV-I 132 W/m² 15,5 °C 17,3 °C 0,0 km/h (0 Bft)
10.07.2017 07:45 17,3 °C 17,3 °C 89 % 1008,9 hPa 0,0 mm 0,0 km/h (0 Bft) W-SW 238 ° 0 min 0,000 mm 0,9 UV-I 134 W/m² 15,5 °C 17,3 °C 0,0 km/h (0 Bft)
10.07.2017 07:46 17,3 °C 17,3 °C 90 % 1008,9 hPa 0,0 mm 1,5 km/h (1 Bft) SW 222 ° 0 min 0,000 mm 0,9 UV-I 134 W/m² 15,6 °C 17,3 °C 3,2 km/h (1 Bft)
10.07.2017 07:47 17,3 °C 17,3 °C 89 % 1008,9 hPa 0,0 mm 0,7 km/h (0 Bft) SW 222 ° 0 min 0,000 mm 0,9 UV-I 134 W/m² 15,5 °C 17,3 °C 1,6 km/h (1 Bft)
10.07.2017 07:48 17,3 °C 17,3 °C 89 % 1008,9 hPa 0,0 mm 1,3 km/h (1 Bft) SW 222 ° 0 min 0,000 mm 0,9 UV-I 137 W/m² 15,5 °C 17,3 °C 1,6 km/h (1 Bft)
10.07.2017 07:49 17,3 °C 17,3 °C 88 % 1008,9 hPa 0,0 mm 0,0 km/h (0 Bft) SW 222 ° 0 min 0,000 mm 0,9 UV-I 139 W/m² 15,3 °C 17,3 °C 0,0 km/h (0 Bft)
10.07.2017 07:50 17,3 °C 17,4 °C 88 % 1008,9 hPa 0,0 mm 0,0 km/h (0 Bft) SW 222 ° 0 min 0,000 mm 0,9 UV-I 135 W/m² 15,3 °C 17,3 °C 0,0 km/h (0 Bft)
10.07.2017 07:51 17,4 °C 17,4 °C 88 % 1008,9 hPa 0,0 mm 0,0 km/h (0 Bft) SW 222 ° 0 min 0,000 mm 0,9 UV-I 130 W/m² 15,4 °C 17,4 °C 0,0 km/h (0 Bft)
10.07.2017 07:52 17,4 °C 17,4 °C 88 % 1008,9 hPa 0,0 mm 0,0 km/h (0 Bft) SW 222 ° 0 min 0,000 mm 0,9 UV-I 128 W/m² 15,4 °C 17,4 °C 0,0 km/h (0 Bft)
10.07.2017 07:53 17,4 °C 17,4 °C 88 % 1008,9 hPa 0,0 mm 0,0 km/h (0 Bft) SW 222 ° 0 min 0,000 mm 0,9 UV-I 130 W/m² 15,4 °C 17,4 °C 0,0 km/h (0 Bft)
10.07.2017 07:54 17,4 °C 17,4 °C 88 % 1008,9 hPa 0,0 mm 0,0 km/h (0 Bft) SW 222 ° 0 min 0,000 mm 0,9 UV-I 134 W/m² 15,4 °C 17,4 °C 0,0 km/h (0 Bft)
10.07.2017 07:55 17,4 °C 17,4 °C 88 % 1008,9 hPa 0,0 mm 0,0 km/h (0 Bft) SW 223 ° 0 min 0,000 mm 0,9 UV-I 142 W/m² 15,4 °C 17,4 °C 0,0 km/h (0 Bft)
10.07.2017 07:56 17,6 °C 17,6 °C 88 % 1008,9 hPa 0,0 mm 0,0 km/h (0 Bft) SW 223 ° 0 min 0,000 mm 1,0 UV-I 149 W/m² 15,6 °C 17,6 °C 0,0 km/h (0 Bft)
10.07.2017 07:57 17,6 °C 17,6 °C 89 % 1008,9 hPa 0,0 mm 0,0 km/h (0 Bft) SW 223 ° 0 min 0,000 mm 1,0 UV-I 162 W/m² 15,8 °C 17,6 °C 0,0 km/h (0 Bft)
10.07.2017 07:58 17,6 °C 17,6 °C 89 % 1008,9 hPa 0,0 mm 0,0 km/h (0 Bft) SW 223 ° 0 min 0,000 mm 1,0 UV-I 163 W/m² 15,8 °C 17,6 °C 0,0 km/h (0 Bft)
10.07.2017 07:59 17,6 °C 17,6 °C 89 % 1008,9 hPa 0,0 mm 0,0 km/h (0 Bft) SW 223 ° 0 min 0,000 mm 1,0 UV-I 165 W/m² 15,8 °C 17,6 °C 0,0 km/h (0 Bft)
10.07.2017 08:00 17,5 °C 17,6 °C 88 % 1008,9 hPa 0,0 mm 2,3 km/h (1 Bft) SW 222 ° 0 min 0,051 mm 1,0 UV-I 165 W/m² 15,5 °C 17,5 °C 3,2 km/h (1 Bft)
10.07.2017 08:01 17,6 °C 17,6 °C 88 % 1008,9 hPa 0,0 mm 2,2 km/h (1 Bft) SW 222 ° 0 min 0,000 mm 1,0 UV-I 163 W/m² 15,6 °C 17,6 °C 3,2 km/h (1 Bft)
10.07.2017 08:02 17,6 °C 17,6 °C 88 % 1008,9 hPa 0,0 mm 1,3 km/h (1 Bft) SW 222 ° 0 min 0,000 mm 1,0 UV-I 162 W/m² 15,6 °C 17,6 °C 3,2 km/h (1 Bft)
10.07.2017 08:03 17,6 °C 17,6 °C 87 % 1008,9 hPa 0,0 mm 0,7 km/h (0 Bft) SW 222 ° 0 min 0,000 mm 1,0 UV-I 162 W/m² 15,4 °C 17,6 °C 1,6 km/h (1 Bft)
10.07.2017 08:04 17,6 °C 17,6 °C 87 % 1008,9 hPa 0,0 mm 0,5 km/h (0 Bft) S 171 ° 0 min 0,000 mm 1,0 UV-I 165 W/m² 15,4 °C 17,6 °C 3,2 km/h (1 Bft)
10.07.2017 08:05 17,6 °C 17,6 °C 88 % 1008,9 hPa 0,0 mm 2,7 km/h (1 Bft) SO 128 ° 0 min 0,000 mm 1,0 UV-I 167 W/m² 15,6 °C 17,6 °C 4,8 km/h (1 Bft)
10.07.2017 08:06 17,6 °C 17,7 °C 88 % 1008,9 hPa 0,0 mm 1,3 km/h (1 Bft) SO 128 ° 0 min 0,000 mm 1,0 UV-I 171 W/m² 15,6 °C 17,6 °C 3,2 km/h (1 Bft)
10.07.2017 08:07 17,7 °C 17,7 °C 88 % 1008,9 hPa 0,0 mm 0,0 km/h (0 Bft) SO 128 ° 0 min 0,000 mm 1,0 UV-I 171 W/m² 15,7 °C 17,7 °C 0,0 km/h (0 Bft)
10.07.2017 08:08 17,7 °C 17,7 °C 88 % 1008,9 hPa 0,0 mm 0,0 km/h (0 Bft) SO 128 ° 0 min 0,000 mm 1,0 UV-I 167 W/m² 15,7 °C 17,7 °C 0,0 km/h (0 Bft)
10.07.2017 08:09 17,8 °C 17,8 °C 88 % 1008,9 hPa 0,0 mm 0,0 km/h (0 Bft) SO 128 ° 0 min 0,000 mm 1,0 UV-I 158 W/m² 15,8 °C 17,8 °C 0,0 km/h (0 Bft)
10.07.2017 08:10 17,8 °C 17,8 °C 88 % 1008,9 hPa 0,0 mm 0,0 km/h (0 Bft) SO 128 ° 0 min 0,000 mm 1,0 UV-I 156 W/m² 15,8 °C 17,8 °C 0,0 km/h (0 Bft)
10.07.2017 08:11 17,8 °C 17,8 °C 88 % 1008,9 hPa 0,0 mm 0,0 km/h (0 Bft) SO 128 ° 0 min 0,000 mm 1,0 UV-I 155 W/m² 15,8 °C 17,8 °C 0,0 km/h (0 Bft)
10.07.2017 08:12 17,8 °C 17,8 °C 87 % 1008,9 hPa 0,0 mm 1,0 km/h (0 Bft) SO 128 ° 0 min 0,000 mm 1,0 UV-I 155 W/m² 15,6 °C 17,8 °C 3,2 km/h (1 Bft)
10.07.2017 08:13 17,8 °C 17,8 °C 87 % 1008,9 hPa 0,0 mm 2,5 km/h (1 Bft) O-SO 123 ° 0 min 0,000 mm 1,0 UV-I 155 W/m² 15,6 °C 17,8 °C 4,8 km/h (1 Bft)
10.07.2017 08:14 17,8 °C 17,8 °C 88 % 1008,9 hPa 0,0 mm 2,5 km/h (1 Bft) O-NO 63 ° 0 min 0,000 mm 1,0 UV-I 155 W/m² 15,8 °C 17,8 °C 4,8 km/h (1 Bft)
10.07.2017 08:15 17,8 °C 17,8 °C 87 % 1008,9 hPa 0,0 mm 4,5 km/h (1 Bft) O-NO 58 ° 0 min 0,000 mm 1,0 UV-I 149 W/m² 15,6 °C 17,8 °C 6,4 km/h (2 Bft)
10.07.2017 08:16 17,8 °C 17,8 °C 87 % 1008,9 hPa 0,0 mm 2,2 km/h (1 Bft) O-NO 58 ° 0 min 0,000 mm 0,9 UV-I 149 W/m² 15,6 °C 17,8 °C 3,2 km/h (1 Bft)
10.07.2017 08:17 17,8 °C 17,8 °C 87 % 1009,0 hPa 0,0 mm 1,3 km/h (1 Bft) O-NO 58 ° 0 min 0,000 mm 1,0 UV-I 148 W/m² 15,6 °C 17,8 °C 3,2 km/h (1 Bft)
10.07.2017 08:18 17,8 °C 17,8 °C 87 % 1008,9 hPa 0,0 mm 0,7 km/h (0 Bft) O-NO 58 ° 0 min 0,000 mm 1,0 UV-I 149 W/m² 15,6 °C 17,8 °C 3,2 km/h (1 Bft)
10.07.2017 08:19 17,8 °C 17,8 °C 87 % 1009,0 hPa 0,0 mm 0,6 km/h (0 Bft) O-NO 58 ° 0 min 0,000 mm 1,0 UV-I 151 W/m² 15,6 °C 17,8 °C 3,2 km/h (1 Bft)
10.07.2017 08:20 17,8 °C 17,8 °C 87 % 1008,9 hPa 0,0 mm 2,7 km/h (1 Bft) O-NO 58 ° 0 min 0,000 mm 1,0 UV-I 158 W/m² 15,6 °C 17,8 °C 4,8 km/h (1 Bft)
10.07.2017 08:21 17,9 °C 17,9 °C 87 % 1009,0 hPa 0,0 mm 3,1 km/h (1 Bft) O-NO 58 ° 0 min 0,000 mm 1,1 UV-I 165 W/m² 15,7 °C 17,9 °C 4,8 km/h (1 Bft)
10.07.2017 08:22 17,9 °C 17,9 °C 87 % 1009,0 hPa 0,0 mm 2,7 km/h (1 Bft) O-NO 58 ° 0 min 0,000 mm 1,2 UV-I 174 W/m² 15,7 °C 17,9 °C 3,2 km/h (1 Bft)
10.07.2017 08:23 17,9 °C 17,9 °C 86 % 1009,0 hPa 0,0 mm 1,0 km/h (0 Bft) O-NO 58 ° 0 min 0,000 mm 1,2 UV-I 181 W/m² 15,5 °C 17,9 °C 1,6 km/h (1 Bft)
10.07.2017 08:24 17,9 °C 17,9 °C 86 % 1009,0 hPa 0,0 mm 0,1 km/h (0 Bft) O-NO 58 ° 0 min 0,000 mm 1,2 UV-I 186 W/m² 15,5 °C 17,9 °C 1,6 km/h (1 Bft)
10.07.2017 08:25 17,9 °C 17,9 °C 86 % 1009,0 hPa 0,0 mm 1,5 km/h (1 Bft) O-NO 58 ° 0 min 0,000 mm 1,2 UV-I 186 W/m² 15,5 °C 17,9 °C 3,2 km/h (1 Bft)
10.07.2017 08:26 17,9 °C 17,9 °C 86 % 1009,0 hPa 0,0 mm 0,0 km/h (0 Bft) O-NO 58 ° 0 min 0,000 mm 1,2 UV-I 179 W/m² 15,5 °C 17,9 °C 0,0 km/h (0 Bft)
10.07.2017 08:27 17,9 °C 17,9 °C 86 % 1009,0 hPa 0,0 mm 0,0 km/h (0 Bft) O-NO 58 ° 0 min 0,000 mm 1,3 UV-I 174 W/m² 15,5 °C 17,9 °C 0,0 km/h (0 Bft)
10.07.2017 08:28 18,1 °C 18,1 °C 88 % 1009,0 hPa 0,0 mm 0,0 km/h (0 Bft) O-NO 58 ° 0 min 0,000 mm 1,3 UV-I 171 W/m² 16,1 °C 18,1 °C 0,0 km/h (0 Bft)
10.07.2017 08:29 18,1 °C 18,1 °C 87 % 1009,1 hPa 0,0 mm 0,0 km/h (0 Bft) O-NO 58 ° 0 min 0,000 mm 1,3 UV-I 176 W/m² 15,9 °C 18,1 °C 0,0 km/h (0 Bft)
10.07.2017 08:30 18,1 °C 18,1 °C 86 % 1009,0 hPa 0,0 mm 0,0 km/h (0 Bft) O-NO 58 ° 0 min 0,000 mm 1,4 UV-I 185 W/m² 15,7 °C 18,1 °C 0,0 km/h (0 Bft)
10.07.2017 08:31 18,1 °C 18,1 °C 87 % 1009,0 hPa 0,0 mm 0,0 km/h (0 Bft) O-NO 58 ° 0 min 0,000 mm 1,4 UV-I 195 W/m² 15,9 °C 18,1 °C 0,0 km/h (0 Bft)
10.07.2017 08:32 18,2 °C 18,2 °C 86 % 1009,1 hPa 0,0 mm 0,0 km/h (0 Bft) O-NO 58 ° 0 min 0,000 mm 1,5 UV-I 223 W/m² 15,8 °C 18,2 °C 0,0 km/h (0 Bft)
10.07.2017 08:33 18,2 °C 18,2 °C 87 % 1009,1 hPa 0,0 mm 0,0 km/h (0 Bft) O-NO 58 ° 0 min 0,000 mm 1,6 UV-I 237 W/m² 16,0 °C 18,2 °C 0,0 km/h (0 Bft)
10.07.2017 08:34 18,3 °C 18,3 °C 87 % 1009,1 hPa 0,0 mm 0,0 km/h (0 Bft) O-NO 58 ° 0 min 0,000 mm 1,6 UV-I 251 W/m² 16,1 °C 18,3 °C 0,0 km/h (0 Bft)
10.07.2017 08:35 18,3 °C 18,3 °C 87 % 1009,1 hPa 0,0 mm 0,0 km/h (0 Bft) O-NO 58 ° 0 min 0,000 mm 2,0 UV-I 251 W/m² 16,1 °C 18,3 °C 0,0 km/h (0 Bft)
10.07.2017 08:36 18,4 °C 18,4 °C 87 % 1009,1 hPa 0,0 mm 0,0 km/h (0 Bft) O-NO 58 ° 0 min 0,000 mm 1,8 UV-I 251 W/m² 16,2 °C 18,4 °C 0,0 km/h (0 Bft)
10.07.2017 08:37 18,4 °C 18,4 °C 86 % 1009,0 hPa 0,0 mm 0,0 km/h (0 Bft) O-NO 58 ° 0 min 0,000 mm 1,6 UV-I 251 W/m² 16,0 °C 18,4 °C 0,0 km/h (0 Bft)
10.07.2017 08:38 18,4 °C 18,4 °C 86 % 1009,0 hPa 0,0 mm 0,0 km/h (0 Bft) O-NO 58 ° 1 min 0,000 mm 1,7 UV-I 294 W/m² 16,0 °C 18,4 °C 0,0 km/h (0 Bft)
10.07.2017 08:39 18,4 °C 18,4 °C 85 % 1009,0 hPa 0,0 mm 0,0 km/h (0 Bft) O-NO 58 ° 0 min 0,000 mm 1,6 UV-I 248 W/m² 15,8 °C 18,4 °C 0,0 km/h (0 Bft)
10.07.2017 08:40 18,4 °C 18,4 °C 85 % 1008,9 hPa 0,0 mm 0,0 km/h (0 Bft) O-NO 58 ° 0 min 0,000 mm 1,6 UV-I 243 W/m² 15,8 °C 18,4 °C 0,0 km/h (0 Bft)
10.07.2017 08:41 18,4 °C 18,4 °C 85 % 1008,9 hPa 0,0 mm 0,0 km/h (0 Bft) O-NO 58 ° 0 min 0,000 mm 1,6 UV-I 236 W/m² 15,8 °C 18,4 °C 0,0 km/h (0 Bft)
10.07.2017 08:42 18,5 °C 18,5 °C 86 % 1009,0 hPa 0,0 mm 0,0 km/h (0 Bft) O-NO 58 ° 0 min 0,000 mm 1,6 UV-I 225 W/m² 16,1 °C 18,5 °C 0,0 km/h (0 Bft)
10.07.2017 08:43 18,5 °C 18,5 °C 85 % 1009,0 hPa 0,0 mm 0,0 km/h (0 Bft) O-NO 58 ° 0 min 0,000 mm 1,5 UV-I 218 W/m² 15,9 °C 18,5 °C 0,0 km/h (0 Bft)
10.07.2017 08:44 18,6 °C 18,6 °C 86 % 1008,9 hPa 0,0 mm 0,0 km/h (0 Bft) O-NO 58 ° 0 min 0,000 mm 1,5 UV-I 204 W/m² 16,2 °C 18,6 °C 0,0 km/h (0 Bft)
10.07.2017 08:45 18,7 °C 18,7 °C 86 % 1009,0 hPa 0,0 mm 0,0 km/h (0 Bft) O-NO 58 ° 0 min 0,000 mm 1,5 UV-I 199 W/m² 16,3 °C 18,7 °C 0,0 km/h (0 Bft)
10.07.2017 08:46 18,8 °C 18,8 °C 86 % 1009,0 hPa 0,0 mm 0,0 km/h (0 Bft) O-NO 58 ° 0 min 0,000 mm 1,5 UV-I 195 W/m² 16,4 °C 18,8 °C 0,0 km/h (0 Bft)
10.07.2017 08:47 18,8 °C 18,8 °C 86 % 1009,0 hPa 0,0 mm 0,0 km/h (0 Bft) O-NO 58 ° 0 min 0,000 mm 1,4 UV-I 192 W/m² 16,4 °C 18,8 °C 0,0 km/h (0 Bft)
10.07.2017 08:48 18,8 °C 18,8 °C 86 % 1009,0 hPa 0,0 mm 0,0 km/h (0 Bft) O-NO 58 ° 0 min 0,000 mm 1,4 UV-I 186 W/m² 16,4 °C 18,8 °C 0,0 km/h (0 Bft)
10.07.2017 08:49 18,8 °C 18,8 °C 85 % 1009,0 hPa 0,0 mm 0,0 km/h (0 Bft) O-NO 58 ° 0 min 0,000 mm 1,4 UV-I 181 W/m² 16,2 °C 18,8 °C 0,0 km/h (0 Bft)
10.07.2017 08:50 18,8 °C 18,8 °C 86 % 1009,0 hPa 0,0 mm 0,0 km/h (0 Bft) O-NO 58 ° 0 min 0,000 mm 1,4 UV-I 181 W/m² 16,4 °C 18,8 °C 0,0 km/h (0 Bft)
10.07.2017 08:51 18,7 °C 18,8 °C 83 % 1009,0 hPa 0,0 mm 1,9 km/h (1 Bft) O-SO 105 ° 0 min 0,000 mm 1,4 UV-I 179 W/m² 15,8 °C 18,7 °C 3,2 km/h (1 Bft)
10.07.2017 08:52 18,6 °C 18,7 °C 82 % 1009,0 hPa 0,0 mm 3,0 km/h (1 Bft) O-SO 111 ° 0 min 0,000 mm 1,4 UV-I 179 W/m² 15,5 °C 18,6 °C 4,8 km/h (1 Bft)
10.07.2017 08:53 18,6 °C 18,6 °C 83 % 1009,0 hPa 0,0 mm 0,8 km/h (0 Bft) O-SO 111 ° 0 min 0,000 mm 1,4 UV-I 179 W/m² 15,7 °C 18,6 °C 3,2 km/h (1 Bft)
10.07.2017 08:54 18,6 °C 18,6 °C 83 % 1009,0 hPa 0,0 mm 0,7 km/h (0 Bft) O-SO 109 ° 0 min 0,000 mm 1,4 UV-I 178 W/m² 15,7 °C 18,6 °C 3,2 km/h (1 Bft)
10.07.2017 08:55 18,6 °C 18,6 °C 83 % 1009,0 hPa 0,0 mm 1,1 km/h (1 Bft) O-SO 109 ° 0 min 0,000 mm 1,3 UV-I 167 W/m² 15,7 °C 18,6 °C 1,6 km/h (1 Bft)
10.07.2017 08:56 18,5 °C 18,6 °C 83 % 1009,0 hPa 0,0 mm 2,1 km/h (1 Bft) O-SO 109 ° 0 min 0,000 mm 1,3 UV-I 163 W/m² 15,6 °C 18,5 °C 3,2 km/h (1 Bft)
10.07.2017 08:57 18,5 °C 18,6 °C 83 % 1009,0 hPa 0,0 mm 1,3 km/h (1 Bft) O-SO 109 ° 0 min 0,000 mm 1,3 UV-I 160 W/m² 15,6 °C 18,5 °C 1,6 km/h (1 Bft)
10.07.2017 08:58 18,5 °C 18,6 °C 83 % 1009,0 hPa 0,0 mm 0,1 km/h (0 Bft) O-SO 109 ° 0 min 0,000 mm 1,3 UV-I 160 W/m² 15,6 °C 18,5 °C 1,6 km/h (1 Bft)
10.07.2017 08:59 18,5 °C 18,5 °C 83 % 1009,0 hPa 0,0 mm 0,0 km/h (0 Bft) O-SO 109 ° 0 min 0,000 mm 1,3 UV-I 158 W/m² 15,6 °C 18,5 °C 0,0 km/h (0 Bft)
10.07.2017 09:00 18,5 °C 18,5 °C 83 % 1009,0 hPa 0,0 mm 0,9 km/h (0 Bft) O-SO 109 ° 0 min 0,000 mm 1,3 UV-I 160 W/m² 15,6 °C 18,5 °C 3,2 km/h (1 Bft)
10.07.2017 09:01 18,6 °C 18,6 °C 83 % 1009,0 hPa 0,0 mm 1,7 km/h (1 Bft) O-SO 109 ° 0 min 0,102 mm 1,3 UV-I 155 W/m² 15,7 °C 18,6 °C 3,2 km/h (1 Bft)
10.07.2017 09:02 18,5 °C 18,6 °C 83 % 1009,0 hPa 0,0 mm 1,3 km/h (1 Bft) O-SO 109 ° 0 min 0,000 mm 1,2 UV-I 149 W/m² 15,6 °C 18,5 °C 3,2 km/h (1 Bft)
10.07.2017 09:03 18,5 °C 18,6 °C 84 % 1009,0 hPa 0,0 mm 0,0 km/h (0 Bft) O-SO 109 ° 0 min 0,000 mm 1,2 UV-I 144 W/m² 15,7 °C 18,5 °C 0,0 km/h (0 Bft)
10.07.2017 09:04 18,5 °C 18,5 °C 82 % 1009,1 hPa 0,0 mm 1,0 km/h (0 Bft) O-SO 109 ° 0 min 0,000 mm 1,2 UV-I 139 W/m² 15,4 °C 18,5 °C 1,6 km/h (1 Bft)
10.07.2017 09:05 18,5 °C 18,5 °C 83 % 1009,1 hPa 0,0 mm 0,6 km/h (0 Bft) O-SO 109 ° 0 min 0,000 mm 1,2 UV-I 139 W/m² 15,6 °C 18,5 °C 1,6 km/h (1 Bft)
10.07.2017 09:06 18,5 °C 18,5 °C 82 % 1009,1 hPa 0,0 mm 0,2 km/h (0 Bft) O-SO 109 ° 0 min 0,000 mm 1,2 UV-I 139 W/m² 15,4 °C 18,5 °C 1,6 km/h (1 Bft)
10.07.2017 09:07 18,5 °C 18,5 °C 82 % 1009,0 hPa 0,0 mm 0,2 km/h (0 Bft) O-SO 109 ° 0 min 0,000 mm 1,2 UV-I 141 W/m² 15,4 °C 18,5 °C 1,6 km/h (1 Bft)
10.07.2017 09:08 18,5 °C 18,5 °C 82 % 1009,0 hPa 0,0 mm 0,0 km/h (0 Bft) O-SO 109 ° 0 min 0,000 mm 1,1 UV-I 139 W/m² 15,4 °C 18,5 °C 0,0 km/h (0 Bft)
10.07.2017 09:09 18,5 °C 18,5 °C 82 % 1009,0 hPa 0,0 mm 0,0 km/h (0 Bft) O-SO 109 ° 0 min 0,000 mm 1,1 UV-I 135 W/m² 15,4 °C 18,5 °C 0,0 km/h (0 Bft)
10.07.2017 09:10 18,5 °C 18,5 °C 83 % 1009,0 hPa 0,0 mm 0,0 km/h (0 Bft) O-SO 109 ° 0 min 0,000 mm 1,1 UV-I 132 W/m² 15,6 °C 18,5 °C 0,0 km/h (0 Bft)
10.07.2017 09:11 18,5 °C 18,5 °C 85 % 1009,0 hPa 0,0 mm 0,0 km/h (0 Bft) O-SO 109 ° 0 min 0,000 mm 1,0 UV-I 130 W/m² 15,9 °C 18,5 °C 0,0 km/h (0 Bft)
10.07.2017 09:12 18,6 °C 18,6 °C 84 % 1009,0 hPa 0,0 mm 0,0 km/h (0 Bft) O-SO 109 ° 0 min 0,000 mm 1,0 UV-I 128 W/m² 15,8 °C 18,6 °C 0,0 km/h (0 Bft)
10.07.2017 09:13 18,5 °C 18,6 °C 83 % 1009,1 hPa 0,0 mm 0,0 km/h (0 Bft) O-SO 109 ° 0 min 0,000 mm 1,0 UV-I 128 W/m² 15,6 °C 18,5 °C 0,0 km/h (0 Bft)
10.07.2017 09:14 18,6 °C 18,6 °C 84 % 1009,1 hPa 0,0 mm 0,7 km/h (0 Bft) O-SO 109 ° 0 min 0,000 mm 1,0 UV-I 127 W/m² 15,8 °C 18,6 °C 1,6 km/h (1 Bft)
10.07.2017 09:15 18,6 °C 18,6 °C 85 % 1009,1 hPa 0,0 mm 0,5 km/h (0 Bft) O-SO 109 ° 0 min 0,000 mm 1,0 UV-I 127 W/m² 16,0 °C 18,6 °C 1,6 km/h (1 Bft)
10.07.2017 09:16 18,5 °C 18,6 °C 83 % 1009,1 hPa 0,0 mm 0,0 km/h (0 Bft) O-SO 109 ° 0 min 0,000 mm 1,0 UV-I 128 W/m² 15,6 °C 18,5 °C 0,0 km/h (0 Bft)
10.07.2017 09:17 18,5 °C 18,6 °C 83 % 1009,1 hPa 0,0 mm 0,2 km/h (0 Bft) O-SO 109 ° 0 min 0,000 mm 1,1 UV-I 130 W/m² 15,6 °C 18,5 °C 1,6 km/h (1 Bft)
10.07.2017 09:18 18,5 °C 18,6 °C 84 % 1009,1 hPa 0,0 mm 0,0 km/h (0 Bft) O-SO 109 ° 0 min 0,000 mm 1,1 UV-I 134 W/m² 15,7 °C 18,5 °C 0,0 km/h (0 Bft)
10.07.2017 09:19 18,5 °C 18,6 °C 84 % 1009,1 hPa 0,0 mm 0,0 km/h (0 Bft) O-SO 109 ° 0 min 0,000 mm 1,1 UV-I 137 W/m² 15,7 °C 18,5 °C 0,0 km/h (0 Bft)
10.07.2017 09:20 18,5 °C 18,6 °C 84 % 1009,1 hPa 0,0 mm 0,0 km/h (0 Bft) O-SO 109 ° 0 min 0,000 mm 1,1 UV-I 139 W/m² 15,7 °C 18,5 °C 0,0 km/h (0 Bft)
10.07.2017 09:21 18,5 °C 18,5 °C 85 % 1009,1 hPa 0,0 mm 0,0 km/h (0 Bft) O-SO 109 ° 0 min 0,000 mm 1,1 UV-I 137 W/m² 15,9 °C 18,5 °C 0,0 km/h (0 Bft)
10.07.2017 09:22 18,4 °C 18,5 °C 85 % 1009,1 hPa 0,0 mm 0,0 km/h (0 Bft) O-SO 109 ° 0 min 0,000 mm 1,1 UV-I 137 W/m² 15,8 °C 18,4 °C 0,0 km/h (0 Bft)
10.07.2017 09:23 18,4 °C 18,4 °C 85 % 1009,2 hPa 0,0 mm 0,0 km/h (0 Bft) O-SO 109 ° 0 min 0,000 mm 1,1 UV-I 135 W/m² 15,8 °C 18,4 °C 0,0 km/h (0 Bft)
10.07.2017 09:24 18,4 °C 18,4 °C 85 % 1009,2 hPa 0,0 mm 0,0 km/h (0 Bft) O-SO 109 ° 0 min 0,000 mm 1,1 UV-I 130 W/m² 15,8 °C 18,4 °C 0,0 km/h (0 Bft)
10.07.2017 09:25 18,4 °C 18,4 °C 85 % 1009,2 hPa 0,0 mm 1,1 km/h (1 Bft) O-SO 109 ° 0 min 0,000 mm 1,1 UV-I 128 W/m² 15,8 °C 18,4 °C 1,6 km/h (1 Bft)
10.07.2017 09:26 18,4 °C 18,4 °C 85 % 1009,2 hPa 0,0 mm 2,5 km/h (1 Bft) O-SO 109 ° 0 min 0,000 mm 1,0 UV-I 127 W/m² 15,8 °C 18,4 °C 3,2 km/h (1 Bft)
10.07.2017 09:27 18,4 °C 18,4 °C 85 % 1009,1 hPa 0,0 mm 3,3 km/h (1 Bft) O-SO 109 ° 0 min 0,000 mm 1,0 UV-I 125 W/m² 15,8 °C 18,4 °C 4,8 km/h (1 Bft)
10.07.2017 09:28 18,3 °C 18,4 °C 85 % 1009,1 hPa 0,0 mm 2,6 km/h (1 Bft) O-SO 109 ° 0 min 0,000 mm 1,0 UV-I 125 W/m² 15,7 °C 18,3 °C 4,8 km/h (1 Bft)
10.07.2017 09:29 18,3 °C 18,3 °C 85 % 1009,2 hPa 0,0 mm 1,1 km/h (1 Bft) O-SO 109 ° 0 min 0,000 mm 1,0 UV-I 123 W/m² 15,7 °C 18,3 °C 3,2 km/h (1 Bft)
10.07.2017 09:30 18,3 °C 18,3 °C 86 % 1009,2 hPa 0,0 mm 3,0 km/h (1 Bft) O-SO 109 ° 0 min 0,000 mm 1,0 UV-I 121 W/m² 15,9 °C 18,3 °C 4,8 km/h (1 Bft)
10.07.2017 09:31 18,3 °C 18,3 °C 85 % 1009,1 hPa 0,0 mm 3,6 km/h (1 Bft) O-NO 60 ° 0 min 0,000 mm 1,0 UV-I 120 W/m² 15,7 °C 18,3 °C 4,8 km/h (1 Bft)
10.07.2017 09:32 18,3 °C 18,3 °C 86 % 1009,1 hPa 0,0 mm 4,2 km/h (1 Bft) O-NO 60 ° 0 min 0,000 mm 1,0 UV-I 120 W/m² 15,9 °C 18,3 °C 4,8 km/h (1 Bft)
10.07.2017 09:33 18,3 °C 18,3 °C 86 % 1009,2 hPa 0,0 mm 3,0 km/h (1 Bft) O-NO 60 ° 0 min 0,000 mm 1,0 UV-I 118 W/m² 15,9 °C 18,3 °C 4,8 km/h (1 Bft)
10.07.2017 09:34 18,3 °C 18,3 °C 86 % 1009,2 hPa 0,0 mm 1,4 km/h (1 Bft) O-NO 60 ° 0 min 0,000 mm 1,0 UV-I 116 W/m² 15,9 °C 18,3 °C 3,2 km/h (1 Bft)
10.07.2017 09:35 18,2 °C 18,3 °C 86 % 1009,2 hPa 0,0 mm 2,9 km/h (1 Bft) O-NO 60 ° 0 min 0,000 mm 1,0 UV-I 116 W/m² 15,8 °C 18,2 °C 4,8 km/h (1 Bft)
10.07.2017 09:36 18,2 °C 18,2 °C 85 % 1009,2 hPa 0,0 mm 3,6 km/h (1 Bft) O-NO 60 ° 0 min 0,000 mm 1,0 UV-I 116 W/m² 15,6 °C 18,2 °C 4,8 km/h (1 Bft)
10.07.2017 09:37 18,2 °C 18,2 °C 86 % 1009,2 hPa 0,0 mm 2,5 km/h (1 Bft) O-NO 60 ° 0 min 0,000 mm 1,0 UV-I 116 W/m² 15,8 °C 18,2 °C 3,2 km/h (1 Bft)
10.07.2017 09:38 18,2 °C 18,2 °C 86 % 1009,2 hPa 0,0 mm 1,3 km/h (1 Bft) O-NO 60 ° 0 min 0,000 mm 1,0 UV-I 116 W/m² 15,8 °C 18,2 °C 3,2 km/h (1 Bft)
10.07.2017 09:39 18,2 °C 18,2 °C 86 % 1009,2 hPa 0,0 mm 2,5 km/h (1 Bft) O-NO 60 ° 0 min 0,000 mm 1,0 UV-I 114 W/m² 15,8 °C 18,2 °C 4,8 km/h (1 Bft)
10.07.2017 09:40 18,2 °C 18,2 °C 86 % 1009,2 hPa 0,0 mm 1,9 km/h (1 Bft) O-NO 60 ° 0 min 0,000 mm 1,0 UV-I 114 W/m² 15,8 °C 18,2 °C 3,2 km/h (1 Bft)
10.07.2017 09:41 18,2 °C 18,2 °C 86 % 1009,2 hPa 0,0 mm 1,8 km/h (1 Bft) O-NO 60 ° 0 min 0,000 mm 1,0 UV-I 116 W/m² 15,8 °C 18,2 °C 3,2 km/h (1 Bft)
10.07.2017 09:42 18,2 °C 18,2 °C 86 % 1009,2 hPa 0,0 mm 1,6 km/h (1 Bft) O-NO 60 ° 0 min 0,000 mm 1,1 UV-I 135 W/m² 15,8 °C 18,2 °C 3,2 km/h (1 Bft)
10.07.2017 09:43 18,2 °C 18,2 °C 86 % 1009,2 hPa 0,0 mm 2,1 km/h (1 Bft) O-NO 60 ° 0 min 0,000 mm 1,3 UV-I 146 W/m² 15,8 °C 18,2 °C 3,2 km/h (1 Bft)
10.07.2017 09:44 18,1 °C 18,2 °C 86 % 1009,2 hPa 0,0 mm 2,4 km/h (1 Bft) O-NO 60 ° 0 min 0,000 mm 1,4 UV-I 158 W/m² 15,7 °C 18,1 °C 3,2 km/h (1 Bft)
10.07.2017 09:45 18,2 °C 18,2 °C 86 % 1009,2 hPa 0,0 mm 2,5 km/h (1 Bft) O-NO 60 ° 0 min 0,000 mm 1,5 UV-I 171 W/m² 15,8 °C 18,2 °C 3,2 km/h (1 Bft)
10.07.2017 09:46 18,2 °C 18,2 °C 86 % 1009,2 hPa 0,0 mm 1,3 km/h (1 Bft) O-NO 60 ° 0 min 0,000 mm 1,6 UV-I 183 W/m² 15,8 °C 18,2 °C 3,2 km/h (1 Bft)
10.07.2017 09:47 18,2 °C 18,2 °C 85 % 1009,3 hPa 0,0 mm 0,8 km/h (0 Bft) O-NO 60 ° 0 min 0,000 mm 1,7 UV-I 193 W/m² 15,6 °C 18,2 °C 1,6 km/h (1 Bft)
10.07.2017 09:48 18,2 °C 18,2 °C 85 % 1009,3 hPa 0,0 mm 0,0 km/h (0 Bft) O-NO 60 ° 0 min 0,000 mm 1,8 UV-I 211 W/m² 15,6 °C 18,2 °C 0,0 km/h (0 Bft)
10.07.2017 09:49 18,2 °C 18,2 °C 86 % 1009,2 hPa 0,0 mm 0,6 km/h (0 Bft) O-NO 60 ° 0 min 0,000 mm 1,9 UV-I 214 W/m² 15,8 °C 18,2 °C 3,2 km/h (1 Bft)
10.07.2017 09:50 18,3 °C 18,3 °C 87 % 1009,2 hPa 0,0 mm 2,3 km/h (1 Bft) O-NO 60 ° 0 min 0,000 mm 1,9 UV-I 216 W/m² 16,1 °C 18,3 °C 4,8 km/h (1 Bft)
10.07.2017 09:51 18,3 °C 18,3 °C 85 % 1009,3 hPa 0,0 mm 1,4 km/h (1 Bft) O-NO 60 ° 0 min 0,000 mm 1,9 UV-I 216 W/m² 15,7 °C 18,3 °C 3,2 km/h (1 Bft)
10.07.2017 09:52 18,4 °C 18,4 °C 85 % 1009,3 hPa 0,0 mm 1,8 km/h (1 Bft) O-NO 60 ° 0 min 0,000 mm 1,9 UV-I 214 W/m² 15,8 °C 18,4 °C 3,2 km/h (1 Bft)
10.07.2017 09:53 18,4 °C 18,4 °C 85 % 1009,2 hPa 0,0 mm 0,5 km/h (0 Bft) O-NO 60 ° 0 min 0,000 mm 1,9 UV-I 214 W/m² 15,8 °C 18,4 °C 1,6 km/h (1 Bft)
10.07.2017 09:54 18,4 °C 18,4 °C 85 % 1009,3 hPa 0,0 mm 0,0 km/h (0 Bft) O-NO 60 ° 0 min 0,000 mm 1,9 UV-I 214 W/m² 15,8 °C 18,4 °C 0,0 km/h (0 Bft)
10.07.2017 09:55 18,4 °C 18,4 °C 85 % 1009,3 hPa 0,0 mm 0,0 km/h (0 Bft) O-NO 60 ° 0 min 0,000 mm 1,9 UV-I 214 W/m² 15,8 °C 18,4 °C 0,0 km/h (0 Bft)
10.07.2017 09:56 18,4 °C 18,4 °C 86 % 1009,3 hPa 0,0 mm 0,0 km/h (0 Bft) O-NO 60 ° 0 min 0,000 mm 1,9 UV-I 214 W/m² 16,0 °C 18,4 °C 0,0 km/h (0 Bft)
10.07.2017 09:57 18,4 °C 18,4 °C 85 % 1009,3 hPa 0,0 mm 0,7 km/h (0 Bft) O-NO 60 ° 0 min 0,000 mm 1,9 UV-I 218 W/m² 15,8 °C 18,4 °C 1,6 km/h (1 Bft)
10.07.2017 09:58 18,4 °C 18,4 °C 86 % 1009,3 hPa 0,0 mm 1,0 km/h (0 Bft) O-NO 60 ° 0 min 0,000 mm 1,9 UV-I 223 W/m² 16,0 °C 18,4 °C 1,6 km/h (1 Bft)
10.07.2017 09:59 18,5 °C 18,5 °C 86 % 1009,2 hPa 0,0 mm 0,9 km/h (0 Bft) O-NO 60 ° 0 min 0,000 mm 2,0 UV-I 227 W/m² 16,1 °C 18,5 °C 1,6 km/h (1 Bft)
10.07.2017 10:00 18,6 °C 18,6 °C 87 % 1009,2 hPa 0,0 mm 0,0 km/h (0 Bft) O-NO 60 ° 0 min 0,000 mm 2,0 UV-I 232 W/m² 16,4 °C 18,6 °C 0,0 km/h (0 Bft)
10.07.2017 10:01 18,6 °C 18,6 °C 86 % 1009,3 hPa 0,0 mm 0,0 km/h (0 Bft) O-NO 60 ° 0 min 0,101 mm 2,0 UV-I 234 W/m² 16,2 °C 18,6 °C 0,0 km/h (0 Bft)
10.07.2017 10:02 18,6 °C 18,6 °C 86 % 1009,3 hPa 0,0 mm 0,0 km/h (0 Bft) O-NO 60 ° 0 min 0,000 mm 2,0 UV-I 230 W/m² 16,2 °C 18,6 °C 0,0 km/h (0 Bft)
10.07.2017 10:03 18,6 °C 18,6 °C 85 % 1009,3 hPa 0,0 mm 0,1 km/h (0 Bft) O-NO 60 ° 0 min 0,000 mm 2,0 UV-I 227 W/m² 16,0 °C 18,6 °C 1,6 km/h (1 Bft)
10.07.2017 10:04 18,6 °C 18,6 °C 85 % 1009,3 hPa 0,0 mm 0,1 km/h (0 Bft) O-NO 60 ° 0 min 0,000 mm 2,0 UV-I 221 W/m² 16,0 °C 18,6 °C 1,6 km/h (1 Bft)
10.07.2017 10:05 18,7 °C 18,7 °C 86 % 1009,3 hPa 0,0 mm 0,0 km/h (0 Bft) O-NO 60 ° 0 min 0,000 mm 2,0 UV-I 216 W/m² 16,3 °C 18,7 °C 0,0 km/h (0 Bft)
10.07.2017 10:06 18,8 °C 18,8 °C 86 % 1009,3 hPa 0,0 mm 0,6 km/h (0 Bft) O-NO 60 ° 0 min 0,000 mm 1,9 UV-I 206 W/m² 16,4 °C 18,8 °C 1,6 km/h (1 Bft)
10.07.2017 10:07 18,8 °C 18,8 °C 87 % 1009,3 hPa 0,0 mm 0,0 km/h (0 Bft) O-NO 60 ° 0 min 0,000 mm 2,0 UV-I 202 W/m² 16,6 °C 18,8 °C 0,0 km/h (0 Bft)
10.07.2017 10:08 18,9 °C 18,9 °C 86 % 1009,3 hPa 0,0 mm 0,8 km/h (0 Bft) O-NO 60 ° 0 min 0,000 mm 2,0 UV-I 200 W/m² 16,5 °C 18,9 °C 1,6 km/h (1 Bft)
10.07.2017 10:09 18,9 °C 18,9 °C 86 % 1009,3 hPa 0,0 mm 1,2 km/h (1 Bft) O-NO 60 ° 0 min 0,000 mm 1,8 UV-I 206 W/m² 16,5 °C 18,9 °C 1,6 km/h (1 Bft)
10.07.2017 10:10 18,9 °C 18,9 °C 85 % 1009,3 hPa 0,0 mm 2,0 km/h (1 Bft) O-NO 60 ° 0 min 0,000 mm 2,2 UV-I 216 W/m² 16,3 °C 18,9 °C 3,2 km/h (1 Bft)
10.07.2017 10:11 18,9 °C 18,9 °C 85 % 1009,3 hPa 0,0 mm 1,8 km/h (1 Bft) O-NO 60 ° 0 min 0,000 mm 2,4 UV-I 232 W/m² 16,3 °C 18,9 °C 3,2 km/h (1 Bft)
10.07.2017 10:12 18,9 °C 18,9 °C 86 % 1009,3 hPa 0,0 mm 1,9 km/h (1 Bft) O-NO 60 ° 0 min 0,000 mm 2,5 UV-I 265 W/m² 16,5 °C 18,9 °C 3,2 km/h (1 Bft)
10.07.2017 10:13 19,0 °C 19,0 °C 86 % 1009,3 hPa 0,0 mm 1,2 km/h (1 Bft) O-NO 60 ° 1 min 0,000 mm 2,9 UV-I 295 W/m² 16,6 °C 19,0 °C 3,2 km/h (1 Bft)
10.07.2017 10:14 19,1 °C 19,1 °C 85 % 1009,3 hPa 0,0 mm 0,0 km/h (0 Bft) O-NO 60 ° 1 min 0,000 mm 3,1 UV-I 330 W/m² 16,5 °C 19,1 °C 0,0 km/h (0 Bft)
10.07.2017 10:15 19,1 °C 19,1 °C 86 % 1009,3 hPa 0,0 mm 1,8 km/h (1 Bft) O-NO 60 ° 1 min 0,000 mm 3,2 UV-I 364 W/m² 16,7 °C 19,1 °C 3,2 km/h (1 Bft)
10.07.2017 10:16 19,1 °C 19,1 °C 86 % 1009,3 hPa 0,0 mm 0,5 km/h (0 Bft) O-NO 60 ° 1 min 0,000 mm 3,1 UV-I 362 W/m² 16,7 °C 19,1 °C 1,6 km/h (1 Bft)
10.07.2017 10:17 19,2 °C 19,2 °C 84 % 1009,4 hPa 0,0 mm 0,8 km/h (0 Bft) O-NO 60 ° 1 min 0,000 mm 3,1 UV-I 362 W/m² 16,4 °C 19,2 °C 1,6 km/h (1 Bft)
10.07.2017 10:18 19,2 °C 19,2 °C 84 % 1009,3 hPa 0,0 mm 0,1 km/h (0 Bft) O-NO 60 ° 1 min 0,000 mm 3,1 UV-I 360 W/m² 16,4 °C 19,2 °C 1,6 km/h (1 Bft)
10.07.2017 10:19 19,2 °C 19,2 °C 84 % 1009,3 hPa 0,0 mm 0,0 km/h (0 Bft) O-NO 60 ° 1 min 0,000 mm 2,9 UV-I 325 W/m² 16,4 °C 19,2 °C 0,0 km/h (0 Bft)
10.07.2017 10:20 19,2 °C 19,2 °C 83 % 1009,3 hPa 0,0 mm 0,2 km/h (0 Bft) O-NO 60 ° 1 min 0,000 mm 2,7 UV-I 302 W/m² 16,2 °C 19,2 °C 1,6 km/h (1 Bft)
10.07.2017 10:21 19,2 °C 19,2 °C 84 % 1009,4 hPa 0,0 mm 1,2 km/h (1 Bft) O-NO 60 ° 0 min 0,000 mm 2,6 UV-I 287 W/m² 16,4 °C 19,2 °C 3,2 km/h (1 Bft)
10.07.2017 10:22 19,2 °C 19,3 °C 85 % 1009,4 hPa 0,0 mm 1,6 km/h (1 Bft) NO 44 ° 0 min 0,000 mm 2,5 UV-I 272 W/m² 16,6 °C 19,2 °C 3,2 km/h (1 Bft)
10.07.2017 10:23 19,3 °C 19,3 °C 85 % 1009,4 hPa 0,0 mm 0,3 km/h (0 Bft) NO 44 ° 0 min 0,000 mm 2,4 UV-I 264 W/m² 16,7 °C 19,3 °C 1,6 km/h (1 Bft)
10.07.2017 10:24 19,3 °C 19,3 °C 85 % 1009,3 hPa 0,0 mm 0,6 km/h (0 Bft) NO 44 ° 0 min 0,000 mm 2,4 UV-I 262 W/m² 16,7 °C 19,3 °C 3,2 km/h (1 Bft)
10.07.2017 10:25 19,4 °C 19,4 °C 85 % 1009,3 hPa 0,0 mm 0,1 km/h (0 Bft) NO 44 ° 0 min 0,000 mm 2,5 UV-I 267 W/m² 16,8 °C 19,4 °C 1,6 km/h (1 Bft)
10.07.2017 10:26 19,4 °C 19,4 °C 84 % 1009,4 hPa 0,0 mm 0,6 km/h (0 Bft) NO 44 ° 0 min 0,000 mm 2,5 UV-I 267 W/m² 16,6 °C 19,4 °C 1,6 km/h (1 Bft)
10.07.2017 10:27 19,4 °C 19,4 °C 83 % 1009,4 hPa 0,0 mm 0,7 km/h (0 Bft) NO 44 ° 0 min 0,000 mm 2,5 UV-I 274 W/m² 16,4 °C 19,4 °C 3,2 km/h (1 Bft)
10.07.2017 10:28 19,3 °C 19,4 °C 83 % 1009,4 hPa 0,0 mm 0,0 km/h (0 Bft) NO 44 ° 0 min 0,000 mm 2,5 UV-I 276 W/m² 16,3 °C 19,3 °C 0,0 km/h (0 Bft)
10.07.2017 10:29 19,4 °C 19,4 °C 85 % 1009,4 hPa 0,0 mm 0,0 km/h (0 Bft) NO 44 ° 0 min 0,000 mm 2,5 UV-I 285 W/m² 16,8 °C 19,4 °C 0,0 km/h (0 Bft)
10.07.2017 10:30 19,4 °C 19,4 °C 84 % 1009,4 hPa 0,0 mm 0,1 km/h (0 Bft) NO 44 ° 1 min 0,000 mm 2,7 UV-I 294 W/m² 16,6 °C 19,4 °C 1,6 km/h (1 Bft)
10.07.2017 10:31 19,4 °C 19,4 °C 84 % 1009,4 hPa 0,0 mm 0,2 km/h (0 Bft) NO 44 ° 1 min 0,000 mm 2,8 UV-I 308 W/m² 16,6 °C 19,4 °C 1,6 km/h (1 Bft)
10.07.2017 10:32 19,5 °C 19,5 °C 84 % 1009,5 hPa 0,0 mm 0,0 km/h (0 Bft) NO 44 ° 1 min 0,000 mm 2,8 UV-I 318 W/m² 16,7 °C 19,5 °C 0,0 km/h (0 Bft)
10.07.2017 10:33 19,5 °C 19,5 °C 83 % 1009,4 hPa 0,0 mm 2,5 km/h (1 Bft) NO 44 ° 1 min 0,000 mm 2,9 UV-I 325 W/m² 16,5 °C 19,5 °C 4,8 km/h (1 Bft)
10.07.2017 10:34 19,4 °C 19,5 °C 82 % 1009,5 hPa 0,0 mm 1,6 km/h (1 Bft) NO 44 ° 1 min 0,000 mm 2,8 UV-I 329 W/m² 16,2 °C 19,4 °C 1,6 km/h (1 Bft)
10.07.2017 10:35 19,4 °C 19,5 °C 83 % 1009,5 hPa 0,0 mm 0,1 km/h (0 Bft) NO 44 ° 1 min 0,000 mm 3,1 UV-I 299 W/m² 16,4 °C 19,4 °C 1,6 km/h (1 Bft)
10.07.2017 10:36 19,4 °C 19,4 °C 84 % 1009,5 hPa 0,0 mm 0,0 km/h (0 Bft) NO 44 ° 1 min 0,000 mm 2,7 UV-I 299 W/m² 16,6 °C 19,4 °C 0,0 km/h (0 Bft)
10.07.2017 10:37 19,4 °C 19,4 °C 83 % 1009,5 hPa 0,0 mm 0,4 km/h (0 Bft) NO 44 ° 1 min 0,000 mm 2,8 UV-I 309 W/m² 16,4 °C 19,4 °C 1,6 km/h (1 Bft)
10.07.2017 10:38 19,4 °C 19,4 °C 83 % 1009,6 hPa 0,0 mm 0,0 km/h (0 Bft) NO 44 ° 1 min 0,000 mm 2,9 UV-I 323 W/m² 16,4 °C 19,4 °C 0,0 km/h (0 Bft)
10.07.2017 10:39 19,5 °C 19,5 °C 84 % 1009,5 hPa 0,0 mm 0,0 km/h (0 Bft) NO 44 ° 1 min 0,000 mm 3,0 UV-I 336 W/m² 16,7 °C 19,5 °C 0,0 km/h (0 Bft)
10.07.2017 10:40 19,6 °C 19,6 °C 85 % 1009,5 hPa 0,0 mm 0,0 km/h (0 Bft) NO 44 ° 1 min 0,000 mm 2,8 UV-I 323 W/m² 17,0 °C 19,6 °C 0,0 km/h (0 Bft)
10.07.2017 10:41 19,5 °C 19,6 °C 84 % 1009,5 hPa 0,0 mm 0,1 km/h (0 Bft) NO 44 ° 0 min 0,000 mm 2,7 UV-I 288 W/m² 16,7 °C 19,5 °C 1,6 km/h (1 Bft)
10.07.2017 10:42 19,5 °C 19,5 °C 83 % 1009,5 hPa 0,0 mm 0,0 km/h (0 Bft) NO 44 ° 0 min 0,000 mm 2,6 UV-I 279 W/m² 16,5 °C 19,5 °C 0,0 km/h (0 Bft)
10.07.2017 10:43 19,4 °C 19,5 °C 83 % 1009,6 hPa 0,0 mm 0,0 km/h (0 Bft) NO 44 ° 0 min 0,000 mm 2,5 UV-I 279 W/m² 16,4 °C 19,4 °C 0,0 km/h (0 Bft)
10.07.2017 10:44 19,4 °C 19,4 °C 85 % 1009,5 hPa 0,0 mm 0,0 km/h (0 Bft) NO 44 ° 0 min 0,000 mm 2,4 UV-I 279 W/m² 16,8 °C 19,4 °C 0,0 km/h (0 Bft)
10.07.2017 10:45 19,5 °C 19,5 °C 85 % 1009,6 hPa 0,0 mm 0,0 km/h (0 Bft) NO 44 ° 0 min 0,000 mm 2,4 UV-I 279 W/m² 16,9 °C 19,5 °C 0,0 km/h (0 Bft)
10.07.2017 10:46 19,6 °C 19,6 °C 85 % 1009,6 hPa 0,0 mm 1,6 km/h (1 Bft) NO 44 ° 0 min 0,000 mm 2,5 UV-I 279 W/m² 17,0 °C 19,6 °C 3,2 km/h (1 Bft)
10.07.2017 10:47 19,7 °C 19,7 °C 84 % 1009,6 hPa 0,0 mm 1,2 km/h (1 Bft) NO 44 ° 0 min 0,000 mm 2,5 UV-I 276 W/m² 16,9 °C 19,7 °C 3,2 km/h (1 Bft)
10.07.2017 10:48 19,7 °C 19,8 °C 85 % 1009,6 hPa 0,0 mm 0,1 km/h (0 Bft) NO 44 ° 0 min 0,000 mm 2,5 UV-I 274 W/m² 17,1 °C 19,7 °C 1,6 km/h (1 Bft)
10.07.2017 10:49 19,8 °C 19,8 °C 84 % 1009,6 hPa 0,0 mm 0,1 km/h (0 Bft) NO 44 ° 0 min 0,000 mm 2,4 UV-I 267 W/m² 17,0 °C 19,8 °C 1,6 km/h (1 Bft)
10.07.2017 10:50 19,8 °C 19,8 °C 83 % 1009,7 hPa 0,0 mm 0,0 km/h (0 Bft) NO 44 ° 0 min 0,000 mm 2,3 UV-I 257 W/m² 16,8 °C 19,8 °C 0,0 km/h (0 Bft)
10.07.2017 10:51 19,7 °C 19,8 °C 83 % 1009,7 hPa 0,0 mm 0,0 km/h (0 Bft) NO 44 ° 0 min 0,000 mm 2,2 UV-I 243 W/m² 16,7 °C 19,7 °C 0,0 km/h (0 Bft)
10.07.2017 10:52 19,7 °C 19,7 °C 83 % 1009,7 hPa 0,0 mm 0,0 km/h (0 Bft) NO 44 ° 0 min 0,000 mm 2,2 UV-I 229 W/m² 16,7 °C 19,7 °C 0,0 km/h (0 Bft)
10.07.2017 10:53 19,7 °C 19,7 °C 83 % 1009,7 hPa 0,0 mm 0,0 km/h (0 Bft) NO 44 ° 0 min 0,000 mm 2,1 UV-I 225 W/m² 16,7 °C 19,7 °C 0,0 km/h (0 Bft)
10.07.2017 10:54 19,8 °C 19,8 °C 84 % 1009,7 hPa 0,0 mm 0,1 km/h (0 Bft) NO 44 ° 0 min 0,000 mm 2,1 UV-I 221 W/m² 17,0 °C 19,8 °C 1,6 km/h (1 Bft)
10.07.2017 10:55 19,8 °C 19,8 °C 84 % 1009,7 hPa 0,0 mm 0,3 km/h (0 Bft) NO 44 ° 0 min 0,000 mm 2,0 UV-I 218 W/m² 17,0 °C 19,8 °C 1,6 km/h (1 Bft)
10.07.2017 10:56 19,9 °C 19,9 °C 85 % 1009,7 hPa 0,0 mm 2,1 km/h (1 Bft) N-NW 336 ° 0 min 0,000 mm 2,1 UV-I 220 W/m² 17,3 °C 19,9 °C 4,8 km/h (1 Bft)
10.07.2017 10:57 20,1 °C 20,1 °C 85 % 1009,7 hPa 0,0 mm 4,7 km/h (1 Bft) N-NW 346 ° 0 min 0,000 mm 2,1 UV-I 225 W/m² 17,5 °C 20,1 °C 8,0 km/h (2 Bft)
10.07.2017 10:58 20,1 °C 20,1 °C 85 % 1009,8 hPa 0,0 mm 4,6 km/h (1 Bft) NW 323 ° 0 min 0,000 mm 2,2 UV-I 236 W/m² 17,5 °C 20,1 °C 9,7 km/h (2 Bft)
10.07.2017 10:59 20,2 °C 20,2 °C 82 % 1009,8 hPa 0,0 mm 5,5 km/h (1 Bft) W-NW 300 ° 0 min 0,000 mm 2,2 UV-I 237 W/m² 17,0 °C 20,2 °C 9,7 km/h (2 Bft)
10.07.2017 11:00 20,2 °C 20,2 °C 79 % 1009,8 hPa 0,0 mm 9,2 km/h (2 Bft) W 275 ° 0 min 0,153 mm 2,3 UV-I 239 W/m² 16,4 °C 20,2 °C 12,9 km/h (3 Bft)
10.07.2017 11:01 20,2 °C 20,3 °C 79 % 1009,8 hPa 0,0 mm 6,6 km/h (2 Bft) W-NW 301 ° 0 min 0,000 mm 2,2 UV-I 243 W/m² 16,4 °C 20,2 °C 11,3 km/h (2 Bft)
10.07.2017 11:02 20,3 °C 20,3 °C 79 % 1009,8 hPa 0,0 mm 6,3 km/h (2 Bft) NW 313 ° 0 min 0,000 mm 2,3 UV-I 246 W/m² 16,5 °C 20,3 °C 11,3 km/h (2 Bft)
10.07.2017 11:03 20,3 °C 20,3 °C 79 % 1009,8 hPa 0,0 mm 3,9 km/h (1 Bft) NW 315 ° 0 min 0,000 mm 2,4 UV-I 250 W/m² 16,5 °C 20,3 °C 8,0 km/h (2 Bft)
10.07.2017 11:04 20,3 °C 20,3 °C 78 % 1009,8 hPa 0,0 mm 9,7 km/h (2 Bft) W-NW 294 ° 0 min 0,000 mm 2,4 UV-I 251 W/m² 16,3 °C 20,3 °C 14,5 km/h (3 Bft)
10.07.2017 11:05 20,3 °C 20,3 °C 78 % 1009,8 hPa 0,0 mm 6,5 km/h (2 Bft) W-NW 287 ° 0 min 0,000 mm 2,4 UV-I 241 W/m² 16,3 °C 20,3 °C 11,3 km/h (2 Bft)
10.07.2017 11:06 20,3 °C 20,3 °C 77 % 1009,8 hPa 0,0 mm 7,6 km/h (2 Bft) W 267 ° 0 min 0,000 mm 2,3 UV-I 232 W/m² 16,1 °C 20,3 °C 11,3 km/h (2 Bft)
10.07.2017 11:07 20,3 °C 20,3 °C 78 % 1009,8 hPa 0,0 mm 9,3 km/h (2 Bft) NW 309 ° 0 min 0,000 mm 2,3 UV-I 223 W/m² 16,3 °C 20,3 °C 14,5 km/h (3 Bft)
10.07.2017 11:08 20,3 °C 20,3 °C 79 % 1009,8 hPa 0,0 mm 7,1 km/h (2 Bft) W-NW 286 ° 0 min 0,000 mm 2,3 UV-I 223 W/m² 16,5 °C 20,3 °C 12,9 km/h (3 Bft)
10.07.2017 11:09 20,3 °C 20,3 °C 78 % 1009,8 hPa 0,0 mm 8,8 km/h (2 Bft) W 269 ° 0 min 0,000 mm 2,4 UV-I 227 W/m² 16,3 °C 20,3 °C 12,9 km/h (3 Bft)
10.07.2017 11:10 20,3 °C 20,3 °C 78 % 1009,8 hPa 0,0 mm 7,5 km/h (2 Bft) W 260 ° 0 min 0,000 mm 2,5 UV-I 236 W/m² 16,3 °C 20,3 °C 11,3 km/h (2 Bft)
10.07.2017 11:11 20,3 °C 20,3 °C 78 % 1009,8 hPa 0,0 mm 6,5 km/h (2 Bft) W 264 ° 0 min 0,000 mm 2,8 UV-I 258 W/m² 16,3 °C 20,3 °C 16,1 km/h (3 Bft)
10.07.2017 11:12 20,3 °C 20,3 °C 77 % 1009,8 hPa 0,0 mm 8,7 km/h (2 Bft) W 271 ° 0 min 0,000 mm 3,0 UV-I 272 W/m² 16,1 °C 20,3 °C 16,1 km/h (3 Bft)
10.07.2017 11:13 20,2 °C 20,3 °C 77 % 1009,8 hPa 0,0 mm 8,5 km/h (2 Bft) W-NW 303 ° 1 min 0,000 mm 3,1 UV-I 294 W/m² 16,0 °C 20,2 °C 14,5 km/h (3 Bft)
10.07.2017 11:14 20,2 °C 20,2 °C 77 % 1009,8 hPa 0,0 mm 4,8 km/h (1 Bft) W-SW 252 ° 1 min 0,000 mm 3,1 UV-I 294 W/m² 16,0 °C 20,2 °C 9,7 km/h (2 Bft)
10.07.2017 11:15 20,3 °C 20,3 °C 77 % 1009,8 hPa 0,0 mm 4,0 km/h (1 Bft) NW 316 ° 1 min 0,000 mm 3,7 UV-I 294 W/m² 16,1 °C 20,3 °C 6,4 km/h (2 Bft)
10.07.2017 11:16 20,4 °C 20,4 °C 77 % 1009,8 hPa 0,0 mm 3,8 km/h (1 Bft) W-NW 288 ° 1 min 0,000 mm 3,5 UV-I 290 W/m² 16,2 °C 20,4 °C 4,8 km/h (1 Bft)
10.07.2017 11:17 20,4 °C 20,4 °C 76 % 1009,7 hPa 0,0 mm 5,0 km/h (1 Bft) W 278 ° 0 min 0,000 mm 2,7 UV-I 257 W/m² 16,0 °C 20,4 °C 9,7 km/h (2 Bft)
10.07.2017 11:18 20,4 °C 20,4 °C 74 % 1009,7 hPa 0,0 mm 7,8 km/h (2 Bft) NW 325 ° 0 min 0,000 mm 2,6 UV-I 244 W/m² 15,6 °C 20,4 °C 11,3 km/h (2 Bft)
10.07.2017 11:19 20,4 °C 20,4 °C 76 % 1009,7 hPa 0,0 mm 2,9 km/h (1 Bft) W-NW 290 ° 0 min 0,000 mm 2,5 UV-I 236 W/m² 16,0 °C 20,4 °C 6,4 km/h (2 Bft)
10.07.2017 11:20 20,4 °C 20,4 °C 79 % 1009,7 hPa 0,0 mm 6,2 km/h (2 Bft) W-SW 256 ° 0 min 0,000 mm 2,4 UV-I 229 W/m² 16,6 °C 20,4 °C 9,7 km/h (2 Bft)
10.07.2017 11:21 20,4 °C 20,4 °C 77 % 1009,8 hPa 0,0 mm 4,4 km/h (1 Bft) W-SW 244 ° 0 min 0,000 mm 2,3 UV-I 221 W/m² 16,2 °C 20,4 °C 6,4 km/h (2 Bft)
10.07.2017 11:22 20,3 °C 20,4 °C 76 % 1009,7 hPa 0,0 mm 7,0 km/h (2 Bft) W 263 ° 0 min 0,000 mm 2,2 UV-I 211 W/m² 15,9 °C 20,3 °C 11,3 km/h (2 Bft)
10.07.2017 11:23 20,3 °C 20,3 °C 76 % 1009,7 hPa 0,0 mm 8,9 km/h (2 Bft) W-SW 254 ° 0 min 0,000 mm 2,2 UV-I 213 W/m² 15,9 °C 20,3 °C 16,1 km/h (3 Bft)
10.07.2017 11:24 20,2 °C 20,3 °C 76 % 1009,7 hPa 0,0 mm 11,3 km/h (2 Bft) W-NW 290 ° 0 min 0,000 mm 2,2 UV-I 216 W/m² 15,8 °C 20,2 °C 16,1 km/h (3 Bft)
10.07.2017 11:25 20,2 °C 20,2 °C 77 % 1009,7 hPa 0,0 mm 9,7 km/h (2 Bft) W-SW 255 ° 0 min 0,000 mm 2,3 UV-I 223 W/m² 16,0 °C 20,2 °C 12,9 km/h (3 Bft)
10.07.2017 11:26 20,2 °C 20,2 °C 77 % 1009,6 hPa 0,0 mm 9,8 km/h (2 Bft) W 264 ° 0 min 0,000 mm 2,5 UV-I 237 W/m² 16,0 °C 20,2 °C 14,5 km/h (3 Bft)
10.07.2017 11:27 20,1 °C 20,2 °C 76 % 1009,6 hPa 0,0 mm 10,8 km/h (2 Bft) W 275 ° 0 min 0,000 mm 2,6 UV-I 251 W/m² 15,7 °C 20,1 °C 14,5 km/h (3 Bft)
10.07.2017 11:28 20,1 °C 20,2 °C 76 % 1009,6 hPa 0,0 mm 6,0 km/h (2 Bft) W-NW 292 ° 0 min 0,000 mm 2,8 UV-I 271 W/m² 15,7 °C 20,1 °C 11,3 km/h (2 Bft)
10.07.2017 11:29 20,2 °C 20,2 °C 78 % 1009,5 hPa 0,0 mm 5,3 km/h (1 Bft) W 278 ° 1 min 0,000 mm 3,2 UV-I 309 W/m² 16,2 °C 20,2 °C 6,4 km/h (2 Bft)
10.07.2017 11:30 20,2 °C 20,2 °C 76 % 1009,6 hPa 0,0 mm 3,5 km/h (1 Bft) W 265 ° 1 min 0,000 mm 3,2 UV-I 306 W/m² 15,8 °C 20,2 °C 4,8 km/h (1 Bft)
10.07.2017 11:31 20,2 °C 20,3 °C 78 % 1009,7 hPa 0,0 mm 5,2 km/h (1 Bft) W-SW 250 ° 1 min 0,000 mm 3,5 UV-I 318 W/m² 16,2 °C 20,2 °C 9,7 km/h (2 Bft)
10.07.2017 11:32 20,3 °C 20,3 °C 78 % 1009,7 hPa 0,0 mm 5,0 km/h (1 Bft) W 271 ° 1 min 0,000 mm 3,5 UV-I 341 W/m² 16,3 °C 20,3 °C 6,4 km/h (2 Bft)
10.07.2017 11:33 20,4 °C 20,4 °C 77 % 1009,6 hPa 0,0 mm 4,6 km/h (1 Bft) W-NW 291 ° 1 min 0,000 mm 4,0 UV-I 422 W/m² 16,2 °C 20,4 °C 9,7 km/h (2 Bft)
10.07.2017 11:34 20,4 °C 20,4 °C 75 % 1009,6 hPa 0,0 mm 9,7 km/h (2 Bft) NW 312 ° 1 min 0,000 mm 6,3 UV-I 422 W/m² 15,8 °C 20,4 °C 14,5 km/h (3 Bft)
10.07.2017 11:35 20,6 °C 20,6 °C 76 % 1009,6 hPa 0,0 mm 9,7 km/h (2 Bft) W-NW 290 ° 1 min 0,000 mm 4,2 UV-I 422 W/m² 16,2 °C 20,6 °C 14,5 km/h (3 Bft)
10.07.2017 11:36 20,6 °C 20,6 °C 75 % 1009,6 hPa 0,0 mm 8,9 km/h (2 Bft) NW 305 ° 1 min 0,000 mm 3,6 UV-I 385 W/m² 16,0 °C 20,6 °C 12,9 km/h (3 Bft)
10.07.2017 11:37 20,6 °C 20,6 °C 76 % 1009,6 hPa 0,0 mm 4,5 km/h (1 Bft) W 267 ° 1 min 0,000 mm 3,5 UV-I 348 W/m² 16,2 °C 20,6 °C 6,4 km/h (2 Bft)
10.07.2017 11:38 20,6 °C 20,6 °C 76 % 1009,6 hPa 0,0 mm 6,3 km/h (2 Bft) W 271 ° 1 min 0,000 mm 3,4 UV-I 343 W/m² 16,2 °C 20,6 °C 9,7 km/h (2 Bft)
10.07.2017 11:39 20,6 °C 20,6 °C 76 % 1009,6 hPa 0,0 mm 6,7 km/h (2 Bft) W-NW 287 ° 1 min 0,000 mm 3,3 UV-I 336 W/m² 16,2 °C 20,6 °C 11,3 km/h (2 Bft)
10.07.2017 11:40 20,6 °C 20,7 °C 76 % 1009,5 hPa 0,0 mm 1,9 km/h (1 Bft) W 279 ° 1 min 0,000 mm 3,3 UV-I 327 W/m² 16,2 °C 20,6 °C 6,4 km/h (2 Bft)
10.07.2017 11:41 20,6 °C 20,7 °C 74 % 1009,6 hPa 0,0 mm 5,8 km/h (2 Bft) SW 229 ° 1 min 0,000 mm 3,0 UV-I 315 W/m² 15,8 °C 20,6 °C 9,7 km/h (2 Bft)
10.07.2017 11:42 20,6 °C 20,6 °C 75 % 1009,6 hPa 0,0 mm 3,2 km/h (1 Bft) W-SW 238 ° 1 min 0,000 mm 2,9 UV-I 297 W/m² 16,0 °C 20,6 °C 6,4 km/h (2 Bft)
10.07.2017 11:43 20,6 °C 20,6 °C 78 % 1009,6 hPa 0,0 mm 3,3 km/h (1 Bft) W 261 ° 0 min 0,000 mm 2,7 UV-I 281 W/m² 16,6 °C 20,6 °C 4,8 km/h (1 Bft)
10.07.2017 11:44 20,6 °C 20,6 °C 77 % 1009,6 hPa 0,0 mm 2,1 km/h (1 Bft) W 261 ° 0 min 0,000 mm 2,4 UV-I 271 W/m² 16,4 °C 20,6 °C 4,8 km/h (1 Bft)
10.07.2017 11:45 20,7 °C 20,7 °C 76 % 1009,5 hPa 0,0 mm 1,8 km/h (1 Bft) W 261 ° 0 min 0,000 mm 2,3 UV-I 257 W/m² 16,3 °C 20,7 °C 4,8 km/h (1 Bft)
10.07.2017 11:46 20,6 °C 20,7 °C 77 % 1009,5 hPa 0,0 mm 7,2 km/h (2 Bft) W-SW 256 ° 0 min 0,000 mm 2,4 UV-I 257 W/m² 16,4 °C 20,6 °C 9,7 km/h (2 Bft)
10.07.2017 11:47 20,7 °C 20,7 °C 77 % 1009,6 hPa 0,0 mm 8,0 km/h (2 Bft) W 270 ° 0 min 0,000 mm 2,3 UV-I 253 W/m² 16,5 °C 20,7 °C 11,3 km/h (2 Bft)
10.07.2017 11:48 20,7 °C 20,7 °C 75 % 1009,5 hPa 0,0 mm 5,0 km/h (1 Bft) W-SW 254 ° 0 min 0,000 mm 2,3 UV-I 258 W/m² 16,1 °C 20,7 °C 9,7 km/h (2 Bft)
10.07.2017 11:49 20,7 °C 20,7 °C 77 % 1009,6 hPa 0,0 mm 3,1 km/h (1 Bft) W 259 ° 0 min 0,000 mm 2,6 UV-I 264 W/m² 16,5 °C 20,7 °C 4,8 km/h (1 Bft)
10.07.2017 11:50 20,6 °C 20,7 °C 76 % 1009,5 hPa 0,0 mm 3,7 km/h (1 Bft) W 264 ° 0 min 0,000 mm 2,6 UV-I 271 W/m² 16,2 °C 20,6 °C 12,9 km/h (3 Bft)
10.07.2017 11:51 20,6 °C 20,6 °C 77 % 1009,5 hPa 0,0 mm 10,1 km/h (2 Bft) W-SW 254 ° 0 min 0,000 mm 2,7 UV-I 288 W/m² 16,4 °C 20,6 °C 14,5 km/h (3 Bft)
10.07.2017 11:52 20,6 °C 20,6 °C 75 % 1009,6 hPa 0,0 mm 9,7 km/h (2 Bft) W 265 ° 1 min 0,000 mm 3,0 UV-I 299 W/m² 16,0 °C 20,6 °C 14,5 km/h (3 Bft)
10.07.2017 11:53 20,6 °C 20,6 °C 75 % 1009,5 hPa 0,0 mm 6,0 km/h (2 Bft) W 268 ° 1 min 0,000 mm 3,1 UV-I 313 W/m² 16,0 °C 20,6 °C 11,3 km/h (2 Bft)
10.07.2017 11:54 20,6 °C 20,6 °C 75 % 1009,5 hPa 0,0 mm 6,4 km/h (2 Bft) SW 229 ° 1 min 0,000 mm 3,1 UV-I 325 W/m² 16,0 °C 20,6 °C 12,9 km/h (3 Bft)
10.07.2017 11:55 20,6 °C 20,6 °C 75 % 1009,5 hPa 0,0 mm 5,9 km/h (2 Bft) SW 223 ° 1 min 0,000 mm 3,4 UV-I 341 W/m² 16,0 °C 20,6 °C 9,7 km/h (2 Bft)
10.07.2017 11:56 20,6 °C 20,6 °C 77 % 1009,5 hPa 0,0 mm 5,6 km/h (1 Bft) S 191 ° 1 min 0,000 mm 3,6 UV-I 355 W/m² 16,4 °C 20,6 °C 11,3 km/h (2 Bft)
10.07.2017 11:57 20,7 °C 20,7 °C 77 % 1009,4 hPa 0,0 mm 3,1 km/h (1 Bft) NW 311 ° 1 min 0,000 mm 3,8 UV-I 406 W/m² 16,5 °C 20,7 °C 6,4 km/h (2 Bft)
10.07.2017 11:58 20,8 °C 20,8 °C 77 % 1009,5 hPa 0,0 mm 4,3 km/h (1 Bft) W 275 ° 1 min 0,000 mm 4,1 UV-I 420 W/m² 16,6 °C 20,8 °C 9,7 km/h (2 Bft)
10.07.2017 11:59 20,8 °C 20,8 °C 76 % 1009,5 hPa 0,0 mm 6,4 km/h (2 Bft) W-NW 287 ° 1 min 0,000 mm 4,1 UV-I 415 W/m² 16,4 °C 20,8 °C 11,3 km/h (2 Bft)
10.07.2017 12:00 20,9 °C 20,9 °C 76 % 1009,5 hPa 0,0 mm 9,3 km/h (2 Bft) SW 227 ° 1 min 0,203 mm 4,0 UV-I 439 W/m² 16,5 °C 20,9 °C 12,9 km/h (3 Bft)
10.07.2017 12:01 20,9 °C 20,9 °C 75 % 1009,5 hPa 0,0 mm 8,5 km/h (2 Bft) W-NW 300 ° 1 min 0,000 mm 4,3 UV-I 466 W/m² 16,3 °C 20,9 °C 11,3 km/h (2 Bft)
10.07.2017 12:02 21,0 °C 21,0 °C 74 % 1009,5 hPa 0,0 mm 3,4 km/h (1 Bft) NW 315 ° 1 min 0,000 mm 3,6 UV-I 390 W/m² 16,2 °C 21,0 °C 6,4 km/h (2 Bft)
10.07.2017 12:03 21,0 °C 21,0 °C 76 % 1009,5 hPa 0,0 mm 9,1 km/h (2 Bft) W 271 ° 1 min 0,000 mm 4,0 UV-I 418 W/m² 16,6 °C 21,0 °C 12,9 km/h (3 Bft)
10.07.2017 12:04 21,1 °C 21,1 °C 75 % 1009,4 hPa 0,0 mm 6,6 km/h (2 Bft) N-NW 333 ° 1 min 0,000 mm 4,2 UV-I 418 W/m² 16,5 °C 21,1 °C 11,3 km/h (2 Bft)
10.07.2017 12:05 21,1 °C 21,1 °C 75 % 1009,4 hPa 0,0 mm 6,6 km/h (2 Bft) N-NW 337 ° 1 min 0,000 mm 4,4 UV-I 473 W/m² 16,5 °C 21,1 °C 9,7 km/h (2 Bft)
10.07.2017 12:06 21,1 °C 21,1 °C 76 % 1009,4 hPa 0,0 mm 7,3 km/h (2 Bft) NW 311 ° 1 min 0,000 mm 4,3 UV-I 459 W/m² 16,7 °C 21,1 °C 12,9 km/h (3 Bft)
10.07.2017 12:07 21,2 °C 21,2 °C 75 % 1009,4 hPa 0,0 mm 5,4 km/h (1 Bft) W-NW 291 ° 1 min 0,000 mm 4,2 UV-I 473 W/m² 16,6 °C 21,2 °C 9,7 km/h (2 Bft)
10.07.2017 12:08 21,3 °C 21,3 °C 74 % 1009,5 hPa 0,0 mm 6,4 km/h (2 Bft) W 267 ° 1 min 0,000 mm 4,2 UV-I 462 W/m² 16,5 °C 21,3 °C 9,7 km/h (2 Bft)
10.07.2017 12:09 21,3 °C 21,3 °C 72 % 1009,4 hPa 0,0 mm 4,3 km/h (1 Bft) NW 313 ° 1 min 0,000 mm 4,1 UV-I 406 W/m² 16,0 °C 21,3 °C 6,4 km/h (2 Bft)
10.07.2017 12:10 21,3 °C 21,3 °C 75 % 1009,4 hPa 0,0 mm 11,1 km/h (2 Bft) W-NW 292 ° 1 min 0,000 mm 4,0 UV-I 424 W/m² 16,7 °C 21,3 °C 16,1 km/h (3 Bft)
10.07.2017 12:11 21,3 °C 21,3 °C 74 % 1009,5 hPa 0,0 mm 7,9 km/h (2 Bft) W-NW 298 ° 1 min 0,000 mm 3,8 UV-I 380 W/m² 16,5 °C 21,3 °C 11,3 km/h (2 Bft)
10.07.2017 12:12 21,3 °C 21,3 °C 74 % 1009,5 hPa 0,0 mm 7,4 km/h (2 Bft) W 275 ° 1 min 0,000 mm 3,8 UV-I 371 W/m² 16,5 °C 21,3 °C 11,3 km/h (2 Bft)
10.07.2017 12:13 21,3 °C 21,3 °C 73 % 1009,5 hPa 0,0 mm 9,0 km/h (2 Bft) W-SW 257 ° 1 min 0,000 mm 3,8 UV-I 383 W/m² 16,3 °C 21,3 °C 11,3 km/h (2 Bft)
10.07.2017 12:14 21,3 °C 21,3 °C 75 % 1009,5 hPa 0,0 mm 5,3 km/h (1 Bft) W-NW 297 ° 1 min 0,000 mm 3,8 UV-I 408 W/m² 16,7 °C 21,3 °C 12,9 km/h (3 Bft)
10.07.2017 12:15 21,3 °C 21,3 °C 75 % 1009,5 hPa 0,0 mm 2,4 km/h (1 Bft) NW 309 ° 1 min 0,000 mm 3,5 UV-I 360 W/m² 16,7 °C 21,3 °C 4,8 km/h (1 Bft)
10.07.2017 12:16 21,3 °C 21,3 °C 75 % 1009,5 hPa 0,0 mm 9,2 km/h (2 Bft) NW 315 ° 1 min 0,000 mm 3,3 UV-I 338 W/m² 16,7 °C 21,3 °C 14,5 km/h (3 Bft)
10.07.2017 12:17 21,4 °C 21,4 °C 74 % 1009,5 hPa 0,0 mm 8,3 km/h (2 Bft) NW 309 ° 1 min 0,000 mm 3,2 UV-I 323 W/m² 16,6 °C 21,4 °C 14,5 km/h (3 Bft)
10.07.2017 12:18 21,3 °C 21,4 °C 74 % 1009,6 hPa 0,0 mm 7,0 km/h (2 Bft) W-NW 299 ° 1 min 0,000 mm 3,2 UV-I 322 W/m² 16,5 °C 21,3 °C 11,3 km/h (2 Bft)
10.07.2017 12:19 21,3 °C 21,4 °C 73 % 1009,5 hPa 0,0 mm 13,9 km/h (3 Bft) W 281 ° 1 min 0,000 mm 3,2 UV-I 325 W/m² 16,3 °C 21,3 °C 24,1 km/h (4 Bft)
10.07.2017 12:20 21,2 °C 21,3 °C 73 % 1009,5 hPa 0,0 mm 10,5 km/h (2 Bft) NW 318 ° 1 min 0,000 mm 3,6 UV-I 357 W/m² 16,2 °C 21,2 °C 16,1 km/h (3 Bft)
10.07.2017 12:21 21,2 °C 21,2 °C 73 % 1009,5 hPa 0,0 mm 11,1 km/h (2 Bft) W 281 ° 1 min 0,000 mm 4,9 UV-I 497 W/m² 16,2 °C 21,2 °C 17,7 km/h (3 Bft)
10.07.2017 12:22 21,3 °C 21,3 °C 75 % 1009,5 hPa 0,0 mm 6,6 km/h (2 Bft) W 276 ° 1 min 0,000 mm 5,8 UV-I 497 W/m² 16,7 °C 21,3 °C 11,3 km/h (2 Bft)
10.07.2017 12:23 21,4 °C 21,4 °C 76 % 1009,5 hPa 0,0 mm 15,6 km/h (3 Bft) W 260 ° 1 min 0,000 mm 5,8 UV-I 497 W/m² 17,0 °C 21,4 °C 24,1 km/h (4 Bft)
10.07.2017 12:24 21,4 °C 21,4 °C 72 % 1009,5 hPa 0,0 mm 12,7 km/h (3 Bft) W 264 ° 1 min 0,000 mm 5,2 UV-I 497 W/m² 16,1 °C 21,4 °C 20,9 km/h (4 Bft)
10.07.2017 12:25 21,5 °C 21,5 °C 74 % 1009,5 hPa 0,0 mm 10,5 km/h (2 Bft) N-NW 340 ° 1 min 0,000 mm 5,5 UV-I 631 W/m² 16,7 °C 21,5 °C 17,7 km/h (3 Bft)
10.07.2017 12:26 21,7 °C 21,7 °C 76 % 1009,4 hPa 0,0 mm 6,6 km/h (2 Bft) W-NW 298 ° 1 min 0,000 mm 5,5 UV-I 1190 W/m² 17,3 °C 21,7 °C 12,9 km/h (3 Bft)
10.07.2017 12:27 21,9 °C 21,9 °C 75 % 1009,5 hPa 0,0 mm 8,8 km/h (2 Bft) W-NW 288 ° 1 min 0,000 mm 6,6 UV-I 1190 W/m² 17,3 °C 21,9 °C 12,9 km/h (3 Bft)
10.07.2017 12:28 22,1 °C 22,1 °C 74 % 1009,5 hPa 0,0 mm 7,7 km/h (2 Bft) W-NW 292 ° 1 min 0,000 mm 7,6 UV-I 1190 W/m² 17,2 °C 22,1 °C 12,9 km/h (3 Bft)
10.07.2017 12:29 22,2 °C 22,2 °C 71 % 1009,5 hPa 0,0 mm 10,4 km/h (2 Bft) W 278 ° 1 min 0,000 mm 7,5 UV-I 1190 W/m² 16,7 °C 22,2 °C 16,1 km/h (3 Bft)
10.07.2017 12:30 22,3 °C 22,3 °C 73 % 1009,5 hPa 0,0 mm 5,4 km/h (1 Bft) W-NW 285 ° 1 min 0,000 mm 5,2 UV-I 1190 W/m² 17,2 °C 22,3 °C 11,3 km/h (2 Bft)
10.07.2017 12:31 22,2 °C 22,3 °C 71 % 1009,5 hPa 0,0 mm 10,5 km/h (2 Bft) NW 309 ° 1 min 0,000 mm 5,0 UV-I 1190 W/m² 16,7 °C 22,2 °C 14,5 km/h (3 Bft)
10.07.2017 12:32 22,2 °C 22,2 °C 72 % 1009,4 hPa 0,0 mm 9,4 km/h (2 Bft) W 279 ° 1 min 0,000 mm 5,9 UV-I 1190 W/m² 16,9 °C 22,2 °C 14,5 km/h (3 Bft)
10.07.2017 12:33 22,2 °C 22,3 °C 71 % 1009,4 hPa 0,0 mm 6,1 km/h (2 Bft) W 270 ° 1 min 0,000 mm 8,2 UV-I 1190 W/m² 16,7 °C 22,2 °C 9,7 km/h (2 Bft)
10.07.2017 12:34 22,3 °C 22,3 °C 71 % 1009,3 hPa 0,0 mm 4,8 km/h (1 Bft) W-NW 297 ° 1 min 0,000 mm 8,0 UV-I 1190 W/m² 16,8 °C 22,3 °C 6,4 km/h (2 Bft)
10.07.2017 12:35 22,3 °C 22,3 °C 70 % 1009,3 hPa 0,0 mm 7,1 km/h (2 Bft) W-NW 282 ° 1 min 0,000 mm 7,9 UV-I 1021 W/m² 16,6 °C 22,3 °C 11,3 km/h (2 Bft)
10.07.2017 12:36 22,4 °C 22,4 °C 72 % 1009,3 hPa 0,0 mm 12,0 km/h (2 Bft) W-NW 296 ° 1 min 0,000 mm 7,9 UV-I 972 W/m² 17,1 °C 22,4 °C 22,5 km/h (4 Bft)
10.07.2017 12:37 22,5 °C 22,5 °C 71 % 1009,2 hPa 0,0 mm 11,8 km/h (2 Bft) W 268 ° 1 min 0,000 mm 5,7 UV-I 972 W/m² 17,0 °C 22,5 °C 19,3 km/h (3 Bft)
10.07.2017 12:38 22,4 °C 22,5 °C 71 % 1009,3 hPa 0,0 mm 8,6 km/h (2 Bft) SW 236 ° 1 min 0,000 mm 5,3 UV-I 972 W/m² 16,9 °C 22,4 °C 12,9 km/h (3 Bft)
10.07.2017 12:39 22,4 °C 22,4 °C 73 % 1009,2 hPa 0,0 mm 10,0 km/h (2 Bft) W 263 ° 1 min 0,000 mm 4,9 UV-I 972 W/m² 17,3 °C 22,4 °C 16,1 km/h (3 Bft)
10.07.2017 12:40 22,3 °C 22,4 °C 70 % 1009,2 hPa 0,0 mm 12,6 km/h (3 Bft) W 271 ° 1 min 0,000 mm 5,1 UV-I 972 W/m² 16,6 °C 22,3 °C 24,1 km/h (4 Bft)
10.07.2017 12:41 22,2 °C 22,3 °C 69 % 1009,2 hPa 0,0 mm 6,2 km/h (2 Bft) W-SW 244 ° 1 min 0,000 mm 4,9 UV-I 380 W/m² 16,2 °C 22,2 °C 11,3 km/h (2 Bft)
10.07.2017 12:42 22,1 °C 22,2 °C 74 % 1009,3 hPa 0,0 mm 11,8 km/h (2 Bft) SW 231 ° 0 min 0,000 mm 5,3 UV-I 285 W/m² 17,2 °C 22,1 °C 16,1 km/h (3 Bft)
10.07.2017 12:43 22,1 °C 22,1 °C 69 % 1009,3 hPa 0,0 mm 7,1 km/h (2 Bft) W 269 ° 0 min 0,000 mm 7,4 UV-I 285 W/m² 16,1 °C 22,1 °C 11,3 km/h (2 Bft)
10.07.2017 12:44 22,1 °C 22,1 °C 72 % 1009,2 hPa 0,0 mm 10,8 km/h (2 Bft) W 273 ° 1 min 0,000 mm 7,4 UV-I 557 W/m² 16,8 °C 22,1 °C 16,1 km/h (3 Bft)
10.07.2017 12:45 22,2 °C 22,2 °C 73 % 1009,2 hPa 0,0 mm 8,0 km/h (2 Bft) SW 221 ° 1 min 0,000 mm 4,9 UV-I 473 W/m² 17,1 °C 22,2 °C 11,3 km/h (2 Bft)
10.07.2017 12:46 22,2 °C 22,3 °C 73 % 1009,3 hPa 0,0 mm 10,6 km/h (2 Bft) W 268 ° 1 min 0,000 mm 4,8 UV-I 473 W/m² 17,1 °C 22,2 °C 14,5 km/h (3 Bft)
10.07.2017 12:47 22,2 °C 22,3 °C 71 % 1009,3 hPa 0,0 mm 10,3 km/h (2 Bft) W 267 ° 0 min 0,000 mm 4,4 UV-I 276 W/m² 16,7 °C 22,2 °C 12,9 km/h (3 Bft)
10.07.2017 12:48 22,1 °C 22,2 °C 71 % 1009,3 hPa 0,0 mm 7,8 km/h (2 Bft) W 271 ° 0 min 0,000 mm 4,3 UV-I 288 W/m² 16,6 °C 22,1 °C 14,5 km/h (3 Bft)
10.07.2017 12:49 22,1 °C 22,2 °C 70 % 1009,2 hPa 0,0 mm 10,9 km/h (2 Bft) W-SW 242 ° 0 min 0,000 mm 4,2 UV-I 288 W/m² 16,4 °C 22,1 °C 14,5 km/h (3 Bft)
10.07.2017 12:50 22,1 °C 22,1 °C 72 % 1009,2 hPa 0,0 mm 8,3 km/h (2 Bft) N-NW 338 ° 1 min 0,000 mm 4,2 UV-I 396 W/m² 16,8 °C 22,1 °C 12,9 km/h (3 Bft)
10.07.2017 12:51 22,1 °C 22,1 °C 70 % 1009,2 hPa 0,0 mm 3,2 km/h (1 Bft) W 268 ° 0 min 0,000 mm 3,9 UV-I 274 W/m² 16,4 °C 22,1 °C 4,8 km/h (1 Bft)
10.07.2017 12:52 21,9 °C 22,1 °C 70 % 1009,3 hPa 0,0 mm 7,8 km/h (2 Bft) W-NW 298 ° 0 min 0,000 mm 3,8 UV-I 279 W/m² 16,2 °C 21,9 °C 14,5 km/h (3 Bft)
10.07.2017 12:53 21,9 °C 22,0 °C 70 % 1009,2 hPa 0,0 mm 8,4 km/h (2 Bft) W-SW 252 ° 0 min 0,000 mm 4,1 UV-I 279 W/m² 16,2 °C 21,9 °C 14,5 km/h (3 Bft)
10.07.2017 12:54 21,9 °C 21,9 °C 72 % 1009,2 hPa 0,0 mm 6,9 km/h (2 Bft) SW 236 ° 1 min 0,000 mm 4,4 UV-I 446 W/m² 16,6 °C 21,9 °C 11,3 km/h (2 Bft)
10.07.2017 12:55 21,9 °C 21,9 °C 72 % 1009,2 hPa 0,0 mm 2,6 km/h (1 Bft) W-SW 237 ° 1 min 0,000 mm 4,4 UV-I 446 W/m² 16,6 °C 21,9 °C 4,8 km/h (1 Bft)
10.07.2017 12:56 21,8 °C 21,9 °C 70 % 1009,2 hPa 0,0 mm 4,8 km/h (1 Bft) W 261 ° 1 min 0,000 mm 4,5 UV-I 369 W/m² 16,1 °C 21,8 °C 6,4 km/h (2 Bft)
10.07.2017 12:57 21,8 °C 21,8 °C 72 % 1009,2 hPa 0,0 mm 7,3 km/h (2 Bft) W-NW 288 ° 1 min 0,000 mm 5,3 UV-I 369 W/m² 16,5 °C 21,8 °C 11,3 km/h (2 Bft)
10.07.2017 12:58 21,9 °C 21,9 °C 73 % 1009,2 hPa 0,0 mm 3,7 km/h (1 Bft) W 259 ° 1 min 0,000 mm 4,6 UV-I 369 W/m² 16,8 °C 21,9 °C 6,4 km/h (2 Bft)
10.07.2017 12:59 22,1 °C 22,1 °C 74 % 1009,2 hPa 0,0 mm 5,0 km/h (1 Bft) W 277 ° 1 min 0,000 mm 5,8 UV-I 434 W/m² 17,2 °C 22,1 °C 12,9 km/h (3 Bft)
10.07.2017 13:00 22,2 °C 22,2 °C 69 % 1009,2 hPa 0,0 mm 10,8 km/h (2 Bft) W 264 ° 1 min 0,000 mm 7,4 UV-I 499 W/m² 16,2 °C 22,2 °C 16,1 km/h (3 Bft)
10.07.2017 13:01 22,2 °C 22,2 °C 70 % 1009,3 hPa 0,0 mm 7,8 km/h (2 Bft) W-NW 294 ° 1 min 0,356 mm 5,3 UV-I 406 W/m² 16,5 °C 22,2 °C 16,1 km/h (3 Bft)
10.07.2017 13:02 22,3 °C 22,3 °C 72 % 1009,2 hPa 0,0 mm 7,9 km/h (2 Bft) W-NW 288 ° 1 min 0,000 mm 5,3 UV-I 406 W/m² 17,0 °C 22,3 °C 11,3 km/h (2 Bft)
10.07.2017 13:03 22,4 °C 22,4 °C 72 % 1009,2 hPa 0,0 mm 10,7 km/h (2 Bft) W 268 ° 1 min 0,000 mm 6,6 UV-I 406 W/m² 17,1 °C 22,4 °C 12,9 km/h (3 Bft)
10.07.2017 13:04 22,4 °C 22,4 °C 69 % 1009,2 hPa 0,0 mm 7,5 km/h (2 Bft) NW 306 ° 1 min 0,000 mm 6,2 UV-I 406 W/m² 16,4 °C 22,4 °C 14,5 km/h (3 Bft)
10.07.2017 13:05 22,5 °C 22,5 °C 70 % 1009,2 hPa 0,0 mm 9,3 km/h (2 Bft) NW 309 ° 1 min 0,000 mm 8,5 UV-I 406 W/m² 16,7 °C 22,5 °C 12,9 km/h (3 Bft)
10.07.2017 13:06 22,7 °C 22,7 °C 72 % 1009,3 hPa 0,0 mm 13,0 km/h (3 Bft) NW 311 ° 1 min 0,000 mm 8,5 UV-I 406 W/m² 17,4 °C 22,7 °C 19,3 km/h (3 Bft)
10.07.2017 13:07 22,8 °C 22,8 °C 69 % 1009,2 hPa 0,0 mm 10,2 km/h (2 Bft) W-NW 288 ° 1 min 0,000 mm 5,5 UV-I 406 W/m² 16,8 °C 22,8 °C 17,7 km/h (3 Bft)
10.07.2017 13:08 22,8 °C 22,8 °C 69 % 1009,2 hPa 0,0 mm 13,3 km/h (3 Bft) W-SW 254 ° 1 min 0,000 mm 4,5 UV-I 418 W/m² 16,8 °C 22,8 °C 24,1 km/h (4 Bft)
10.07.2017 13:09 22,7 °C 22,8 °C 67 % 1009,2 hPa 0,0 mm 10,4 km/h (2 Bft) W-NW 289 ° 1 min 0,000 mm 4,3 UV-I 418 W/m² 16,2 °C 22,7 °C 17,7 km/h (3 Bft)
10.07.2017 13:10 22,6 °C 22,7 °C 67 % 1009,2 hPa 0,0 mm 11,8 km/h (2 Bft) W 273 ° 0 min 0,000 mm 4,2 UV-I 274 W/m² 16,2 °C 22,6 °C 20,9 km/h (4 Bft)
10.07.2017 13:11 22,4 °C 22,6 °C 68 % 1009,2 hPa 0,0 mm 14,0 km/h (3 Bft) NW 315 ° 0 min 0,000 mm 4,2 UV-I 243 W/m² 16,2 °C 22,4 °C 20,9 km/h (4 Bft)
10.07.2017 13:12 22,3 °C 22,4 °C 68 % 1009,2 hPa 0,0 mm 9,9 km/h (2 Bft) W-NW 296 ° 0 min 0,000 mm 4,4 UV-I 269 W/m² 16,1 °C 22,3 °C 14,5 km/h (3 Bft)
10.07.2017 13:13 22,2 °C 22,3 °C 69 % 1009,2 hPa 0,0 mm 10,4 km/h (2 Bft) W-NW 294 ° 1 min 0,000 mm 4,3 UV-I 436 W/m² 16,2 °C 22,2 °C 14,5 km/h (3 Bft)
10.07.2017 13:14 22,1 °C 22,2 °C 68 % 1009,2 hPa 0,0 mm 7,4 km/h (2 Bft) NW 321 ° 1 min 0,000 mm 4,5 UV-I 427 W/m² 15,9 °C 22,1 °C 12,9 km/h (3 Bft)
10.07.2017 13:15 22,1 °C 22,1 °C 68 % 1009,2 hPa 0,0 mm 12,3 km/h (3 Bft) W-NW 285 ° 1 min 0,000 mm 7,0 UV-I 427 W/m² 15,9 °C 22,1 °C 20,9 km/h (4 Bft)
10.07.2017 13:16 22,1 °C 22,1 °C 68 % 1009,2 hPa 0,0 mm 6,3 km/h (2 Bft) W-SW 248 ° 1 min 0,000 mm 5,3 UV-I 427 W/m² 15,9 °C 22,1 °C 12,9 km/h (3 Bft)
10.07.2017 13:17 22,1 °C 22,2 °C 69 % 1009,2 hPa 0,0 mm 8,2 km/h (2 Bft) W 273 ° 1 min 0,000 mm 5,0 UV-I 427 W/m² 16,1 °C 22,1 °C 12,9 km/h (3 Bft)
10.07.2017 13:18 22,2 °C 22,2 °C 71 % 1009,2 hPa 0,0 mm 10,6 km/h (2 Bft) W-NW 289 ° 1 min 0,000 mm 5,9 UV-I 478 W/m² 16,7 °C 22,2 °C 14,5 km/h (3 Bft)
10.07.2017 13:19 22,2 °C 22,2 °C 71 % 1009,2 hPa 0,0 mm 6,9 km/h (2 Bft) NW 321 ° 1 min 0,000 mm 5,5 UV-I 485 W/m² 16,7 °C 22,2 °C 11,3 km/h (2 Bft)
10.07.2017 13:20 22,3 °C 22,3 °C 72 % 1009,2 hPa 0,0 mm 7,8 km/h (2 Bft) W 270 ° 1 min 0,000 mm 4,8 UV-I 564 W/m² 17,0 °C 22,3 °C 11,3 km/h (2 Bft)
10.07.2017 13:21 22,4 °C 22,4 °C 72 % 1009,2 hPa 0,0 mm 12,1 km/h (2 Bft) W-SW 257 ° 1 min 0,000 mm 4,5 UV-I 443 W/m² 17,1 °C 22,4 °C 17,7 km/h (3 Bft)
10.07.2017 13:22 22,3 °C 22,4 °C 68 % 1009,2 hPa 0,0 mm 9,4 km/h (2 Bft) W-NW 289 ° 1 min 0,000 mm 4,7 UV-I 439 W/m² 16,1 °C 22,3 °C 19,3 km/h (3 Bft)
10.07.2017 13:23 22,3 °C 22,3 °C 69 % 1009,2 hPa 0,0 mm 10,0 km/h (2 Bft) W 275 ° 1 min 0,000 mm 5,1 UV-I 439 W/m² 16,3 °C 22,3 °C 14,5 km/h (3 Bft)
10.07.2017 13:24 22,3 °C 22,3 °C 69 % 1009,2 hPa 0,0 mm 10,5 km/h (2 Bft) W-NW 290 ° 1 min 0,000 mm 5,9 UV-I 548 W/m² 16,3 °C 22,3 °C 16,1 km/h (3 Bft)
10.07.2017 13:25 22,3 °C 22,3 °C 70 % 1009,3 hPa 0,0 mm 7,6 km/h (2 Bft) W-NW 286 ° 1 min 0,000 mm 5,6 UV-I 452 W/m² 16,6 °C 22,3 °C 14,5 km/h (3 Bft)
10.07.2017 13:26 22,4 °C 22,4 °C 71 % 1009,3 hPa 0,0 mm 9,3 km/h (2 Bft) W-SW 243 ° 1 min 0,000 mm 8,2 UV-I 452 W/m² 16,9 °C 22,4 °C 14,5 km/h (3 Bft)
10.07.2017 13:27 22,6 °C 22,6 °C 71 % 1009,3 hPa 0,0 mm 9,6 km/h (2 Bft) W 268 ° 1 min 0,000 mm 7,1 UV-I 452 W/m² 17,1 °C 22,6 °C 12,9 km/h (3 Bft)
10.07.2017 13:28 22,6 °C 22,6 °C 68 % 1009,2 hPa 0,0 mm 8,9 km/h (2 Bft) W-SW 257 ° 1 min 0,000 mm 7,0 UV-I 452 W/m² 16,4 °C 22,6 °C 14,5 km/h (3 Bft)
10.07.2017 13:29 22,7 °C 22,7 °C 69 % 1009,2 hPa 0,0 mm 9,7 km/h (2 Bft) W 262 ° 1 min 0,000 mm 5,3 UV-I 452 W/m² 16,7 °C 22,7 °C 12,9 km/h (3 Bft)
10.07.2017 13:30 22,7 °C 22,7 °C 69 % 1009,1 hPa 0,0 mm 8,0 km/h (2 Bft) W-NW 285 ° 1 min 0,000 mm 5,6 UV-I 503 W/m² 16,7 °C 22,7 °C 11,3 km/h (2 Bft)
10.07.2017 13:31 22,7 °C 22,7 °C 69 % 1009,1 hPa 0,0 mm 6,8 km/h (2 Bft) W-NW 284 ° 1 min 0,000 mm 7,9 UV-I 503 W/m² 16,7 °C 22,7 °C 9,7 km/h (2 Bft)
10.07.2017 13:32 22,9 °C 22,9 °C 70 % 1009,1 hPa 0,0 mm 11,3 km/h (2 Bft) W-NW 294 ° 1 min 0,000 mm 5,9 UV-I 503 W/m² 17,1 °C 22,9 °C 17,7 km/h (3 Bft)
10.07.2017 13:33 23,0 °C 23,0 °C 70 % 1009,1 hPa 0,0 mm 9,8 km/h (2 Bft) NW 315 ° 1 min 0,000 mm 7,8 UV-I 503 W/m² 17,2 °C 23,0 °C 16,1 km/h (3 Bft)
10.07.2017 13:34 23,1 °C 23,1 °C 70 % 1009,1 hPa 0,0 mm 7,8 km/h (2 Bft) W-SW 246 ° 1 min 0,000 mm 5,0 UV-I 503 W/m² 17,3 °C 23,1 °C 12,9 km/h (3 Bft)
10.07.2017 13:35 23,1 °C 23,1 °C 67 % 1009,1 hPa 0,0 mm 13,2 km/h (3 Bft) W-SW 253 ° 1 min 0,000 mm 4,2 UV-I 503 W/m² 16,6 °C 23,1 °C 19,3 km/h (3 Bft)
10.07.2017 13:36 22,9 °C 23,1 °C 70 % 1009,1 hPa 0,0 mm 10,9 km/h (2 Bft) W 264 ° 1 min 0,000 mm 4,1 UV-I 503 W/m² 17,1 °C 22,9 °C 16,1 km/h (3 Bft)
10.07.2017 13:37 22,8 °C 22,9 °C 68 % 1009,0 hPa 0,0 mm 7,8 km/h (2 Bft) W-NW 301 ° 0 min 0,000 mm 4,1 UV-I 278 W/m² 16,6 °C 22,8 °C 12,9 km/h (3 Bft)
10.07.2017 13:38 22,7 °C 22,8 °C 69 % 1009,1 hPa 0,0 mm 10,1 km/h (2 Bft) W-NW 288 ° 0 min 0,000 mm 4,2 UV-I 274 W/m² 16,7 °C 22,7 °C 16,1 km/h (3 Bft)
10.07.2017 13:39 22,6 °C 22,7 °C 67 % 1009,1 hPa 0,0 mm 13,0 km/h (3 Bft) NW 308 ° 0 min 0,000 mm 4,1 UV-I 260 W/m² 16,2 °C 22,6 °C 19,3 km/h (3 Bft)
10.07.2017 13:40 22,5 °C 22,6 °C 67 % 1009,1 hPa 0,0 mm 9,3 km/h (2 Bft) W-NW 288 ° 0 min 0,000 mm 4,0 UV-I 260 W/m² 16,1 °C 22,5 °C 14,5 km/h (3 Bft)
10.07.2017 13:41 22,4 °C 22,5 °C 67 % 1009,1 hPa 0,0 mm 13,6 km/h (3 Bft) W-NW 288 ° 0 min 0,000 mm 4,0 UV-I 241 W/m² 16,0 °C 22,4 °C 20,9 km/h (4 Bft)
10.07.2017 13:42 22,4 °C 22,4 °C 66 % 1009,1 hPa 0,0 mm 13,9 km/h (3 Bft) W-NW 283 ° 0 min 0,000 mm 4,0 UV-I 248 W/m² 15,7 °C 22,4 °C 20,9 km/h (4 Bft)
10.07.2017 13:43 22,3 °C 22,4 °C 66 % 1009,1 hPa 0,0 mm 11,0 km/h (2 Bft) NW 322 ° 0 min 0,000 mm 4,2 UV-I 283 W/m² 15,6 °C 22,3 °C 16,1 km/h (3 Bft)
10.07.2017 13:44 22,3 °C 22,3 °C 67 % 1009,1 hPa 0,0 mm 10,3 km/h (2 Bft) W-NW 292 ° 0 min 0,000 mm 4,5 UV-I 283 W/m² 15,9 °C 22,3 °C 14,5 km/h (3 Bft)
10.07.2017 13:45 22,3 °C 22,4 °C 69 % 1009,1 hPa 0,0 mm 12,5 km/h (3 Bft) W-SW 253 ° 1 min 0,000 mm 5,9 UV-I 482 W/m² 16,3 °C 22,3 °C 17,7 km/h (3 Bft)
10.07.2017 13:46 22,3 °C 22,3 °C 69 % 1009,1 hPa 0,0 mm 10,5 km/h (2 Bft) W-SW 246 ° 1 min 0,000 mm 4,7 UV-I 464 W/m² 16,3 °C 22,3 °C 16,1 km/h (3 Bft)
10.07.2017 13:47 22,4 °C 22,4 °C 68 % 1009,1 hPa 0,0 mm 9,2 km/h (2 Bft) W-NW 299 ° 1 min 0,000 mm 7,9 UV-I 464 W/m² 16,2 °C 22,4 °C 12,9 km/h (3 Bft)
10.07.2017 13:48 22,5 °C 22,5 °C 69 % 1009,1 hPa 0,0 mm 10,1 km/h (2 Bft) NW 311 ° 1 min 0,000 mm 5,4 UV-I 592 W/m² 16,5 °C 22,5 °C 16,1 km/h (3 Bft)
10.07.2017 13:49 22,6 °C 22,6 °C 69 % 1009,1 hPa 0,0 mm 7,4 km/h (2 Bft) NW 326 ° 1 min 0,000 mm 5,3 UV-I 592 W/m² 16,6 °C 22,6 °C 12,9 km/h (3 Bft)
10.07.2017 13:50 22,7 °C 22,7 °C 71 % 1009,0 hPa 0,0 mm 10,7 km/h (2 Bft) W 269 ° 1 min 0,000 mm 8,0 UV-I 592 W/m² 17,2 °C 22,7 °C 17,7 km/h (3 Bft)
10.07.2017 13:51 22,8 °C 22,8 °C 68 % 1009,0 hPa 0,0 mm 6,3 km/h (2 Bft) W-SW 242 ° 1 min 0,000 mm 8,4 UV-I 592 W/m² 16,6 °C 22,8 °C 8,0 km/h (2 Bft)
10.07.2017 13:52 23,2 °C 23,2 °C 71 % 1009,1 hPa 0,0 mm 13,1 km/h (3 Bft) W-SW 246 ° 1 min 0,000 mm 7,4 UV-I 592 W/m² 17,6 °C 23,2 °C 19,3 km/h (3 Bft)
10.07.2017 13:53 23,4 °C 23,4 °C 67 % 1009,0 hPa 0,0 mm 6,4 km/h (2 Bft) W 259 ° 1 min 0,000 mm 8,5 UV-I 1139 W/m² 16,9 °C 23,4 °C 14,5 km/h (3 Bft)
10.07.2017 13:54 23,6 °C 23,6 °C 72 % 1009,1 hPa 0,0 mm 5,1 km/h (1 Bft) W 275 ° 1 min 0,000 mm 8,4 UV-I 1111 W/m² 18,2 °C 23,6 °C 9,7 km/h (2 Bft)
10.07.2017 13:55 23,8 °C 23,8 °C 68 % 1009,1 hPa 0,0 mm 12,5 km/h (3 Bft) W 263 ° 1 min 0,000 mm 5,7 UV-I 1074 W/m² 17,5 °C 23,8 °C 19,3 km/h (3 Bft)
10.07.2017 13:56 23,8 °C 23,8 °C 67 % 1009,0 hPa 0,0 mm 9,7 km/h (2 Bft) W 264 ° 1 min 0,000 mm 8,2 UV-I 1143 W/m² 17,3 °C 23,8 °C 17,7 km/h (3 Bft)
10.07.2017 13:57 23,9 °C 23,9 °C 68 % 1009,0 hPa 0,0 mm 7,2 km/h (2 Bft) W 281 ° 1 min 0,000 mm 8,0 UV-I 1102 W/m² 17,6 °C 23,9 °C 11,3 km/h (2 Bft)
10.07.2017 13:58 24,1 °C 24,1 °C 69 % 1009,0 hPa 0,0 mm 5,0 km/h (1 Bft) W-SW 253 ° 1 min 0,000 mm 7,2 UV-I 1079 W/m² 18,0 °C 24,1 °C 11,3 km/h (2 Bft)
10.07.2017 13:59 24,0 °C 24,1 °C 65 % 1009,0 hPa 0,0 mm 12,3 km/h (3 Bft) NW 325 ° 1 min 0,000 mm 7,3 UV-I 984 W/m² 17,0 °C 24,0 °C 17,7 km/h (3 Bft)
10.07.2017 14:00 23,9 °C 24,0 °C 65 % 1009,0 hPa 0,0 mm 13,6 km/h (3 Bft) W-NW 302 ° 1 min 0,406 mm 6,7 UV-I 1081 W/m² 16,9 °C 23,9 °C 20,9 km/h (4 Bft)
10.07.2017 14:01 23,8 °C 23,9 °C 65 % 1009,1 hPa 0,0 mm 12,4 km/h (3 Bft) N-NW 336 ° 1 min 0,000 mm 8,0 UV-I 1055 W/m² 16,8 °C 23,8 °C 17,7 km/h (3 Bft)
10.07.2017 14:02 23,7 °C 23,8 °C 66 % 1009,1 hPa 0,0 mm 12,9 km/h (3 Bft) W-NW 284 ° 1 min 0,000 mm 7,9 UV-I 1111 W/m² 17,0 °C 23,7 °C 20,9 km/h (4 Bft)
10.07.2017 14:03 23,6 °C 23,7 °C 64 % 1009,1 hPa 0,0 mm 12,8 km/h (3 Bft) W-NW 285 ° 1 min 0,000 mm 4,8 UV-I 1111 W/m² 16,4 °C 23,6 °C 16,1 km/h (3 Bft)
10.07.2017 14:04 23,4 °C 23,6 °C 66 % 1009,1 hPa 0,0 mm 11,9 km/h (2 Bft) NW 318 ° 1 min 0,000 mm 4,8 UV-I 411 W/m² 16,7 °C 23,4 °C 17,7 km/h (3 Bft)
10.07.2017 14:05 23,3 °C 23,4 °C 63 % 1009,1 hPa 0,0 mm 12,3 km/h (3 Bft) W-NW 284 ° 1 min 0,000 mm 7,0 UV-I 411 W/m² 15,9 °C 23,3 °C 17,7 km/h (3 Bft)
10.07.2017 14:06 23,3 °C 23,3 °C 65 % 1009,1 hPa 0,0 mm 13,0 km/h (3 Bft) W 276 ° 1 min 0,000 mm 7,7 UV-I 411 W/m² 16,3 °C 23,3 °C 19,3 km/h (3 Bft)
10.07.2017 14:07 23,3 °C 23,3 °C 64 % 1009,0 hPa 0,0 mm 11,6 km/h (2 Bft) W-SW 249 ° 1 min 0,000 mm 5,9 UV-I 411 W/m² 16,1 °C 23,3 °C 19,3 km/h (3 Bft)
10.07.2017 14:08 23,3 °C 23,3 °C 64 % 1009,0 hPa 0,0 mm 10,5 km/h (2 Bft) W-NW 295 ° 1 min 0,000 mm 7,7 UV-I 411 W/m² 16,1 °C 23,3 °C 17,7 km/h (3 Bft)
10.07.2017 14:09 23,3 °C 23,3 °C 65 % 1009,0 hPa 0,0 mm 10,5 km/h (2 Bft) W-NW 298 ° 1 min 0,000 mm 7,7 UV-I 1007 W/m² 16,3 °C 23,3 °C 17,7 km/h (3 Bft)
10.07.2017 14:10 23,3 °C 23,3 °C 66 % 1008,9 hPa 0,0 mm 10,1 km/h (2 Bft) NW 324 ° 1 min 0,000 mm 6,1 UV-I 1007 W/m² 16,6 °C 23,3 °C 17,7 km/h (3 Bft)
10.07.2017 14:11 23,4 °C 23,4 °C 67 % 1009,0 hPa 0,0 mm 11,7 km/h (2 Bft) W 281 ° 1 min 0,000 mm 7,7 UV-I 1076 W/m² 16,9 °C 23,4 °C 19,3 km/h (3 Bft)
10.07.2017 14:12 23,6 °C 23,6 °C 67 % 1009,0 hPa 0,0 mm 16,0 km/h (3 Bft) W 279 ° 1 min 0,000 mm 6,3 UV-I 1076 W/m² 17,1 °C 23,6 °C 20,9 km/h (4 Bft)
10.07.2017 14:13 23,5 °C 23,6 °C 66 % 1009,0 hPa 0,0 mm 12,2 km/h (2 Bft) W 273 ° 1 min 0,000 mm 5,5 UV-I 1076 W/m² 16,8 °C 23,5 °C 19,3 km/h (3 Bft)
10.07.2017 14:14 23,4 °C 23,5 °C 65 % 1009,0 hPa 0,0 mm 12,2 km/h (2 Bft) W-NW 287 ° 1 min 0,000 mm 3,7 UV-I 352 W/m² 16,4 °C 23,4 °C 17,7 km/h (3 Bft)
10.07.2017 14:15 23,2 °C 23,4 °C 66 % 1009,1 hPa 0,0 mm 6,2 km/h (2 Bft) N-NW 338 ° 1 min 0,000 mm 3,7 UV-I 360 W/m² 16,5 °C 23,2 °C 9,7 km/h (2 Bft)
10.07.2017 14:16 23,1 °C 23,2 °C 66 % 1009,0 hPa 0,0 mm 7,4 km/h (2 Bft) NW 309 ° 1 min 0,000 mm 3,8 UV-I 360 W/m² 16,4 °C 23,1 °C 12,9 km/h (3 Bft)
10.07.2017 14:17 22,9 °C 23,1 °C 68 % 1009,0 hPa 0,0 mm 9,4 km/h (2 Bft) NW 323 ° 1 min 0,000 mm 3,7 UV-I 346 W/m² 16,7 °C 22,9 °C 17,7 km/h (3 Bft)
10.07.2017 14:18 22,9 °C 22,9 °C 67 % 1009,0 hPa 0,0 mm 8,8 km/h (2 Bft) W 265 ° 1 min 0,000 mm 3,7 UV-I 338 W/m² 16,4 °C 22,9 °C 12,9 km/h (3 Bft)
10.07.2017 14:19 22,8 °C 22,9 °C 68 % 1009,0 hPa 0,0 mm 5,5 km/h (1 Bft) W-NW 286 ° 1 min 0,000 mm 3,5 UV-I 336 W/m² 16,6 °C 22,8 °C 11,3 km/h (2 Bft)
10.07.2017 14:20 22,8 °C 22,8 °C 68 % 1009,1 hPa 0,0 mm 5,8 km/h (2 Bft) W 281 ° 1 min 0,000 mm 3,6 UV-I 343 W/m² 16,6 °C 22,8 °C 12,9 km/h (3 Bft)
10.07.2017 14:21 22,8 °C 22,8 °C 67 % 1009,0 hPa 0,0 mm 4,8 km/h (1 Bft) N-NW 338 ° 1 min 0,000 mm 3,6 UV-I 357 W/m² 16,3 °C 22,8 °C 8,0 km/h (2 Bft)
10.07.2017 14:22 22,8 °C 22,8 °C 69 % 1009,0 hPa 0,0 mm 7,6 km/h (2 Bft) W 276 ° 1 min 0,000 mm 3,6 UV-I 359 W/m² 16,8 °C 22,8 °C 16,1 km/h (3 Bft)
10.07.2017 14:23 22,8 °C 22,8 °C 68 % 1009,0 hPa 0,0 mm 6,8 km/h (2 Bft) W 266 ° 1 min 0,000 mm 3,6 UV-I 345 W/m² 16,6 °C 22,8 °C 16,1 km/h (3 Bft)
10.07.2017 14:24 22,8 °C 22,8 °C 69 % 1009,0 hPa 0,0 mm 13,1 km/h (3 Bft) W-SW 252 ° 1 min 0,000 mm 3,8 UV-I 346 W/m² 16,8 °C 22,8 °C 19,3 km/h (3 Bft)
10.07.2017 14:25 22,7 °C 22,8 °C 69 % 1009,0 hPa 0,0 mm 11,1 km/h (2 Bft) W 260 ° 1 min 0,000 mm 3,7 UV-I 353 W/m² 16,7 °C 22,7 °C 19,3 km/h (3 Bft)
10.07.2017 14:26 22,7 °C 22,7 °C 68 % 1009,0 hPa 0,0 mm 10,8 km/h (2 Bft) SW 230 ° 1 min 0,000 mm 3,4 UV-I 315 W/m² 16,5 °C 22,7 °C 16,1 km/h (3 Bft)
10.07.2017 14:27 22,7 °C 22,7 °C 66 % 1009,0 hPa 0,0 mm 5,5 km/h (1 Bft) W 279 ° 1 min 0,000 mm 3,2 UV-I 299 W/m² 16,0 °C 22,7 °C 9,7 km/h (2 Bft)
10.07.2017 14:28 22,6 °C 22,7 °C 67 % 1009,0 hPa 0,0 mm 6,9 km/h (2 Bft) W-NW 292 ° 1 min 0,000 mm 3,1 UV-I 299 W/m² 16,2 °C 22,6 °C 11,3 km/h (2 Bft)
10.07.2017 14:29 22,6 °C 22,6 °C 68 % 1009,0 hPa 0,0 mm 10,6 km/h (2 Bft) W 281 ° 1 min 0,000 mm 3,1 UV-I 299 W/m² 16,4 °C 22,6 °C 14,5 km/h (3 Bft)
10.07.2017 14:30 22,6 °C 22,6 °C 70 % 1009,0 hPa 0,0 mm 11,5 km/h (2 Bft) W-SW 246 ° 1 min 0,000 mm 3,9 UV-I 327 W/m² 16,8 °C 22,6 °C 16,1 km/h (3 Bft)
10.07.2017 14:31 22,6 °C 22,6 °C 70 % 1008,9 hPa 0,0 mm 9,3 km/h (2 Bft) W-SW 252 ° 0 min 0,000 mm 3,9 UV-I 267 W/m² 16,8 °C 22,6 °C 14,5 km/h (3 Bft)
10.07.2017 14:32 22,6 °C 22,6 °C 66 % 1008,9 hPa 0,0 mm 8,1 km/h (2 Bft) W-SW 254 ° 0 min 0,000 mm 2,8 UV-I 241 W/m² 15,9 °C 22,6 °C 11,3 km/h (2 Bft)
10.07.2017 14:33 22,4 °C 22,6 °C 67 % 1008,9 hPa 0,0 mm 3,8 km/h (1 Bft) NW 305 ° 0 min 0,000 mm 2,6 UV-I 220 W/m² 16,0 °C 22,4 °C 6,4 km/h (2 Bft)
10.07.2017 14:34 22,5 °C 22,5 °C 67 % 1008,9 hPa 0,0 mm 4,4 km/h (1 Bft) W 270 ° 0 min 0,000 mm 2,5 UV-I 207 W/m² 16,1 °C 22,5 °C 6,4 km/h (2 Bft)
10.07.2017 14:35 22,4 °C 22,5 °C 67 % 1008,9 hPa 0,0 mm 6,5 km/h (2 Bft) W-NW 288 ° 0 min 0,000 mm 2,3 UV-I 199 W/m² 16,0 °C 22,4 °C 11,3 km/h (2 Bft)
10.07.2017 14:36 22,4 °C 22,4 °C 68 % 1008,8 hPa 0,0 mm 8,2 km/h (2 Bft) W-NW 300 ° 0 min 0,000 mm 2,2 UV-I 195 W/m² 16,2 °C 22,4 °C 11,3 km/h (2 Bft)
10.07.2017 14:37 22,4 °C 22,4 °C 68 % 1008,8 hPa 0,0 mm 3,3 km/h (1 Bft) W-NW 285 ° 0 min 0,000 mm 2,2 UV-I 195 W/m² 16,2 °C 22,4 °C 4,8 km/h (1 Bft)
10.07.2017 14:38 22,4 °C 22,4 °C 68 % 1008,8 hPa 0,0 mm 6,3 km/h (2 Bft) W-SW 251 ° 0 min 0,000 mm 2,2 UV-I 202 W/m² 16,2 °C 22,4 °C 12,9 km/h (3 Bft)
10.07.2017 14:39 22,4 °C 22,4 °C 69 % 1008,8 hPa 0,0 mm 10,9 km/h (2 Bft) W 270 ° 0 min 0,000 mm 2,2 UV-I 207 W/m² 16,4 °C 22,4 °C 12,9 km/h (3 Bft)
10.07.2017 14:40 22,4 °C 22,4 °C 70 % 1008,9 hPa 0,0 mm 10,9 km/h (2 Bft) W-SW 257 ° 0 min 0,000 mm 2,3 UV-I 213 W/m² 16,7 °C 22,4 °C 12,9 km/h (3 Bft)
10.07.2017 14:41 22,4 °C 22,4 °C 69 % 1008,9 hPa 0,0 mm 13,1 km/h (3 Bft) W 278 ° 0 min 0,000 mm 2,3 UV-I 216 W/m² 16,4 °C 22,4 °C 16,1 km/h (3 Bft)
10.07.2017 14:42 22,3 °C 22,4 °C 69 % 1008,9 hPa 0,0 mm 4,8 km/h (1 Bft) W 267 ° 0 min 0,000 mm 2,5 UV-I 248 W/m² 16,3 °C 22,3 °C 9,7 km/h (2 Bft)
10.07.2017 14:43 22,3 °C 22,3 °C 68 % 1008,9 hPa 0,0 mm 5,1 km/h (1 Bft) W-NW 300 ° 0 min 0,000 mm 2,6 UV-I 258 W/m² 16,1 °C 22,3 °C 9,7 km/h (2 Bft)
10.07.2017 14:44 22,4 °C 22,4 °C 69 % 1008,9 hPa 0,0 mm 6,7 km/h (2 Bft) W-NW 302 ° 0 min 0,000 mm 2,6 UV-I 262 W/m² 16,4 °C 22,4 °C 11,3 km/h (2 Bft)
10.07.2017 14:45 22,4 °C 22,4 °C 69 % 1008,9 hPa 0,0 mm 8,9 km/h (2 Bft) W-NW 301 ° 0 min 0,000 mm 2,7 UV-I 272 W/m² 16,4 °C 22,4 °C 12,9 km/h (3 Bft)
10.07.2017 14:46 22,4 °C 22,4 °C 69 % 1008,9 hPa 0,0 mm 14,0 km/h (3 Bft) W-NW 283 ° 0 min 0,000 mm 2,7 UV-I 272 W/m² 16,4 °C 22,4 °C 19,3 km/h (3 Bft)
10.07.2017 14:47 22,5 °C 22,5 °C 68 % 1008,9 hPa 0,0 mm 10,5 km/h (2 Bft) W-NW 302 ° 0 min 0,000 mm 2,7 UV-I 279 W/m² 16,3 °C 22,5 °C 14,5 km/h (3 Bft)
10.07.2017 14:48 22,6 °C 22,6 °C 70 % 1008,8 hPa 0,0 mm 7,8 km/h (2 Bft) W-NW 303 ° 0 min 0,000 mm 2,8 UV-I 285 W/m² 16,8 °C 22,6 °C 12,9 km/h (3 Bft)
10.07.2017 14:49 22,6 °C 22,6 °C 68 % 1008,9 hPa 0,0 mm 6,4 km/h (2 Bft) W 259 ° 0 min 0,000 mm 2,8 UV-I 287 W/m² 16,4 °C 22,6 °C 11,3 km/h (2 Bft)
10.07.2017 14:50 22,6 °C 22,6 °C 68 % 1008,9 hPa 0,0 mm 7,8 km/h (2 Bft) W-NW 285 ° 1 min 0,000 mm 2,9 UV-I 297 W/m² 16,4 °C 22,6 °C 11,3 km/h (2 Bft)
10.07.2017 14:51 22,6 °C 22,6 °C 69 % 1008,9 hPa 0,0 mm 5,3 km/h (1 Bft) SW 216 ° 1 min 0,000 mm 3,1 UV-I 327 W/m² 16,6 °C 22,6 °C 6,4 km/h (2 Bft)
10.07.2017 14:52 22,6 °C 22,7 °C 66 % 1008,9 hPa 0,0 mm 9,0 km/h (2 Bft) W 267 ° 1 min 0,000 mm 3,5 UV-I 378 W/m² 15,9 °C 22,6 °C 12,9 km/h (3 Bft)
10.07.2017 14:53 22,7 °C 22,7 °C 68 % 1009,0 hPa 0,0 mm 6,2 km/h (2 Bft) NW 305 ° 1 min 0,000 mm 4,0 UV-I 378 W/m² 16,5 °C 22,7 °C 12,9 km/h (3 Bft)
10.07.2017 14:54 22,7 °C 22,7 °C 69 % 1008,9 hPa 0,0 mm 4,7 km/h (1 Bft) W 275 ° 1 min 0,000 mm 3,8 UV-I 378 W/m² 16,7 °C 22,7 °C 9,7 km/h (2 Bft)
10.07.2017 14:55 23,0 °C 23,0 °C 71 % 1008,9 hPa 0,0 mm 5,3 km/h (1 Bft) W 279 ° 1 min 0,000 mm 4,3 UV-I 501 W/m² 17,4 °C 23,0 °C 11,3 km/h (2 Bft)
10.07.2017 14:56 23,1 °C 23,1 °C 70 % 1009,0 hPa 0,0 mm 7,4 km/h (2 Bft) NW 304 ° 1 min 0,000 mm 4,0 UV-I 446 W/m² 17,3 °C 23,1 °C 12,9 km/h (3 Bft)
10.07.2017 14:57 23,2 °C 23,2 °C 68 % 1008,9 hPa 0,0 mm 8,8 km/h (2 Bft) W 277 ° 1 min 0,000 mm 4,8 UV-I 485 W/m² 17,0 °C 23,2 °C 12,9 km/h (3 Bft)
10.07.2017 14:58 23,3 °C 23,3 °C 68 % 1008,9 hPa 0,0 mm 4,7 km/h (1 Bft) W-NW 302 ° 1 min 0,000 mm 7,2 UV-I 485 W/m² 17,1 °C 23,3 °C 11,3 km/h (2 Bft)
10.07.2017 14:59 23,3 °C 23,3 °C 68 % 1008,9 hPa 0,0 mm 10,2 km/h (2 Bft) W-NW 300 ° 1 min 0,000 mm 6,3 UV-I 485 W/m² 17,1 °C 23,3 °C 17,7 km/h (3 Bft)
10.07.2017 15:00 23,4 °C 23,4 °C 68 % 1008,9 hPa 0,0 mm 8,0 km/h (2 Bft) N-NW 333 ° 1 min 0,305 mm 4,2 UV-I 457 W/m² 17,1 °C 23,4 °C 12,9 km/h (3 Bft)
10.07.2017 15:01 23,4 °C 23,4 °C 68 % 1008,9 hPa 0,0 mm 10,6 km/h (2 Bft) W-SW 258 ° 1 min 0,000 mm 3,8 UV-I 403 W/m² 17,1 °C 23,4 °C 17,7 km/h (3 Bft)
10.07.2017 15:02 23,3 °C 23,4 °C 64 % 1009,0 hPa 0,0 mm 9,2 km/h (2 Bft) NW 307 ° 1 min 0,000 mm 3,4 UV-I 346 W/m² 16,1 °C 23,3 °C 14,5 km/h (3 Bft)
10.07.2017 15:03 23,2 °C 23,3 °C 65 % 1009,0 hPa 0,0 mm 11,0 km/h (2 Bft) W 281 ° 1 min 0,000 mm 3,3 UV-I 323 W/m² 16,2 °C 23,2 °C 14,5 km/h (3 Bft)
10.07.2017 15:04 23,2 °C 23,2 °C 65 % 1009,0 hPa 0,0 mm 7,1 km/h (2 Bft) W-SW 255 ° 1 min 0,000 mm 3,3 UV-I 323 W/m² 16,2 °C 23,2 °C 16,1 km/h (3 Bft)
10.07.2017 15:05 23,0 °C 23,2 °C 65 % 1009,0 hPa 0,0 mm 5,7 km/h (1 Bft) W-NW 284 ° 1 min 0,000 mm 3,1 UV-I 294 W/m² 16,1 °C 23,0 °C 11,3 km/h (2 Bft)
10.07.2017 15:06 22,9 °C 23,0 °C 65 % 1008,9 hPa 0,0 mm 8,9 km/h (2 Bft) NW 311 ° 1 min 0,000 mm 3,0 UV-I 295 W/m² 16,0 °C 22,9 °C 16,1 km/h (3 Bft)
10.07.2017 15:07 22,8 °C 22,9 °C 66 % 1009,0 hPa 0,0 mm 8,9 km/h (2 Bft) W-NW 296 ° 1 min 0,000 mm 3,1 UV-I 302 W/m² 16,1 °C 22,8 °C 14,5 km/h (3 Bft)
10.07.2017 15:08 22,7 °C 22,8 °C 66 % 1009,0 hPa 0,0 mm 9,6 km/h (2 Bft) W-NW 292 ° 1 min 0,000 mm 3,1 UV-I 309 W/m² 16,0 °C 22,7 °C 17,7 km/h (3 Bft)
10.07.2017 15:09 22,6 °C 22,7 °C 66 % 1008,9 hPa 0,0 mm 8,0 km/h (2 Bft) NW 319 ° 1 min 0,000 mm 3,1 UV-I 318 W/m² 15,9 °C 22,6 °C 14,5 km/h (3 Bft)
10.07.2017 15:10 22,6 °C 22,6 °C 67 % 1008,9 hPa 0,0 mm 9,5 km/h (2 Bft) W 261 ° 1 min 0,000 mm 3,1 UV-I 345 W/m² 16,2 °C 22,6 °C 17,7 km/h (3 Bft)
10.07.2017 15:11 22,6 °C 22,6 °C 68 % 1008,9 hPa 0,0 mm 12,5 km/h (3 Bft) W 268 ° 1 min 0,000 mm 3,2 UV-I 346 W/m² 16,4 °C 22,6 °C 17,7 km/h (3 Bft)
10.07.2017 15:12 22,6 °C 22,6 °C 66 % 1008,9 hPa 0,0 mm 12,6 km/h (3 Bft) W 261 ° 1 min 0,000 mm 3,1 UV-I 334 W/m² 15,9 °C 22,6 °C 19,3 km/h (3 Bft)
10.07.2017 15:13 22,6 °C 22,6 °C 67 % 1009,0 hPa 0,0 mm 10,9 km/h (2 Bft) W 279 ° 1 min 0,000 mm 3,2 UV-I 336 W/m² 16,2 °C 22,6 °C 16,1 km/h (3 Bft)
10.07.2017 15:14 22,6 °C 22,6 °C 67 % 1008,9 hPa 0,0 mm 11,9 km/h (2 Bft) W 281 ° 1 min 0,000 mm 3,2 UV-I 345 W/m² 16,2 °C 22,6 °C 17,7 km/h (3 Bft)
10.07.2017 15:15 22,6 °C 22,6 °C 67 % 1008,9 hPa 0,0 mm 10,7 km/h (2 Bft) W-NW 283 ° 1 min 0,000 mm 3,3 UV-I 352 W/m² 16,2 °C 22,6 °C 17,7 km/h (3 Bft)
10.07.2017 15:16 22,5 °C 22,6 °C 68 % 1008,9 hPa 0,0 mm 9,9 km/h (2 Bft) W-NW 286 ° 1 min 0,000 mm 3,4 UV-I 360 W/m² 16,3 °C 22,5 °C 14,5 km/h (3 Bft)
10.07.2017 15:17 22,6 °C 22,6 °C 67 % 1008,9 hPa 0,0 mm 10,4 km/h (2 Bft) W-SW 244 ° 1 min 0,000 mm 3,4 UV-I 362 W/m² 16,2 °C 22,6 °C 14,5 km/h (3 Bft)
10.07.2017 15:18 22,6 °C 22,6 °C 67 % 1008,9 hPa 0,0 mm 8,0 km/h (2 Bft) W-NW 288 ° 1 min 0,000 mm 3,4 UV-I 357 W/m² 16,2 °C 22,6 °C 12,9 km/h (3 Bft)
10.07.2017 15:19 22,6 °C 22,6 °C 68 % 1008,8 hPa 0,0 mm 9,9 km/h (2 Bft) W 269 ° 1 min 0,000 mm 3,4 UV-I 355 W/m² 16,4 °C 22,6 °C 19,3 km/h (3 Bft)
10.07.2017 15:20 22,6 °C 22,6 °C 68 % 1008,8 hPa 0,0 mm 11,4 km/h (2 Bft) W 272 ° 1 min 0,000 mm 3,3 UV-I 352 W/m² 16,4 °C 22,6 °C 16,1 km/h (3 Bft)
10.07.2017 15:21 22,6 °C 22,7 °C 69 % 1008,8 hPa 0,0 mm 10,9 km/h (2 Bft) NW 311 ° 1 min 0,000 mm 3,3 UV-I 345 W/m² 16,6 °C 22,6 °C 14,5 km/h (3 Bft)
10.07.2017 15:22 22,6 °C 22,7 °C 69 % 1008,9 hPa 0,0 mm 7,7 km/h (2 Bft) W-NW 303 ° 1 min 0,000 mm 3,2 UV-I 325 W/m² 16,6 °C 22,6 °C 11,3 km/h (2 Bft)
10.07.2017 15:23 22,6 °C 22,6 °C 68 % 1008,9 hPa 0,0 mm 6,4 km/h (2 Bft) W-SW 247 ° 1 min 0,000 mm 3,0 UV-I 313 W/m² 16,4 °C 22,6 °C 11,3 km/h (2 Bft)
10.07.2017 15:24 22,6 °C 22,6 °C 70 % 1008,9 hPa 0,0 mm 5,6 km/h (1 Bft) W 273 ° 1 min 0,000 mm 2,9 UV-I 301 W/m² 16,8 °C 22,6 °C 9,7 km/h (2 Bft)
10.07.2017 15:25 22,6 °C 22,6 °C 69 % 1008,9 hPa 0,0 mm 12,1 km/h (2 Bft) W-SW 251 ° 0 min 0,000 mm 2,8 UV-I 288 W/m² 16,6 °C 22,6 °C 17,7 km/h (3 Bft)
10.07.2017 15:26 22,6 °C 22,6 °C 66 % 1008,9 hPa 0,0 mm 14,1 km/h (3 Bft) W 268 ° 0 min 0,000 mm 2,6 UV-I 276 W/m² 15,9 °C 22,6 °C 17,7 km/h (3 Bft)
10.07.2017 15:27 22,4 °C 22,6 °C 68 % 1008,9 hPa 0,0 mm 6,6 km/h (2 Bft) W-NW 302 ° 0 min 0,000 mm 2,5 UV-I 264 W/m² 16,2 °C 22,4 °C 11,3 km/h (2 Bft)
10.07.2017 15:28 22,4 °C 22,5 °C 68 % 1008,9 hPa 0,0 mm 12,4 km/h (3 Bft) W 259 ° 0 min 0,000 mm 2,4 UV-I 241 W/m² 16,2 °C 22,4 °C 16,1 km/h (3 Bft)
10.07.2017 15:29 22,4 °C 22,4 °C 68 % 1008,8 hPa 0,0 mm 11,4 km/h (2 Bft) W 261 ° 0 min 0,000 mm 2,2 UV-I 230 W/m² 16,2 °C 22,4 °C 14,5 km/h (3 Bft)
10.07.2017 15:30 22,4 °C 22,4 °C 69 % 1008,8 hPa 0,0 mm 7,2 km/h (2 Bft) W-NW 296 ° 0 min 0,000 mm 2,1 UV-I 218 W/m² 16,4 °C 22,4 °C 11,3 km/h (2 Bft)
10.07.2017 15:31 22,3 °C 22,4 °C 68 % 1008,9 hPa 0,0 mm 9,6 km/h (2 Bft) W-NW 300 ° 0 min 0,000 mm 2,0 UV-I 209 W/m² 16,1 °C 22,3 °C 19,3 km/h (3 Bft)
10.07.2017 15:32 22,3 °C 22,3 °C 67 % 1008,9 hPa 0,0 mm 10,7 km/h (2 Bft) W-NW 297 ° 0 min 0,000 mm 1,9 UV-I 202 W/m² 15,9 °C 22,3 °C 14,5 km/h (3 Bft)
10.07.2017 15:33 22,3 °C 22,3 °C 68 % 1008,8 hPa 0,0 mm 5,3 km/h (1 Bft) NW 319 ° 0 min 0,000 mm 1,8 UV-I 197 W/m² 16,1 °C 22,3 °C 6,4 km/h (2 Bft)
10.07.2017 15:34 22,2 °C 22,3 °C 69 % 1008,8 hPa 0,0 mm 5,1 km/h (1 Bft) W-NW 290 ° 0 min 0,000 mm 1,8 UV-I 199 W/m² 16,2 °C 22,2 °C 11,3 km/h (2 Bft)
10.07.2017 15:35 22,2 °C 22,2 °C 69 % 1008,8 hPa 0,0 mm 4,0 km/h (1 Bft) W-NW 288 ° 0 min 0,000 mm 1,8 UV-I 200 W/m² 16,2 °C 22,2 °C 6,4 km/h (2 Bft)
10.07.2017 15:36 22,2 °C 22,2 °C 70 % 1008,8 hPa 0,0 mm 3,1 km/h (1 Bft) W-NW 284 ° 0 min 0,000 mm 1,8 UV-I 202 W/m² 16,5 °C 22,2 °C 4,8 km/h (1 Bft)
10.07.2017 15:37 22,2 °C 22,2 °C 71 % 1008,8 hPa 0,0 mm 6,7 km/h (2 Bft) W-NW 298 ° 0 min 0,000 mm 1,9 UV-I 204 W/m² 16,7 °C 22,2 °C 11,3 km/h (2 Bft)
10.07.2017 15:38 22,2 °C 22,2 °C 71 % 1008,8 hPa 0,0 mm 4,1 km/h (1 Bft) W-NW 287 ° 0 min 0,000 mm 1,8 UV-I 202 W/m² 16,7 °C 22,2 °C 4,8 km/h (1 Bft)
10.07.2017 15:39 22,2 °C 22,2 °C 72 % 1008,8 hPa 0,0 mm 5,2 km/h (1 Bft) W 263 ° 0 min 0,000 mm 1,8 UV-I 200 W/m² 16,9 °C 22,2 °C 9,7 km/h (2 Bft)
10.07.2017 15:40 22,1 °C 22,2 °C 69 % 1008,8 hPa 0,0 mm 9,9 km/h (2 Bft) W-SW 257 ° 0 min 0,000 mm 1,8 UV-I 197 W/m² 16,1 °C 22,1 °C 12,9 km/h (3 Bft)
10.07.2017 15:41 22,1 °C 22,1 °C 71 % 1008,8 hPa 0,0 mm 3,6 km/h (1 Bft) W 263 ° 0 min 0,000 mm 1,7 UV-I 192 W/m² 16,6 °C 22,1 °C 6,4 km/h (2 Bft)
10.07.2017 15:42 22,1 °C 22,1 °C 69 % 1008,8 hPa 0,0 mm 0,7 km/h (0 Bft) W 263 ° 0 min 0,000 mm 1,7 UV-I 186 W/m² 16,1 °C 22,1 °C 3,2 km/h (1 Bft)
10.07.2017 15:43 22,1 °C 22,1 °C 70 % 1008,8 hPa 0,0 mm 5,9 km/h (2 Bft) W-NW 282 ° 0 min 0,000 mm 1,6 UV-I 179 W/m² 16,4 °C 22,1 °C 11,3 km/h (2 Bft)
10.07.2017 15:44 22,1 °C 22,1 °C 71 % 1008,8 hPa 0,0 mm 7,9 km/h (2 Bft) W-NW 283 ° 0 min 0,000 mm 1,6 UV-I 174 W/m² 16,6 °C 22,1 °C 11,3 km/h (2 Bft)
10.07.2017 15:45 22,1 °C 22,1 °C 71 % 1008,8 hPa 0,0 mm 5,1 km/h (1 Bft) W-NW 294 ° 0 min 0,000 mm 1,5 UV-I 162 W/m² 16,6 °C 22,1 °C 11,3 km/h (2 Bft)
10.07.2017 15:46 22,0 °C 22,1 °C 71 % 1008,8 hPa 0,0 mm 3,1 km/h (1 Bft) W-SW 256 ° 0 min 0,000 mm 1,4 UV-I 158 W/m² 16,5 °C 22,0 °C 4,8 km/h (1 Bft)
10.07.2017 15:47 22,0 °C 22,0 °C 71 % 1008,8 hPa 0,0 mm 0,0 km/h (0 Bft) W-SW 256 ° 0 min 0,000 mm 1,4 UV-I 155 W/m² 16,5 °C 22,0 °C 0,0 km/h (0 Bft)
10.07.2017 15:48 21,9 °C 22,0 °C 72 % 1008,8 hPa 0,0 mm 3,3 km/h (1 Bft) W-NW 292 ° 0 min 0,000 mm 1,4 UV-I 156 W/m² 16,6 °C 21,9 °C 6,4 km/h (2 Bft)
10.07.2017 15:49 21,9 °C 21,9 °C 73 % 1008,8 hPa 0,0 mm 2,7 km/h (1 Bft) W-NW 286 ° 0 min 0,000 mm 1,4 UV-I 158 W/m² 16,8 °C 21,9 °C 4,8 km/h (1 Bft)
10.07.2017 15:50 21,9 °C 21,9 °C 72 % 1008,8 hPa 0,0 mm 0,7 km/h (0 Bft) W-NW 286 ° 0 min 0,000 mm 1,5 UV-I 165 W/m² 16,6 °C 21,9 °C 3,2 km/h (1 Bft)
10.07.2017 15:51 22,0 °C 22,0 °C 71 % 1008,7 hPa 0,0 mm 2,3 km/h (1 Bft) W-NW 286 ° 0 min 0,000 mm 1,6 UV-I 186 W/m² 16,5 °C 22,0 °C 3,2 km/h (1 Bft)
10.07.2017 15:52 21,9 °C 22,0 °C 72 % 1008,7 hPa 0,0 mm 1,8 km/h (1 Bft) W-SW 242 ° 0 min 0,000 mm 1,8 UV-I 195 W/m² 16,6 °C 21,9 °C 6,4 km/h (2 Bft)
10.07.2017 15:53 21,9 °C 21,9 °C 71 % 1008,7 hPa 0,0 mm 5,0 km/h (1 Bft) W-SW 248 ° 0 min 0,000 mm 1,9 UV-I 204 W/m² 16,4 °C 21,9 °C 6,4 km/h (2 Bft)
10.07.2017 15:54 21,9 °C 21,9 °C 72 % 1008,7 hPa 0,0 mm 5,2 km/h (1 Bft) W-NW 290 ° 0 min 0,000 mm 1,9 UV-I 211 W/m² 16,6 °C 21,9 °C 9,7 km/h (2 Bft)
10.07.2017 15:55 21,9 °C 21,9 °C 71 % 1008,7 hPa 0,0 mm 3,1 km/h (1 Bft) W-NW 290 ° 0 min 0,000 mm 2,0 UV-I 218 W/m² 16,4 °C 21,9 °C 4,8 km/h (1 Bft)
10.07.2017 15:56 22,0 °C 22,0 °C 73 % 1008,7 hPa 0,0 mm 2,1 km/h (1 Bft) W-NW 290 ° 0 min 0,000 mm 2,0 UV-I 221 W/m² 16,9 °C 22,0 °C 3,2 km/h (1 Bft)
10.07.2017 15:57 22,0 °C 22,1 °C 70 % 1008,8 hPa 0,0 mm 11,4 km/h (2 Bft) NW 321 ° 0 min 0,000 mm 2,0 UV-I 218 W/m² 16,3 °C 22,0 °C 16,1 km/h (3 Bft)
10.07.2017 15:58 22,1 °C 22,1 °C 69 % 1008,7 hPa 0,0 mm 6,0 km/h (2 Bft) W 268 ° 0 min 0,000 mm 2,0 UV-I 216 W/m² 16,1 °C 22,1 °C 11,3 km/h (2 Bft)
10.07.2017 15:59 22,1 °C 22,1 °C 69 % 1008,7 hPa 0,0 mm 7,2 km/h (2 Bft) W-NW 292 ° 0 min 0,000 mm 2,0 UV-I 213 W/m² 16,1 °C 22,1 °C 11,3 km/h (2 Bft)
10.07.2017 16:00 22,0 °C 22,1 °C 68 % 1008,8 hPa 0,0 mm 3,2 km/h (1 Bft) N-NW 330 ° 0 min 0,000 mm 1,9 UV-I 211 W/m² 15,8 °C 22,0 °C 6,4 km/h (2 Bft)
10.07.2017 16:01 22,1 °C 22,1 °C 72 % 1008,7 hPa 0,0 mm 4,3 km/h (1 Bft) W-NW 303 ° 0 min 0,178 mm 1,9 UV-I 207 W/m² 16,8 °C 22,1 °C 8,0 km/h (2 Bft)
10.07.2017 16:02 22,1 °C 22,1 °C 71 % 1008,8 hPa 0,0 mm 7,6 km/h (2 Bft) NW 304 ° 0 min 0,000 mm 1,9 UV-I 207 W/m² 16,6 °C 22,1 °C 14,5 km/h (3 Bft)
10.07.2017 16:03 22,1 °C 22,1 °C 71 % 1008,8 hPa 0,0 mm 1,1 km/h (1 Bft) W-NW 300 ° 0 min 0,000 mm 2,0 UV-I 213 W/m² 16,6 °C 22,1 °C 3,2 km/h (1 Bft)
10.07.2017 16:04 22,1 °C 22,1 °C 72 % 1008,8 hPa 0,0 mm 5,7 km/h (1 Bft) W-SW 255 ° 0 min 0,000 mm 2,0 UV-I 216 W/m² 16,8 °C 22,1 °C 11,3 km/h (2 Bft)
10.07.2017 16:05 22,1 °C 22,1 °C 71 % 1008,8 hPa 0,0 mm 6,5 km/h (2 Bft) W-SW 252 ° 0 min 0,000 mm 2,1 UV-I 220 W/m² 16,6 °C 22,1 °C 9,7 km/h (2 Bft)
10.07.2017 16:06 22,1 °C 22,1 °C 71 % 1008,8 hPa 0,0 mm 5,6 km/h (1 Bft) NW 307 ° 0 min 0,000 mm 2,1 UV-I 223 W/m² 16,6 °C 22,1 °C 8,0 km/h (2 Bft)
10.07.2017 16:07 22,1 °C 22,1 °C 71 % 1008,8 hPa 0,0 mm 10,8 km/h (2 Bft) W-SW 242 ° 0 min 0,000 mm 2,1 UV-I 223 W/m² 16,6 °C 22,1 °C 16,1 km/h (3 Bft)
10.07.2017 16:08 22,1 °C 22,1 °C 69 % 1008,8 hPa 0,0 mm 5,6 km/h (1 Bft) W 268 ° 0 min 0,000 mm 2,1 UV-I 225 W/m² 16,1 °C 22,1 °C 11,3 km/h (2 Bft)
10.07.2017 16:09 22,1 °C 22,1 °C 69 % 1008,8 hPa 0,0 mm 3,4 km/h (1 Bft) NW 306 ° 0 min 0,000 mm 2,1 UV-I 229 W/m² 16,1 °C 22,1 °C 4,8 km/h (1 Bft)
10.07.2017 16:10 22,1 °C 22,1 °C 70 % 1008,8 hPa 0,0 mm 3,8 km/h (1 Bft) W-SW 255 ° 0 min 0,000 mm 2,2 UV-I 237 W/m² 16,4 °C 22,1 °C 9,7 km/h (2 Bft)
10.07.2017 16:11 22,1 °C 22,1 °C 71 % 1008,8 hPa 0,0 mm 10,0 km/h (2 Bft) W 280 ° 0 min 0,000 mm 2,2 UV-I 248 W/m² 16,6 °C 22,1 °C 16,1 km/h (3 Bft)
10.07.2017 16:12 22,1 °C 22,2 °C 69 % 1008,8 hPa 0,0 mm 7,8 km/h (2 Bft) W 281 ° 0 min 0,000 mm 2,3 UV-I 262 W/m² 16,1 °C 22,1 °C 12,9 km/h (3 Bft)
10.07.2017 16:13 22,1 °C 22,2 °C 70 % 1008,8 hPa 0,0 mm 10,6 km/h (2 Bft) W 262 ° 0 min 0,000 mm 2,3 UV-I 271 W/m² 16,4 °C 22,1 °C 12,9 km/h (3 Bft)
10.07.2017 16:14 22,1 °C 22,1 °C 70 % 1008,8 hPa 0,0 mm 5,9 km/h (2 Bft) W-NW 294 ° 0 min 0,000 mm 2,3 UV-I 278 W/m² 16,4 °C 22,1 °C 9,7 km/h (2 Bft)
10.07.2017 16:15 22,2 °C 22,2 °C 73 % 1008,8 hPa 0,0 mm 6,8 km/h (2 Bft) W-NW 292 ° 1 min 0,000 mm 2,3 UV-I 306 W/m² 17,1 °C 22,2 °C 9,7 km/h (2 Bft)
10.07.2017 16:16 22,2 °C 22,2 °C 71 % 1008,8 hPa 0,0 mm 4,4 km/h (1 Bft) W 278 ° 1 min 0,000 mm 2,5 UV-I 316 W/m² 16,7 °C 22,2 °C 6,4 km/h (2 Bft)
10.07.2017 16:17 22,3 °C 22,3 °C 70 % 1008,8 hPa 0,0 mm 6,2 km/h (2 Bft) W 269 ° 1 min 0,000 mm 2,5 UV-I 311 W/m² 16,6 °C 22,3 °C 11,3 km/h (2 Bft)
10.07.2017 16:18 22,3 °C 22,3 °C 71 % 1008,8 hPa 0,0 mm 4,2 km/h (1 Bft) W-NW 284 ° 1 min 0,000 mm 2,5 UV-I 322 W/m² 16,8 °C 22,3 °C 6,4 km/h (2 Bft)
10.07.2017 16:19 22,3 °C 22,3 °C 70 % 1008,8 hPa 0,0 mm 3,3 km/h (1 Bft) NW 310 ° 1 min 0,000 mm 2,5 UV-I 308 W/m² 16,6 °C 22,3 °C 4,8 km/h (1 Bft)
10.07.2017 16:20 22,4 °C 22,4 °C 71 % 1008,8 hPa 0,0 mm 4,2 km/h (1 Bft) W-NW 288 ° 1 min 0,000 mm 2,6 UV-I 343 W/m² 16,9 °C 22,4 °C 6,4 km/h (2 Bft)
10.07.2017 16:21 22,4 °C 22,4 °C 72 % 1008,9 hPa 0,0 mm 3,8 km/h (1 Bft) W-NW 290 ° 1 min 0,000 mm 2,8 UV-I 401 W/m² 17,1 °C 22,4 °C 4,8 km/h (1 Bft)
10.07.2017 16:22 22,6 °C 22,6 °C 71 % 1008,8 hPa 0,0 mm 3,8 km/h (1 Bft) W 259 ° 1 min 0,000 mm 3,3 UV-I 408 W/m² 17,1 °C 22,6 °C 6,4 km/h (2 Bft)
10.07.2017 16:23 22,6 °C 22,6 °C 71 % 1008,8 hPa 0,0 mm 3,4 km/h (1 Bft) N-NW 332 ° 1 min 0,000 mm 3,4 UV-I 411 W/m² 17,1 °C 22,6 °C 9,7 km/h (2 Bft)
10.07.2017 16:24 22,8 °C 22,8 °C 71 % 1008,8 hPa 0,0 mm 6,8 km/h (2 Bft) W 278 ° 1 min 0,000 mm 3,6 UV-I 406 W/m² 17,3 °C 22,8 °C 9,7 km/h (2 Bft)
10.07.2017 16:25 22,8 °C 22,9 °C 68 % 1008,8 hPa 0,0 mm 6,7 km/h (2 Bft) W-SW 257 ° 1 min 0,000 mm 3,6 UV-I 385 W/m² 16,6 °C 22,8 °C 12,9 km/h (3 Bft)
10.07.2017 16:26 22,9 °C 22,9 °C 68 % 1008,8 hPa 0,0 mm 2,1 km/h (1 Bft) W 274 ° 1 min 0,000 mm 3,5 UV-I 313 W/m² 16,7 °C 22,9 °C 6,4 km/h (2 Bft)
10.07.2017 16:27 22,9 °C 22,9 °C 67 % 1008,7 hPa 0,0 mm 0,4 km/h (0 Bft) W 274 ° 1 min 0,000 mm 3,2 UV-I 295 W/m² 16,4 °C 22,9 °C 3,2 km/h (1 Bft)
10.07.2017 16:28 22,8 °C 22,9 °C 69 % 1008,7 hPa 0,0 mm 6,4 km/h (2 Bft) W 279 ° 0 min 0,000 mm 3,1 UV-I 285 W/m² 16,8 °C 22,8 °C 9,7 km/h (2 Bft)
10.07.2017 16:29 22,8 °C 22,8 °C 68 % 1008,7 hPa 0,0 mm 8,2 km/h (2 Bft) W 281 ° 0 min 0,000 mm 3,1 UV-I 276 W/m² 16,6 °C 22,8 °C 12,9 km/h (3 Bft)
10.07.2017 16:30 22,9 °C 22,9 °C 70 % 1008,7 hPa 0,0 mm 8,6 km/h (2 Bft) NW 325 ° 0 min 0,000 mm 3,1 UV-I 274 W/m² 17,1 °C 22,9 °C 11,3 km/h (2 Bft)
10.07.2017 16:31 22,9 °C 22,9 °C 71 % 1008,7 hPa 0,0 mm 4,0 km/h (1 Bft) W 259 ° 0 min 0,000 mm 2,9 UV-I 257 W/m² 17,4 °C 22,9 °C 6,4 km/h (2 Bft)
10.07.2017 16:32 22,9 °C 23,0 °C 68 % 1008,6 hPa 0,0 mm 3,9 km/h (1 Bft) W-NW 288 ° 0 min 0,000 mm 2,8 UV-I 246 W/m² 16,7 °C 22,9 °C 8,0 km/h (2 Bft)
10.07.2017 16:33 22,9 °C 22,9 °C 69 % 1008,7 hPa 0,0 mm 4,9 km/h (1 Bft) W-NW 284 ° 0 min 0,000 mm 2,4 UV-I 225 W/m² 16,9 °C 22,9 °C 6,4 km/h (2 Bft)
10.07.2017 16:34 22,8 °C 22,9 °C 70 % 1008,7 hPa 0,0 mm 6,2 km/h (2 Bft) W-NW 282 ° 0 min 0,000 mm 2,3 UV-I 225 W/m² 17,0 °C 22,8 °C 9,7 km/h (2 Bft)
10.07.2017 16:35 22,8 °C 22,8 °C 69 % 1008,7 hPa 0,0 mm 5,1 km/h (1 Bft) NW 317 ° 0 min 0,000 mm 2,2 UV-I 220 W/m² 16,8 °C 22,8 °C 6,4 km/h (2 Bft)
10.07.2017 16:36 22,7 °C 22,8 °C 69 % 1008,6 hPa 0,0 mm 4,9 km/h (1 Bft) W-NW 299 ° 0 min 0,000 mm 2,2 UV-I 216 W/m² 16,7 °C 22,7 °C 8,0 km/h (2 Bft)
10.07.2017 16:37 22,7 °C 22,7 °C 69 % 1008,6 hPa 0,0 mm 3,3 km/h (1 Bft) NW 323 ° 0 min 0,000 mm 2,0 UV-I 202 W/m² 16,7 °C 22,7 °C 8,0 km/h (2 Bft)
10.07.2017 16:38 22,6 °C 22,7 °C 71 % 1008,7 hPa 0,0 mm 6,4 km/h (2 Bft) W 277 ° 0 min 0,000 mm 1,8 UV-I 156 W/m² 17,1 °C 22,6 °C 9,7 km/h (2 Bft)
10.07.2017 16:39 22,6 °C 22,6 °C 70 % 1008,6 hPa 0,0 mm 3,7 km/h (1 Bft) W 273 ° 0 min 0,000 mm 1,4 UV-I 142 W/m² 16,8 °C 22,6 °C 4,8 km/h (1 Bft)
10.07.2017 16:40 22,5 °C 22,6 °C 68 % 1008,6 hPa 0,0 mm 5,2 km/h (1 Bft) W-NW 293 ° 0 min 0,000 mm 1,3 UV-I 135 W/m² 16,3 °C 22,5 °C 9,7 km/h (2 Bft)
10.07.2017 16:41 22,4 °C 22,5 °C 70 % 1008,6 hPa 0,0 mm 4,3 km/h (1 Bft) W-NW 302 ° 0 min 0,000 mm 1,2 UV-I 135 W/m² 16,7 °C 22,4 °C 6,4 km/h (2 Bft)
10.07.2017 16:42 22,3 °C 22,4 °C 71 % 1008,6 hPa 0,0 mm 5,9 km/h (2 Bft) W-SW 257 ° 0 min 0,000 mm 1,2 UV-I 142 W/m² 16,8 °C 22,3 °C 9,7 km/h (2 Bft)
10.07.2017 16:43 22,3 °C 22,3 °C 71 % 1008,6 hPa 0,0 mm 5,4 km/h (1 Bft) W-NW 297 ° 0 min 0,000 mm 1,3 UV-I 162 W/m² 16,8 °C 22,3 °C 9,7 km/h (2 Bft)
10.07.2017 16:44 22,3 °C 22,3 °C 73 % 1008,6 hPa 0,0 mm 10,7 km/h (2 Bft) W-SW 238 ° 0 min 0,000 mm 1,4 UV-I 171 W/m² 17,2 °C 22,3 °C 16,1 km/h (3 Bft)
10.07.2017 16:45 22,2 °C 22,3 °C 72 % 1008,6 hPa 0,0 mm 6,2 km/h (2 Bft) SW 232 ° 0 min 0,000 mm 1,4 UV-I 162 W/m² 16,9 °C 22,2 °C 9,7 km/h (2 Bft)
10.07.2017 16:46 22,2 °C 22,2 °C 71 % 1008,6 hPa 0,0 mm 3,8 km/h (1 Bft) W-SW 243 ° 0 min 0,000 mm 1,4 UV-I 155 W/m² 16,7 °C 22,2 °C 6,4 km/h (2 Bft)
10.07.2017 16:47 22,1 °C 22,2 °C 71 % 1008,5 hPa 0,0 mm 3,6 km/h (1 Bft) W-NW 292 ° 0 min 0,000 mm 1,4 UV-I 149 W/m² 16,6 °C 22,1 °C 6,4 km/h (2 Bft)
10.07.2017 16:48 22,1 °C 22,1 °C 70 % 1008,5 hPa 0,0 mm 0,7 km/h (0 Bft) W-NW 292 ° 0 min 0,000 mm 1,4 UV-I 148 W/m² 16,4 °C 22,1 °C 4,8 km/h (1 Bft)
10.07.2017 16:49 22,1 °C 22,1 °C 72 % 1008,5 hPa 0,0 mm 4,2 km/h (1 Bft) W 260 ° 0 min 0,000 mm 1,4 UV-I 153 W/m² 16,8 °C 22,1 °C 9,7 km/h (2 Bft)
10.07.2017 16:50 22,1 °C 22,1 °C 71 % 1008,5 hPa 0,0 mm 3,2 km/h (1 Bft) W-NW 286 ° 0 min 0,000 mm 1,5 UV-I 172 W/m² 16,6 °C 22,1 °C 6,4 km/h (2 Bft)
10.07.2017 16:51 22,1 °C 22,1 °C 72 % 1008,5 hPa 0,0 mm 3,9 km/h (1 Bft) W-NW 296 ° 0 min 0,000 mm 1,6 UV-I 176 W/m² 16,8 °C 22,1 °C 6,4 km/h (2 Bft)
10.07.2017 16:52 22,1 °C 22,1 °C 72 % 1008,5 hPa 0,0 mm 0,6 km/h (0 Bft) W-NW 296 ° 0 min 0,000 mm 1,6 UV-I 171 W/m² 16,8 °C 22,1 °C 3,2 km/h (1 Bft)
10.07.2017 16:53 22,1 °C 22,2 °C 70 % 1008,5 hPa 0,0 mm 4,1 km/h (1 Bft) W 265 ° 0 min 0,000 mm 1,5 UV-I 160 W/m² 16,4 °C 22,1 °C 6,4 km/h (2 Bft)
10.07.2017 16:54 22,1 °C 22,1 °C 71 % 1008,5 hPa 0,0 mm 4,8 km/h (1 Bft) W 263 ° 0 min 0,000 mm 1,5 UV-I 148 W/m² 16,6 °C 22,1 °C 9,7 km/h (2 Bft)
10.07.2017 16:55 22,1 °C 22,1 °C 69 % 1008,5 hPa 0,0 mm 3,8 km/h (1 Bft) W-SW 253 ° 0 min 0,000 mm 1,4 UV-I 135 W/m² 16,1 °C 22,1 °C 4,8 km/h (1 Bft)
10.07.2017 16:56 22,1 °C 22,1 °C 71 % 1008,5 hPa 0,0 mm 4,3 km/h (1 Bft) W 280 ° 0 min 0,000 mm 1,4 UV-I 121 W/m² 16,6 °C 22,1 °C 9,7 km/h (2 Bft)
10.07.2017 16:57 22,1 °C 22,1 °C 70 % 1008,5 hPa 0,0 mm 3,4 km/h (1 Bft) W-NW 286 ° 0 min 0,000 mm 1,2 UV-I 118 W/m² 16,4 °C 22,1 °C 4,8 km/h (1 Bft)
10.07.2017 16:58 22,0 °C 22,1 °C 71 % 1008,5 hPa 0,0 mm 5,5 km/h (1 Bft) W-NW 283 ° 0 min 0,000 mm 1,2 UV-I 114 W/m² 16,5 °C 22,0 °C 9,7 km/h (2 Bft)
10.07.2017 16:59 21,9 °C 22,0 °C 70 % 1008,5 hPa 0,0 mm 11,5 km/h (2 Bft) SW 234 ° 0 min 0,000 mm 1,2 UV-I 114 W/m² 16,2 °C 21,9 °C 19,3 km/h (3 Bft)
10.07.2017 17:00 21,9 °C 21,9 °C 71 % 1008,5 hPa 0,0 mm 8,7 km/h (2 Bft) W 278 ° 0 min 0,000 mm 1,2 UV-I 118 W/m² 16,4 °C 21,9 °C 12,9 km/h (3 Bft)
10.07.2017 17:01 21,8 °C 21,9 °C 72 % 1008,5 hPa 0,0 mm 12,9 km/h (3 Bft) W 268 ° 0 min 0,152 mm 1,2 UV-I 128 W/m² 16,5 °C 21,8 °C 16,1 km/h (3 Bft)
10.07.2017 17:02 21,8 °C 21,9 °C 70 % 1008,5 hPa 0,0 mm 9,0 km/h (2 Bft) W-NW 290 ° 0 min 0,000 mm 1,2 UV-I 135 W/m² 16,1 °C 21,8 °C 14,5 km/h (3 Bft)
10.07.2017 17:03 21,8 °C 21,8 °C 71 % 1008,5 hPa 0,0 mm 6,6 km/h (2 Bft) W 263 ° 0 min 0,000 mm 1,2 UV-I 142 W/m² 16,3 °C 21,8 °C 11,3 km/h (2 Bft)
10.07.2017 17:04 21,8 °C 21,8 °C 71 % 1008,4 hPa 0,0 mm 11,5 km/h (2 Bft) W-SW 250 ° 0 min 0,000 mm 1,2 UV-I 148 W/m² 16,3 °C 21,8 °C 16,1 km/h (3 Bft)
10.07.2017 17:05 21,8 °C 21,8 °C 72 % 1008,4 hPa 0,0 mm 5,9 km/h (2 Bft) W-NW 286 ° 0 min 0,000 mm 1,2 UV-I 149 W/m² 16,5 °C 21,8 °C 9,7 km/h (2 Bft)
10.07.2017 17:06 21,7 °C 21,8 °C 71 % 1008,5 hPa 0,0 mm 7,3 km/h (2 Bft) W-SW 254 ° 0 min 0,000 mm 1,2 UV-I 149 W/m² 16,2 °C 21,7 °C 11,3 km/h (2 Bft)
10.07.2017 17:07 21,7 °C 21,8 °C 72 % 1008,5 hPa 0,0 mm 8,4 km/h (2 Bft) W 269 ° 0 min 0,000 mm 1,2 UV-I 132 W/m² 16,4 °C 21,7 °C 12,9 km/h (3 Bft)
10.07.2017 17:08 21,7 °C 21,7 °C 73 % 1008,5 hPa 0,0 mm 4,1 km/h (1 Bft) W 276 ° 0 min 0,000 mm 1,1 UV-I 121 W/m² 16,6 °C 21,7 °C 6,4 km/h (2 Bft)
10.07.2017 17:09 21,7 °C 21,7 °C 74 % 1008,6 hPa 0,0 mm 7,5 km/h (2 Bft) W-SW 258 ° 0 min 0,000 mm 0,9 UV-I 111 W/m² 16,9 °C 21,7 °C 11,3 km/h (2 Bft)
10.07.2017 17:10 21,7 °C 21,7 °C 73 % 1008,6 hPa 0,0 mm 5,9 km/h (2 Bft) W-NW 298 ° 0 min 0,000 mm 0,8 UV-I 104 W/m² 16,6 °C 21,7 °C 9,7 km/h (2 Bft)
10.07.2017 17:11 21,7 °C 21,7 °C 73 % 1008,7 hPa 0,0 mm 5,2 km/h (1 Bft) NW 305 ° 0 min 0,000 mm 0,8 UV-I 97 W/m² 16,6 °C 21,7 °C 8,0 km/h (2 Bft)
10.07.2017 17:12 21,6 °C 21,7 °C 73 % 1008,7 hPa 0,0 mm 5,0 km/h (1 Bft) W-NW 291 ° 0 min 0,000 mm 0,7 UV-I 91 W/m² 16,5 °C 21,6 °C 8,0 km/h (2 Bft)
10.07.2017 17:13 21,6 °C 21,6 °C 75 % 1008,6 hPa 0,0 mm 1,1 km/h (1 Bft) W-NW 291 ° 0 min 0,000 mm 0,7 UV-I 88 W/m² 17,0 °C 21,6 °C 3,2 km/h (1 Bft)
10.07.2017 17:14 21,6 °C 21,6 °C 74 % 1008,7 hPa 0,0 mm 2,3 km/h (1 Bft) W-NW 287 ° 0 min 0,000 mm 0,7 UV-I 88 W/m² 16,8 °C 21,6 °C 4,8 km/h (1 Bft)
10.07.2017 17:15 21,5 °C 21,6 °C 75 % 1008,7 hPa 0,0 mm 7,2 km/h (2 Bft) W-SW 256 ° 0 min 0,000 mm 0,7 UV-I 90 W/m² 16,9 °C 21,5 °C 14,5 km/h (3 Bft)
10.07.2017 17:16 21,5 °C 21,5 °C 75 % 1008,7 hPa 0,0 mm 7,8 km/h (2 Bft) W 279 ° 0 min 0,000 mm 0,7 UV-I 93 W/m² 16,9 °C 21,5 °C 12,9 km/h (3 Bft)
10.07.2017 17:17 21,4 °C 21,5 °C 73 % 1008,7 hPa 0,0 mm 6,0 km/h (2 Bft) W 267 ° 0 min 0,000 mm 0,7 UV-I 93 W/m² 16,4 °C 21,4 °C 9,7 km/h (2 Bft)
10.07.2017 17:18 21,5 °C 21,5 °C 74 % 1008,7 hPa 0,0 mm 2,7 km/h (1 Bft) W-SW 257 ° 0 min 0,000 mm 0,7 UV-I 93 W/m² 16,7 °C 21,5 °C 4,8 km/h (1 Bft)
10.07.2017 17:19 21,5 °C 21,5 °C 75 % 1008,8 hPa 0,0 mm 6,0 km/h (2 Bft) W 267 ° 0 min 0,000 mm 0,6 UV-I 84 W/m² 16,9 °C 21,5 °C 9,7 km/h (2 Bft)
10.07.2017 17:20 21,4 °C 21,5 °C 74 % 1008,8 hPa 0,0 mm 4,6 km/h (1 Bft) W 278 ° 0 min 0,000 mm 0,5 UV-I 77 W/m² 16,6 °C 21,4 °C 6,4 km/h (2 Bft)
10.07.2017 17:21 21,4 °C 21,4 °C 74 % 1008,7 hPa 0,0 mm 1,5 km/h (1 Bft) W 278 ° 0 min 0,000 mm 0,5 UV-I 72 W/m² 16,6 °C 21,4 °C 3,2 km/h (1 Bft)
10.07.2017 17:22 21,4 °C 21,4 °C 75 % 1008,8 hPa 0,0 mm 0,5 km/h (0 Bft) W 278 ° 0 min 0,000 mm 0,5 UV-I 69 W/m² 16,8 °C 21,4 °C 1,6 km/h (1 Bft)
10.07.2017 17:23 21,4 °C 21,4 °C 76 % 1008,8 hPa 0,0 mm 0,0 km/h (0 Bft) W 278 ° 0 min 0,000 mm 0,5 UV-I 67 W/m² 17,0 °C 21,4 °C 0,0 km/h (0 Bft)
10.07.2017 17:24 21,3 °C 21,4 °C 75 % 1008,8 hPa 0,0 mm 0,5 km/h (0 Bft) W 278 ° 0 min 0,000 mm 0,5 UV-I 65 W/m² 16,7 °C 21,3 °C 1,6 km/h (1 Bft)
10.07.2017 17:25 21,3 °C 21,3 °C 76 % 1008,8 hPa 0,0 mm 0,3 km/h (0 Bft) W 278 ° 0 min 0,000 mm 0,5 UV-I 67 W/m² 16,9 °C 21,3 °C 1,6 km/h (1 Bft)
10.07.2017 17:26 21,2 °C 21,3 °C 76 % 1008,8 hPa 0,0 mm 1,6 km/h (1 Bft) W 278 ° 0 min 0,000 mm 0,0 UV-I 65 W/m² 16,8 °C 21,2 °C 3,2 km/h (1 Bft)
10.07.2017 17:27 21,2 °C 21,2 °C 76 % 1008,8 hPa 0,0 mm 4,8 km/h (1 Bft) W 269 ° 0 min 0,000 mm 0,0 UV-I 63 W/m² 16,8 °C 21,2 °C 6,4 km/h (2 Bft)
10.07.2017 17:28 21,1 °C 21,2 °C 76 % 1008,8 hPa 0,0 mm 1,7 km/h (1 Bft) W 273 ° 0 min 0,000 mm 0,0 UV-I 62 W/m² 16,7 °C 21,1 °C 4,8 km/h (1 Bft)
10.07.2017 17:29 21,1 °C 21,1 °C 77 % 1008,8 hPa 0,0 mm 1,2 km/h (1 Bft) W 271 ° 0 min 0,000 mm 0,0 UV-I 62 W/m² 16,9 °C 21,1 °C 3,2 km/h (1 Bft)
10.07.2017 17:30 21,0 °C 21,1 °C 76 % 1008,9 hPa 0,0 mm 2,4 km/h (1 Bft) SW 234 ° 0 min 0,000 mm 0,0 UV-I 63 W/m² 16,6 °C 21,0 °C 4,8 km/h (1 Bft)
10.07.2017 17:31 20,9 °C 21,0 °C 77 % 1008,9 hPa 0,0 mm 2,8 km/h (1 Bft) W-SW 254 ° 0 min 0,000 mm 0,0 UV-I 79 W/m² 16,7 °C 20,9 °C 6,4 km/h (2 Bft)
10.07.2017 17:32 20,8 °C 20,9 °C 77 % 1008,8 hPa 0,2 mm 1,0 km/h (0 Bft) W-SW 252 ° 0 min 0,000 mm 0,6 UV-I 95 W/m² 16,6 °C 20,8 °C 3,2 km/h (1 Bft)
10.07.2017 17:33 20,8 °C 20,8 °C 77 % 1008,8 hPa 0,0 mm 2,7 km/h (1 Bft) NW 309 ° 0 min 0,000 mm 0,8 UV-I 120 W/m² 16,6 °C 20,8 °C 4,8 km/h (1 Bft)
10.07.2017 17:34 20,7 °C 20,8 °C 76 % 1008,8 hPa 0,0 mm 5,7 km/h (1 Bft) S 188 ° 0 min 0,000 mm 1,0 UV-I 153 W/m² 16,3 °C 20,7 °C 11,3 km/h (2 Bft)
10.07.2017 17:35 20,7 °C 20,7 °C 77 % 1008,8 hPa 0,0 mm 9,1 km/h (2 Bft) W-SW 258 ° 0 min 0,000 mm 1,2 UV-I 183 W/m² 16,5 °C 20,7 °C 14,5 km/h (3 Bft)
10.07.2017 17:36 20,6 °C 20,7 °C 75 % 1008,7 hPa 0,0 mm 10,9 km/h (2 Bft) W 265 ° 0 min 0,000 mm 1,3 UV-I 209 W/m² 16,0 °C 20,6 °C 17,7 km/h (3 Bft)
10.07.2017 17:37 20,6 °C 20,6 °C 77 % 1008,7 hPa 0,0 mm 11,2 km/h (2 Bft) W 262 ° 0 min 0,000 mm 1,4 UV-I 213 W/m² 16,4 °C 20,6 °C 17,7 km/h (3 Bft)
10.07.2017 17:38 20,6 °C 20,6 °C 81 % 1008,7 hPa 0,0 mm 6,2 km/h (2 Bft) W-SW 250 ° 0 min 0,000 mm 1,4 UV-I 213 W/m² 17,2 °C 20,6 °C 11,3 km/h (2 Bft)
10.07.2017 17:39 20,4 °C 20,6 °C 81 % 1008,7 hPa 0,0 mm 5,1 km/h (1 Bft) W 280 ° 0 min 0,000 mm 1,4 UV-I 207 W/m² 17,0 °C 20,4 °C 8,0 km/h (2 Bft)
10.07.2017 17:40 20,3 °C 20,4 °C 80 % 1008,7 hPa 0,0 mm 3,2 km/h (1 Bft) W 271 ° 0 min 0,000 mm 1,3 UV-I 199 W/m² 16,7 °C 20,3 °C 4,8 km/h (1 Bft)
10.07.2017 17:41 20,3 °C 20,3 °C 83 % 1008,7 hPa 0,0 mm 1,2 km/h (1 Bft) W 271 ° 0 min 0,000 mm 1,3 UV-I 188 W/m² 17,3 °C 20,3 °C 3,2 km/h (1 Bft)
10.07.2017 17:42 20,2 °C 20,3 °C 84 % 1008,7 hPa 0,0 mm 0,0 km/h (0 Bft) W 271 ° 0 min 0,000 mm 1,2 UV-I 183 W/m² 17,4 °C 20,2 °C 0,0 km/h (0 Bft)
10.07.2017 17:44 20,2 °C 20,2 °C 80 % 1008,6 hPa 0,0 mm 1,3 km/h (1 Bft) W-SW 240 ° 0 min 0,000 mm 1,3 UV-I 193 W/m² 16,6 °C 20,2 °C 4,8 km/h (1 Bft)
10.07.2017 17:45 20,2 °C 20,2 °C 82 % 1008,6 hPa 0,0 mm 0,4 km/h (0 Bft) W-SW 240 ° 0 min 0,000 mm 1,3 UV-I 200 W/m² 17,0 °C 20,2 °C 1,6 km/h (1 Bft)
10.07.2017 17:46 20,3 °C 20,3 °C 83 % 1008,6 hPa 0,0 mm 1,7 km/h (1 Bft) W 259 ° 0 min 0,000 mm 1,3 UV-I 213 W/m² 17,3 °C 20,3 °C 3,2 km/h (1 Bft)
10.07.2017 17:47 20,4 °C 20,4 °C 82 % 1008,6 hPa 0,0 mm 3,8 km/h (1 Bft) W-SW 246 ° 0 min 0,000 mm 1,4 UV-I 225 W/m² 17,2 °C 20,4 °C 6,4 km/h (2 Bft)
10.07.2017 17:48 20,6 °C 20,6 °C 83 % 1008,6 hPa 0,0 mm 2,4 km/h (1 Bft) W 260 ° 0 min 0,000 mm 1,5 UV-I 239 W/m² 17,6 °C 20,6 °C 6,4 km/h (2 Bft)
10.07.2017 17:49 20,7 °C 20,7 °C 81 % 1008,5 hPa 0,0 mm 0,6 km/h (0 Bft) SW 234 ° 0 min 0,000 mm 1,6 UV-I 257 W/m² 17,3 °C 20,7 °C 3,2 km/h (1 Bft)
10.07.2017 17:50 20,8 °C 20,8 °C 83 % 1008,5 hPa 0,0 mm 2,5 km/h (1 Bft) SW 225 ° 0 min 0,000 mm 1,6 UV-I 267 W/m² 17,8 °C 20,8 °C 3,2 km/h (1 Bft)
10.07.2017 17:51 20,9 °C 20,9 °C 81 % 1008,5 hPa 0,0 mm 1,8 km/h (1 Bft) W 259 ° 0 min 0,000 mm 1,7 UV-I 265 W/m² 17,5 °C 20,9 °C 3,2 km/h (1 Bft)
10.07.2017 17:52 21,1 °C 21,1 °C 80 % 1008,5 hPa 0,0 mm 0,9 km/h (0 Bft) W 259 ° 0 min 0,000 mm 1,7 UV-I 264 W/m² 17,5 °C 21,1 °C 3,2 km/h (1 Bft)
10.07.2017 17:53 21,2 °C 21,2 °C 80 % 1008,5 hPa 0,0 mm 3,0 km/h (1 Bft) W-SW 245 ° 0 min 0,000 mm 1,7 UV-I 253 W/m² 17,6 °C 21,2 °C 4,8 km/h (1 Bft)
10.07.2017 17:54 21,4 °C 21,4 °C 79 % 1008,4 hPa 0,0 mm 4,3 km/h (1 Bft) W-SW 242 ° 0 min 0,000 mm 1,6 UV-I 239 W/m² 17,6 °C 21,4 °C 6,4 km/h (2 Bft)
10.07.2017 17:55 21,4 °C 21,4 °C 79 % 1008,4 hPa 0,0 mm 4,1 km/h (1 Bft) W 273 ° 0 min 0,000 mm 1,6 UV-I 229 W/m² 17,6 °C 21,4 °C 9,7 km/h (2 Bft)
10.07.2017 17:56 21,6 °C 21,6 °C 76 % 1008,5 hPa 0,0 mm 6,1 km/h (2 Bft) N-NW 338 ° 0 min 0,000 mm 1,5 UV-I 220 W/m² 17,2 °C 21,6 °C 9,7 km/h (2 Bft)
10.07.2017 17:57 21,6 °C 21,6 °C 74 % 1008,4 hPa 0,0 mm 7,3 km/h (2 Bft) W 261 ° 0 min 0,000 mm 1,5 UV-I 207 W/m² 16,8 °C 21,6 °C 12,9 km/h (3 Bft)
10.07.2017 17:58 21,6 °C 21,6 °C 74 % 1008,4 hPa 0,0 mm 6,6 km/h (2 Bft) W 269 ° 0 min 0,000 mm 1,4 UV-I 195 W/m² 16,8 °C 21,6 °C 11,3 km/h (2 Bft)
10.07.2017 17:59 21,7 °C 21,7 °C 75 % 1008,4 hPa 0,0 mm 4,4 km/h (1 Bft) W 280 ° 0 min 0,000 mm 1,3 UV-I 185 W/m² 17,1 °C 21,7 °C 6,4 km/h (2 Bft)
10.07.2017 18:00 21,7 °C 21,7 °C 75 % 1008,4 hPa 0,0 mm 5,9 km/h (2 Bft) W-NW 292 ° 0 min 0,000 mm 1,3 UV-I 169 W/m² 17,1 °C 21,7 °C 11,3 km/h (2 Bft)
10.07.2017 18:01 21,7 °C 21,7 °C 77 % 1008,4 hPa 0,0 mm 4,7 km/h (1 Bft) W 259 ° 0 min 0,102 mm 1,2 UV-I 162 W/m² 17,5 °C 21,7 °C 6,4 km/h (2 Bft)
10.07.2017 18:02 21,7 °C 21,7 °C 76 % 1008,4 hPa 0,0 mm 5,8 km/h (2 Bft) W 271 ° 0 min 0,000 mm 1,2 UV-I 149 W/m² 17,3 °C 21,7 °C 9,7 km/h (2 Bft)
10.07.2017 18:03 21,6 °C 21,7 °C 75 % 1008,4 hPa 0,0 mm 6,3 km/h (2 Bft) W-NW 288 ° 0 min 0,000 mm 1,2 UV-I 146 W/m² 17,0 °C 21,6 °C 9,7 km/h (2 Bft)
10.07.2017 18:04 21,6 °C 21,6 °C 75 % 1008,5 hPa 0,0 mm 5,3 km/h (1 Bft) W 276 ° 0 min 0,000 mm 1,2 UV-I 146 W/m² 17,0 °C 21,6 °C 9,7 km/h (2 Bft)
10.07.2017 18:05 21,6 °C 21,6 °C 75 % 1008,4 hPa 0,0 mm 5,2 km/h (1 Bft) W-SW 248 ° 0 min 0,000 mm 1,2 UV-I 149 W/m² 17,0 °C 21,6 °C 8,0 km/h (2 Bft)
10.07.2017 18:06 21,5 °C 21,6 °C 76 % 1008,4 hPa 0,0 mm 3,4 km/h (1 Bft) W-SW 248 ° 0 min 0,000 mm 1,2 UV-I 167 W/m² 17,1 °C 21,5 °C 4,8 km/h (1 Bft)
10.07.2017 18:07 21,5 °C 21,5 °C 76 % 1008,4 hPa 0,0 mm 2,3 km/h (1 Bft) W-SW 249 ° 0 min 0,000 mm 1,3 UV-I 183 W/m² 17,1 °C 21,5 °C 3,2 km/h (1 Bft)
10.07.2017 18:08 21,4 °C 21,5 °C 76 % 1008,3 hPa 0,0 mm 0,3 km/h (0 Bft) W-SW 249 ° 0 min 0,000 mm 1,4 UV-I 192 W/m² 17,0 °C 21,4 °C 1,6 km/h (1 Bft)
10.07.2017 18:09 21,5 °C 21,5 °C 76 % 1008,3 hPa 0,0 mm 1,7 km/h (1 Bft) W-SW 248 ° 0 min 0,000 mm 1,4 UV-I 192 W/m² 17,1 °C 21,5 °C 4,8 km/h (1 Bft)
10.07.2017 18:10 21,4 °C 21,5 °C 76 % 1008,3 hPa 0,0 mm 2,6 km/h (1 Bft) W 262 ° 0 min 0,000 mm 1,4 UV-I 192 W/m² 17,0 °C 21,4 °C 4,8 km/h (1 Bft)
10.07.2017 18:11 21,4 °C 21,4 °C 77 % 1008,3 hPa 0,0 mm 1,7 km/h (1 Bft) W 262 ° 0 min 0,000 mm 1,4 UV-I 169 W/m² 17,2 °C 21,4 °C 4,8 km/h (1 Bft)
10.07.2017 18:12 21,4 °C 21,4 °C 76 % 1008,3 hPa 0,0 mm 1,9 km/h (1 Bft) W 281 ° 0 min 0,000 mm 1,3 UV-I 151 W/m² 17,0 °C 21,4 °C 11,3 km/h (2 Bft)
10.07.2017 18:13 21,4 °C 21,4 °C 77 % 1008,3 hPa 0,0 mm 4,4 km/h (1 Bft) SW 229 ° 0 min 0,000 mm 1,3 UV-I 144 W/m² 17,2 °C 21,4 °C 8,0 km/h (2 Bft)
10.07.2017 18:14 21,3 °C 21,4 °C 76 % 1008,3 hPa 0,0 mm 2,5 km/h (1 Bft) W-SW 237 ° 0 min 0,000 mm 1,2 UV-I 137 W/m² 16,9 °C 21,3 °C 4,8 km/h (1 Bft)
10.07.2017 18:15 21,3 °C 21,3 °C 79 % 1008,3 hPa 0,0 mm 6,6 km/h (2 Bft) W-NW 300 ° 0 min 0,000 mm 1,2 UV-I 130 W/m² 17,5 °C 21,3 °C 11,3 km/h (2 Bft)
10.07.2017 18:16 21,3 °C 21,3 °C 76 % 1008,4 hPa 0,0 mm 4,6 km/h (1 Bft) S 186 ° 0 min 0,000 mm 1,1 UV-I 125 W/m² 16,9 °C 21,3 °C 8,0 km/h (2 Bft)
10.07.2017 18:17 21,2 °C 21,3 °C 76 % 1008,3 hPa 0,0 mm 3,6 km/h (1 Bft) W-SW 252 ° 0 min 0,000 mm 1,1 UV-I 121 W/m² 16,8 °C 21,2 °C 4,8 km/h (1 Bft)
10.07.2017 18:18 21,2 °C 21,2 °C 77 % 1008,3 hPa 0,0 mm 5,0 km/h (1 Bft) W-SW 256 ° 0 min 0,000 mm 1,0 UV-I 116 W/m² 17,0 °C 21,2 °C 6,4 km/h (2 Bft)
10.07.2017 18:19 21,2 °C 21,2 °C 77 % 1008,4 hPa 0,0 mm 4,0 km/h (1 Bft) SW 231 ° 0 min 0,000 mm 1,0 UV-I 113 W/m² 17,0 °C 21,2 °C 6,4 km/h (2 Bft)
10.07.2017 18:20 21,1 °C 21,2 °C 78 % 1008,3 hPa 0,0 mm 3,6 km/h (1 Bft) W 263 ° 0 min 0,000 mm 0,9 UV-I 107 W/m² 17,1 °C 21,1 °C 6,4 km/h (2 Bft)
10.07.2017 18:21 21,1 °C 21,1 °C 78 % 1008,3 hPa 0,0 mm 1,9 km/h (1 Bft) W 263 ° 0 min 0,000 mm 0,9 UV-I 104 W/m² 17,1 °C 21,1 °C 3,2 km/h (1 Bft)
10.07.2017 18:22 21,1 °C 21,1 °C 78 % 1008,3 hPa 0,0 mm 0,2 km/h (0 Bft) W 263 ° 0 min 0,000 mm 0,8 UV-I 98 W/m² 17,1 °C 21,1 °C 1,6 km/h (1 Bft)
10.07.2017 18:23 21,0 °C 21,1 °C 80 % 1008,4 hPa 0,0 mm 3,1 km/h (1 Bft) W-SW 253 ° 0 min 0,000 mm 0,8 UV-I 91 W/m² 17,4 °C 21,0 °C 6,4 km/h (2 Bft)
10.07.2017 18:24 20,9 °C 21,0 °C 79 % 1008,4 hPa 0,0 mm 3,5 km/h (1 Bft) SW 233 ° 0 min 0,000 mm 0,8 UV-I 84 W/m² 17,1 °C 20,9 °C 6,4 km/h (2 Bft)
10.07.2017 18:25 20,9 °C 20,9 °C 79 % 1008,4 hPa 0,0 mm 3,4 km/h (1 Bft) W 266 ° 0 min 0,000 mm 0,7 UV-I 79 W/m² 17,1 °C 20,9 °C 4,8 km/h (1 Bft)
10.07.2017 18:26 20,9 °C 20,9 °C 76 % 1008,4 hPa 0,0 mm 1,9 km/h (1 Bft) W 265 ° 0 min 0,000 mm 0,7 UV-I 76 W/m² 16,5 °C 20,9 °C 3,2 km/h (1 Bft)
10.07.2017 18:27 20,9 °C 20,9 °C 77 % 1008,5 hPa 0,0 mm 3,9 km/h (1 Bft) W-SW 252 ° 0 min 0,000 mm 0,6 UV-I 70 W/m² 16,7 °C 20,9 °C 6,4 km/h (2 Bft)
10.07.2017 18:28 20,9 °C 20,9 °C 77 % 1008,5 hPa 0,0 mm 3,1 km/h (1 Bft) W-SW 252 ° 0 min 0,000 mm 0,6 UV-I 65 W/m² 16,7 °C 20,9 °C 3,2 km/h (1 Bft)
10.07.2017 18:29 20,9 °C 20,9 °C 78 % 1008,6 hPa 0,0 mm 3,8 km/h (1 Bft) W 275 ° 0 min 0,000 mm 0,6 UV-I 63 W/m² 16,9 °C 20,9 °C 4,8 km/h (1 Bft)
10.07.2017 18:30 20,8 °C 20,9 °C 77 % 1008,5 hPa 0,0 mm 3,2 km/h (1 Bft) W-NW 290 ° 0 min 0,000 mm 0,5 UV-I 62 W/m² 16,6 °C 20,8 °C 4,8 km/h (1 Bft)
10.07.2017 18:31 20,8 °C 20,8 °C 77 % 1008,6 hPa 0,0 mm 1,0 km/h (0 Bft) W-NW 290 ° 0 min 0,000 mm 0,5 UV-I 60 W/m² 16,6 °C 20,8 °C 3,2 km/h (1 Bft)
10.07.2017 18:32 20,7 °C 20,8 °C 78 % 1008,6 hPa 0,0 mm 1,0 km/h (0 Bft) W 267 ° 0 min 0,000 mm 0,5 UV-I 60 W/m² 16,7 °C 20,7 °C 4,8 km/h (1 Bft)
10.07.2017 18:33 20,7 °C 20,7 °C 79 % 1008,6 hPa 0,0 mm 2,6 km/h (1 Bft) W-SW 250 ° 0 min 0,000 mm 0,5 UV-I 58 W/m² 16,9 °C 20,7 °C 8,0 km/h (2 Bft)
10.07.2017 18:34 20,7 °C 20,7 °C 78 % 1008,6 hPa 0,0 mm 4,6 km/h (1 Bft) S-SW 202 ° 0 min 0,000 mm 0,5 UV-I 58 W/m² 16,7 °C 20,7 °C 9,7 km/h (2 Bft)
10.07.2017 18:35 20,7 °C 20,7 °C 78 % 1008,6 hPa 0,0 mm 3,1 km/h (1 Bft) S-SW 200 ° 0 min 0,000 mm 0,5 UV-I 54 W/m² 16,7 °C 20,7 °C 4,8 km/h (1 Bft)
10.07.2017 18:36 20,7 °C 20,7 °C 78 % 1008,5 hPa 0,0 mm 3,5 km/h (1 Bft) S-SW 206 ° 0 min 0,000 mm 0,0 UV-I 53 W/m² 16,7 °C 20,7 °C 6,4 km/h (2 Bft)
10.07.2017 18:37 20,6 °C 20,7 °C 79 % 1008,5 hPa 0,0 mm 2,4 km/h (1 Bft) S-SW 207 ° 0 min 0,000 mm 0,0 UV-I 51 W/m² 16,8 °C 20,6 °C 3,2 km/h (1 Bft)
10.07.2017 18:38 20,6 °C 20,6 °C 80 % 1008,6 hPa 0,0 mm 1,5 km/h (1 Bft) SW 227 ° 0 min 0,000 mm 0,0 UV-I 49 W/m² 17,0 °C 20,6 °C 4,8 km/h (1 Bft)
10.07.2017 18:39 20,5 °C 20,6 °C 80 % 1008,6 hPa 0,0 mm 2,5 km/h (1 Bft) W-SW 257 ° 0 min 0,000 mm 0,0 UV-I 46 W/m² 16,9 °C 20,5 °C 6,4 km/h (2 Bft)
10.07.2017 18:40 20,4 °C 20,5 °C 79 % 1008,6 hPa 0,0 mm 2,5 km/h (1 Bft) S-SW 206 ° 0 min 0,000 mm 0,0 UV-I 44 W/m² 16,6 °C 20,4 °C 4,8 km/h (1 Bft)
10.07.2017 18:41 20,4 °C 20,4 °C 79 % 1008,6 hPa 0,0 mm 1,4 km/h (1 Bft) S-SW 206 ° 0 min 0,000 mm 0,0 UV-I 37 W/m² 16,6 °C 20,4 °C 3,2 km/h (1 Bft)
10.07.2017 18:42 20,4 °C 20,4 °C 78 % 1008,6 hPa 0,0 mm 0,1 km/h (0 Bft) S-SW 206 ° 0 min 0,000 mm 0,0 UV-I 32 W/m² 16,4 °C 20,4 °C 1,6 km/h (1 Bft)
10.07.2017 18:43 20,3 °C 20,4 °C 79 % 1008,6 hPa 0,0 mm 7,0 km/h (2 Bft) W-SW 251 ° 0 min 0,000 mm 0,0 UV-I 28 W/m² 16,5 °C 20,3 °C 11,3 km/h (2 Bft)
10.07.2017 18:44 20,3 °C 20,3 °C 79 % 1008,7 hPa 0,0 mm 3,4 km/h (1 Bft) W-SW 252 ° 0 min 0,000 mm 0,0 UV-I 28 W/m² 16,5 °C 20,3 °C 6,4 km/h (2 Bft)
10.07.2017 18:45 20,3 °C 20,3 °C 79 % 1008,7 hPa 0,0 mm 5,1 km/h (1 Bft) W-SW 246 ° 0 min 0,000 mm 0,0 UV-I 26 W/m² 16,5 °C 20,3 °C 9,7 km/h (2 Bft)
10.07.2017 18:46 20,3 °C 20,3 °C 79 % 1008,7 hPa 0,0 mm 7,1 km/h (2 Bft) W 262 ° 0 min 0,000 mm 0,0 UV-I 28 W/m² 16,5 °C 20,3 °C 11,3 km/h (2 Bft)
10.07.2017 18:47 20,2 °C 20,3 °C 78 % 1008,7 hPa 0,0 mm 4,9 km/h (1 Bft) W 259 ° 0 min 0,000 mm 0,0 UV-I 26 W/m² 16,2 °C 20,2 °C 6,4 km/h (2 Bft)
10.07.2017 18:48 20,2 °C 20,2 °C 78 % 1008,7 hPa 0,0 mm 6,0 km/h (2 Bft) W-SW 251 ° 0 min 0,000 mm 0,0 UV-I 26 W/m² 16,2 °C 20,2 °C 9,7 km/h (2 Bft)
10.07.2017 18:49 20,2 °C 20,2 °C 79 % 1008,7 hPa 0,0 mm 4,0 km/h (1 Bft) W-SW 243 ° 0 min 0,000 mm 0,0 UV-I 26 W/m² 16,4 °C 20,2 °C 6,4 km/h (2 Bft)
10.07.2017 18:50 20,2 °C 20,2 °C 78 % 1008,7 hPa 0,0 mm 2,0 km/h (1 Bft) W-SW 243 ° 0 min 0,000 mm 0,0 UV-I 25 W/m² 16,2 °C 20,2 °C 4,8 km/h (1 Bft)
10.07.2017 18:51 20,2 °C 20,2 °C 78 % 1008,7 hPa 0,0 mm 2,7 km/h (1 Bft) SW 225 ° 0 min 0,000 mm 0,0 UV-I 23 W/m² 16,2 °C 20,2 °C 4,8 km/h (1 Bft)
10.07.2017 18:52 20,2 °C 20,2 °C 78 % 1008,7 hPa 0,0 mm 1,8 km/h (1 Bft) SW 225 ° 0 min 0,000 mm 0,0 UV-I 21 W/m² 16,2 °C 20,2 °C 4,8 km/h (1 Bft)
10.07.2017 18:53 20,2 °C 20,2 °C 78 % 1008,7 hPa 0,0 mm 3,0 km/h (1 Bft) SW 219 ° 0 min 0,000 mm 0,0 UV-I 16 W/m² 16,2 °C 20,2 °C 4,8 km/h (1 Bft)
10.07.2017 18:54 20,1 °C 20,2 °C 79 % 1008,7 hPa 0,0 mm 4,4 km/h (1 Bft) SW 231 ° 0 min 0,000 mm 0,0 UV-I 16 W/m² 16,3 °C 20,1 °C 8,0 km/h (2 Bft)
10.07.2017 18:55 20,2 °C 20,2 °C 78 % 1008,7 hPa 0,0 mm 4,2 km/h (1 Bft) SW 215 ° 0 min 0,000 mm 0,0 UV-I 14 W/m² 16,2 °C 20,2 °C 8,0 km/h (2 Bft)
10.07.2017 18:56 20,1 °C 20,2 °C 78 % 1008,7 hPa 0,0 mm 1,9 km/h (1 Bft) SW 215 ° 0 min 0,000 mm 0,0 UV-I 12 W/m² 16,1 °C 20,1 °C 3,2 km/h (1 Bft)
10.07.2017 18:57 20,1 °C 20,2 °C 79 % 1008,7 hPa 0,0 mm 0,4 km/h (0 Bft) SW 215 ° 0 min 0,000 mm 0,0 UV-I 12 W/m² 16,3 °C 20,1 °C 1,6 km/h (1 Bft)
10.07.2017 18:58 20,1 °C 20,1 °C 79 % 1008,7 hPa 0,0 mm 2,1 km/h (1 Bft) SW 230 ° 0 min 0,000 mm 0,0 UV-I 12 W/m² 16,3 °C 20,1 °C 4,8 km/h (1 Bft)
10.07.2017 18:59 20,1 °C 20,1 °C 78 % 1008,7 hPa 0,0 mm 0,7 km/h (0 Bft) SW 230 ° 0 min 0,000 mm 0,0 UV-I 12 W/m² 16,1 °C 20,1 °C 3,2 km/h (1 Bft)
10.07.2017 19:00 20,1 °C 20,1 °C 79 % 1008,7 hPa 0,0 mm 0,9 km/h (0 Bft) SW 225 ° 0 min 0,000 mm 0,0 UV-I 11 W/m² 16,3 °C 20,1 °C 3,2 km/h (1 Bft)
10.07.2017 19:01 20,1 °C 20,1 °C 79 % 1008,7 hPa 0,0 mm 6,2 km/h (2 Bft) W 274 ° 0 min 0,050 mm 0,0 UV-I 11 W/m² 16,3 °C 20,1 °C 14,5 km/h (3 Bft)
10.07.2017 19:02 20,0 °C 20,1 °C 81 % 1008,7 hPa 0,0 mm 7,0 km/h (2 Bft) W 265 ° 0 min 0,000 mm 0,0 UV-I 11 W/m² 16,6 °C 20,0 °C 14,5 km/h (3 Bft)
10.07.2017 19:03 19,9 °C 20,0 °C 80 % 1008,7 hPa 0,0 mm 3,0 km/h (1 Bft) W 265 ° 0 min 0,000 mm 0,0 UV-I 11 W/m² 16,3 °C 19,9 °C 4,8 km/h (1 Bft)
10.07.2017 19:04 19,8 °C 19,9 °C 80 % 1008,7 hPa 0,0 mm 2,0 km/h (1 Bft) W-SW 252 ° 0 min 0,000 mm 0,0 UV-I 11 W/m² 16,2 °C 19,8 °C 4,8 km/h (1 Bft)
10.07.2017 19:05 19,7 °C 19,8 °C 81 % 1008,7 hPa 0,0 mm 1,9 km/h (1 Bft) W-SW 257 ° 0 min 0,000 mm 0,0 UV-I 11 W/m² 16,3 °C 19,7 °C 4,8 km/h (1 Bft)
10.07.2017 19:06 19,6 °C 19,7 °C 82 % 1008,7 hPa 0,0 mm 4,4 km/h (1 Bft) W-SW 257 ° 0 min 0,000 mm 0,0 UV-I 9 W/m² 16,4 °C 19,6 °C 6,4 km/h (2 Bft)
10.07.2017 19:07 19,5 °C 19,6 °C 82 % 1008,7 hPa 0,0 mm 7,7 km/h (2 Bft) SW 232 ° 0 min 0,000 mm 0,0 UV-I 9 W/m² 16,3 °C 19,5 °C 9,7 km/h (2 Bft)
10.07.2017 19:08 19,4 °C 19,5 °C 82 % 1008,7 hPa 0,0 mm 7,3 km/h (2 Bft) S-SW 213 ° 0 min 0,000 mm 0,0 UV-I 9 W/m² 16,2 °C 19,4 °C 12,9 km/h (3 Bft)
10.07.2017 19:09 19,3 °C 19,4 °C 82 % 1008,6 hPa 0,0 mm 3,2 km/h (1 Bft) W-SW 256 ° 0 min 0,000 mm 0,0 UV-I 9 W/m² 16,1 °C 19,3 °C 4,8 km/h (1 Bft)
10.07.2017 19:10 19,3 °C 19,3 °C 82 % 1008,6 hPa 0,0 mm 1,1 km/h (1 Bft) W 263 ° 0 min 0,000 mm 0,0 UV-I 7 W/m² 16,1 °C 19,3 °C 3,2 km/h (1 Bft)
10.07.2017 19:11 19,2 °C 19,3 °C 82 % 1008,6 hPa 0,2 mm 2,3 km/h (1 Bft) W 261 ° 0 min 0,000 mm 0,0 UV-I 7 W/m² 16,0 °C 19,2 °C 4,8 km/h (1 Bft)
10.07.2017 19:12 19,2 °C 19,2 °C 82 % 1008,6 hPa 0,0 mm 3,9 km/h (1 Bft) SW 232 ° 0 min 0,000 mm 0,0 UV-I 7 W/m² 16,0 °C 19,2 °C 8,0 km/h (2 Bft)
10.07.2017 19:13 19,1 °C 19,2 °C 82 % 1008,6 hPa 0,0 mm 0,4 km/h (0 Bft) SW 225 ° 0 min 0,000 mm 0,0 UV-I 7 W/m² 16,0 °C 19,1 °C 1,6 km/h (1 Bft)
10.07.2017 19:14 19,0 °C 19,1 °C 83 % 1008,6 hPa 0,2 mm 3,6 km/h (1 Bft) S 180 ° 0 min 0,000 mm 0,0 UV-I 7 W/m² 16,0 °C 19,0 °C 8,0 km/h (2 Bft)
10.07.2017 19:15 18,9 °C 19,0 °C 84 % 1008,6 hPa 0,0 mm 3,9 km/h (1 Bft) S-SW 196 ° 0 min 0,000 mm 0,0 UV-I 7 W/m² 16,1 °C 18,9 °C 6,4 km/h (2 Bft)
10.07.2017 19:16 18,8 °C 18,9 °C 84 % 1008,6 hPa 0,0 mm 5,2 km/h (1 Bft) W-SW 240 ° 0 min 0,000 mm 0,0 UV-I 5 W/m² 16,0 °C 18,8 °C 8,0 km/h (2 Bft)
10.07.2017 19:17 18,7 °C 18,8 °C 85 % 1008,6 hPa 0,2 mm 2,3 km/h (1 Bft) SW 221 ° 0 min 0,000 mm 0,0 UV-I 5 W/m² 16,1 °C 18,7 °C 8,0 km/h (2 Bft)
10.07.2017 19:18 18,6 °C 18,7 °C 85 % 1008,6 hPa 0,0 mm 4,1 km/h (1 Bft) SW 236 ° 0 min 0,000 mm 0,0 UV-I 5 W/m² 16,0 °C 18,6 °C 8,0 km/h (2 Bft)
10.07.2017 19:19 18,5 °C 18,6 °C 86 % 1008,6 hPa 0,0 mm 4,1 km/h (1 Bft) W-SW 246 ° 0 min 0,000 mm 0,0 UV-I 5 W/m² 16,1 °C 18,5 °C 8,0 km/h (2 Bft)
10.07.2017 19:20 18,4 °C 18,5 °C 86 % 1008,7 hPa 0,0 mm 4,7 km/h (1 Bft) W 260 ° 0 min 0,000 mm 0,0 UV-I 5 W/m² 16,0 °C 18,4 °C 9,7 km/h (2 Bft)
10.07.2017 19:21 18,3 °C 18,4 °C 87 % 1008,6 hPa 0,0 mm 4,0 km/h (1 Bft) W-SW 246 ° 0 min 0,000 mm 0,0 UV-I 5 W/m² 16,1 °C 18,3 °C 8,0 km/h (2 Bft)
10.07.2017 19:22 18,2 °C 18,3 °C 87 % 1008,7 hPa 0,0 mm 6,2 km/h (2 Bft) W 263 ° 0 min 0,000 mm 0,0 UV-I 5 W/m² 16,0 °C 18,2 °C 12,9 km/h (3 Bft)
10.07.2017 19:23 18,2 °C 18,2 °C 88 % 1008,7 hPa 0,0 mm 7,4 km/h (2 Bft) SW 219 ° 0 min 0,000 mm 0,0 UV-I 5 W/m² 16,2 °C 18,2 °C 12,9 km/h (3 Bft)
10.07.2017 19:24 18,1 °C 18,2 °C 88 % 1008,7 hPa 0,0 mm 4,9 km/h (1 Bft) W-NW 284 ° 0 min 0,000 mm 0,0 UV-I 5 W/m² 16,1 °C 18,1 °C 9,7 km/h (2 Bft)
10.07.2017 19:25 18,0 °C 18,1 °C 88 % 1008,7 hPa 0,0 mm 6,9 km/h (2 Bft) S-SW 196 ° 0 min 0,000 mm 0,0 UV-I 5 W/m² 16,0 °C 18,0 °C 9,7 km/h (2 Bft)
10.07.2017 19:26 17,9 °C 18,0 °C 88 % 1008,8 hPa 0,0 mm 4,6 km/h (1 Bft) W-SW 257 ° 0 min 0,000 mm 0,0 UV-I 5 W/m² 15,9 °C 17,9 °C 6,4 km/h (2 Bft)
10.07.2017 19:27 17,9 °C 17,9 °C 88 % 1008,8 hPa 0,0 mm 10,9 km/h (2 Bft) W 261 ° 0 min 0,000 mm 0,0 UV-I 5 W/m² 15,9 °C 17,9 °C 14,5 km/h (3 Bft)
10.07.2017 19:28 17,8 °C 17,9 °C 87 % 1008,8 hPa 0,0 mm 5,8 km/h (2 Bft) S-SW 210 ° 0 min 0,000 mm 0,0 UV-I 5 W/m² 15,6 °C 17,8 °C 9,7 km/h (2 Bft)
10.07.2017 19:29 17,8 °C 17,8 °C 87 % 1008,8 hPa 0,2 mm 3,0 km/h (1 Bft) W-SW 252 ° 0 min 0,000 mm 0,0 UV-I 5 W/m² 15,6 °C 17,8 °C 6,4 km/h (2 Bft)
10.07.2017 19:30 17,8 °C 17,8 °C 87 % 1008,8 hPa 0,0 mm 5,9 km/h (2 Bft) SW 227 ° 0 min 0,000 mm 0,0 UV-I 0 W/m² 15,6 °C 17,8 °C 11,3 km/h (2 Bft)
10.07.2017 19:31 17,8 °C 17,8 °C 86 % 1008,8 hPa 0,0 mm 2,8 km/h (1 Bft) S-SW 210 ° 0 min 0,000 mm 0,0 UV-I 0 W/m² 15,4 °C 17,8 °C 9,7 km/h (2 Bft)
10.07.2017 19:32 17,8 °C 17,8 °C 86 % 1008,8 hPa 0,0 mm 3,6 km/h (1 Bft) W 276 ° 0 min 0,000 mm 0,0 UV-I 0 W/m² 15,4 °C 17,8 °C 4,8 km/h (1 Bft)
10.07.2017 19:34 17,8 °C 17,8 °C 86 % 1008,8 hPa 0,0 mm 5,9 km/h (2 Bft) S-SO 155 ° 0 min 0,000 mm 0,0 UV-I 0 W/m² 15,4 °C 17,8 °C 12,9 km/h (3 Bft)
10.07.2017 19:35 17,8 °C 17,8 °C 86 % 1008,8 hPa 0,0 mm 4,1 km/h (1 Bft) W 267 ° 0 min 0,000 mm 0,0 UV-I 0 W/m² 15,4 °C 17,8 °C 6,4 km/h (2 Bft)
10.07.2017 19:36 17,7 °C 17,8 °C 86 % 1008,9 hPa 0,0 mm 3,1 km/h (1 Bft) W-SW 248 ° 0 min 0,000 mm 0,0 UV-I 0 W/m² 15,3 °C 17,7 °C 4,8 km/h (1 Bft)
10.07.2017 19:37 17,7 °C 17,7 °C 86 % 1008,9 hPa 0,0 mm 1,3 km/h (1 Bft) S 186 ° 0 min 0,000 mm 0,0 UV-I 0 W/m² 15,3 °C 17,7 °C 3,2 km/h (1 Bft)
10.07.2017 19:38 17,7 °C 17,7 °C 86 % 1008,9 hPa 0,0 mm 4,7 km/h (1 Bft) W-SW 238 ° 0 min 0,000 mm 0,0 UV-I 0 W/m² 15,3 °C 17,7 °C 12,9 km/h (3 Bft)
10.07.2017 19:39 17,6 °C 17,7 °C 87 % 1008,9 hPa 0,0 mm 2,6 km/h (1 Bft) W-SW 240 ° 0 min 0,000 mm 0,0 UV-I 0 W/m² 15,4 °C 17,6 °C 6,4 km/h (2 Bft)
10.07.2017 19:40 17,6 °C 17,6 °C 87 % 1009,0 hPa 0,2 mm 4,6 km/h (1 Bft) W 277 ° 0 min 0,000 mm 0,0 UV-I 0 W/m² 15,4 °C 17,6 °C 11,3 km/h (2 Bft)
10.07.2017 19:41 17,6 °C 17,6 °C 87 % 1009,0 hPa 0,0 mm 4,3 km/h (1 Bft) W-SW 255 ° 0 min 0,000 mm 0,0 UV-I 0 W/m² 15,4 °C 17,6 °C 9,7 km/h (2 Bft)
10.07.2017 19:42 17,5 °C 17,6 °C 88 % 1008,9 hPa 0,0 mm 2,1 km/h (1 Bft) W-SW 248 ° 0 min 0,000 mm 0,0 UV-I 0 W/m² 15,5 °C 17,5 °C 4,8 km/h (1 Bft)
10.07.2017 19:43 17,4 °C 17,5 °C 87 % 1009,0 hPa 0,0 mm 1,3 km/h (1 Bft) SW 229 ° 0 min 0,000 mm 0,0 UV-I 0 W/m² 15,2 °C 17,4 °C 4,8 km/h (1 Bft)
10.07.2017 19:44 17,4 °C 17,4 °C 87 % 1009,0 hPa 0,0 mm 4,1 km/h (1 Bft) S 188 ° 0 min 0,000 mm 0,0 UV-I 0 W/m² 15,2 °C 17,4 °C 6,4 km/h (2 Bft)
10.07.2017 19:45 17,4 °C 17,4 °C 87 % 1009,0 hPa 0,0 mm 3,5 km/h (1 Bft) S-SW 203 ° 0 min 0,000 mm 0,0 UV-I 0 W/m² 15,2 °C 17,4 °C 8,0 km/h (2 Bft)
10.07.2017 19:46 17,4 °C 17,4 °C 87 % 1009,0 hPa 0,0 mm 1,4 km/h (1 Bft) W 259 ° 0 min 0,000 mm 0,0 UV-I 0 W/m² 15,2 °C 17,4 °C 4,8 km/h (1 Bft)
10.07.2017 19:47 17,4 °C 17,4 °C 88 % 1009,0 hPa 0,2 mm 5,3 km/h (1 Bft) W-SW 242 ° 0 min 0,000 mm 0,0 UV-I 0 W/m² 15,4 °C 17,4 °C 11,3 km/h (2 Bft)
10.07.2017 19:48 17,3 °C 17,4 °C 88 % 1009,0 hPa 0,0 mm 2,4 km/h (1 Bft) S-SW 212 ° 0 min 0,000 mm 0,0 UV-I 0 W/m² 15,3 °C 17,3 °C 4,8 km/h (1 Bft)
10.07.2017 19:49 17,3 °C 17,4 °C 88 % 1009,0 hPa 0,0 mm 2,9 km/h (1 Bft) W 271 ° 0 min 0,000 mm 0,0 UV-I 0 W/m² 15,3 °C 17,3 °C 4,8 km/h (1 Bft)
10.07.2017 19:50 17,3 °C 17,3 °C 89 % 1009,1 hPa 0,2 mm 3,8 km/h (1 Bft) W-SW 240 ° 0 min 0,000 mm 0,0 UV-I 0 W/m² 15,5 °C 17,3 °C 8,0 km/h (2 Bft)
10.07.2017 19:51 17,3 °C 17,3 °C 89 % 1009,2 hPa 0,0 mm 5,4 km/h (1 Bft) SW 218 ° 0 min 0,000 mm 0,0 UV-I 0 W/m² 15,5 °C 17,3 °C 11,3 km/h (2 Bft)
10.07.2017 19:52 17,2 °C 17,3 °C 89 % 1009,2 hPa 0,2 mm 2,9 km/h (1 Bft) W 264 ° 0 min 0,000 mm 0,0 UV-I 0 W/m² 15,4 °C 17,2 °C 4,8 km/h (1 Bft)
10.07.2017 19:53 17,2 °C 17,2 °C 89 % 1009,2 hPa 0,0 mm 1,3 km/h (1 Bft) SW 219 ° 0 min 0,000 mm 0,0 UV-I 0 W/m² 15,4 °C 17,2 °C 3,2 km/h (1 Bft)
10.07.2017 19:54 17,2 °C 17,2 °C 89 % 1009,3 hPa 0,2 mm 0,0 km/h (0 Bft) SW 219 ° 0 min 0,000 mm 0,0 UV-I 0 W/m² 15,4 °C 17,2 °C 0,0 km/h (0 Bft)
10.07.2017 19:55 17,1 °C 17,2 °C 90 % 1009,3 hPa 0,0 mm 1,1 km/h (1 Bft) W-SW 242 ° 0 min 0,000 mm 0,0 UV-I 0 W/m² 15,4 °C 17,1 °C 4,8 km/h (1 Bft)
10.07.2017 19:56 17,1 °C 17,1 °C 90 % 1009,3 hPa 0,0 mm 4,4 km/h (1 Bft) S 183 ° 0 min 0,000 mm 0,0 UV-I 0 W/m² 15,4 °C 17,1 °C 6,4 km/h (2 Bft)
10.07.2017 19:57 17,1 °C 17,1 °C 90 % 1009,3 hPa 0,0 mm 4,1 km/h (1 Bft) S 191 ° 0 min 0,000 mm 0,0 UV-I 0 W/m² 15,4 °C 17,1 °C 6,4 km/h (2 Bft)
10.07.2017 19:58 17,0 °C 17,1 °C 90 % 1009,4 hPa 0,2 mm 6,2 km/h (2 Bft) NW 311 ° 0 min 0,000 mm 0,0 UV-I 0 W/m² 15,3 °C 17,0 °C 9,7 km/h (2 Bft)
10.07.2017 19:59 17,0 °C 17,1 °C 90 % 1009,3 hPa 0,0 mm 3,1 km/h (1 Bft) W-SW 252 ° 0 min 0,000 mm 0,0 UV-I 0 W/m² 15,3 °C 17,0 °C 6,4 km/h (2 Bft)
10.07.2017 20:00 17,0 °C 17,1 °C 90 % 1009,3 hPa 0,0 mm 1,8 km/h (1 Bft) W 281 ° 0 min 0,000 mm 0,0 UV-I 0 W/m² 15,3 °C 17,0 °C 4,8 km/h (1 Bft)
10.07.2017 20:01 16,9 °C 17,0 °C 90 % 1009,3 hPa 0,0 mm 2,3 km/h (1 Bft) W 262 ° 0 min 0,026 mm 0,0 UV-I 0 W/m² 15,2 °C 16,9 °C 6,4 km/h (2 Bft)
10.07.2017 20:02 16,9 °C 16,9 °C 90 % 1009,3 hPa 0,2 mm 3,8 km/h (1 Bft) W-SW 252 ° 0 min 0,000 mm 0,0 UV-I 0 W/m² 15,2 °C 16,9 °C 4,8 km/h (1 Bft)
10.07.2017 20:03 16,9 °C 16,9 °C 90 % 1009,3 hPa 0,0 mm 1,8 km/h (1 Bft) SW 223 ° 0 min 0,000 mm 0,0 UV-I 0 W/m² 15,2 °C 16,9 °C 3,2 km/h (1 Bft)
10.07.2017 20:04 16,9 °C 16,9 °C 90 % 1009,3 hPa 0,0 mm 3,3 km/h (1 Bft) W 274 ° 0 min 0,000 mm 0,0 UV-I 0 W/m² 15,2 °C 16,9 °C 6,4 km/h (2 Bft)
10.07.2017 20:05 16,9 °C 16,9 °C 90 % 1009,3 hPa 0,0 mm 0,3 km/h (0 Bft) W 274 ° 0 min 0,000 mm 0,0 UV-I 0 W/m² 15,2 °C 16,9 °C 1,6 km/h (1 Bft)
10.07.2017 20:06 16,9 °C 16,9 °C 90 % 1009,4 hPa 0,0 mm 3,8 km/h (1 Bft) W-SW 248 ° 0 min 0,000 mm 0,0 UV-I 0 W/m² 15,2 °C 16,9 °C 6,4 km/h (2 Bft)
10.07.2017 20:07 16,8 °C 16,9 °C 90 % 1009,5 hPa 0,0 mm 3,3 km/h (1 Bft) W-SW 257 ° 0 min 0,000 mm 0,0 UV-I 0 W/m² 15,1 °C 16,8 °C 4,8 km/h (1 Bft)
10.07.2017 20:08 16,8 °C 16,8 °C 90 % 1009,5 hPa 0,0 mm 4,4 km/h (1 Bft) W 271 ° 0 min 0,000 mm 0,0 UV-I 0 W/m² 15,1 °C 16,8 °C 8,0 km/h (2 Bft)
10.07.2017 20:09 16,8 °C 16,8 °C 90 % 1009,5 hPa 0,0 mm 3,7 km/h (1 Bft) SW 225 ° 0 min 0,000 mm 0,0 UV-I 0 W/m² 15,1 °C 16,8 °C 4,8 km/h (1 Bft)
10.07.2017 20:10 16,8 °C 16,8 °C 90 % 1009,5 hPa 0,0 mm 1,2 km/h (1 Bft) SW 225 ° 0 min 0,000 mm 0,0 UV-I 0 W/m² 15,1 °C 16,8 °C 1,6 km/h (1 Bft)
10.07.2017 20:11 16,8 °C 16,8 °C 90 % 1009,4 hPa 0,2 mm 2,6 km/h (1 Bft) W 275 ° 0 min 0,000 mm 0,0 UV-I 0 W/m² 15,1 °C 16,8 °C 4,8 km/h (1 Bft)
10.07.2017 20:12 16,7 °C 16,8 °C 90 % 1009,4 hPa 0,0 mm 0,9 km/h (0 Bft) S-SW 209 ° 0 min 0,000 mm 0,0 UV-I 0 W/m² 15,0 °C 16,7 °C 3,2 km/h (1 Bft)
10.07.2017 20:13 16,7 °C 16,7 °C 90 % 1009,5 hPa 0,0 mm 2,5 km/h (1 Bft) W-SW 241 ° 0 min 0,000 mm 0,0 UV-I 0 W/m² 15,0 °C 16,7 °C 4,8 km/h (1 Bft)
10.07.2017 20:14 16,6 °C 16,7 °C 90 % 1009,5 hPa 0,0 mm 2,1 km/h (1 Bft) W-SW 256 ° 0 min 0,000 mm 0,0 UV-I 0 W/m² 15,0 °C 16,6 °C 6,4 km/h (2 Bft)
10.07.2017 20:15 16,6 °C 16,6 °C 90 % 1009,5 hPa 0,0 mm 2,0 km/h (1 Bft) W-SW 256 ° 0 min 0,000 mm 0,0 UV-I 0 W/m² 15,0 °C 16,6 °C 3,2 km/h (1 Bft)
10.07.2017 20:16 16,6 °C 16,6 °C 90 % 1009,6 hPa 0,0 mm 2,9 km/h (1 Bft) W-SW 256 ° 0 min 0,000 mm 0,0 UV-I 0 W/m² 15,0 °C 16,6 °C 3,2 km/h (1 Bft)
10.07.2017 20:17 16,5 °C 16,6 °C 90 % 1009,6 hPa 0,0 mm 1,3 km/h (1 Bft) W-SW 254 ° 0 min 0,000 mm 0,0 UV-I 0 W/m² 14,9 °C 16,5 °C 3,2 km/h (1 Bft)
10.07.2017 20:18 16,4 °C 16,5 °C 91 % 1009,6 hPa 0,0 mm 2,1 km/h (1 Bft) W-SW 241 ° 0 min 0,000 mm 0,0 UV-I 0 W/m² 14,9 °C 16,4 °C 6,4 km/h (2 Bft)
10.07.2017 20:19 16,4 °C 16,4 °C 91 % 1009,6 hPa 0,2 mm 3,1 km/h (1 Bft) W 262 ° 0 min 0,000 mm 0,0 UV-I 0 W/m² 14,9 °C 16,4 °C 6,4 km/h (2 Bft)
10.07.2017 20:20 16,4 °C 16,4 °C 91 % 1009,5 hPa 0,0 mm 1,2 km/h (1 Bft) W 262 ° 0 min 0,000 mm 0,0 UV-I 0 W/m² 14,9 °C 16,4 °C 1,6 km/h (1 Bft)
10.07.2017 20:21 16,3 °C 16,4 °C 91 % 1009,5 hPa 0,0 mm 0,9 km/h (0 Bft) W 261 ° 0 min 0,000 mm 0,0 UV-I 0 W/m² 14,8 °C 16,3 °C 1,6 km/h (1 Bft)
10.07.2017 20:22 16,3 °C 16,3 °C 91 % 1009,5 hPa 0,2 mm 0,9 km/h (0 Bft) W 261 ° 0 min 0,000 mm 0,0 UV-I 0 W/m² 14,8 °C 16,3 °C 3,2 km/h (1 Bft)
10.07.2017 20:23 16,2 °C 16,3 °C 91 % 1009,5 hPa 0,0 mm 3,5 km/h (1 Bft) S-SW 200 ° 0 min 0,000 mm 0,0 UV-I 0 W/m² 14,7 °C 16,2 °C 6,4 km/h (2 Bft)
10.07.2017 20:24 16,2 °C 16,2 °C 91 % 1009,5 hPa 0,0 mm 2,3 km/h (1 Bft) S-SW 200 ° 0 min 0,000 mm 0,0 UV-I 0 W/m² 14,7 °C 16,2 °C 4,8 km/h (1 Bft)
10.07.2017 20:25 16,2 °C 16,2 °C 92 % 1009,5 hPa 0,2 mm 2,2 km/h (1 Bft) S 184 ° 0 min 0,000 mm 0,0 UV-I 0 W/m² 14,9 °C 16,2 °C 4,8 km/h (1 Bft)
10.07.2017 20:26 16,1 °C 16,2 °C 92 % 1009,5 hPa 0,0 mm 2,1 km/h (1 Bft) S 184 ° 0 min 0,000 mm 0,0 UV-I 0 W/m² 14,8 °C 16,1 °C 3,2 km/h (1 Bft)
10.07.2017 20:27 16,1 °C 16,2 °C 92 % 1009,5 hPa 0,0 mm 1,9 km/h (1 Bft) S 172 ° 0 min 0,000 mm 0,0 UV-I 0 W/m² 14,8 °C 16,1 °C 6,4 km/h (2 Bft)
10.07.2017 20:28 16,1 °C 16,1 °C 92 % 1009,5 hPa 0,0 mm 3,5 km/h (1 Bft) S 183 ° 0 min 0,000 mm 0,0 UV-I 0 W/m² 14,8 °C 16,1 °C 6,4 km/h (2 Bft)
10.07.2017 20:29 16,1 °C 16,1 °C 92 % 1009,6 hPa 0,0 mm 0,9 km/h (0 Bft) S 183 ° 0 min 0,000 mm 0,0 UV-I 0 W/m² 14,8 °C 16,1 °C 3,2 km/h (1 Bft)
10.07.2017 20:30 16,1 °C 16,1 °C 92 % 1009,6 hPa 0,0 mm 0,1 km/h (0 Bft) S 183 ° 0 min 0,000 mm 0,0 UV-I 0 W/m² 14,8 °C 16,1 °C 1,6 km/h (1 Bft)
10.07.2017 20:31 16,1 °C 16,1 °C 92 % 1009,6 hPa 0,0 mm 2,1 km/h (1 Bft) W-NW 285 ° 0 min 0,000 mm 0,0 UV-I 0 W/m² 14,8 °C 16,1 °C 3,2 km/h (1 Bft)
10.07.2017 20:32 16,1 °C 16,1 °C 92 % 1009,6 hPa 0,0 mm 3,2 km/h (1 Bft) S 176 ° 0 min 0,000 mm 0,0 UV-I 0 W/m² 14,8 °C 16,1 °C 4,8 km/h (1 Bft)
10.07.2017 20:33 16,1 °C 16,1 °C 92 % 1009,6 hPa 0,2 mm 3,6 km/h (1 Bft) W-SW 248 ° 0 min 0,000 mm 0,0 UV-I 0 W/m² 14,8 °C 16,1 °C 6,4 km/h (2 Bft)
10.07.2017 20:34 16,1 °C 16,1 °C 92 % 1009,6 hPa 0,0 mm 1,5 km/h (1 Bft) S-SW 200 ° 0 min 0,000 mm 0,0 UV-I 0 W/m² 14,8 °C 16,1 °C 4,8 km/h (1 Bft)
10.07.2017 20:35 16,1 °C 16,1 °C 92 % 1009,7 hPa 0,0 mm 4,9 km/h (1 Bft) S-SW 195 ° 0 min 0,000 mm 0,0 UV-I 0 W/m² 14,8 °C 16,1 °C 8,0 km/h (2 Bft)
10.07.2017 20:36 16,1 °C 16,2 °C 92 % 1009,7 hPa 0,0 mm 2,4 km/h (1 Bft) S-SW 207 ° 0 min 0,000 mm 0,0 UV-I 0 W/m² 14,8 °C 16,1 °C 4,8 km/h (1 Bft)
10.07.2017 20:37 16,1 °C 16,1 °C 91 % 1009,6 hPa 0,0 mm 1,9 km/h (1 Bft) SW 219 ° 0 min 0,000 mm 0,0 UV-I 0 W/m² 14,6 °C 16,1 °C 3,2 km/h (1 Bft)
10.07.2017 20:39 16,2 °C 16,2 °C 91 % 1009,7 hPa 0,0 mm 2,5 km/h (1 Bft) SW 224 ° 0 min 0,000 mm 0,0 UV-I 0 W/m² 14,7 °C 16,2 °C 4,8 km/h (1 Bft)
10.07.2017 20:40 16,2 °C 16,2 °C 91 % 1009,7 hPa 0,0 mm 5,1 km/h (1 Bft) S 191 ° 0 min 0,000 mm 0,0 UV-I 0 W/m² 14,7 °C 16,2 °C 9,7 km/h (2 Bft)
10.07.2017 20:41 16,2 °C 16,3 °C 91 % 1009,7 hPa 0,0 mm 5,2 km/h (1 Bft) S-SW 195 ° 0 min 0,000 mm 0,0 UV-I 0 W/m² 14,7 °C 16,2 °C 8,0 km/h (2 Bft)
10.07.2017 20:42 16,3 °C 16,3 °C 90 % 1009,8 hPa 0,0 mm 1,8 km/h (1 Bft) W-SW 254 ° 0 min 0,000 mm 0,0 UV-I 0 W/m² 14,7 °C 16,3 °C 3,2 km/h (1 Bft)
10.07.2017 20:43 16,3 °C 16,3 °C 90 % 1009,7 hPa 0,2 mm 4,6 km/h (1 Bft) S-SW 194 ° 0 min 0,000 mm 0,0 UV-I 0 W/m² 14,7 °C 16,3 °C 8,0 km/h (2 Bft)
10.07.2017 20:44 16,3 °C 16,3 °C 90 % 1009,7 hPa 0,0 mm 3,2 km/h (1 Bft) SW 215 ° 0 min 0,000 mm 0,0 UV-I 5 W/m² 14,7 °C 16,3 °C 6,4 km/h (2 Bft)
10.07.2017 20:45 16,3 °C 16,3 °C 90 % 1009,7 hPa 0,0 mm 2,3 km/h (1 Bft) SW 229 ° 0 min 0,000 mm 0,0 UV-I 5 W/m² 14,7 °C 16,3 °C 4,8 km/h (1 Bft)
10.07.2017 20:46 16,3 °C 16,3 °C 90 % 1009,7 hPa 0,0 mm 2,3 km/h (1 Bft) W-SW 250 ° 0 min 0,000 mm 0,0 UV-I 5 W/m² 14,7 °C 16,3 °C 4,8 km/h (1 Bft)
10.07.2017 20:47 16,3 °C 16,3 °C 90 % 1009,7 hPa 0,0 mm 3,2 km/h (1 Bft) W 261 ° 0 min 0,000 mm 0,0 UV-I 0 W/m² 14,7 °C 16,3 °C 4,8 km/h (1 Bft)
10.07.2017 20:48 16,3 °C 16,3 °C 90 % 1009,7 hPa 0,0 mm 5,2 km/h (1 Bft) S-SW 210 ° 0 min 0,000 mm 0,0 UV-I 0 W/m² 14,7 °C 16,3 °C 12,9 km/h (3 Bft)
10.07.2017 20:49 16,3 °C 16,3 °C 90 % 1009,7 hPa 0,0 mm 2,5 km/h (1 Bft) SW 230 ° 0 min 0,000 mm 0,0 UV-I 0 W/m² 14,7 °C 16,3 °C 3,2 km/h (1 Bft)
10.07.2017 20:50 16,3 °C 16,3 °C 90 % 1009,7 hPa 0,0 mm 2,8 km/h (1 Bft) SW 216 ° 0 min 0,000 mm 0,0 UV-I 0 W/m² 14,7 °C 16,3 °C 4,8 km/h (1 Bft)
10.07.2017 20:51 16,3 °C 16,3 °C 89 % 1009,6 hPa 0,0 mm 3,3 km/h (1 Bft) S 188 ° 0 min 0,000 mm 0,0 UV-I 0 W/m² 14,5 °C 16,3 °C 9,7 km/h (2 Bft)
10.07.2017 20:52 16,3 °C 16,3 °C 89 % 1009,6 hPa 0,0 mm 3,0 km/h (1 Bft) S-SW 192 ° 0 min 0,000 mm 0,0 UV-I 0 W/m² 14,5 °C 16,3 °C 4,8 km/h (1 Bft)
10.07.2017 20:53 16,3 °C 16,3 °C 89 % 1009,5 hPa 0,0 mm 0,3 km/h (0 Bft) S-SW 192 ° 0 min 0,000 mm 0,0 UV-I 0 W/m² 14,5 °C 16,3 °C 1,6 km/h (1 Bft)
10.07.2017 20:54 16,2 °C 16,3 °C 90 % 1009,5 hPa 0,0 mm 0,3 km/h (0 Bft) S-SW 192 ° 0 min 0,000 mm 0,0 UV-I 0 W/m² 14,6 °C 16,2 °C 1,6 km/h (1 Bft)
10.07.2017 20:55 16,1 °C 16,2 °C 90 % 1009,4 hPa 0,0 mm 2,1 km/h (1 Bft) W 274 ° 0 min 0,000 mm 0,0 UV-I 0 W/m² 14,5 °C 16,1 °C 9,7 km/h (2 Bft)
10.07.2017 20:56 16,1 °C 16,1 °C 90 % 1009,4 hPa 0,0 mm 3,2 km/h (1 Bft) W-SW 238 ° 0 min 0,000 mm 0,0 UV-I 0 W/m² 14,5 °C 16,1 °C 9,7 km/h (2 Bft)
10.07.2017 20:57 15,9 °C 16,1 °C 91 % 1009,4 hPa 0,0 mm 0,7 km/h (0 Bft) W-SW 252 ° 0 min 0,000 mm 0,0 UV-I 0 W/m² 14,4 °C 15,9 °C 1,6 km/h (1 Bft)
10.07.2017 20:58 15,9 °C 15,9 °C 91 % 1009,4 hPa 0,0 mm 0,4 km/h (0 Bft) W-SW 252 ° 0 min 0,000 mm 0,0 UV-I 0 W/m² 14,4 °C 15,9 °C 1,6 km/h (1 Bft)
10.07.2017 20:59 15,8 °C 15,9 °C 91 % 1009,3 hPa 0,0 mm 0,1 km/h (0 Bft) W-SW 252 ° 0 min 0,000 mm 0,0 UV-I 0 W/m² 14,3 °C 15,8 °C 1,6 km/h (1 Bft)
10.07.2017 21:00 15,7 °C 15,8 °C 91 % 1009,3 hPa 0,0 mm 0,4 km/h (0 Bft) W-SW 252 ° 0 min 0,000 mm 0,0 UV-I 0 W/m² 14,2 °C 15,7 °C 1,6 km/h (1 Bft)
10.07.2017 21:01 15,7 °C 15,7 °C 92 % 1009,3 hPa 0,0 mm 0,7 km/h (0 Bft) W-SW 252 ° 0 min 0,000 mm 0,0 UV-I 0 W/m² 14,4 °C 15,7 °C 3,2 km/h (1 Bft)
10.07.2017 21:02 15,6 °C 15,7 °C 92 % 1009,3 hPa 0,0 mm 0,6 km/h (0 Bft) SW 225 ° 0 min 0,000 mm 0,0 UV-I 0 W/m² 14,3 °C 15,6 °C 3,2 km/h (1 Bft)
10.07.2017 21:03 15,6 °C 15,6 °C 92 % 1009,2 hPa 0,0 mm 2,3 km/h (1 Bft) SW 224 ° 0 min 0,000 mm 0,0 UV-I 0 W/m² 14,3 °C 15,6 °C 4,8 km/h (1 Bft)
10.07.2017 21:04 15,5 °C 15,6 °C 92 % 1009,1 hPa 0,0 mm 0,5 km/h (0 Bft) SW 224 ° 0 min 0,000 mm 0,0 UV-I 0 W/m² 14,2 °C 15,5 °C 1,6 km/h (1 Bft)
10.07.2017 21:05 15,4 °C 15,5 °C 92 % 1009,0 hPa 0,0 mm 0,3 km/h (0 Bft) SW 224 ° 0 min 0,000 mm 0,0 UV-I 0 W/m² 14,1 °C 15,4 °C 1,6 km/h (1 Bft)
10.07.2017 21:06 15,4 °C 15,4 °C 92 % 1009,0 hPa 0,0 mm 0,1 km/h (0 Bft) SW 224 ° 0 min 0,000 mm 0,0 UV-I 0 W/m² 14,1 °C 15,4 °C 1,6 km/h (1 Bft)
10.07.2017 21:07 15,4 °C 15,4 °C 93 % 1009,0 hPa 0,0 mm 0,0 km/h (0 Bft) SW 224 ° 0 min 0,000 mm 0,0 UV-I 0 W/m² 14,3 °C 15,4 °C 0,0 km/h (0 Bft)
10.07.2017 21:09 15,3 °C 15,4 °C 93 % 1009,0 hPa 0,0 mm 0,3 km/h (0 Bft) SW 224 ° 0 min 0,000 mm 0,0 UV-I 0 W/m² 14,2 °C 15,3 °C 1,6 km/h (1 Bft)
10.07.2017 21:10 15,3 °C 15,3 °C 92 % 1009,0 hPa 0,0 mm 0,0 km/h (0 Bft) SW 224 ° 0 min 0,000 mm 0,0 UV-I 0 W/m² 14,0 °C 15,3 °C 0,0 km/h (0 Bft)
10.07.2017 21:11 15,2 °C 15,3 °C 92 % 1009,0 hPa 0,0 mm 0,0 km/h (0 Bft) SW 224 ° 0 min 0,000 mm 0,0 UV-I 0 W/m² 13,9 °C 15,2 °C 0,0 km/h (0 Bft)
10.07.2017 21:12 15,2 °C 15,2 °C 93 % 1009,0 hPa 0,0 mm 0,0 km/h (0 Bft) SW 225 ° 0 min 0,000 mm 0,0 UV-I 0 W/m² 14,1 °C 15,2 °C 0,0 km/h (0 Bft)
10.07.2017 21:13 15,2 °C 15,2 °C 93 % 1009,0 hPa 0,0 mm 0,0 km/h (0 Bft) SW 225 ° 0 min 0,000 mm 0,0 UV-I 0 W/m² 14,1 °C 15,2 °C 0,0 km/h (0 Bft)
10.07.2017 21:14 15,2 °C 15,2 °C 93 % 1009,2 hPa 0,0 mm 0,0 km/h (0 Bft) SW 225 ° 0 min 0,000 mm 0,0 UV-I 0 W/m² 14,1 °C 15,2 °C 0,0 km/h (0 Bft)
10.07.2017 21:15 15,2 °C 15,2 °C 93 % 1009,2 hPa 0,0 mm 0,0 km/h (0 Bft) SW 225 ° 0 min 0,000 mm 0,0 UV-I 0 W/m² 14,1 °C 15,2 °C 0,0 km/h (0 Bft)
10.07.2017 21:16 15,1 °C 15,2 °C 93 % 1009,2 hPa 0,0 mm 0,0 km/h (0 Bft) SW 225 ° 0 min 0,000 mm 0,0 UV-I 0 W/m² 14,0 °C 15,1 °C 0,0 km/h (0 Bft)
10.07.2017 21:17 15,2 °C 15,2 °C 93 % 1009,3 hPa 0,0 mm 1,0 km/h (0 Bft) W-SW 247 ° 0 min 0,000 mm 0,0 UV-I 0 W/m² 14,1 °C 15,2 °C 4,8 km/h (1 Bft)
10.07.2017 21:18 15,2 °C 15,2 °C 93 % 1009,3 hPa 0,0 mm 4,4 km/h (1 Bft) W 259 ° 0 min 0,000 mm 0,0 UV-I 0 W/m² 14,1 °C 15,2 °C 9,7 km/h (2 Bft)
10.07.2017 21:19 15,2 °C 15,2 °C 93 % 1009,3 hPa 0,0 mm 0,9 km/h (0 Bft) W-SW 250 ° 0 min 0,000 mm 0,0 UV-I 0 W/m² 14,1 °C 15,2 °C 3,2 km/h (1 Bft)
10.07.2017 21:20 15,2 °C 15,2 °C 93 % 1009,3 hPa 0,0 mm 1,0 km/h (0 Bft) W-SW 250 ° 0 min 0,000 mm 0,0 UV-I 0 W/m² 14,1 °C 15,2 °C 3,2 km/h (1 Bft)
10.07.2017 21:21 15,2 °C 15,2 °C 93 % 1009,3 hPa 0,2 mm 0,0 km/h (0 Bft) W-SW 250 ° 0 min 0,000 mm 0,0 UV-I 0 W/m² 14,1 °C 15,2 °C 0,0 km/h (0 Bft)
10.07.2017 21:22 15,2 °C 15,2 °C 93 % 1009,3 hPa 0,0 mm 0,5 km/h (0 Bft) W-SW 250 ° 0 min 0,000 mm 0,0 UV-I 0 W/m² 14,1 °C 15,2 °C 1,6 km/h (1 Bft)
10.07.2017 21:23 15,2 °C 15,2 °C 93 % 1009,3 hPa 0,0 mm 0,0 km/h (0 Bft) W-SW 250 ° 0 min 0,000 mm 0,0 UV-I 0 W/m² 14,1 °C 15,2 °C 0,0 km/h (0 Bft)
10.07.2017 21:24 15,2 °C 15,2 °C 93 % 1009,3 hPa 0,0 mm 0,0 km/h (0 Bft) W-SW 250 ° 0 min 0,000 mm 0,0 UV-I 0 W/m² 14,1 °C 15,2 °C 0,0 km/h (0 Bft)
10.07.2017 21:25 15,2 °C 15,2 °C 93 % 1009,3 hPa 0,0 mm 0,0 km/h (0 Bft) W-SW 250 ° 0 min 0,000 mm 0,0 UV-I 0 W/m² 14,1 °C 15,2 °C 0,0 km/h (0 Bft)
10.07.2017 21:26 15,2 °C 15,2 °C 93 % 1009,3 hPa 0,0 mm 0,6 km/h (0 Bft) W-SW 250 ° 0 min 0,000 mm 0,0 UV-I 0 W/m² 14,1 °C 15,2 °C 1,6 km/h (1 Bft)
10.07.2017 21:27 15,2 °C 15,2 °C 93 % 1009,3 hPa 0,0 mm 0,1 km/h (0 Bft) W-SW 250 ° 0 min 0,000 mm 0,0 UV-I 0 W/m² 14,1 °C 15,2 °C 1,6 km/h (1 Bft)
10.07.2017 21:28 15,2 °C 15,2 °C 93 % 1009,3 hPa 0,0 mm 0,0 km/h (0 Bft) W-SW 250 ° 0 min 0,000 mm 0,0 UV-I 0 W/m² 14,1 °C 15,2 °C 0,0 km/h (0 Bft)
10.07.2017 21:29 15,2 °C 15,2 °C 93 % 1009,3 hPa 0,0 mm 0,0 km/h (0 Bft) W-SW 250 ° 0 min 0,000 mm 0,0 UV-I 0 W/m² 14,1 °C 15,2 °C 0,0 km/h (0 Bft)
10.07.2017 21:30 15,2 °C 15,2 °C 93 % 1009,4 hPa 0,0 mm 0,0 km/h (0 Bft) W-SW 250 ° 0 min 0,000 mm 0,0 UV-I 0 W/m² 14,1 °C 15,2 °C 0,0 km/h (0 Bft)
10.07.2017 21:31 15,1 °C 15,2 °C 94 % 1009,3 hPa 0,0 mm 0,0 km/h (0 Bft) W-SW 250 ° 0 min 0,000 mm 0,0 UV-I 0 W/m² 14,1 °C 15,1 °C 0,0 km/h (0 Bft)
10.07.2017 21:32 15,2 °C 15,2 °C 93 % 1009,4 hPa 0,0 mm 0,0 km/h (0 Bft) W-SW 250 ° 0 min 0,000 mm 0,0 UV-I 0 W/m² 14,1 °C 15,2 °C 0,0 km/h (0 Bft)
10.07.2017 21:33 15,1 °C 15,2 °C 94 % 1009,3 hPa 0,0 mm 1,1 km/h (1 Bft) W-SW 250 ° 0 min 0,000 mm 0,0 UV-I 0 W/m² 14,1 °C 15,1 °C 1,6 km/h (1 Bft)
10.07.2017 21:34 15,1 °C 15,1 °C 93 % 1009,4 hPa 0,0 mm 0,6 km/h (0 Bft) W-SW 250 ° 0 min 0,000 mm 0,0 UV-I 0 W/m² 14,0 °C 15,1 °C 3,2 km/h (1 Bft)
10.07.2017 21:35 15,1 °C 15,1 °C 94 % 1009,4 hPa 0,0 mm 0,5 km/h (0 Bft) W-SW 250 ° 0 min 0,000 mm 0,0 UV-I 0 W/m² 14,1 °C 15,1 °C 1,6 km/h (1 Bft)
10.07.2017 21:36 15,1 °C 15,1 °C 94 % 1009,5 hPa 0,0 mm 0,1 km/h (0 Bft) W-SW 250 ° 0 min 0,000 mm 0,0 UV-I 0 W/m² 14,1 °C 15,1 °C 1,6 km/h (1 Bft)
10.07.2017 21:37 15,1 °C 15,1 °C 94 % 1009,5 hPa 0,0 mm 0,3 km/h (0 Bft) W-SW 250 ° 0 min 0,000 mm 0,0 UV-I 0 W/m² 14,1 °C 15,1 °C 1,6 km/h (1 Bft)
10.07.2017 21:38 15,1 °C 15,1 °C 94 % 1009,5 hPa 0,0 mm 0,7 km/h (0 Bft) W-SW 250 ° 0 min 0,000 mm 0,0 UV-I 0 W/m² 14,1 °C 15,1 °C 1,6 km/h (1 Bft)
10.07.2017 21:39 15,1 °C 15,1 °C 94 % 1009,5 hPa 0,0 mm 0,1 km/h (0 Bft) W-SW 252 ° 0 min 0,000 mm 0,0 UV-I 0 W/m² 14,1 °C 15,1 °C 1,6 km/h (1 Bft)
10.07.2017 21:40 15,1 °C 15,1 °C 94 % 1009,5 hPa 0,0 mm 0,1 km/h (0 Bft) W-SW 252 ° 0 min 0,000 mm 0,0 UV-I 0 W/m² 14,1 °C 15,1 °C 1,6 km/h (1 Bft)
10.07.2017 21:41 15,1 °C 15,1 °C 94 % 1009,6 hPa 0,0 mm 0,6 km/h (0 Bft) W-SW 252 ° 0 min 0,000 mm 0,0 UV-I 0 W/m² 14,1 °C 15,1 °C 3,2 km/h (1 Bft)
10.07.2017 21:42 15,1 °C 15,1 °C 94 % 1009,6 hPa 0,0 mm 0,1 km/h (0 Bft) W-SW 252 ° 0 min 0,000 mm 0,0 UV-I 0 W/m² 14,1 °C 15,1 °C 1,6 km/h (1 Bft)
10.07.2017 21:44 15,0 °C 15,1 °C 94 % 1009,7 hPa 0,0 mm 0,6 km/h (0 Bft) W-SW 252 ° 0 min 0,000 mm 0,0 UV-I 0 W/m² 14,0 °C 15,0 °C 3,2 km/h (1 Bft)
10.07.2017 21:45 15,0 °C 15,0 °C 94 % 1009,7 hPa 0,0 mm 0,0 km/h (0 Bft) W-SW 252 ° 0 min 0,000 mm 0,0 UV-I 0 W/m² 14,0 °C 15,0 °C 0,0 km/h (0 Bft)
10.07.2017 21:46 15,0 °C 15,0 °C 94 % 1009,7 hPa 0,0 mm 0,1 km/h (0 Bft) W-SW 252 ° 0 min 0,000 mm 0,0 UV-I 0 W/m² 14,0 °C 15,0 °C 1,6 km/h (1 Bft)
10.07.2017 21:47 15,0 °C 15,0 °C 94 % 1009,7 hPa 0,0 mm 0,3 km/h (0 Bft) W-SW 252 ° 0 min 0,000 mm 0,0 UV-I 0 W/m² 14,0 °C 15,0 °C 1,6 km/h (1 Bft)
10.07.2017 21:48 15,0 °C 15,0 °C 94 % 1009,7 hPa 0,0 mm 0,5 km/h (0 Bft) W-SW 252 ° 0 min 0,000 mm 0,0 UV-I 0 W/m² 14,0 °C 15,0 °C 1,6 km/h (1 Bft)
10.07.2017 21:49 15,0 °C 15,0 °C 94 % 1009,7 hPa 0,0 mm 0,7 km/h (0 Bft) W-SW 252 ° 0 min 0,000 mm 0,0 UV-I 0 W/m² 14,0 °C 15,0 °C 1,6 km/h (1 Bft)
10.07.2017 21:50 15,1 °C 15,1 °C 94 % 1009,7 hPa 0,0 mm 0,0 km/h (0 Bft) W-SW 252 ° 0 min 0,000 mm 0,0 UV-I 0 W/m² 14,1 °C 15,1 °C 0,0 km/h (0 Bft)
10.07.2017 21:51 15,0 °C 15,1 °C 94 % 1009,7 hPa 0,0 mm 0,0 km/h (0 Bft) W-SW 252 ° 0 min 0,000 mm 0,0 UV-I 0 W/m² 14,0 °C 15,0 °C 0,0 km/h (0 Bft)
10.07.2017 21:52 15,0 °C 15,0 °C 94 % 1009,7 hPa 0,0 mm 0,0 km/h (0 Bft) W-SW 252 ° 0 min 0,000 mm 0,0 UV-I 0 W/m² 14,0 °C 15,0 °C 0,0 km/h (0 Bft)
10.07.2017 21:53 15,0 °C 15,0 °C 94 % 1009,7 hPa 0,0 mm 0,0 km/h (0 Bft) W-SW 252 ° 0 min 0,000 mm 0,0 UV-I 0 W/m² 14,0 °C 15,0 °C 0,0 km/h (0 Bft)
10.07.2017 21:54 15,0 °C 15,0 °C 94 % 1009,8 hPa 0,0 mm 0,0 km/h (0 Bft) W-SW 252 ° 0 min 0,000 mm 0,0 UV-I 0 W/m² 14,0 °C 15,0 °C 0,0 km/h (0 Bft)
10.07.2017 21:55 15,0 °C 15,0 °C 94 % 1009,8 hPa 0,0 mm 0,0 km/h (0 Bft) W-SW 252 ° 0 min 0,000 mm 0,0 UV-I 0 W/m² 14,0 °C 15,0 °C 0,0 km/h (0 Bft)
10.07.2017 21:56 14,9 °C 15,0 °C 94 % 1009,8 hPa 0,0 mm 0,0 km/h (0 Bft) W-SW 252 ° 0 min 0,000 mm 0,0 UV-I 0 W/m² 13,9 °C 14,9 °C 0,0 km/h (0 Bft)
10.07.2017 21:57 15,0 °C 15,0 °C 94 % 1009,9 hPa 0,0 mm 0,0 km/h (0 Bft) W-SW 252 ° 0 min 0,000 mm 0,0 UV-I 0 W/m² 14,0 °C 15,0 °C 0,0 km/h (0 Bft)
10.07.2017 21:58 15,0 °C 15,0 °C 94 % 1009,9 hPa 0,0 mm 0,2 km/h (0 Bft) W-SW 252 ° 0 min 0,000 mm 0,0 UV-I 0 W/m² 14,0 °C 15,0 °C 1,6 km/h (1 Bft)
10.07.2017 21:59 14,9 °C 15,0 °C 94 % 1009,9 hPa 0,0 mm 0,4 km/h (0 Bft) W-SW 252 ° 0 min 0,000 mm 0,0 UV-I 0 W/m² 13,9 °C 14,9 °C 1,6 km/h (1 Bft)
10.07.2017 22:00 14,9 °C 15,0 °C 94 % 1010,0 hPa 0,0 mm 0,0 km/h (0 Bft) W-SW 252 ° 0 min 0,000 mm 0,0 UV-I 0 W/m² 13,9 °C 14,9 °C 0,0 km/h (0 Bft)
10.07.2017 22:01 15,0 °C 15,0 °C 94 % 1010,0 hPa 0,0 mm 0,0 km/h (0 Bft) W-SW 252 ° 0 min 0,000 mm 0,0 UV-I 0 W/m² 14,0 °C 15,0 °C 0,0 km/h (0 Bft)
10.07.2017 22:02 15,0 °C 15,0 °C 94 % 1010,0 hPa 0,0 mm 0,0 km/h (0 Bft) W-SW 252 ° 0 min 0,000 mm 0,0 UV-I 0 W/m² 14,0 °C 15,0 °C 0,0 km/h (0 Bft)
10.07.2017 22:03 14,9 °C 15,0 °C 94 % 1010,0 hPa 0,0 mm 0,8 km/h (0 Bft) W-SW 252 ° 0 min 0,000 mm 0,0 UV-I 0 W/m² 13,9 °C 14,9 °C 1,6 km/h (1 Bft)
10.07.2017 22:04 14,9 °C 14,9 °C 94 % 1010,0 hPa 0,0 mm 0,5 km/h (0 Bft) W-SW 252 ° 0 min 0,000 mm 0,0 UV-I 0 W/m² 13,9 °C 14,9 °C 1,6 km/h (1 Bft)
10.07.2017 22:05 14,9 °C 14,9 °C 94 % 1010,0 hPa 0,0 mm 0,0 km/h (0 Bft) W-SW 252 ° 0 min 0,000 mm 0,0 UV-I 0 W/m² 13,9 °C 14,9 °C 0,0 km/h (0 Bft)
10.07.2017 22:06 14,9 °C 14,9 °C 94 % 1010,0 hPa 0,0 mm 0,1 km/h (0 Bft) W-SW 252 ° 0 min 0,000 mm 0,0 UV-I 0 W/m² 13,9 °C 14,9 °C 1,6 km/h (1 Bft)
10.07.2017 22:07 14,9 °C 14,9 °C 94 % 1010,1 hPa 0,2 mm 0,0 km/h (0 Bft) W-SW 252 ° 0 min 0,000 mm 0,0 UV-I 0 W/m² 13,9 °C 14,9 °C 0,0 km/h (0 Bft)
10.07.2017 22:08 14,9 °C 14,9 °C 94 % 1010,0 hPa 0,0 mm 0,0 km/h (0 Bft) W-SW 252 ° 0 min 0,000 mm 0,0 UV-I 0 W/m² 13,9 °C 14,9 °C 0,0 km/h (0 Bft)
10.07.2017 22:09 14,9 °C 14,9 °C 94 % 1010,0 hPa 0,0 mm 0,1 km/h (0 Bft) W-SW 252 ° 0 min 0,000 mm 0,0 UV-I 0 W/m² 13,9 °C 14,9 °C 1,6 km/h (1 Bft)
10.07.2017 22:10 14,9 °C 14,9 °C 94 % 1010,0 hPa 0,0 mm 0,0 km/h (0 Bft) W-SW 252 ° 0 min 0,000 mm 0,0 UV-I 0 W/m² 13,9 °C 14,9 °C 0,0 km/h (0 Bft)
10.07.2017 22:11 14,9 °C 14,9 °C 94 % 1010,1 hPa 0,0 mm 0,0 km/h (0 Bft) W-SW 252 ° 0 min 0,000 mm 0,0 UV-I 0 W/m² 13,9 °C 14,9 °C 0,0 km/h (0 Bft)
10.07.2017 22:12 14,9 °C 14,9 °C 94 % 1010,0 hPa 0,0 mm 0,0 km/h (0 Bft) W-SW 252 ° 0 min 0,000 mm 0,0 UV-I 0 W/m² 13,9 °C 14,9 °C 0,0 km/h (0 Bft)
10.07.2017 22:13 14,9 °C 14,9 °C 94 % 1010,1 hPa 0,0 mm 0,0 km/h (0 Bft) W-SW 252 ° 0 min 0,000 mm 0,0 UV-I 0 W/m² 13,9 °C 14,9 °C 0,0 km/h (0 Bft)
10.07.2017 22:14 14,8 °C 14,9 °C 94 % 1010,1 hPa 0,0 mm 0,0 km/h (0 Bft) W-SW 252 ° 0 min 0,000 mm 0,0 UV-I 0 W/m² 13,8 °C 14,8 °C 0,0 km/h (0 Bft)
10.07.2017 22:15 14,8 °C 14,8 °C 94 % 1010,1 hPa 0,0 mm 0,0 km/h (0 Bft) W-SW 252 ° 0 min 0,000 mm 0,0 UV-I 0 W/m² 13,8 °C 14,8 °C 0,0 km/h (0 Bft)
10.07.2017 22:16 14,8 °C 14,9 °C 94 % 1010,1 hPa 0,0 mm 0,0 km/h (0 Bft) W-SW 252 ° 0 min 0,000 mm 0,0 UV-I 0 W/m² 13,8 °C 14,8 °C 0,0 km/h (0 Bft)
10.07.2017 22:17 14,8 °C 14,8 °C 94 % 1010,1 hPa 0,0 mm 0,1 km/h (0 Bft) W-SW 252 ° 0 min 0,000 mm 0,0 UV-I 0 W/m² 13,8 °C 14,8 °C 1,6 km/h (1 Bft)
10.07.2017 22:18 14,8 °C 14,8 °C 94 % 1010,1 hPa 0,0 mm 0,0 km/h (0 Bft) W-SW 252 ° 0 min 0,000 mm 0,0 UV-I 0 W/m² 13,8 °C 14,8 °C 0,0 km/h (0 Bft)
10.07.2017 22:19 14,8 °C 14,8 °C 94 % 1010,0 hPa 0,0 mm 0,0 km/h (0 Bft) W-SW 252 ° 0 min 0,000 mm 0,0 UV-I 0 W/m² 13,8 °C 14,8 °C 0,0 km/h (0 Bft)
10.07.2017 22:20 14,8 °C 14,8 °C 94 % 1010,0 hPa 0,0 mm 0,0 km/h (0 Bft) W-SW 252 ° 0 min 0,000 mm 0,0 UV-I 0 W/m² 13,8 °C 14,8 °C 0,0 km/h (0 Bft)
10.07.2017 22:21 14,8 °C 14,8 °C 94 % 1010,0 hPa 0,0 mm 0,0 km/h (0 Bft) W-SW 252 ° 0 min 0,000 mm 0,0 UV-I 0 W/m² 13,8 °C 14,8 °C 0,0 km/h (0 Bft)
10.07.2017 22:22 14,8 °C 14,8 °C 94 % 1010,0 hPa 0,0 mm 0,0 km/h (0 Bft) W-SW 252 ° 0 min 0,000 mm 0,0 UV-I 0 W/m² 13,8 °C 14,8 °C 0,0 km/h (0 Bft)
10.07.2017 22:23 14,8 °C 14,8 °C 94 % 1010,0 hPa 0,0 mm 0,3 km/h (0 Bft) W-SW 252 ° 0 min 0,000 mm 0,0 UV-I 0 W/m² 13,8 °C 14,8 °C 1,6 km/h (1 Bft)
10.07.2017 22:24 14,8 °C 14,8 °C 94 % 1010,0 hPa 0,0 mm 0,1 km/h (0 Bft) W-SW 252 ° 0 min 0,000 mm 0,0 UV-I 0 W/m² 13,8 °C 14,8 °C 1,6 km/h (1 Bft)
10.07.2017 22:25 14,8 °C 14,8 °C 94 % 1010,0 hPa 0,0 mm 0,0 km/h (0 Bft) W-SW 252 ° 0 min 0,000 mm 0,0 UV-I 0 W/m² 13,8 °C 14,8 °C 0,0 km/h (0 Bft)
10.07.2017 22:26 14,8 °C 14,8 °C 94 % 1010,0 hPa 0,0 mm 0,1 km/h (0 Bft) W-SW 252 ° 0 min 0,000 mm 0,0 UV-I 0 W/m² 13,8 °C 14,8 °C 1,6 km/h (1 Bft)
10.07.2017 22:27 14,8 °C 14,8 °C 94 % 1010,1 hPa 0,0 mm 2,3 km/h (1 Bft) S-SW 213 ° 0 min 0,000 mm 0,0 UV-I 0 W/m² 13,8 °C 14,8 °C 6,4 km/h (2 Bft)
10.07.2017 22:28 14,8 °C 14,8 °C 94 % 1010,0 hPa 0,0 mm 1,6 km/h (1 Bft) NW 310 ° 0 min 0,000 mm 0,0 UV-I 0 W/m² 13,8 °C 14,8 °C 3,2 km/h (1 Bft)
10.07.2017 22:29 14,8 °C 14,8 °C 94 % 1010,0 hPa 0,0 mm 0,3 km/h (0 Bft) NW 310 ° 0 min 0,000 mm 0,0 UV-I 0 W/m² 13,8 °C 14,8 °C 1,6 km/h (1 Bft)
10.07.2017 22:30 14,8 °C 14,8 °C 94 % 1010,0 hPa 0,0 mm 0,4 km/h (0 Bft) NW 310 ° 0 min 0,000 mm 0,0 UV-I 0 W/m² 13,8 °C 14,8 °C 1,6 km/h (1 Bft)
10.07.2017 22:31 14,8 °C 14,8 °C 94 % 1010,0 hPa 0,0 mm 0,2 km/h (0 Bft) NW 310 ° 0 min 0,000 mm 0,0 UV-I 0 W/m² 13,8 °C 14,8 °C 1,6 km/h (1 Bft)
10.07.2017 22:32 14,8 °C 14,8 °C 94 % 1010,1 hPa 0,0 mm 0,0 km/h (0 Bft) NW 310 ° 0 min 0,000 mm 0,0 UV-I 0 W/m² 13,8 °C 14,8 °C 0,0 km/h (0 Bft)
10.07.2017 22:33 14,8 °C 14,8 °C 94 % 1010,0 hPa 0,0 mm 0,0 km/h (0 Bft) NW 310 ° 0 min 0,000 mm 0,0 UV-I 0 W/m² 13,8 °C 14,8 °C 0,0 km/h (0 Bft)
10.07.2017 22:34 14,8 °C 14,8 °C 94 % 1010,0 hPa 0,0 mm 0,0 km/h (0 Bft) NW 310 ° 0 min 0,000 mm 0,0 UV-I 0 W/m² 13,8 °C 14,8 °C 0,0 km/h (0 Bft)
10.07.2017 22:35 14,8 °C 14,8 °C 94 % 1010,0 hPa 0,0 mm 0,0 km/h (0 Bft) NW 310 ° 0 min 0,000 mm 0,0 UV-I 0 W/m² 13,8 °C 14,8 °C 0,0 km/h (0 Bft)
10.07.2017 22:36 14,8 °C 14,8 °C 94 % 1010,0 hPa 0,0 mm 0,0 km/h (0 Bft) NW 310 ° 0 min 0,000 mm 0,0 UV-I 0 W/m² 13,8 °C 14,8 °C 0,0 km/h (0 Bft)
10.07.2017 22:37 14,8 °C 14,8 °C 94 % 1010,0 hPa 0,0 mm 0,0 km/h (0 Bft) NW 310 ° 0 min 0,000 mm 0,0 UV-I 0 W/m² 13,8 °C 14,8 °C 0,0 km/h (0 Bft)
10.07.2017 22:38 14,8 °C 14,8 °C 94 % 1010,0 hPa 0,0 mm 0,0 km/h (0 Bft) NW 310 ° 0 min 0,000 mm 0,0 UV-I 0 W/m² 13,8 °C 14,8 °C 0,0 km/h (0 Bft)
10.07.2017 22:39 14,8 °C 14,8 °C 94 % 1010,1 hPa 0,2 mm 0,1 km/h (0 Bft) NW 310 ° 0 min 0,000 mm 0,0 UV-I 0 W/m² 13,8 °C 14,8 °C 1,6 km/h (1 Bft)
10.07.2017 22:40 14,8 °C 14,8 °C 94 % 1010,0 hPa 0,0 mm 0,0 km/h (0 Bft) NW 310 ° 0 min 0,000 mm 0,0 UV-I 0 W/m² 13,8 °C 14,8 °C 0,0 km/h (0 Bft)
10.07.2017 22:41 14,8 °C 14,8 °C 94 % 1010,0 hPa 0,0 mm 0,0 km/h (0 Bft) NW 310 ° 0 min 0,000 mm 0,0 UV-I 0 W/m² 13,8 °C 14,8 °C 0,0 km/h (0 Bft)
10.07.2017 22:42 14,8 °C 14,8 °C 94 % 1010,1 hPa 0,0 mm 0,0 km/h (0 Bft) NW 310 ° 0 min 0,000 mm 0,0 UV-I 0 W/m² 13,8 °C 14,8 °C 0,0 km/h (0 Bft)
10.07.2017 22:43 14,8 °C 14,8 °C 94 % 1010,1 hPa 0,0 mm 0,0 km/h (0 Bft) NW 310 ° 0 min 0,000 mm 0,0 UV-I 0 W/m² 13,8 °C 14,8 °C 0,0 km/h (0 Bft)
10.07.2017 22:44 14,8 °C 14,8 °C 94 % 1010,0 hPa 0,0 mm 0,1 km/h (0 Bft) NW 315 ° 0 min 0,000 mm 0,0 UV-I 0 W/m² 13,8 °C 14,8 °C 1,6 km/h (1 Bft)
10.07.2017 22:45 14,8 °C 14,8 °C 94 % 1010,1 hPa 0,0 mm 0,1 km/h (0 Bft) NW 315 ° 0 min 0,000 mm 0,0 UV-I 0 W/m² 13,8 °C 14,8 °C 1,6 km/h (1 Bft)
10.07.2017 22:46 14,8 °C 14,8 °C 94 % 1010,1 hPa 0,0 mm 0,1 km/h (0 Bft) NW 315 ° 0 min 0,000 mm 0,0 UV-I 0 W/m² 13,8 °C 14,8 °C 1,6 km/h (1 Bft)
10.07.2017 22:47 14,8 °C 14,8 °C 94 % 1010,1 hPa 0,0 mm 0,0 km/h (0 Bft) NW 315 ° 0 min 0,000 mm 0,0 UV-I 0 W/m² 13,8 °C 14,8 °C 0,0 km/h (0 Bft)
10.07.2017 22:48 14,8 °C 14,8 °C 94 % 1010,1 hPa 0,0 mm 0,0 km/h (0 Bft) NW 315 ° 0 min 0,000 mm 0,0 UV-I 0 W/m² 13,8 °C 14,8 °C 0,0 km/h (0 Bft)
10.07.2017 22:49 14,8 °C 14,8 °C 94 % 1010,0 hPa 0,0 mm 0,0 km/h (0 Bft) NW 315 ° 0 min 0,000 mm 0,0 UV-I 0 W/m² 13,8 °C 14,8 °C 0,0 km/h (0 Bft)
10.07.2017 22:50 14,8 °C 14,8 °C 94 % 1010,1 hPa 0,0 mm 1,1 km/h (1 Bft) NW 315 ° 0 min 0,000 mm 0,0 UV-I 0 W/m² 13,8 °C 14,8 °C 3,2 km/h (1 Bft)
10.07.2017 22:51 14,8 °C 14,8 °C 94 % 1010,1 hPa 0,0 mm 1,3 km/h (1 Bft) NW 315 ° 0 min 0,000 mm 0,0 UV-I 0 W/m² 13,8 °C 14,8 °C 3,2 km/h (1 Bft)
10.07.2017 22:52 14,8 °C 14,8 °C 94 % 1010,0 hPa 0,0 mm 0,8 km/h (0 Bft) NW 323 ° 0 min 0,000 mm 0,0 UV-I 0 W/m² 13,8 °C 14,8 °C 3,2 km/h (1 Bft)
10.07.2017 22:53 14,7 °C 14,8 °C 94 % 1010,1 hPa 0,0 mm 1,1 km/h (1 Bft) N-NW 337 ° 0 min 0,000 mm 0,0 UV-I 0 W/m² 13,7 °C 14,7 °C 3,2 km/h (1 Bft)
10.07.2017 22:54 14,7 °C 14,8 °C 94 % 1010,1 hPa 0,0 mm 0,1 km/h (0 Bft) N-NW 342 ° 0 min 0,000 mm 0,0 UV-I 0 W/m² 13,7 °C 14,7 °C 1,6 km/h (1 Bft)
10.07.2017 22:55 14,8 °C 14,8 °C 94 % 1010,1 hPa 0,0 mm 2,3 km/h (1 Bft) SO 132 ° 0 min 0,000 mm 0,0 UV-I 0 W/m² 13,8 °C 14,8 °C 6,4 km/h (2 Bft)
10.07.2017 22:56 14,8 °C 14,8 °C 94 % 1010,1 hPa 0,0 mm 0,9 km/h (0 Bft) SO 132 ° 0 min 0,000 mm 0,0 UV-I 0 W/m² 13,8 °C 14,8 °C 3,2 km/h (1 Bft)
10.07.2017 22:57 14,8 °C 14,8 °C 94 % 1010,1 hPa 0,0 mm 0,0 km/h (0 Bft) SO 132 ° 0 min 0,000 mm 0,0 UV-I 0 W/m² 13,8 °C 14,8 °C 0,0 km/h (0 Bft)
10.07.2017 22:58 14,7 °C 14,8 °C 94 % 1010,1 hPa 0,0 mm 0,0 km/h (0 Bft) SO 132 ° 0 min 0,000 mm 0,0 UV-I 0 W/m² 13,7 °C 14,7 °C 0,0 km/h (0 Bft)
10.07.2017 22:59 14,7 °C 14,8 °C 94 % 1010,1 hPa 0,0 mm 0,0 km/h (0 Bft) SO 132 ° 0 min 0,000 mm 0,0 UV-I 0 W/m² 13,7 °C 14,7 °C 0,0 km/h (0 Bft)
10.07.2017 23:00 14,7 °C 14,7 °C 94 % 1010,1 hPa 0,0 mm 0,8 km/h (0 Bft) NO 39 ° 0 min 0,000 mm 0,0 UV-I 0 W/m² 13,7 °C 14,7 °C 3,2 km/h (1 Bft)
10.07.2017 23:01 14,7 °C 14,8 °C 94 % 1010,1 hPa 0,0 mm 0,4 km/h (0 Bft) NO 38 ° 0 min 0,000 mm 0,0 UV-I 0 W/m² 13,7 °C 14,7 °C 1,6 km/h (1 Bft)
10.07.2017 23:02 14,7 °C 14,7 °C 94 % 1010,1 hPa 0,0 mm 0,8 km/h (0 Bft) NO 38 ° 0 min 0,000 mm 0,0 UV-I 0 W/m² 13,7 °C 14,7 °C 3,2 km/h (1 Bft)
10.07.2017 23:03 14,8 °C 14,8 °C 94 % 1010,1 hPa 0,0 mm 0,0 km/h (0 Bft) NO 38 ° 0 min 0,000 mm 0,0 UV-I 0 W/m² 13,8 °C 14,8 °C 0,0 km/h (0 Bft)
10.07.2017 23:04 14,7 °C 14,8 °C 94 % 1010,1 hPa 0,0 mm 0,4 km/h (0 Bft) N-NO 17 ° 0 min 0,000 mm 0,0 UV-I 0 W/m² 13,7 °C 14,7 °C 3,2 km/h (1 Bft)
10.07.2017 23:05 14,7 °C 14,7 °C 94 % 1010,1 hPa 0,0 mm 1,7 km/h (1 Bft) N-NO 17 ° 0 min 0,000 mm 0,0 UV-I 0 W/m² 13,7 °C 14,7 °C 3,2 km/h (1 Bft)
10.07.2017 23:06 14,7 °C 14,8 °C 94 % 1010,1 hPa 0,0 mm 0,7 km/h (0 Bft) N-NO 17 ° 0 min 0,000 mm 0,0 UV-I 0 W/m² 13,7 °C 14,7 °C 1,6 km/h (1 Bft)
10.07.2017 23:07 14,8 °C 14,8 °C 94 % 1010,3 hPa 0,0 mm 0,0 km/h (0 Bft) N-NO 17 ° 0 min 0,000 mm 0,0 UV-I 0 W/m² 13,8 °C 14,8 °C 0,0 km/h (0 Bft)
10.07.2017 23:08 14,7 °C 14,8 °C 94 % 1010,3 hPa 0,0 mm 0,0 km/h (0 Bft) N-NO 17 ° 0 min 0,000 mm 0,0 UV-I 0 W/m² 13,7 °C 14,7 °C 0,0 km/h (0 Bft)
10.07.2017 23:09 14,8 °C 14,8 °C 94 % 1010,3 hPa 0,0 mm 2,7 km/h (1 Bft) W 279 ° 0 min 0,000 mm 0,0 UV-I 0 W/m² 13,8 °C 14,8 °C 6,4 km/h (2 Bft)
10.07.2017 23:10 14,8 °C 14,8 °C 94 % 1010,3 hPa 0,0 mm 1,3 km/h (1 Bft) W 279 ° 0 min 0,000 mm 0,0 UV-I 0 W/m² 13,8 °C 14,8 °C 3,2 km/h (1 Bft)
10.07.2017 23:11 14,8 °C 14,8 °C 94 % 1010,3 hPa 0,0 mm 0,0 km/h (0 Bft) W 279 ° 0 min 0,000 mm 0,0 UV-I 0 W/m² 13,8 °C 14,8 °C 0,0 km/h (0 Bft)
10.07.2017 23:12 14,8 °C 14,8 °C 94 % 1010,3 hPa 0,0 mm 0,0 km/h (0 Bft) W 279 ° 0 min 0,000 mm 0,0 UV-I 0 W/m² 13,8 °C 14,8 °C 0,0 km/h (0 Bft)
10.07.2017 23:13 14,7 °C 14,8 °C 94 % 1010,3 hPa 0,0 mm 0,5 km/h (0 Bft) W 279 ° 0 min 0,000 mm 0,0 UV-I 0 W/m² 13,7 °C 14,7 °C 1,6 km/h (1 Bft)
10.07.2017 23:14 14,7 °C 14,8 °C 94 % 1010,3 hPa 0,0 mm 0,1 km/h (0 Bft) W 279 ° 0 min 0,000 mm 0,0 UV-I 0 W/m² 13,7 °C 14,7 °C 1,6 km/h (1 Bft)
10.07.2017 23:15 14,8 °C 14,8 °C 94 % 1010,3 hPa 0,0 mm 0,0 km/h (0 Bft) W 279 ° 0 min 0,000 mm 0,0 UV-I 0 W/m² 13,8 °C 14,8 °C 0,0 km/h (0 Bft)
10.07.2017 23:16 14,8 °C 14,8 °C 94 % 1010,3 hPa 0,0 mm 0,9 km/h (0 Bft) SW 229 ° 0 min 0,000 mm 0,0 UV-I 0 W/m² 13,8 °C 14,8 °C 3,2 km/h (1 Bft)
10.07.2017 23:17 14,8 °C 14,8 °C 94 % 1010,3 hPa 0,0 mm 0,1 km/h (0 Bft) SW 229 ° 0 min 0,000 mm 0,0 UV-I 0 W/m² 13,8 °C 14,8 °C 1,6 km/h (1 Bft)
10.07.2017 23:18 14,8 °C 14,8 °C 94 % 1010,3 hPa 0,0 mm 0,2 km/h (0 Bft) SW 229 ° 0 min 0,000 mm 0,0 UV-I 0 W/m² 13,8 °C 14,8 °C 1,6 km/h (1 Bft)
10.07.2017 23:19 14,8 °C 14,8 °C 94 % 1010,3 hPa 0,0 mm 0,1 km/h (0 Bft) SW 229 ° 0 min 0,000 mm 0,0 UV-I 0 W/m² 13,8 °C 14,8 °C 1,6 km/h (1 Bft)
10.07.2017 23:20 14,8 °C 14,8 °C 94 % 1010,3 hPa 0,0 mm 0,0 km/h (0 Bft) SW 229 ° 0 min 0,000 mm 0,0 UV-I 0 W/m² 13,8 °C 14,8 °C 0,0 km/h (0 Bft)
10.07.2017 23:21 14,7 °C 14,8 °C 94 % 1010,3 hPa 0,0 mm 0,3 km/h (0 Bft) SW 229 ° 0 min 0,000 mm 0,0 UV-I 0 W/m² 13,7 °C 14,7 °C 1,6 km/h (1 Bft)
10.07.2017 23:22 14,7 °C 14,8 °C 94 % 1010,3 hPa 0,0 mm 0,0 km/h (0 Bft) SW 229 ° 0 min 0,000 mm 0,0 UV-I 0 W/m² 13,7 °C 14,7 °C 0,0 km/h (0 Bft)
10.07.2017 23:23 14,8 °C 14,8 °C 94 % 1010,3 hPa 0,0 mm 0,0 km/h (0 Bft) SW 229 ° 0 min 0,000 mm 0,0 UV-I 0 W/m² 13,8 °C 14,8 °C 0,0 km/h (0 Bft)
10.07.2017 23:24 14,7 °C 14,8 °C 94 % 1010,3 hPa 0,0 mm 0,0 km/h (0 Bft) SW 229 ° 0 min 0,000 mm 0,0 UV-I 0 W/m² 13,7 °C 14,7 °C 0,0 km/h (0 Bft)
10.07.2017 23:25 14,7 °C 14,7 °C 94 % 1010,4 hPa 0,0 mm 0,2 km/h (0 Bft) SW 229 ° 0 min 0,000 mm 0,0 UV-I 0 W/m² 13,7 °C 14,7 °C 1,6 km/h (1 Bft)
10.07.2017 23:26 14,7 °C 14,7 °C 94 % 1010,3 hPa 0,0 mm 0,0 km/h (0 Bft) SW 229 ° 0 min 0,000 mm 0,0 UV-I 0 W/m² 13,7 °C 14,7 °C 0,0 km/h (0 Bft)
10.07.2017 23:27 14,7 °C 14,7 °C 94 % 1010,3 hPa 0,0 mm 0,0 km/h (0 Bft) SW 229 ° 0 min 0,000 mm 0,0 UV-I 0 W/m² 13,7 °C 14,7 °C 0,0 km/h (0 Bft)
10.07.2017 23:28 14,7 °C 14,7 °C 94 % 1010,3 hPa 0,0 mm 0,0 km/h (0 Bft) SW 229 ° 0 min 0,000 mm 0,0 UV-I 0 W/m² 13,7 °C 14,7 °C 0,0 km/h (0 Bft)
10.07.2017 23:29 14,7 °C 14,7 °C 94 % 1010,4 hPa 0,0 mm 0,0 km/h (0 Bft) SW 229 ° 0 min 0,000 mm 0,0 UV-I 0 W/m² 13,7 °C 14,7 °C 0,0 km/h (0 Bft)
10.07.2017 23:30 14,7 °C 14,7 °C 94 % 1010,4 hPa 0,0 mm 0,0 km/h (0 Bft) SW 229 ° 0 min 0,000 mm 0,0 UV-I 0 W/m² 13,7 °C 14,7 °C 0,0 km/h (0 Bft)
10.07.2017 23:31 14,7 °C 14,7 °C 94 % 1010,4 hPa 0,0 mm 0,0 km/h (0 Bft) SW 229 ° 0 min 0,000 mm 0,0 UV-I 0 W/m² 13,7 °C 14,7 °C 0,0 km/h (0 Bft)
10.07.2017 23:32 14,7 °C 14,7 °C 94 % 1010,4 hPa 0,0 mm 0,0 km/h (0 Bft) SW 229 ° 0 min 0,000 mm 0,0 UV-I 0 W/m² 13,7 °C 14,7 °C 0,0 km/h (0 Bft)
10.07.2017 23:33 14,7 °C 14,7 °C 94 % 1010,4 hPa 0,0 mm 0,0 km/h (0 Bft) SW 229 ° 0 min 0,000 mm 0,0 UV-I 0 W/m² 13,7 °C 14,7 °C 0,0 km/h (0 Bft)
10.07.2017 23:34 14,7 °C 14,7 °C 94 % 1010,4 hPa 0,0 mm 1,3 km/h (1 Bft) SW 229 ° 0 min 0,000 mm 0,0 UV-I 0 W/m² 13,7 °C 14,7 °C 3,2 km/h (1 Bft)
10.07.2017 23:35 14,7 °C 14,7 °C 95 % 1010,5 hPa 0,0 mm 3,3 km/h (1 Bft) W 260 ° 0 min 0,000 mm 0,0 UV-I 0 W/m² 13,9 °C 14,7 °C 4,8 km/h (1 Bft)
10.07.2017 23:36 14,7 °C 14,7 °C 95 % 1010,5 hPa 0,0 mm 2,5 km/h (1 Bft) SW 236 ° 0 min 0,000 mm 0,0 UV-I 0 W/m² 13,9 °C 14,7 °C 4,8 km/h (1 Bft)
10.07.2017 23:37 14,7 °C 14,8 °C 94 % 1010,5 hPa 0,0 mm 2,5 km/h (1 Bft) W-SW 243 ° 0 min 0,000 mm 0,0 UV-I 0 W/m² 13,7 °C 14,7 °C 3,2 km/h (1 Bft)
10.07.2017 23:38 14,8 °C 14,8 °C 94 % 1010,5 hPa 0,0 mm 2,9 km/h (1 Bft) W 265 ° 0 min 0,000 mm 0,0 UV-I 0 W/m² 13,8 °C 14,8 °C 4,8 km/h (1 Bft)
10.07.2017 23:39 14,8 °C 14,8 °C 94 % 1010,5 hPa 0,0 mm 0,2 km/h (0 Bft) W 265 ° 0 min 0,000 mm 0,0 UV-I 0 W/m² 13,8 °C 14,8 °C 1,6 km/h (1 Bft)
10.07.2017 23:40 14,8 °C 14,8 °C 94 % 1010,5 hPa 0,0 mm 1,7 km/h (1 Bft) W 268 ° 0 min 0,000 mm 0,0 UV-I 0 W/m² 13,8 °C 14,8 °C 4,8 km/h (1 Bft)
10.07.2017 23:41 14,8 °C 14,8 °C 94 % 1010,6 hPa 0,0 mm 6,5 km/h (2 Bft) W 271 ° 0 min 0,000 mm 0,0 UV-I 0 W/m² 13,8 °C 14,8 °C 11,3 km/h (2 Bft)
10.07.2017 23:42 14,9 °C 14,9 °C 94 % 1010,6 hPa 0,0 mm 12,0 km/h (2 Bft) W-SW 258 ° 0 min 0,000 mm 0,0 UV-I 0 W/m² 13,9 °C 14,9 °C 14,5 km/h (3 Bft)
10.07.2017 23:43 14,9 °C 14,9 °C 94 % 1010,8 hPa 0,0 mm 9,7 km/h (2 Bft) W 261 ° 0 min 0,000 mm 0,0 UV-I 0 W/m² 13,9 °C 14,9 °C 12,9 km/h (3 Bft)
10.07.2017 23:44 14,9 °C 14,9 °C 94 % 1010,8 hPa 0,0 mm 8,8 km/h (2 Bft) W 267 ° 0 min 0,000 mm 0,0 UV-I 0 W/m² 13,9 °C 14,9 °C 14,5 km/h (3 Bft)
10.07.2017 23:45 15,0 °C 15,0 °C 93 % 1010,8 hPa 0,0 mm 7,0 km/h (2 Bft) W 268 ° 0 min 0,000 mm 0,0 UV-I 0 W/m² 13,9 °C 15,0 °C 11,3 km/h (2 Bft)
10.07.2017 23:46 15,0 °C 15,0 °C 93 % 1010,9 hPa 0,0 mm 3,1 km/h (1 Bft) SW 236 ° 0 min 0,000 mm 0,0 UV-I 0 W/m² 13,9 °C 15,0 °C 4,8 km/h (1 Bft)
10.07.2017 23:47 15,0 °C 15,0 °C 93 % 1010,8 hPa 0,0 mm 1,3 km/h (1 Bft) SW 220 ° 0 min 0,000 mm 0,0 UV-I 0 W/m² 13,9 °C 15,0 °C 3,2 km/h (1 Bft)
10.07.2017 23:48 15,0 °C 15,0 °C 93 % 1010,8 hPa 0,0 mm 6,9 km/h (2 Bft) S-SW 201 ° 0 min 0,000 mm 0,0 UV-I 0 W/m² 13,9 °C 15,0 °C 11,3 km/h (2 Bft)
10.07.2017 23:49 15,1 °C 15,1 °C 93 % 1010,8 hPa 0,0 mm 3,3 km/h (1 Bft) S-SW 209 ° 0 min 0,000 mm 0,0 UV-I 0 W/m² 14,0 °C 15,1 °C 6,4 km/h (2 Bft)
10.07.2017 23:50 15,1 °C 15,1 °C 93 % 1010,8 hPa 0,0 mm 2,4 km/h (1 Bft) S 173 ° 0 min 0,000 mm 0,0 UV-I 0 W/m² 14,0 °C 15,1 °C 4,8 km/h (1 Bft)
10.07.2017 23:51 15,1 °C 15,1 °C 93 % 1010,8 hPa 0,0 mm 0,3 km/h (0 Bft) S 173 ° 0 min 0,000 mm 0,0 UV-I 0 W/m² 14,0 °C 15,1 °C 1,6 km/h (1 Bft)
10.07.2017 23:52 15,1 °C 15,1 °C 93 % 1010,7 hPa 0,0 mm 0,4 km/h (0 Bft) S 173 ° 0 min 0,000 mm 0,0 UV-I 0 W/m² 14,0 °C 15,1 °C 1,6 km/h (1 Bft)
10.07.2017 23:53 15,0 °C 15,1 °C 93 % 1010,8 hPa 0,0 mm 0,0 km/h (0 Bft) S 173 ° 0 min 0,000 mm 0,0 UV-I 0 W/m² 13,9 °C 15,0 °C 0,0 km/h (0 Bft)
10.07.2017 23:54 15,0 °C 15,0 °C 92 % 1010,8 hPa 0,0 mm 0,0 km/h (0 Bft) S 173 ° 0 min 0,000 mm 0,0 UV-I 0 W/m² 13,7 °C 15,0 °C 0,0 km/h (0 Bft)
10.07.2017 23:55 15,0 °C 15,1 °C 93 % 1010,8 hPa 0,0 mm 0,3 km/h (0 Bft) SW 226 ° 0 min 0,000 mm 0,0 UV-I 0 W/m² 13,9 °C 15,0 °C 3,2 km/h (1 Bft)
10.07.2017 23:56 15,1 °C 15,1 °C 93 % 1010,8 hPa 0,0 mm 3,2 km/h (1 Bft) SW 229 ° 0 min 0,000 mm 0,0 UV-I 0 W/m² 14,0 °C 15,1 °C 4,8 km/h (1 Bft)
10.07.2017 23:57 15,1 °C 15,1 °C 92 % 1010,8 hPa 0,0 mm 0,0 km/h (0 Bft) SW 229 ° 0 min 0,000 mm 0,0 UV-I 0 W/m² 13,8 °C 15,1 °C 0,0 km/h (0 Bft)
10.07.2017 23:58 15,1 °C 15,2 °C 92 % 1010,8 hPa 0,0 mm 3,0 km/h (1 Bft) W-SW 249 ° 0 min 0,000 mm 0,0 UV-I 0 W/m² 13,8 °C 15,1 °C 4,8 km/h (1 Bft)
10.07.2017 23:59 15,1 °C 15,2 °C 92 % 1010,8 hPa 0,0 mm 1,5 km/h (1 Bft) S-SW 207 ° 0 min 0,000 mm 0,0 UV-I 0 W/m² 13,8 °C 15,1 °C 3,2 km/h (1 Bft)
_ Min-Zeit 23:37 23:36 14:05 03:30 - 23:57 - - - - - - 02:48 23:37 23:57
Minimum _ 14,7 °C 14,7 °C 63 % 1007,5 hPa - 0,0 km/h (0 Bft) - - - - - - 13,5 °C 14,7 °C 0,0 km/h (0 Bft)
_ Max-Zeit 13:58 13:59 23:36 23:46 22:39 14:12 - - 16:27 14:00 13:53 12:34 13:54 13:58 13:08
Maximum _ 24,1 °C 24,1 °C 95 % 1010,9 hPa 0,2 mm 16,0 km/h
W (3 Bft)
- - 1 min 0,406 mm 8,5 UV-I 1190 W/m² 18,2 °C 24,1 °C 24,1 km/h
W-NW (4 Bft)
Durchschnitt _ 18,2 °C 18,2 °C 84 % 1008,9 hPa #4,2 mm 3,2 km/h (1 Bft) W - #3:46 h #2,210 mm 2,6 UV-I 137 W/m² 15,3 °C 18,2 °C 5,6 km/h (1 Bft)